<?xml version="1.0" encoding="UTF-8" standalone="no" ?>
<gpx xmlns="http://www.topografix.com/GPX/1/1" xmlns:xsi="http://www.w3.org/2001/XMLSchema-instance" xsi:schemaLocation="http://www.topografix.com/GPX/1/1 http://www.topografix.com/GPX/1/1/gpx.xsd" version="1.1" creator="VisuGPX - https://www.visugpx.com">
  <metadata>
    <name>Champagnat Cyclisme sur route</name>
  </metadata>
  <trk>
    <name><![CDATA[Champagnat Cyclisme sur route]]></name>
    <trkseg>
      <trkpt lat="46.48722" lon="5.382">
        <ele>296.39999389648</ele>
        <time>2021-03-06T11:49:19.000Z</time>
      </trkpt>
      <trkpt lat="46.48735" lon="5.38212">
        <ele>294.79998779297</ele>
        <time>2021-03-06T11:49:20.000Z</time>
      </trkpt>
      <trkpt lat="46.48753" lon="5.38234">
        <ele>292.79998779297</ele>
        <time>2021-03-06T11:49:22.000Z</time>
      </trkpt>
      <trkpt lat="46.48773" lon="5.38257">
        <ele>291.20001220703</ele>
        <time>2021-03-06T11:49:24.000Z</time>
      </trkpt>
      <trkpt lat="46.48794" lon="5.38276">
        <ele>289.39999389648</ele>
        <time>2021-03-06T11:49:26.000Z</time>
      </trkpt>
      <trkpt lat="46.48805" lon="5.38285">
        <ele>288.60000610352</ele>
        <time>2021-03-06T11:49:27.000Z</time>
      </trkpt>
      <trkpt lat="46.48817" lon="5.38293">
        <ele>288.20001220703</ele>
        <time>2021-03-06T11:49:28.000Z</time>
      </trkpt>
      <trkpt lat="46.48828" lon="5.38301">
        <ele>286.79998779297</ele>
        <time>2021-03-06T11:49:29.000Z</time>
      </trkpt>
      <trkpt lat="46.4885" lon="5.38319">
        <ele>285.20001220703</ele>
        <time>2021-03-06T11:49:31.000Z</time>
      </trkpt>
      <trkpt lat="46.48873" lon="5.38337">
        <ele>283.39999389648</ele>
        <time>2021-03-06T11:49:33.000Z</time>
      </trkpt>
      <trkpt lat="46.48899" lon="5.38351">
        <ele>280.79998779297</ele>
        <time>2021-03-06T11:49:35.000Z</time>
      </trkpt>
      <trkpt lat="46.48919" lon="5.38364">
        <ele>279.39999389648</ele>
        <time>2021-03-06T11:49:37.000Z</time>
      </trkpt>
      <trkpt lat="46.48939" lon="5.38386">
        <ele>278</ele>
        <time>2021-03-06T11:49:39.000Z</time>
      </trkpt>
      <trkpt lat="46.4895" lon="5.38419">
        <ele>277</ele>
        <time>2021-03-06T11:49:41.000Z</time>
      </trkpt>
      <trkpt lat="46.48954" lon="5.38434">
        <ele>275.60000610352</ele>
        <time>2021-03-06T11:49:42.000Z</time>
      </trkpt>
      <trkpt lat="46.48957" lon="5.38449">
        <ele>275</ele>
        <time>2021-03-06T11:49:43.000Z</time>
      </trkpt>
      <trkpt lat="46.48969" lon="5.38472">
        <ele>274.79998779297</ele>
        <time>2021-03-06T11:49:45.000Z</time>
      </trkpt>
      <trkpt lat="46.48976" lon="5.38481">
        <ele>274.60000610352</ele>
        <time>2021-03-06T11:49:46.000Z</time>
      </trkpt>
      <trkpt lat="46.48983" lon="5.38487">
        <ele>274.60000610352</ele>
        <time>2021-03-06T11:49:47.000Z</time>
      </trkpt>
      <trkpt lat="46.48993" lon="5.38493">
        <ele>274.39999389648</ele>
        <time>2021-03-06T11:49:48.000Z</time>
      </trkpt>
      <trkpt lat="46.4904" lon="5.38512">
        <ele>273.79998779297</ele>
        <time>2021-03-06T11:49:53.000Z</time>
      </trkpt>
      <trkpt lat="46.4906" lon="5.38516">
        <ele>273.60000610352</ele>
        <time>2021-03-06T11:49:55.000Z</time>
      </trkpt>
      <trkpt lat="46.49087" lon="5.38521">
        <ele>272.39999389648</ele>
        <time>2021-03-06T11:49:58.000Z</time>
      </trkpt>
      <trkpt lat="46.49095" lon="5.38522">
        <ele>272</ele>
        <time>2021-03-06T11:49:59.000Z</time>
      </trkpt>
      <trkpt lat="46.49142" lon="5.38532">
        <ele>271.79998779297</ele>
        <time>2021-03-06T11:50:05.000Z</time>
      </trkpt>
      <trkpt lat="46.49154" lon="5.38538">
        <ele>272</ele>
        <time>2021-03-06T11:50:07.000Z</time>
      </trkpt>
      <trkpt lat="46.4916" lon="5.38539">
        <ele>272.20001220703</ele>
        <time>2021-03-06T11:50:08.000Z</time>
      </trkpt>
      <trkpt lat="46.49166" lon="5.3854">
        <ele>272.20001220703</ele>
        <time>2021-03-06T11:50:09.000Z</time>
      </trkpt>
      <trkpt lat="46.49171" lon="5.3854">
        <ele>272.20001220703</ele>
        <time>2021-03-06T11:50:10.000Z</time>
      </trkpt>
      <trkpt lat="46.49178" lon="5.38545">
        <ele>272.39999389648</ele>
        <time>2021-03-06T11:50:12.000Z</time>
      </trkpt>
      <trkpt lat="46.49187" lon="5.38577">
        <ele>273.79998779297</ele>
        <time>2021-03-06T11:50:17.000Z</time>
      </trkpt>
      <trkpt lat="46.49191" lon="5.38589">
        <ele>274.60000610352</ele>
        <time>2021-03-06T11:50:19.000Z</time>
      </trkpt>
      <trkpt lat="46.49195" lon="5.38601">
        <ele>275.20001220703</ele>
        <time>2021-03-06T11:50:21.000Z</time>
      </trkpt>
      <trkpt lat="46.49198" lon="5.38606">
        <ele>275.39999389648</ele>
        <time>2021-03-06T11:50:22.000Z</time>
      </trkpt>
      <trkpt lat="46.49201" lon="5.3861">
        <ele>276</ele>
        <time>2021-03-06T11:50:23.000Z</time>
      </trkpt>
      <trkpt lat="46.49203" lon="5.38614">
        <ele>276.20001220703</ele>
        <time>2021-03-06T11:50:24.000Z</time>
      </trkpt>
      <trkpt lat="46.49206" lon="5.38619">
        <ele>276.39999389648</ele>
        <time>2021-03-06T11:50:25.000Z</time>
      </trkpt>
      <trkpt lat="46.49208" lon="5.38624">
        <ele>276.79998779297</ele>
        <time>2021-03-06T11:50:26.000Z</time>
      </trkpt>
      <trkpt lat="46.49209" lon="5.3863">
        <ele>276.79998779297</ele>
        <time>2021-03-06T11:50:27.000Z</time>
      </trkpt>
      <trkpt lat="46.4921" lon="5.38643">
        <ele>277.20001220703</ele>
        <time>2021-03-06T11:50:29.000Z</time>
      </trkpt>
      <trkpt lat="46.49213" lon="5.38664">
        <ele>278.20001220703</ele>
        <time>2021-03-06T11:50:32.000Z</time>
      </trkpt>
      <trkpt lat="46.49214" lon="5.38671">
        <ele>278.39999389648</ele>
        <time>2021-03-06T11:50:33.000Z</time>
      </trkpt>
      <trkpt lat="46.49215" lon="5.38676">
        <ele>278.39999389648</ele>
        <time>2021-03-06T11:50:34.000Z</time>
      </trkpt>
      <trkpt lat="46.49221" lon="5.38689">
        <ele>278.79998779297</ele>
        <time>2021-03-06T11:50:36.000Z</time>
      </trkpt>
      <trkpt lat="46.49224" lon="5.38694">
        <ele>279</ele>
        <time>2021-03-06T11:50:37.000Z</time>
      </trkpt>
      <trkpt lat="46.49228" lon="5.38698">
        <ele>279</ele>
        <time>2021-03-06T11:50:38.000Z</time>
      </trkpt>
      <trkpt lat="46.49237" lon="5.38704">
        <ele>279.20001220703</ele>
        <time>2021-03-06T11:50:40.000Z</time>
      </trkpt>
      <trkpt lat="46.49241" lon="5.38707">
        <ele>279.20001220703</ele>
        <time>2021-03-06T11:50:41.000Z</time>
      </trkpt>
      <trkpt lat="46.49246" lon="5.3871">
        <ele>279.39999389648</ele>
        <time>2021-03-06T11:50:42.000Z</time>
      </trkpt>
      <trkpt lat="46.49253" lon="5.38715">
        <ele>279.60000610352</ele>
        <time>2021-03-06T11:50:44.000Z</time>
      </trkpt>
      <trkpt lat="46.49274" lon="5.38727">
        <ele>280.20001220703</ele>
        <time>2021-03-06T11:50:48.000Z</time>
      </trkpt>
      <trkpt lat="46.49279" lon="5.38729">
        <ele>280.39999389648</ele>
        <time>2021-03-06T11:50:49.000Z</time>
      </trkpt>
      <trkpt lat="46.49307" lon="5.38739">
        <ele>281.39999389648</ele>
        <time>2021-03-06T11:50:55.000Z</time>
      </trkpt>
      <trkpt lat="46.49311" lon="5.38741">
        <ele>281.60000610352</ele>
        <time>2021-03-06T11:50:56.000Z</time>
      </trkpt>
      <trkpt lat="46.49334" lon="5.38748">
        <ele>282.20001220703</ele>
        <time>2021-03-06T11:51:01.000Z</time>
      </trkpt>
      <trkpt lat="46.49339" lon="5.3875">
        <ele>282.39999389648</ele>
        <time>2021-03-06T11:51:02.000Z</time>
      </trkpt>
      <trkpt lat="46.49354" lon="5.38756">
        <ele>283.20001220703</ele>
        <time>2021-03-06T11:51:05.000Z</time>
      </trkpt>
      <trkpt lat="46.49359" lon="5.38757">
        <ele>283.39999389648</ele>
        <time>2021-03-06T11:51:06.000Z</time>
      </trkpt>
      <trkpt lat="46.4938" lon="5.38763">
        <ele>284</ele>
        <time>2021-03-06T11:51:10.000Z</time>
      </trkpt>
      <trkpt lat="46.49394" lon="5.38768">
        <ele>284.20001220703</ele>
        <time>2021-03-06T11:51:13.000Z</time>
      </trkpt>
      <trkpt lat="46.49412" lon="5.38772">
        <ele>284.39999389648</ele>
        <time>2021-03-06T11:51:17.000Z</time>
      </trkpt>
      <trkpt lat="46.49436" lon="5.38777">
        <ele>285.20001220703</ele>
        <time>2021-03-06T11:51:22.000Z</time>
      </trkpt>
      <trkpt lat="46.49451" lon="5.38781">
        <ele>285.60000610352</ele>
        <time>2021-03-06T11:51:25.000Z</time>
      </trkpt>
      <trkpt lat="46.49471" lon="5.38784">
        <ele>286</ele>
        <time>2021-03-06T11:51:29.000Z</time>
      </trkpt>
      <trkpt lat="46.49504" lon="5.38789">
        <ele>285.79998779297</ele>
        <time>2021-03-06T11:51:34.000Z</time>
      </trkpt>
      <trkpt lat="46.49517" lon="5.38792">
        <ele>285.79998779297</ele>
        <time>2021-03-06T11:51:36.000Z</time>
      </trkpt>
      <trkpt lat="46.49538" lon="5.38796">
        <ele>285.39999389648</ele>
        <time>2021-03-06T11:51:39.000Z</time>
      </trkpt>
      <trkpt lat="46.49575" lon="5.38804">
        <ele>284.60000610352</ele>
        <time>2021-03-06T11:51:44.000Z</time>
      </trkpt>
      <trkpt lat="46.49604" lon="5.38804">
        <ele>284.20001220703</ele>
        <time>2021-03-06T11:51:48.000Z</time>
      </trkpt>
      <trkpt lat="46.4961" lon="5.38803">
        <ele>284</ele>
        <time>2021-03-06T11:51:49.000Z</time>
      </trkpt>
      <trkpt lat="46.49639" lon="5.38794">
        <ele>283.60000610352</ele>
        <time>2021-03-06T11:51:53.000Z</time>
      </trkpt>
      <trkpt lat="46.49647" lon="5.38793">
        <ele>283.60000610352</ele>
        <time>2021-03-06T11:51:54.000Z</time>
      </trkpt>
      <trkpt lat="46.49662" lon="5.3879">
        <ele>283</ele>
        <time>2021-03-06T11:51:56.000Z</time>
      </trkpt>
      <trkpt lat="46.49684" lon="5.38785">
        <ele>282</ele>
        <time>2021-03-06T11:51:59.000Z</time>
      </trkpt>
      <trkpt lat="46.49715" lon="5.38778">
        <ele>281.20001220703</ele>
        <time>2021-03-06T11:52:03.000Z</time>
      </trkpt>
      <trkpt lat="46.49723" lon="5.38777">
        <ele>281</ele>
        <time>2021-03-06T11:52:04.000Z</time>
      </trkpt>
      <trkpt lat="46.4973" lon="5.38777">
        <ele>281</ele>
        <time>2021-03-06T11:52:05.000Z</time>
      </trkpt>
      <trkpt lat="46.49745" lon="5.38773">
        <ele>280.79998779297</ele>
        <time>2021-03-06T11:52:07.000Z</time>
      </trkpt>
      <trkpt lat="46.49795" lon="5.38763">
        <ele>280.79998779297</ele>
        <time>2021-03-06T11:52:14.000Z</time>
      </trkpt>
      <trkpt lat="46.49832" lon="5.38755">
        <ele>281.60000610352</ele>
        <time>2021-03-06T11:52:20.000Z</time>
      </trkpt>
      <trkpt lat="46.49836" lon="5.38754">
        <ele>282</ele>
        <time>2021-03-06T11:52:21.000Z</time>
      </trkpt>
      <trkpt lat="46.49871" lon="5.38747">
        <ele>283.20001220703</ele>
        <time>2021-03-06T11:52:27.000Z</time>
      </trkpt>
      <trkpt lat="46.49877" lon="5.38746">
        <ele>283.20001220703</ele>
        <time>2021-03-06T11:52:28.000Z</time>
      </trkpt>
      <trkpt lat="46.49924" lon="5.38736">
        <ele>284.20001220703</ele>
        <time>2021-03-06T11:52:36.000Z</time>
      </trkpt>
      <trkpt lat="46.49944" lon="5.38732">
        <ele>284.20001220703</ele>
        <time>2021-03-06T11:52:39.000Z</time>
      </trkpt>
      <trkpt lat="46.50002" lon="5.38721">
        <ele>283.20001220703</ele>
        <time>2021-03-06T11:52:47.000Z</time>
      </trkpt>
      <trkpt lat="46.5001" lon="5.3872">
        <ele>282.60000610352</ele>
        <time>2021-03-06T11:52:48.000Z</time>
      </trkpt>
      <trkpt lat="46.5004" lon="5.38714">
        <ele>281.39999389648</ele>
        <time>2021-03-06T11:52:52.000Z</time>
      </trkpt>
      <trkpt lat="46.50055" lon="5.38711">
        <ele>280.79998779297</ele>
        <time>2021-03-06T11:52:54.000Z</time>
      </trkpt>
      <trkpt lat="46.50078" lon="5.38707">
        <ele>280.39999389648</ele>
        <time>2021-03-06T11:52:57.000Z</time>
      </trkpt>
      <trkpt lat="46.50107" lon="5.38703">
        <ele>280.20001220703</ele>
        <time>2021-03-06T11:53:01.000Z</time>
      </trkpt>
      <trkpt lat="46.50121" lon="5.38704">
        <ele>280.20001220703</ele>
        <time>2021-03-06T11:53:03.000Z</time>
      </trkpt>
      <trkpt lat="46.50134" lon="5.3871">
        <ele>280.20001220703</ele>
        <time>2021-03-06T11:53:05.000Z</time>
      </trkpt>
      <trkpt lat="46.50139" lon="5.38711">
        <ele>280.60000610352</ele>
        <time>2021-03-06T11:53:06.000Z</time>
      </trkpt>
      <trkpt lat="46.50145" lon="5.38709">
        <ele>280.60000610352</ele>
        <time>2021-03-06T11:53:07.000Z</time>
      </trkpt>
      <trkpt lat="46.50153" lon="5.38698">
        <ele>281</ele>
        <time>2021-03-06T11:53:09.000Z</time>
      </trkpt>
      <trkpt lat="46.50152" lon="5.38679">
        <ele>281</ele>
        <time>2021-03-06T11:53:11.000Z</time>
      </trkpt>
      <trkpt lat="46.50147" lon="5.38659">
        <ele>281</ele>
        <time>2021-03-06T11:53:13.000Z</time>
      </trkpt>
      <trkpt lat="46.50146" lon="5.38648">
        <ele>281</ele>
        <time>2021-03-06T11:53:14.000Z</time>
      </trkpt>
      <trkpt lat="46.50146" lon="5.38636">
        <ele>281</ele>
        <time>2021-03-06T11:53:15.000Z</time>
      </trkpt>
      <trkpt lat="46.5015" lon="5.38611">
        <ele>280.39999389648</ele>
        <time>2021-03-06T11:53:17.000Z</time>
      </trkpt>
      <trkpt lat="46.50167" lon="5.38561">
        <ele>279.20001220703</ele>
        <time>2021-03-06T11:53:21.000Z</time>
      </trkpt>
      <trkpt lat="46.50174" lon="5.38535">
        <ele>277.79998779297</ele>
        <time>2021-03-06T11:53:23.000Z</time>
      </trkpt>
      <trkpt lat="46.50182" lon="5.3851">
        <ele>276</ele>
        <time>2021-03-06T11:53:25.000Z</time>
      </trkpt>
      <trkpt lat="46.50194" lon="5.38471">
        <ele>275</ele>
        <time>2021-03-06T11:53:28.000Z</time>
      </trkpt>
      <trkpt lat="46.50206" lon="5.38431">
        <ele>273.60000610352</ele>
        <time>2021-03-06T11:53:31.000Z</time>
      </trkpt>
      <trkpt lat="46.50214" lon="5.38406">
        <ele>272.39999389648</ele>
        <time>2021-03-06T11:53:33.000Z</time>
      </trkpt>
      <trkpt lat="46.50217" lon="5.38396">
        <ele>271.79998779297</ele>
        <time>2021-03-06T11:53:34.000Z</time>
      </trkpt>
      <trkpt lat="46.50221" lon="5.38388">
        <ele>271.39999389648</ele>
        <time>2021-03-06T11:53:35.000Z</time>
      </trkpt>
      <trkpt lat="46.50226" lon="5.38383">
        <ele>270.79998779297</ele>
        <time>2021-03-06T11:53:36.000Z</time>
      </trkpt>
      <trkpt lat="46.50237" lon="5.38386">
        <ele>270</ele>
        <time>2021-03-06T11:53:38.000Z</time>
      </trkpt>
      <trkpt lat="46.50261" lon="5.38416">
        <ele>268.79998779297</ele>
        <time>2021-03-06T11:53:43.000Z</time>
      </trkpt>
      <trkpt lat="46.50268" lon="5.38424">
        <ele>268.60000610352</ele>
        <time>2021-03-06T11:53:44.000Z</time>
      </trkpt>
      <trkpt lat="46.50297" lon="5.38458">
        <ele>268.20001220703</ele>
        <time>2021-03-06T11:53:50.000Z</time>
      </trkpt>
      <trkpt lat="46.50305" lon="5.38469">
        <ele>268.20001220703</ele>
        <time>2021-03-06T11:53:52.000Z</time>
      </trkpt>
      <trkpt lat="46.50321" lon="5.38493">
        <ele>269.39999389648</ele>
        <time>2021-03-06T11:53:56.000Z</time>
      </trkpt>
      <trkpt lat="46.50324" lon="5.38498">
        <ele>270</ele>
        <time>2021-03-06T11:53:57.000Z</time>
      </trkpt>
      <trkpt lat="46.50345" lon="5.38525">
        <ele>271.20001220703</ele>
        <time>2021-03-06T11:54:02.000Z</time>
      </trkpt>
      <trkpt lat="46.50361" lon="5.38542">
        <ele>272.20001220703</ele>
        <time>2021-03-06T11:54:06.000Z</time>
      </trkpt>
      <trkpt lat="46.50366" lon="5.38546">
        <ele>272.20001220703</ele>
        <time>2021-03-06T11:54:07.000Z</time>
      </trkpt>
      <trkpt lat="46.50405" lon="5.38574">
        <ele>272.60000610352</ele>
        <time>2021-03-06T11:54:14.000Z</time>
      </trkpt>
      <trkpt lat="46.50446" lon="5.38606">
        <ele>271.79998779297</ele>
        <time>2021-03-06T11:54:20.000Z</time>
      </trkpt>
      <trkpt lat="46.50453" lon="5.38613">
        <ele>271.20001220703</ele>
        <time>2021-03-06T11:54:21.000Z</time>
      </trkpt>
      <trkpt lat="46.50483" lon="5.38632">
        <ele>269.79998779297</ele>
        <time>2021-03-06T11:54:24.000Z</time>
      </trkpt>
      <trkpt lat="46.50506" lon="5.3864">
        <ele>267.79998779297</ele>
        <time>2021-03-06T11:54:26.000Z</time>
      </trkpt>
      <trkpt lat="46.50528" lon="5.38648">
        <ele>265</ele>
        <time>2021-03-06T11:54:28.000Z</time>
      </trkpt>
      <trkpt lat="46.50539" lon="5.38651">
        <ele>264.39999389648</ele>
        <time>2021-03-06T11:54:29.000Z</time>
      </trkpt>
      <trkpt lat="46.50551" lon="5.38654">
        <ele>262.79998779297</ele>
        <time>2021-03-06T11:54:30.000Z</time>
      </trkpt>
      <trkpt lat="46.50562" lon="5.38656">
        <ele>261.20001220703</ele>
        <time>2021-03-06T11:54:31.000Z</time>
      </trkpt>
      <trkpt lat="46.50584" lon="5.38662">
        <ele>259.20001220703</ele>
        <time>2021-03-06T11:54:33.000Z</time>
      </trkpt>
      <trkpt lat="46.50605" lon="5.38665">
        <ele>257.79998779297</ele>
        <time>2021-03-06T11:54:35.000Z</time>
      </trkpt>
      <trkpt lat="46.50618" lon="5.38668">
        <ele>257.60000610352</ele>
        <time>2021-03-06T11:54:36.000Z</time>
      </trkpt>
      <trkpt lat="46.50626" lon="5.3867">
        <ele>256.79998779297</ele>
        <time>2021-03-06T11:54:37.000Z</time>
      </trkpt>
      <trkpt lat="46.50663" lon="5.38684">
        <ele>256</ele>
        <time>2021-03-06T11:54:41.000Z</time>
      </trkpt>
      <trkpt lat="46.50702" lon="5.38701">
        <ele>257.20001220703</ele>
        <time>2021-03-06T11:54:46.000Z</time>
      </trkpt>
      <trkpt lat="46.50708" lon="5.38704">
        <ele>258.20001220703</ele>
        <time>2021-03-06T11:54:47.000Z</time>
      </trkpt>
      <trkpt lat="46.50727" lon="5.38712">
        <ele>259.20001220703</ele>
        <time>2021-03-06T11:54:50.000Z</time>
      </trkpt>
      <trkpt lat="46.50746" lon="5.38717">
        <ele>260.79998779297</ele>
        <time>2021-03-06T11:54:53.000Z</time>
      </trkpt>
      <trkpt lat="46.50789" lon="5.38725">
        <ele>261.79998779297</ele>
        <time>2021-03-06T11:54:59.000Z</time>
      </trkpt>
      <trkpt lat="46.50848" lon="5.38736">
        <ele>260.39999389648</ele>
        <time>2021-03-06T11:55:06.000Z</time>
      </trkpt>
      <trkpt lat="46.50856" lon="5.38738">
        <ele>260.20001220703</ele>
        <time>2021-03-06T11:55:07.000Z</time>
      </trkpt>
      <trkpt lat="46.50916" lon="5.38752">
        <ele>260</ele>
        <time>2021-03-06T11:55:15.000Z</time>
      </trkpt>
      <trkpt lat="46.50964" lon="5.38763">
        <ele>260.39999389648</ele>
        <time>2021-03-06T11:55:22.000Z</time>
      </trkpt>
      <trkpt lat="46.51022" lon="5.38774">
        <ele>261.20001220703</ele>
        <time>2021-03-06T11:55:30.000Z</time>
      </trkpt>
      <trkpt lat="46.51048" lon="5.38779">
        <ele>261.39999389648</ele>
        <time>2021-03-06T11:55:34.000Z</time>
      </trkpt>
      <trkpt lat="46.51078" lon="5.38786">
        <ele>262.20001220703</ele>
        <time>2021-03-06T11:55:39.000Z</time>
      </trkpt>
      <trkpt lat="46.51094" lon="5.3879">
        <ele>262.60000610352</ele>
        <time>2021-03-06T11:55:42.000Z</time>
      </trkpt>
      <trkpt lat="46.5111" lon="5.38792">
        <ele>263.20001220703</ele>
        <time>2021-03-06T11:55:45.000Z</time>
      </trkpt>
      <trkpt lat="46.51132" lon="5.38794">
        <ele>264.60000610352</ele>
        <time>2021-03-06T11:55:49.000Z</time>
      </trkpt>
      <trkpt lat="46.51155" lon="5.38795">
        <ele>265.60000610352</ele>
        <time>2021-03-06T11:55:54.000Z</time>
      </trkpt>
      <trkpt lat="46.51174" lon="5.38795">
        <ele>266.79998779297</ele>
        <time>2021-03-06T11:55:58.000Z</time>
      </trkpt>
      <trkpt lat="46.51195" lon="5.38795">
        <ele>268</ele>
        <time>2021-03-06T11:56:02.000Z</time>
      </trkpt>
      <trkpt lat="46.51211" lon="5.38798">
        <ele>268.39999389648</ele>
        <time>2021-03-06T11:56:05.000Z</time>
      </trkpt>
      <trkpt lat="46.51217" lon="5.38798">
        <ele>268.60000610352</ele>
        <time>2021-03-06T11:56:06.000Z</time>
      </trkpt>
      <trkpt lat="46.51233" lon="5.388">
        <ele>269</ele>
        <time>2021-03-06T11:56:09.000Z</time>
      </trkpt>
      <trkpt lat="46.51245" lon="5.38801">
        <ele>269</ele>
        <time>2021-03-06T11:56:11.000Z</time>
      </trkpt>
      <trkpt lat="46.51297" lon="5.38804">
        <ele>268.79998779297</ele>
        <time>2021-03-06T11:56:19.000Z</time>
      </trkpt>
      <trkpt lat="46.51338" lon="5.38806">
        <ele>267.79998779297</ele>
        <time>2021-03-06T11:56:25.000Z</time>
      </trkpt>
      <trkpt lat="46.51345" lon="5.38806">
        <ele>267.79998779297</ele>
        <time>2021-03-06T11:56:26.000Z</time>
      </trkpt>
      <trkpt lat="46.51405" lon="5.38812">
        <ele>266.79998779297</ele>
        <time>2021-03-06T11:56:34.000Z</time>
      </trkpt>
      <trkpt lat="46.51414" lon="5.38812">
        <ele>266.60000610352</ele>
        <time>2021-03-06T11:56:35.000Z</time>
      </trkpt>
      <trkpt lat="46.51442" lon="5.38806">
        <ele>265.60000610352</ele>
        <time>2021-03-06T11:56:38.000Z</time>
      </trkpt>
      <trkpt lat="46.51467" lon="5.38802">
        <ele>264.20001220703</ele>
        <time>2021-03-06T11:56:40.000Z</time>
      </trkpt>
      <trkpt lat="46.51478" lon="5.38802">
        <ele>262.79998779297</ele>
        <time>2021-03-06T11:56:41.000Z</time>
      </trkpt>
      <trkpt lat="46.51486" lon="5.38803">
        <ele>261.60000610352</ele>
        <time>2021-03-06T11:56:42.000Z</time>
      </trkpt>
      <trkpt lat="46.51497" lon="5.38804">
        <ele>259.60000610352</ele>
        <time>2021-03-06T11:56:43.000Z</time>
      </trkpt>
      <trkpt lat="46.51519" lon="5.38806">
        <ele>258.39999389648</ele>
        <time>2021-03-06T11:56:45.000Z</time>
      </trkpt>
      <trkpt lat="46.51535" lon="5.38807">
        <ele>258</ele>
        <time>2021-03-06T11:56:47.000Z</time>
      </trkpt>
      <trkpt lat="46.51574" lon="5.38805">
        <ele>258</ele>
        <time>2021-03-06T11:56:52.000Z</time>
      </trkpt>
      <trkpt lat="46.51599" lon="5.388">
        <ele>259.39999389648</ele>
        <time>2021-03-06T11:56:56.000Z</time>
      </trkpt>
      <trkpt lat="46.51611" lon="5.38798">
        <ele>260.39999389648</ele>
        <time>2021-03-06T11:56:58.000Z</time>
      </trkpt>
      <trkpt lat="46.51617" lon="5.38797">
        <ele>261</ele>
        <time>2021-03-06T11:56:59.000Z</time>
      </trkpt>
      <trkpt lat="46.51639" lon="5.38791">
        <ele>262.20001220703</ele>
        <time>2021-03-06T11:57:03.000Z</time>
      </trkpt>
      <trkpt lat="46.51659" lon="5.38786">
        <ele>263.20001220703</ele>
        <time>2021-03-06T11:57:07.000Z</time>
      </trkpt>
      <trkpt lat="46.51664" lon="5.38785">
        <ele>263.39999389648</ele>
        <time>2021-03-06T11:57:08.000Z</time>
      </trkpt>
      <trkpt lat="46.51674" lon="5.38784">
        <ele>264.60000610352</ele>
        <time>2021-03-06T11:57:10.000Z</time>
      </trkpt>
      <trkpt lat="46.51688" lon="5.38784">
        <ele>265.39999389648</ele>
        <time>2021-03-06T11:57:13.000Z</time>
      </trkpt>
      <trkpt lat="46.51694" lon="5.3879">
        <ele>265.79998779297</ele>
        <time>2021-03-06T11:57:15.000Z</time>
      </trkpt>
      <trkpt lat="46.51696" lon="5.38795">
        <ele>266</ele>
        <time>2021-03-06T11:57:16.000Z</time>
      </trkpt>
      <trkpt lat="46.51697" lon="5.38806">
        <ele>266.60000610352</ele>
        <time>2021-03-06T11:57:18.000Z</time>
      </trkpt>
      <trkpt lat="46.51702" lon="5.38814">
        <ele>266.79998779297</ele>
        <time>2021-03-06T11:57:20.000Z</time>
      </trkpt>
      <trkpt lat="46.5171" lon="5.38819">
        <ele>267.20001220703</ele>
        <time>2021-03-06T11:57:22.000Z</time>
      </trkpt>
      <trkpt lat="46.5172" lon="5.38821">
        <ele>267.60000610352</ele>
        <time>2021-03-06T11:57:24.000Z</time>
      </trkpt>
      <trkpt lat="46.5175" lon="5.38823">
        <ele>267.39999389648</ele>
        <time>2021-03-06T11:57:29.000Z</time>
      </trkpt>
      <trkpt lat="46.51793" lon="5.38825">
        <ele>266</ele>
        <time>2021-03-06T11:57:35.000Z</time>
      </trkpt>
      <trkpt lat="46.51801" lon="5.38825">
        <ele>265.79998779297</ele>
        <time>2021-03-06T11:57:36.000Z</time>
      </trkpt>
      <trkpt lat="46.51818" lon="5.38824">
        <ele>264.79998779297</ele>
        <time>2021-03-06T11:57:38.000Z</time>
      </trkpt>
      <trkpt lat="46.51846" lon="5.38824">
        <ele>263.39999389648</ele>
        <time>2021-03-06T11:57:41.000Z</time>
      </trkpt>
      <trkpt lat="46.51866" lon="5.38824">
        <ele>262</ele>
        <time>2021-03-06T11:57:43.000Z</time>
      </trkpt>
      <trkpt lat="46.51886" lon="5.38824">
        <ele>260</ele>
        <time>2021-03-06T11:57:45.000Z</time>
      </trkpt>
      <trkpt lat="46.51896" lon="5.38824">
        <ele>259.60000610352</ele>
        <time>2021-03-06T11:57:46.000Z</time>
      </trkpt>
      <trkpt lat="46.51915" lon="5.38824">
        <ele>258.39999389648</ele>
        <time>2021-03-06T11:57:48.000Z</time>
      </trkpt>
      <trkpt lat="46.51949" lon="5.38824">
        <ele>257.20001220703</ele>
        <time>2021-03-06T11:57:51.000Z</time>
      </trkpt>
      <trkpt lat="46.51967" lon="5.38824">
        <ele>255.80000305176</ele>
        <time>2021-03-06T11:57:53.000Z</time>
      </trkpt>
      <trkpt lat="46.51978" lon="5.38824">
        <ele>255.19999694824</ele>
        <time>2021-03-06T11:57:54.000Z</time>
      </trkpt>
      <trkpt lat="46.5199" lon="5.38824">
        <ele>254.39999389648</ele>
        <time>2021-03-06T11:57:55.000Z</time>
      </trkpt>
      <trkpt lat="46.52012" lon="5.38826">
        <ele>253.39999389648</ele>
        <time>2021-03-06T11:57:57.000Z</time>
      </trkpt>
      <trkpt lat="46.52033" lon="5.38829">
        <ele>252.60000610352</ele>
        <time>2021-03-06T11:57:59.000Z</time>
      </trkpt>
      <trkpt lat="46.52046" lon="5.38831">
        <ele>252</ele>
        <time>2021-03-06T11:58:00.000Z</time>
      </trkpt>
      <trkpt lat="46.52069" lon="5.38835">
        <ele>250.80000305176</ele>
        <time>2021-03-06T11:58:02.000Z</time>
      </trkpt>
      <trkpt lat="46.52091" lon="5.38837">
        <ele>249.19999694824</ele>
        <time>2021-03-06T11:58:04.000Z</time>
      </trkpt>
      <trkpt lat="46.52113" lon="5.38839">
        <ele>248</ele>
        <time>2021-03-06T11:58:06.000Z</time>
      </trkpt>
      <trkpt lat="46.52123" lon="5.3884">
        <ele>246.80000305176</ele>
        <time>2021-03-06T11:58:07.000Z</time>
      </trkpt>
      <trkpt lat="46.52143" lon="5.38841">
        <ele>245.80000305176</ele>
        <time>2021-03-06T11:58:09.000Z</time>
      </trkpt>
      <trkpt lat="46.5217" lon="5.38844">
        <ele>244.60000610352</ele>
        <time>2021-03-06T11:58:12.000Z</time>
      </trkpt>
      <trkpt lat="46.52212" lon="5.38857">
        <ele>244.39999389648</ele>
        <time>2021-03-06T11:58:17.000Z</time>
      </trkpt>
      <trkpt lat="46.52263" lon="5.38881">
        <ele>244.39999389648</ele>
        <time>2021-03-06T11:58:24.000Z</time>
      </trkpt>
      <trkpt lat="46.52283" lon="5.38891">
        <ele>244.60000610352</ele>
        <time>2021-03-06T11:58:27.000Z</time>
      </trkpt>
      <trkpt lat="46.52298" lon="5.38898">
        <ele>244.39999389648</ele>
        <time>2021-03-06T11:58:29.000Z</time>
      </trkpt>
      <trkpt lat="46.52326" lon="5.38912">
        <ele>244.39999389648</ele>
        <time>2021-03-06T11:58:33.000Z</time>
      </trkpt>
      <trkpt lat="46.5234" lon="5.38919">
        <ele>244</ele>
        <time>2021-03-06T11:58:35.000Z</time>
      </trkpt>
      <trkpt lat="46.52382" lon="5.38939">
        <ele>243.60000610352</ele>
        <time>2021-03-06T11:58:41.000Z</time>
      </trkpt>
      <trkpt lat="46.52413" lon="5.38953">
        <ele>243.39999389648</ele>
        <time>2021-03-06T11:58:45.000Z</time>
      </trkpt>
      <trkpt lat="46.52435" lon="5.38963">
        <ele>242.60000610352</ele>
        <time>2021-03-06T11:58:48.000Z</time>
      </trkpt>
      <trkpt lat="46.52458" lon="5.38971">
        <ele>242</ele>
        <time>2021-03-06T11:58:51.000Z</time>
      </trkpt>
      <trkpt lat="46.52489" lon="5.38986">
        <ele>241.39999389648</ele>
        <time>2021-03-06T11:58:55.000Z</time>
      </trkpt>
      <trkpt lat="46.52512" lon="5.38999">
        <ele>240.60000610352</ele>
        <time>2021-03-06T11:58:58.000Z</time>
      </trkpt>
      <trkpt lat="46.52528" lon="5.39008">
        <ele>240.19999694824</ele>
        <time>2021-03-06T11:59:00.000Z</time>
      </trkpt>
      <trkpt lat="46.52559" lon="5.39033">
        <ele>239.19999694824</ele>
        <time>2021-03-06T11:59:04.000Z</time>
      </trkpt>
      <trkpt lat="46.52567" lon="5.3904">
        <ele>239.19999694824</ele>
        <time>2021-03-06T11:59:05.000Z</time>
      </trkpt>
      <trkpt lat="46.52591" lon="5.3906">
        <ele>238</ele>
        <time>2021-03-06T11:59:08.000Z</time>
      </trkpt>
      <trkpt lat="46.52614" lon="5.39081">
        <ele>237.19999694824</ele>
        <time>2021-03-06T11:59:11.000Z</time>
      </trkpt>
      <trkpt lat="46.5263" lon="5.39096">
        <ele>236.60000610352</ele>
        <time>2021-03-06T11:59:13.000Z</time>
      </trkpt>
      <trkpt lat="46.52654" lon="5.39116">
        <ele>235.39999389648</ele>
        <time>2021-03-06T11:59:16.000Z</time>
      </trkpt>
      <trkpt lat="46.52663" lon="5.39123">
        <ele>235</ele>
        <time>2021-03-06T11:59:17.000Z</time>
      </trkpt>
      <trkpt lat="46.5268" lon="5.39135">
        <ele>233.80000305176</ele>
        <time>2021-03-06T11:59:19.000Z</time>
      </trkpt>
      <trkpt lat="46.52697" lon="5.39147">
        <ele>232.80000305176</ele>
        <time>2021-03-06T11:59:21.000Z</time>
      </trkpt>
      <trkpt lat="46.52715" lon="5.39157">
        <ele>231.60000610352</ele>
        <time>2021-03-06T11:59:23.000Z</time>
      </trkpt>
      <trkpt lat="46.52743" lon="5.39167">
        <ele>230.39999389648</ele>
        <time>2021-03-06T11:59:26.000Z</time>
      </trkpt>
      <trkpt lat="46.52762" lon="5.39173">
        <ele>229.19999694824</ele>
        <time>2021-03-06T11:59:28.000Z</time>
      </trkpt>
      <trkpt lat="46.52772" lon="5.39175">
        <ele>228.80000305176</ele>
        <time>2021-03-06T11:59:29.000Z</time>
      </trkpt>
      <trkpt lat="46.52799" lon="5.39174">
        <ele>228</ele>
        <time>2021-03-06T11:59:32.000Z</time>
      </trkpt>
      <trkpt lat="46.5281" lon="5.39172">
        <ele>228</ele>
        <time>2021-03-06T11:59:33.000Z</time>
      </trkpt>
      <trkpt lat="46.5285" lon="5.39158">
        <ele>228</ele>
        <time>2021-03-06T11:59:38.000Z</time>
      </trkpt>
      <trkpt lat="46.52884" lon="5.3915">
        <ele>229.19999694824</ele>
        <time>2021-03-06T11:59:43.000Z</time>
      </trkpt>
      <trkpt lat="46.5289" lon="5.39149">
        <ele>229.39999389648</ele>
        <time>2021-03-06T11:59:44.000Z</time>
      </trkpt>
      <trkpt lat="46.52901" lon="5.39146">
        <ele>230.19999694824</ele>
        <time>2021-03-06T11:59:46.000Z</time>
      </trkpt>
      <trkpt lat="46.52905" lon="5.39146">
        <ele>230.60000610352</ele>
        <time>2021-03-06T11:59:47.000Z</time>
      </trkpt>
      <trkpt lat="46.52909" lon="5.39148">
        <ele>231.39999389648</ele>
        <time>2021-03-06T11:59:48.000Z</time>
      </trkpt>
      <trkpt lat="46.52911" lon="5.39153">
        <ele>231.80000305176</ele>
        <time>2021-03-06T11:59:49.000Z</time>
      </trkpt>
      <trkpt lat="46.52911" lon="5.39158">
        <ele>232.39999389648</ele>
        <time>2021-03-06T11:59:50.000Z</time>
      </trkpt>
      <trkpt lat="46.52908" lon="5.39175">
        <ele>232.60000610352</ele>
        <time>2021-03-06T11:59:52.000Z</time>
      </trkpt>
      <trkpt lat="46.52906" lon="5.39195">
        <ele>232.80000305176</ele>
        <time>2021-03-06T11:59:54.000Z</time>
      </trkpt>
      <trkpt lat="46.52905" lon="5.39214">
        <ele>233</ele>
        <time>2021-03-06T11:59:56.000Z</time>
      </trkpt>
      <trkpt lat="46.52897" lon="5.39287">
        <ele>232.60000610352</ele>
        <time>2021-03-06T12:00:03.000Z</time>
      </trkpt>
      <trkpt lat="46.52895" lon="5.39317">
        <ele>232.39999389648</ele>
        <time>2021-03-06T12:00:06.000Z</time>
      </trkpt>
      <trkpt lat="46.52892" lon="5.39345">
        <ele>232.39999389648</ele>
        <time>2021-03-06T12:00:09.000Z</time>
      </trkpt>
      <trkpt lat="46.52882" lon="5.39415">
        <ele>233.39999389648</ele>
        <time>2021-03-06T12:00:17.000Z</time>
      </trkpt>
      <trkpt lat="46.52876" lon="5.39446">
        <ele>233.80000305176</ele>
        <time>2021-03-06T12:00:21.000Z</time>
      </trkpt>
      <trkpt lat="46.5287" lon="5.39479">
        <ele>234.80000305176</ele>
        <time>2021-03-06T12:00:25.000Z</time>
      </trkpt>
      <trkpt lat="46.52869" lon="5.39488">
        <ele>235</ele>
        <time>2021-03-06T12:00:26.000Z</time>
      </trkpt>
      <trkpt lat="46.52863" lon="5.39533">
        <ele>235</ele>
        <time>2021-03-06T12:00:31.000Z</time>
      </trkpt>
      <trkpt lat="46.52852" lon="5.39601">
        <ele>234</ele>
        <time>2021-03-06T12:00:38.000Z</time>
      </trkpt>
      <trkpt lat="46.52851" lon="5.39623">
        <ele>233.80000305176</ele>
        <time>2021-03-06T12:00:40.000Z</time>
      </trkpt>
      <trkpt lat="46.52852" lon="5.39634">
        <ele>233.80000305176</ele>
        <time>2021-03-06T12:00:41.000Z</time>
      </trkpt>
      <trkpt lat="46.52853" lon="5.39643">
        <ele>233.60000610352</ele>
        <time>2021-03-06T12:00:42.000Z</time>
      </trkpt>
      <trkpt lat="46.52855" lon="5.39657">
        <ele>233.60000610352</ele>
        <time>2021-03-06T12:00:43.000Z</time>
      </trkpt>
      <trkpt lat="46.52863" lon="5.39689">
        <ele>232.60000610352</ele>
        <time>2021-03-06T12:00:46.000Z</time>
      </trkpt>
      <trkpt lat="46.52867" lon="5.39699">
        <ele>232.19999694824</ele>
        <time>2021-03-06T12:00:47.000Z</time>
      </trkpt>
      <trkpt lat="46.52885" lon="5.3974">
        <ele>231.60000610352</ele>
        <time>2021-03-06T12:00:51.000Z</time>
      </trkpt>
      <trkpt lat="46.529" lon="5.39767">
        <ele>231</ele>
        <time>2021-03-06T12:00:54.000Z</time>
      </trkpt>
      <trkpt lat="46.52937" lon="5.39826">
        <ele>230.39999389648</ele>
        <time>2021-03-06T12:01:01.000Z</time>
      </trkpt>
      <trkpt lat="46.52942" lon="5.39834">
        <ele>230.39999389648</ele>
        <time>2021-03-06T12:01:02.000Z</time>
      </trkpt>
      <trkpt lat="46.52946" lon="5.39843">
        <ele>230.39999389648</ele>
        <time>2021-03-06T12:01:03.000Z</time>
      </trkpt>
      <trkpt lat="46.52955" lon="5.39872">
        <ele>230.60000610352</ele>
        <time>2021-03-06T12:01:06.000Z</time>
      </trkpt>
      <trkpt lat="46.52955" lon="5.39892">
        <ele>230.60000610352</ele>
        <time>2021-03-06T12:01:08.000Z</time>
      </trkpt>
      <trkpt lat="46.52954" lon="5.39912">
        <ele>230.60000610352</ele>
        <time>2021-03-06T12:01:10.000Z</time>
      </trkpt>
      <trkpt lat="46.5294" lon="5.39973">
        <ele>230.60000610352</ele>
        <time>2021-03-06T12:01:16.000Z</time>
      </trkpt>
      <trkpt lat="46.52933" lon="5.40004">
        <ele>230.60000610352</ele>
        <time>2021-03-06T12:01:19.000Z</time>
      </trkpt>
      <trkpt lat="46.52934" lon="5.40012">
        <ele>230.60000610352</ele>
        <time>2021-03-06T12:01:20.000Z</time>
      </trkpt>
      <trkpt lat="46.52937" lon="5.40023">
        <ele>230.60000610352</ele>
        <time>2021-03-06T12:01:21.000Z</time>
      </trkpt>
      <trkpt lat="46.52945" lon="5.40037">
        <ele>230.60000610352</ele>
        <time>2021-03-06T12:01:23.000Z</time>
      </trkpt>
      <trkpt lat="46.52954" lon="5.40053">
        <ele>230.60000610352</ele>
        <time>2021-03-06T12:01:25.000Z</time>
      </trkpt>
      <trkpt lat="46.5296" lon="5.40072">
        <ele>230.60000610352</ele>
        <time>2021-03-06T12:01:27.000Z</time>
      </trkpt>
      <trkpt lat="46.52966" lon="5.40112">
        <ele>231</ele>
        <time>2021-03-06T12:01:31.000Z</time>
      </trkpt>
      <trkpt lat="46.52966" lon="5.40122">
        <ele>231</ele>
        <time>2021-03-06T12:01:32.000Z</time>
      </trkpt>
      <trkpt lat="46.52964" lon="5.40141">
        <ele>231.19999694824</ele>
        <time>2021-03-06T12:01:34.000Z</time>
      </trkpt>
      <trkpt lat="46.52963" lon="5.40168">
        <ele>231.60000610352</ele>
        <time>2021-03-06T12:01:37.000Z</time>
      </trkpt>
      <trkpt lat="46.52959" lon="5.40214">
        <ele>232.19999694824</ele>
        <time>2021-03-06T12:01:42.000Z</time>
      </trkpt>
      <trkpt lat="46.52958" lon="5.40223">
        <ele>232.19999694824</ele>
        <time>2021-03-06T12:01:43.000Z</time>
      </trkpt>
      <trkpt lat="46.52956" lon="5.40234">
        <ele>232.39999389648</ele>
        <time>2021-03-06T12:01:44.000Z</time>
      </trkpt>
      <trkpt lat="46.5295" lon="5.40258">
        <ele>232.39999389648</ele>
        <time>2021-03-06T12:01:47.000Z</time>
      </trkpt>
      <trkpt lat="46.52945" lon="5.4032">
        <ele>233.19999694824</ele>
        <time>2021-03-06T12:01:54.000Z</time>
      </trkpt>
      <trkpt lat="46.52944" lon="5.40327">
        <ele>233.39999389648</ele>
        <time>2021-03-06T12:01:55.000Z</time>
      </trkpt>
      <trkpt lat="46.52939" lon="5.40355">
        <ele>234</ele>
        <time>2021-03-06T12:01:59.000Z</time>
      </trkpt>
      <trkpt lat="46.52937" lon="5.4037">
        <ele>234.19999694824</ele>
        <time>2021-03-06T12:02:01.000Z</time>
      </trkpt>
      <trkpt lat="46.52937" lon="5.40378">
        <ele>234.60000610352</ele>
        <time>2021-03-06T12:02:02.000Z</time>
      </trkpt>
      <trkpt lat="46.52936" lon="5.40396">
        <ele>235.19999694824</ele>
        <time>2021-03-06T12:02:04.000Z</time>
      </trkpt>
      <trkpt lat="46.52936" lon="5.40411">
        <ele>235.39999389648</ele>
        <time>2021-03-06T12:02:06.000Z</time>
      </trkpt>
      <trkpt lat="46.52938" lon="5.40439">
        <ele>235.80000305176</ele>
        <time>2021-03-06T12:02:09.000Z</time>
      </trkpt>
      <trkpt lat="46.52939" lon="5.40448">
        <ele>235.60000610352</ele>
        <time>2021-03-06T12:02:10.000Z</time>
      </trkpt>
      <trkpt lat="46.52947" lon="5.40504">
        <ele>236.60000610352</ele>
        <time>2021-03-06T12:02:17.000Z</time>
      </trkpt>
      <trkpt lat="46.5295" lon="5.40521">
        <ele>237</ele>
        <time>2021-03-06T12:02:19.000Z</time>
      </trkpt>
      <trkpt lat="46.52956" lon="5.40552">
        <ele>237.60000610352</ele>
        <time>2021-03-06T12:02:23.000Z</time>
      </trkpt>
      <trkpt lat="46.52962" lon="5.4059">
        <ele>238.19999694824</ele>
        <time>2021-03-06T12:02:28.000Z</time>
      </trkpt>
      <trkpt lat="46.52962" lon="5.40597">
        <ele>238.19999694824</ele>
        <time>2021-03-06T12:02:29.000Z</time>
      </trkpt>
      <trkpt lat="46.52961" lon="5.40611">
        <ele>238.19999694824</ele>
        <time>2021-03-06T12:02:31.000Z</time>
      </trkpt>
      <trkpt lat="46.5296" lon="5.4062">
        <ele>238.39999389648</ele>
        <time>2021-03-06T12:02:32.000Z</time>
      </trkpt>
      <trkpt lat="46.52956" lon="5.40636">
        <ele>238.39999389648</ele>
        <time>2021-03-06T12:02:34.000Z</time>
      </trkpt>
      <trkpt lat="46.52947" lon="5.40661">
        <ele>238.60000610352</ele>
        <time>2021-03-06T12:02:37.000Z</time>
      </trkpt>
      <trkpt lat="46.52918" lon="5.40735">
        <ele>238</ele>
        <time>2021-03-06T12:02:46.000Z</time>
      </trkpt>
      <trkpt lat="46.52911" lon="5.40753">
        <ele>237.60000610352</ele>
        <time>2021-03-06T12:02:48.000Z</time>
      </trkpt>
      <trkpt lat="46.52908" lon="5.40761">
        <ele>237.39999389648</ele>
        <time>2021-03-06T12:02:49.000Z</time>
      </trkpt>
      <trkpt lat="46.52891" lon="5.40795">
        <ele>236.80000305176</ele>
        <time>2021-03-06T12:02:53.000Z</time>
      </trkpt>
      <trkpt lat="46.52886" lon="5.40801">
        <ele>236.60000610352</ele>
        <time>2021-03-06T12:02:54.000Z</time>
      </trkpt>
      <trkpt lat="46.52881" lon="5.40807">
        <ele>236.60000610352</ele>
        <time>2021-03-06T12:02:55.000Z</time>
      </trkpt>
      <trkpt lat="46.52871" lon="5.40814">
        <ele>236.60000610352</ele>
        <time>2021-03-06T12:02:57.000Z</time>
      </trkpt>
      <trkpt lat="46.52864" lon="5.40817">
        <ele>236.60000610352</ele>
        <time>2021-03-06T12:02:58.000Z</time>
      </trkpt>
      <trkpt lat="46.52831" lon="5.40826">
        <ele>237.39999389648</ele>
        <time>2021-03-06T12:03:04.000Z</time>
      </trkpt>
      <trkpt lat="46.52817" lon="5.40835">
        <ele>238</ele>
        <time>2021-03-06T12:03:07.000Z</time>
      </trkpt>
      <trkpt lat="46.52807" lon="5.40851">
        <ele>238</ele>
        <time>2021-03-06T12:03:09.000Z</time>
      </trkpt>
      <trkpt lat="46.52792" lon="5.40889">
        <ele>238.39999389648</ele>
        <time>2021-03-06T12:03:15.000Z</time>
      </trkpt>
      <trkpt lat="46.52788" lon="5.40896">
        <ele>238.39999389648</ele>
        <time>2021-03-06T12:03:16.000Z</time>
      </trkpt>
      <trkpt lat="46.52778" lon="5.40921">
        <ele>238.39999389648</ele>
        <time>2021-03-06T12:03:19.000Z</time>
      </trkpt>
      <trkpt lat="46.52775" lon="5.40936">
        <ele>238.39999389648</ele>
        <time>2021-03-06T12:03:21.000Z</time>
      </trkpt>
      <trkpt lat="46.52772" lon="5.40963">
        <ele>238.39999389648</ele>
        <time>2021-03-06T12:03:24.000Z</time>
      </trkpt>
      <trkpt lat="46.52772" lon="5.40981">
        <ele>238.39999389648</ele>
        <time>2021-03-06T12:03:26.000Z</time>
      </trkpt>
      <trkpt lat="46.52772" lon="5.40991">
        <ele>238.39999389648</ele>
        <time>2021-03-06T12:03:27.000Z</time>
      </trkpt>
      <trkpt lat="46.52773" lon="5.41026">
        <ele>238.39999389648</ele>
        <time>2021-03-06T12:03:31.000Z</time>
      </trkpt>
      <trkpt lat="46.52776" lon="5.41046">
        <ele>238.19999694824</ele>
        <time>2021-03-06T12:03:33.000Z</time>
      </trkpt>
      <trkpt lat="46.52779" lon="5.41072">
        <ele>238.19999694824</ele>
        <time>2021-03-06T12:03:36.000Z</time>
      </trkpt>
      <trkpt lat="46.52779" lon="5.41093">
        <ele>238.19999694824</ele>
        <time>2021-03-06T12:03:38.000Z</time>
      </trkpt>
      <trkpt lat="46.52778" lon="5.41102">
        <ele>238.19999694824</ele>
        <time>2021-03-06T12:03:39.000Z</time>
      </trkpt>
      <trkpt lat="46.52776" lon="5.41129">
        <ele>238.19999694824</ele>
        <time>2021-03-06T12:03:41.000Z</time>
      </trkpt>
      <trkpt lat="46.52776" lon="5.41137">
        <ele>238.39999389648</ele>
        <time>2021-03-06T12:03:43.000Z</time>
      </trkpt>
      <trkpt lat="46.52776" lon="5.41145">
        <ele>238.39999389648</ele>
        <time>2021-03-06T12:03:44.000Z</time>
      </trkpt>
      <trkpt lat="46.52777" lon="5.41152">
        <ele>238.60000610352</ele>
        <time>2021-03-06T12:03:45.000Z</time>
      </trkpt>
      <trkpt lat="46.5278" lon="5.41176">
        <ele>239.19999694824</ele>
        <time>2021-03-06T12:03:48.000Z</time>
      </trkpt>
      <trkpt lat="46.52781" lon="5.41185">
        <ele>239.39999389648</ele>
        <time>2021-03-06T12:03:49.000Z</time>
      </trkpt>
      <trkpt lat="46.52782" lon="5.41202">
        <ele>239.39999389648</ele>
        <time>2021-03-06T12:03:51.000Z</time>
      </trkpt>
      <trkpt lat="46.52781" lon="5.41227">
        <ele>239.60000610352</ele>
        <time>2021-03-06T12:03:54.000Z</time>
      </trkpt>
      <trkpt lat="46.52778" lon="5.41297">
        <ele>239.80000305176</ele>
        <time>2021-03-06T12:04:01.000Z</time>
      </trkpt>
      <trkpt lat="46.52776" lon="5.41313">
        <ele>240</ele>
        <time>2021-03-06T12:04:04.000Z</time>
      </trkpt>
      <trkpt lat="46.5277" lon="5.41335">
        <ele>240.39999389648</ele>
        <time>2021-03-06T12:04:07.000Z</time>
      </trkpt>
      <trkpt lat="46.52764" lon="5.41358">
        <ele>241</ele>
        <time>2021-03-06T12:04:09.000Z</time>
      </trkpt>
      <trkpt lat="46.52763" lon="5.41364">
        <ele>241.19999694824</ele>
        <time>2021-03-06T12:04:10.000Z</time>
      </trkpt>
      <trkpt lat="46.52763" lon="5.41364">
        <ele>241.39999389648</ele>
        <time>2021-03-06T12:04:11.000Z</time>
      </trkpt>
      <trkpt lat="46.52761" lon="5.41381">
        <ele>241.60000610352</ele>
        <time>2021-03-06T12:04:12.000Z</time>
      </trkpt>
      <trkpt lat="46.52762" lon="5.41402">
        <ele>241.60000610352</ele>
        <time>2021-03-06T12:04:15.000Z</time>
      </trkpt>
      <trkpt lat="46.52762" lon="5.41402">
        <ele>241.60000610352</ele>
        <time>2021-03-06T12:04:16.000Z</time>
      </trkpt>
      <trkpt lat="46.52764" lon="5.41464">
        <ele>242</ele>
        <time>2021-03-06T12:04:23.000Z</time>
      </trkpt>
      <trkpt lat="46.52764" lon="5.4147">
        <ele>242</ele>
        <time>2021-03-06T12:04:24.000Z</time>
      </trkpt>
      <trkpt lat="46.52769" lon="5.41534">
        <ele>242.39999389648</ele>
        <time>2021-03-06T12:04:32.000Z</time>
      </trkpt>
      <trkpt lat="46.52769" lon="5.41534">
        <ele>242.60000610352</ele>
        <time>2021-03-06T12:04:33.000Z</time>
      </trkpt>
      <trkpt lat="46.5278" lon="5.41613">
        <ele>242.80000305176</ele>
        <time>2021-03-06T12:04:42.000Z</time>
      </trkpt>
      <trkpt lat="46.5278" lon="5.4162">
        <ele>243</ele>
        <time>2021-03-06T12:04:43.000Z</time>
      </trkpt>
      <trkpt lat="46.52781" lon="5.41628">
        <ele>242.80000305176</ele>
        <time>2021-03-06T12:04:44.000Z</time>
      </trkpt>
      <trkpt lat="46.5278" lon="5.41636">
        <ele>243</ele>
        <time>2021-03-06T12:04:46.000Z</time>
      </trkpt>
      <trkpt lat="46.52776" lon="5.41659">
        <ele>243.19999694824</ele>
        <time>2021-03-06T12:04:48.000Z</time>
      </trkpt>
      <trkpt lat="46.52774" lon="5.41666">
        <ele>243.19999694824</ele>
        <time>2021-03-06T12:04:49.000Z</time>
      </trkpt>
      <trkpt lat="46.52772" lon="5.41673">
        <ele>243.60000610352</ele>
        <time>2021-03-06T12:04:51.000Z</time>
      </trkpt>
      <trkpt lat="46.52768" lon="5.41695">
        <ele>243.80000305176</ele>
        <time>2021-03-06T12:04:53.000Z</time>
      </trkpt>
      <trkpt lat="46.52764" lon="5.41731">
        <ele>244.60000610352</ele>
        <time>2021-03-06T12:04:58.000Z</time>
      </trkpt>
      <trkpt lat="46.5276" lon="5.41741">
        <ele>245</ele>
        <time>2021-03-06T12:05:00.000Z</time>
      </trkpt>
      <trkpt lat="46.52753" lon="5.41752">
        <ele>245.39999389648</ele>
        <time>2021-03-06T12:05:02.000Z</time>
      </trkpt>
      <trkpt lat="46.5275" lon="5.41755">
        <ele>245.39999389648</ele>
        <time>2021-03-06T12:05:03.000Z</time>
      </trkpt>
      <trkpt lat="46.52746" lon="5.41758">
        <ele>245.60000610352</ele>
        <time>2021-03-06T12:05:04.000Z</time>
      </trkpt>
      <trkpt lat="46.52733" lon="5.41769">
        <ele>246.60000610352</ele>
        <time>2021-03-06T12:05:08.000Z</time>
      </trkpt>
      <trkpt lat="46.52731" lon="5.41772">
        <ele>246.80000305176</ele>
        <time>2021-03-06T12:05:09.000Z</time>
      </trkpt>
      <trkpt lat="46.52728" lon="5.41776">
        <ele>247.19999694824</ele>
        <time>2021-03-06T12:05:10.000Z</time>
      </trkpt>
      <trkpt lat="46.52727" lon="5.41781">
        <ele>247.80000305176</ele>
        <time>2021-03-06T12:05:12.000Z</time>
      </trkpt>
      <trkpt lat="46.52725" lon="5.41791">
        <ele>248.19999694824</ele>
        <time>2021-03-06T12:05:13.000Z</time>
      </trkpt>
      <trkpt lat="46.52724" lon="5.41802">
        <ele>249.39999389648</ele>
        <time>2021-03-06T12:05:15.000Z</time>
      </trkpt>
      <trkpt lat="46.52725" lon="5.41819">
        <ele>250.60000610352</ele>
        <time>2021-03-06T12:05:18.000Z</time>
      </trkpt>
      <trkpt lat="46.52727" lon="5.41835">
        <ele>251.60000610352</ele>
        <time>2021-03-06T12:05:22.000Z</time>
      </trkpt>
      <trkpt lat="46.5273" lon="5.41851">
        <ele>252.39999389648</ele>
        <time>2021-03-06T12:05:25.000Z</time>
      </trkpt>
      <trkpt lat="46.52732" lon="5.41863">
        <ele>252.80000305176</ele>
        <time>2021-03-06T12:05:27.000Z</time>
      </trkpt>
      <trkpt lat="46.52734" lon="5.41887">
        <ele>254.19999694824</ele>
        <time>2021-03-06T12:05:31.000Z</time>
      </trkpt>
      <trkpt lat="46.52732" lon="5.41921">
        <ele>255.19999694824</ele>
        <time>2021-03-06T12:05:37.000Z</time>
      </trkpt>
      <trkpt lat="46.52731" lon="5.41935">
        <ele>255.39999389648</ele>
        <time>2021-03-06T12:05:38.000Z</time>
      </trkpt>
      <trkpt lat="46.5273" lon="5.41963">
        <ele>255.60000610352</ele>
        <time>2021-03-06T12:05:43.000Z</time>
      </trkpt>
      <trkpt lat="46.52728" lon="5.41999">
        <ele>255.80000305176</ele>
        <time>2021-03-06T12:05:47.000Z</time>
      </trkpt>
      <trkpt lat="46.52729" lon="5.42006">
        <ele>255.80000305176</ele>
        <time>2021-03-06T12:05:49.000Z</time>
      </trkpt>
      <trkpt lat="46.52732" lon="5.42022">
        <ele>255.80000305176</ele>
        <time>2021-03-06T12:05:50.000Z</time>
      </trkpt>
      <trkpt lat="46.52741" lon="5.42045">
        <ele>255.80000305176</ele>
        <time>2021-03-06T12:05:53.000Z</time>
      </trkpt>
      <trkpt lat="46.52764" lon="5.42085">
        <ele>254.60000610352</ele>
        <time>2021-03-06T12:05:58.000Z</time>
      </trkpt>
      <trkpt lat="46.52764" lon="5.42085">
        <ele>253.80000305176</ele>
        <time>2021-03-06T12:05:59.000Z</time>
      </trkpt>
      <trkpt lat="46.52785" lon="5.42119">
        <ele>252.80000305176</ele>
        <time>2021-03-06T12:06:02.000Z</time>
      </trkpt>
      <trkpt lat="46.52785" lon="5.42119">
        <ele>252.60000610352</ele>
        <time>2021-03-06T12:06:03.000Z</time>
      </trkpt>
      <trkpt lat="46.52797" lon="5.4213">
        <ele>252.39999389648</ele>
        <time>2021-03-06T12:06:04.000Z</time>
      </trkpt>
      <trkpt lat="46.52812" lon="5.42139">
        <ele>252</ele>
        <time>2021-03-06T12:06:07.000Z</time>
      </trkpt>
      <trkpt lat="46.5282" lon="5.42141">
        <ele>252</ele>
        <time>2021-03-06T12:06:09.000Z</time>
      </trkpt>
      <trkpt lat="46.52831" lon="5.42126">
        <ele>252.19999694824</ele>
        <time>2021-03-06T12:06:12.000Z</time>
      </trkpt>
      <trkpt lat="46.52838" lon="5.42103">
        <ele>252.60000610352</ele>
        <time>2021-03-06T12:06:16.000Z</time>
      </trkpt>
      <trkpt lat="46.52844" lon="5.42087">
        <ele>252.60000610352</ele>
        <time>2021-03-06T12:06:17.000Z</time>
      </trkpt>
      <trkpt lat="46.52848" lon="5.42076">
        <ele>252.80000305176</ele>
        <time>2021-03-06T12:06:19.000Z</time>
      </trkpt>
      <trkpt lat="46.5285" lon="5.4207">
        <ele>253</ele>
        <time>2021-03-06T12:06:20.000Z</time>
      </trkpt>
      <trkpt lat="46.5285" lon="5.42064">
        <ele>253</ele>
        <time>2021-03-06T12:06:22.000Z</time>
      </trkpt>
      <trkpt lat="46.52847" lon="5.42042">
        <ele>253.19999694824</ele>
        <time>2021-03-06T12:06:24.000Z</time>
      </trkpt>
      <trkpt lat="46.52846" lon="5.42035">
        <ele>253.39999389648</ele>
        <time>2021-03-06T12:06:25.000Z</time>
      </trkpt>
      <trkpt lat="46.52846" lon="5.42035">
        <ele>253.80000305176</ele>
        <time>2021-03-06T12:06:26.000Z</time>
      </trkpt>
      <trkpt lat="46.52841" lon="5.42005">
        <ele>254.39999389648</ele>
        <time>2021-03-06T12:06:30.000Z</time>
      </trkpt>
      <trkpt lat="46.52841" lon="5.42005">
        <ele>255</ele>
        <time>2021-03-06T12:06:31.000Z</time>
      </trkpt>
      <trkpt lat="46.52837" lon="5.41975">
        <ele>255.60000610352</ele>
        <time>2021-03-06T12:06:35.000Z</time>
      </trkpt>
      <trkpt lat="46.52836" lon="5.41951">
        <ele>256</ele>
        <time>2021-03-06T12:06:39.000Z</time>
      </trkpt>
      <trkpt lat="46.52838" lon="5.41927">
        <ele>256.79998779297</ele>
        <time>2021-03-06T12:06:43.000Z</time>
      </trkpt>
      <trkpt lat="46.52839" lon="5.41914">
        <ele>257.20001220703</ele>
        <time>2021-03-06T12:06:45.000Z</time>
      </trkpt>
      <trkpt lat="46.52841" lon="5.41885">
        <ele>257.60000610352</ele>
        <time>2021-03-06T12:06:50.000Z</time>
      </trkpt>
      <trkpt lat="46.52841" lon="5.41873">
        <ele>258.20001220703</ele>
        <time>2021-03-06T12:06:52.000Z</time>
      </trkpt>
      <trkpt lat="46.52842" lon="5.41867">
        <ele>258.20001220703</ele>
        <time>2021-03-06T12:06:53.000Z</time>
      </trkpt>
      <trkpt lat="46.52844" lon="5.41843">
        <ele>259</ele>
        <time>2021-03-06T12:06:58.000Z</time>
      </trkpt>
      <trkpt lat="46.52847" lon="5.41804">
        <ele>259.79998779297</ele>
        <time>2021-03-06T12:07:04.000Z</time>
      </trkpt>
      <trkpt lat="46.52849" lon="5.41779">
        <ele>260.20001220703</ele>
        <time>2021-03-06T12:07:08.000Z</time>
      </trkpt>
      <trkpt lat="46.52852" lon="5.41762">
        <ele>260.79998779297</ele>
        <time>2021-03-06T12:07:11.000Z</time>
      </trkpt>
      <trkpt lat="46.52857" lon="5.41743">
        <ele>261.39999389648</ele>
        <time>2021-03-06T12:07:14.000Z</time>
      </trkpt>
      <trkpt lat="46.52869" lon="5.41714">
        <ele>262</ele>
        <time>2021-03-06T12:07:20.000Z</time>
      </trkpt>
      <trkpt lat="46.52875" lon="5.41703">
        <ele>262.39999389648</ele>
        <time>2021-03-06T12:07:22.000Z</time>
      </trkpt>
      <trkpt lat="46.52882" lon="5.41684">
        <ele>263</ele>
        <time>2021-03-06T12:07:25.000Z</time>
      </trkpt>
      <trkpt lat="46.52888" lon="5.41668">
        <ele>263.39999389648</ele>
        <time>2021-03-06T12:07:28.000Z</time>
      </trkpt>
      <trkpt lat="46.52891" lon="5.41659">
        <ele>263.60000610352</ele>
        <time>2021-03-06T12:07:30.000Z</time>
      </trkpt>
      <trkpt lat="46.52898" lon="5.4164">
        <ele>264.39999389648</ele>
        <time>2021-03-06T12:07:34.000Z</time>
      </trkpt>
      <trkpt lat="46.52905" lon="5.41621">
        <ele>265.60000610352</ele>
        <time>2021-03-06T12:07:38.000Z</time>
      </trkpt>
      <trkpt lat="46.52915" lon="5.41598">
        <ele>266.60000610352</ele>
        <time>2021-03-06T12:07:43.000Z</time>
      </trkpt>
      <trkpt lat="46.52918" lon="5.41588">
        <ele>267</ele>
        <time>2021-03-06T12:07:45.000Z</time>
      </trkpt>
      <trkpt lat="46.5293" lon="5.41565">
        <ele>267.60000610352</ele>
        <time>2021-03-06T12:07:50.000Z</time>
      </trkpt>
      <trkpt lat="46.52932" lon="5.41562">
        <ele>267.79998779297</ele>
        <time>2021-03-06T12:07:51.000Z</time>
      </trkpt>
      <trkpt lat="46.52946" lon="5.41544">
        <ele>268.79998779297</ele>
        <time>2021-03-06T12:07:56.000Z</time>
      </trkpt>
      <trkpt lat="46.52962" lon="5.41528">
        <ele>269.39999389648</ele>
        <time>2021-03-06T12:08:01.000Z</time>
      </trkpt>
      <trkpt lat="46.52975" lon="5.41517">
        <ele>269.79998779297</ele>
        <time>2021-03-06T12:08:05.000Z</time>
      </trkpt>
      <trkpt lat="46.5299" lon="5.41505">
        <ele>271</ele>
        <time>2021-03-06T12:08:09.000Z</time>
      </trkpt>
      <trkpt lat="46.53004" lon="5.41495">
        <ele>271.60000610352</ele>
        <time>2021-03-06T12:08:13.000Z</time>
      </trkpt>
      <trkpt lat="46.5301" lon="5.41489">
        <ele>272</ele>
        <time>2021-03-06T12:08:15.000Z</time>
      </trkpt>
      <trkpt lat="46.53038" lon="5.4147">
        <ele>273.20001220703</ele>
        <time>2021-03-06T12:08:23.000Z</time>
      </trkpt>
      <trkpt lat="46.53064" lon="5.41466">
        <ele>274</ele>
        <time>2021-03-06T12:08:30.000Z</time>
      </trkpt>
      <trkpt lat="46.53071" lon="5.41465">
        <ele>274.20001220703</ele>
        <time>2021-03-06T12:08:32.000Z</time>
      </trkpt>
      <trkpt lat="46.53088" lon="5.41456">
        <ele>274.79998779297</ele>
        <time>2021-03-06T12:08:37.000Z</time>
      </trkpt>
      <trkpt lat="46.53099" lon="5.41446">
        <ele>275.39999389648</ele>
        <time>2021-03-06T12:08:41.000Z</time>
      </trkpt>
      <trkpt lat="46.53101" lon="5.41443">
        <ele>275.60000610352</ele>
        <time>2021-03-06T12:08:42.000Z</time>
      </trkpt>
      <trkpt lat="46.53108" lon="5.41435">
        <ele>276.39999389648</ele>
        <time>2021-03-06T12:08:45.000Z</time>
      </trkpt>
      <trkpt lat="46.5312" lon="5.41421">
        <ele>277.20001220703</ele>
        <time>2021-03-06T12:08:49.000Z</time>
      </trkpt>
      <trkpt lat="46.53125" lon="5.41414">
        <ele>277.39999389648</ele>
        <time>2021-03-06T12:08:51.000Z</time>
      </trkpt>
      <trkpt lat="46.53133" lon="5.41396">
        <ele>277.79998779297</ele>
        <time>2021-03-06T12:08:55.000Z</time>
      </trkpt>
      <trkpt lat="46.53136" lon="5.41369">
        <ele>278.60000610352</ele>
        <time>2021-03-06T12:09:00.000Z</time>
      </trkpt>
      <trkpt lat="46.5313" lon="5.41339">
        <ele>280</ele>
        <time>2021-03-06T12:09:06.000Z</time>
      </trkpt>
      <trkpt lat="46.53129" lon="5.41314">
        <ele>280.60000610352</ele>
        <time>2021-03-06T12:09:11.000Z</time>
      </trkpt>
      <trkpt lat="46.53131" lon="5.4131">
        <ele>280.60000610352</ele>
        <time>2021-03-06T12:09:12.000Z</time>
      </trkpt>
      <trkpt lat="46.53133" lon="5.41305">
        <ele>281</ele>
        <time>2021-03-06T12:09:13.000Z</time>
      </trkpt>
      <trkpt lat="46.53145" lon="5.41288">
        <ele>282</ele>
        <time>2021-03-06T12:09:18.000Z</time>
      </trkpt>
      <trkpt lat="46.53163" lon="5.41271">
        <ele>283.20001220703</ele>
        <time>2021-03-06T12:09:24.000Z</time>
      </trkpt>
      <trkpt lat="46.5318" lon="5.41258">
        <ele>283.79998779297</ele>
        <time>2021-03-06T12:09:29.000Z</time>
      </trkpt>
      <trkpt lat="46.53189" lon="5.41247">
        <ele>284.20001220703</ele>
        <time>2021-03-06T12:09:32.000Z</time>
      </trkpt>
      <trkpt lat="46.53194" lon="5.41233">
        <ele>284.79998779297</ele>
        <time>2021-03-06T12:09:35.000Z</time>
      </trkpt>
      <trkpt lat="46.53192" lon="5.41218">
        <ele>285.60000610352</ele>
        <time>2021-03-06T12:09:38.000Z</time>
      </trkpt>
      <trkpt lat="46.5319" lon="5.41214">
        <ele>285.60000610352</ele>
        <time>2021-03-06T12:09:39.000Z</time>
      </trkpt>
      <trkpt lat="46.53173" lon="5.41197">
        <ele>286.79998779297</ele>
        <time>2021-03-06T12:09:45.000Z</time>
      </trkpt>
      <trkpt lat="46.53146" lon="5.41179">
        <ele>287.79998779297</ele>
        <time>2021-03-06T12:09:53.000Z</time>
      </trkpt>
      <trkpt lat="46.53135" lon="5.41173">
        <ele>288.60000610352</ele>
        <time>2021-03-06T12:09:57.000Z</time>
      </trkpt>
      <trkpt lat="46.53123" lon="5.41168">
        <ele>289</ele>
        <time>2021-03-06T12:09:59.000Z</time>
      </trkpt>
      <trkpt lat="46.53101" lon="5.4116">
        <ele>289.79998779297</ele>
        <time>2021-03-06T12:10:05.000Z</time>
      </trkpt>
      <trkpt lat="46.53097" lon="5.41159">
        <ele>290</ele>
        <time>2021-03-06T12:10:06.000Z</time>
      </trkpt>
      <trkpt lat="46.53079" lon="5.41155">
        <ele>291.20001220703</ele>
        <time>2021-03-06T12:10:12.000Z</time>
      </trkpt>
      <trkpt lat="46.53072" lon="5.41152">
        <ele>291.39999389648</ele>
        <time>2021-03-06T12:10:13.000Z</time>
      </trkpt>
      <trkpt lat="46.53059" lon="5.41142">
        <ele>292.20001220703</ele>
        <time>2021-03-06T12:10:17.000Z</time>
      </trkpt>
      <trkpt lat="46.53056" lon="5.41138">
        <ele>292.39999389648</ele>
        <time>2021-03-06T12:10:18.000Z</time>
      </trkpt>
      <trkpt lat="46.53057" lon="5.41121">
        <ele>292.79998779297</ele>
        <time>2021-03-06T12:10:22.000Z</time>
      </trkpt>
      <trkpt lat="46.53063" lon="5.41115">
        <ele>293.79998779297</ele>
        <time>2021-03-06T12:10:24.000Z</time>
      </trkpt>
      <trkpt lat="46.53069" lon="5.41112">
        <ele>294.60000610352</ele>
        <time>2021-03-06T12:10:26.000Z</time>
      </trkpt>
      <trkpt lat="46.53076" lon="5.41112">
        <ele>295</ele>
        <time>2021-03-06T12:10:28.000Z</time>
      </trkpt>
      <trkpt lat="46.53083" lon="5.41116">
        <ele>295.39999389648</ele>
        <time>2021-03-06T12:10:30.000Z</time>
      </trkpt>
      <trkpt lat="46.53097" lon="5.41123">
        <ele>296</ele>
        <time>2021-03-06T12:10:34.000Z</time>
      </trkpt>
      <trkpt lat="46.53118" lon="5.41132">
        <ele>296.79998779297</ele>
        <time>2021-03-06T12:10:40.000Z</time>
      </trkpt>
      <trkpt lat="46.53118" lon="5.41132">
        <ele>297</ele>
        <time>2021-03-06T12:10:41.000Z</time>
      </trkpt>
      <trkpt lat="46.53133" lon="5.41138">
        <ele>298.39999389648</ele>
        <time>2021-03-06T12:10:44.000Z</time>
      </trkpt>
      <trkpt lat="46.53156" lon="5.41145">
        <ele>299.39999389648</ele>
        <time>2021-03-06T12:10:50.000Z</time>
      </trkpt>
      <trkpt lat="46.5316" lon="5.41145">
        <ele>299.60000610352</ele>
        <time>2021-03-06T12:10:51.000Z</time>
      </trkpt>
      <trkpt lat="46.53186" lon="5.41139">
        <ele>300.39999389648</ele>
        <time>2021-03-06T12:10:57.000Z</time>
      </trkpt>
      <trkpt lat="46.53198" lon="5.41136">
        <ele>300.60000610352</ele>
        <time>2021-03-06T12:11:00.000Z</time>
      </trkpt>
      <trkpt lat="46.53212" lon="5.41133">
        <ele>300.60000610352</ele>
        <time>2021-03-06T12:11:03.000Z</time>
      </trkpt>
      <trkpt lat="46.53216" lon="5.41133">
        <ele>300.60000610352</ele>
        <time>2021-03-06T12:11:04.000Z</time>
      </trkpt>
      <trkpt lat="46.53224" lon="5.41133">
        <ele>300.79998779297</ele>
        <time>2021-03-06T12:11:06.000Z</time>
      </trkpt>
      <trkpt lat="46.53245" lon="5.4114">
        <ele>301.60000610352</ele>
        <time>2021-03-06T12:11:11.000Z</time>
      </trkpt>
      <trkpt lat="46.53249" lon="5.41142">
        <ele>301.79998779297</ele>
        <time>2021-03-06T12:11:12.000Z</time>
      </trkpt>
      <trkpt lat="46.5326" lon="5.41146">
        <ele>302</ele>
        <time>2021-03-06T12:11:15.000Z</time>
      </trkpt>
      <trkpt lat="46.53267" lon="5.41154">
        <ele>302.20001220703</ele>
        <time>2021-03-06T12:11:17.000Z</time>
      </trkpt>
      <trkpt lat="46.53272" lon="5.41167">
        <ele>302.79998779297</ele>
        <time>2021-03-06T12:11:21.000Z</time>
      </trkpt>
      <trkpt lat="46.53275" lon="5.41185">
        <ele>303.20001220703</ele>
        <time>2021-03-06T12:11:23.000Z</time>
      </trkpt>
      <trkpt lat="46.53276" lon="5.41195">
        <ele>303.79998779297</ele>
        <time>2021-03-06T12:11:25.000Z</time>
      </trkpt>
      <trkpt lat="46.53277" lon="5.41237">
        <ele>305</ele>
        <time>2021-03-06T12:11:32.000Z</time>
      </trkpt>
      <trkpt lat="46.53277" lon="5.41243">
        <ele>305</ele>
        <time>2021-03-06T12:11:33.000Z</time>
      </trkpt>
      <trkpt lat="46.53279" lon="5.41282">
        <ele>305.79998779297</ele>
        <time>2021-03-06T12:11:41.000Z</time>
      </trkpt>
      <trkpt lat="46.53279" lon="5.41298">
        <ele>306.20001220703</ele>
        <time>2021-03-06T12:11:43.000Z</time>
      </trkpt>
      <trkpt lat="46.53279" lon="5.41331">
        <ele>307.39999389648</ele>
        <time>2021-03-06T12:11:49.000Z</time>
      </trkpt>
      <trkpt lat="46.5328" lon="5.41351">
        <ele>308</ele>
        <time>2021-03-06T12:11:53.000Z</time>
      </trkpt>
      <trkpt lat="46.5328" lon="5.41372">
        <ele>308.39999389648</ele>
        <time>2021-03-06T12:11:57.000Z</time>
      </trkpt>
      <trkpt lat="46.5328" lon="5.41389">
        <ele>308.79998779297</ele>
        <time>2021-03-06T12:12:00.000Z</time>
      </trkpt>
      <trkpt lat="46.53281" lon="5.41425">
        <ele>309.60000610352</ele>
        <time>2021-03-06T12:12:07.000Z</time>
      </trkpt>
      <trkpt lat="46.53279" lon="5.41437">
        <ele>309.60000610352</ele>
        <time>2021-03-06T12:12:08.000Z</time>
      </trkpt>
      <trkpt lat="46.53279" lon="5.41443">
        <ele>309.79998779297</ele>
        <time>2021-03-06T12:12:09.000Z</time>
      </trkpt>
      <trkpt lat="46.53274" lon="5.41459">
        <ele>310.20001220703</ele>
        <time>2021-03-06T12:12:12.000Z</time>
      </trkpt>
      <trkpt lat="46.53272" lon="5.41464">
        <ele>310.39999389648</ele>
        <time>2021-03-06T12:12:13.000Z</time>
      </trkpt>
      <trkpt lat="46.53268" lon="5.41475">
        <ele>310.79998779297</ele>
        <time>2021-03-06T12:12:15.000Z</time>
      </trkpt>
      <trkpt lat="46.53254" lon="5.41504">
        <ele>311.39999389648</ele>
        <time>2021-03-06T12:12:21.000Z</time>
      </trkpt>
      <trkpt lat="46.53245" lon="5.4152">
        <ele>312</ele>
        <time>2021-03-06T12:12:25.000Z</time>
      </trkpt>
      <trkpt lat="46.53235" lon="5.41535">
        <ele>313</ele>
        <time>2021-03-06T12:12:29.000Z</time>
      </trkpt>
      <trkpt lat="46.53231" lon="5.41538">
        <ele>313.20001220703</ele>
        <time>2021-03-06T12:12:30.000Z</time>
      </trkpt>
      <trkpt lat="46.5322" lon="5.41551">
        <ele>313.79998779297</ele>
        <time>2021-03-06T12:12:34.000Z</time>
      </trkpt>
      <trkpt lat="46.53214" lon="5.41557">
        <ele>314.20001220703</ele>
        <time>2021-03-06T12:12:36.000Z</time>
      </trkpt>
      <trkpt lat="46.53208" lon="5.41561">
        <ele>314.60000610352</ele>
        <time>2021-03-06T12:12:38.000Z</time>
      </trkpt>
      <trkpt lat="46.53198" lon="5.4157">
        <ele>315.20001220703</ele>
        <time>2021-03-06T12:12:42.000Z</time>
      </trkpt>
      <trkpt lat="46.53195" lon="5.41573">
        <ele>315.39999389648</ele>
        <time>2021-03-06T12:12:43.000Z</time>
      </trkpt>
      <trkpt lat="46.5318" lon="5.41583">
        <ele>316.20001220703</ele>
        <time>2021-03-06T12:12:48.000Z</time>
      </trkpt>
      <trkpt lat="46.53173" lon="5.41586">
        <ele>316.39999389648</ele>
        <time>2021-03-06T12:12:50.000Z</time>
      </trkpt>
      <trkpt lat="46.53158" lon="5.41596">
        <ele>316.60000610352</ele>
        <time>2021-03-06T12:12:54.000Z</time>
      </trkpt>
      <trkpt lat="46.53142" lon="5.41604">
        <ele>317.20001220703</ele>
        <time>2021-03-06T12:12:58.000Z</time>
      </trkpt>
      <trkpt lat="46.53128" lon="5.41611">
        <ele>318.20001220703</ele>
        <time>2021-03-06T12:13:01.000Z</time>
      </trkpt>
      <trkpt lat="46.53125" lon="5.41614">
        <ele>318.39999389648</ele>
        <time>2021-03-06T12:13:02.000Z</time>
      </trkpt>
      <trkpt lat="46.5311" lon="5.41621">
        <ele>319.20001220703</ele>
        <time>2021-03-06T12:13:06.000Z</time>
      </trkpt>
      <trkpt lat="46.53104" lon="5.41625">
        <ele>319.39999389648</ele>
        <time>2021-03-06T12:13:08.000Z</time>
      </trkpt>
      <trkpt lat="46.53096" lon="5.41631">
        <ele>320.20001220703</ele>
        <time>2021-03-06T12:13:11.000Z</time>
      </trkpt>
      <trkpt lat="46.53088" lon="5.41636">
        <ele>320.79998779297</ele>
        <time>2021-03-06T12:13:13.000Z</time>
      </trkpt>
      <trkpt lat="46.53073" lon="5.41641">
        <ele>321.39999389648</ele>
        <time>2021-03-06T12:13:17.000Z</time>
      </trkpt>
      <trkpt lat="46.53062" lon="5.41648">
        <ele>322</ele>
        <time>2021-03-06T12:13:20.000Z</time>
      </trkpt>
      <trkpt lat="46.53055" lon="5.41653">
        <ele>322.20001220703</ele>
        <time>2021-03-06T12:13:22.000Z</time>
      </trkpt>
      <trkpt lat="46.53037" lon="5.41666">
        <ele>323</ele>
        <time>2021-03-06T12:13:27.000Z</time>
      </trkpt>
      <trkpt lat="46.53028" lon="5.41673">
        <ele>323.20001220703</ele>
        <time>2021-03-06T12:13:29.000Z</time>
      </trkpt>
      <trkpt lat="46.53016" lon="5.41696">
        <ele>323.79998779297</ele>
        <time>2021-03-06T12:13:35.000Z</time>
      </trkpt>
      <trkpt lat="46.53014" lon="5.417">
        <ele>324</ele>
        <time>2021-03-06T12:13:36.000Z</time>
      </trkpt>
      <trkpt lat="46.53005" lon="5.41732">
        <ele>325.20001220703</ele>
        <time>2021-03-06T12:13:43.000Z</time>
      </trkpt>
      <trkpt lat="46.53004" lon="5.41737">
        <ele>325.39999389648</ele>
        <time>2021-03-06T12:13:44.000Z</time>
      </trkpt>
      <trkpt lat="46.53002" lon="5.41767">
        <ele>326.20001220703</ele>
        <time>2021-03-06T12:13:50.000Z</time>
      </trkpt>
      <trkpt lat="46.53003" lon="5.41772">
        <ele>326.60000610352</ele>
        <time>2021-03-06T12:13:51.000Z</time>
      </trkpt>
      <trkpt lat="46.53008" lon="5.41799">
        <ele>327.60000610352</ele>
        <time>2021-03-06T12:13:56.000Z</time>
      </trkpt>
      <trkpt lat="46.53011" lon="5.4181">
        <ele>328</ele>
        <time>2021-03-06T12:13:59.000Z</time>
      </trkpt>
      <trkpt lat="46.53016" lon="5.41827">
        <ele>328.79998779297</ele>
        <time>2021-03-06T12:14:01.000Z</time>
      </trkpt>
      <trkpt lat="46.53021" lon="5.41849">
        <ele>329.20001220703</ele>
        <time>2021-03-06T12:14:05.000Z</time>
      </trkpt>
      <trkpt lat="46.53027" lon="5.4188">
        <ele>330.20001220703</ele>
        <time>2021-03-06T12:14:11.000Z</time>
      </trkpt>
      <trkpt lat="46.53025" lon="5.41901">
        <ele>331.39999389648</ele>
        <time>2021-03-06T12:14:15.000Z</time>
      </trkpt>
      <trkpt lat="46.53023" lon="5.41918">
        <ele>332.20001220703</ele>
        <time>2021-03-06T12:14:19.000Z</time>
      </trkpt>
      <trkpt lat="46.53023" lon="5.41918">
        <ele>332.39999389648</ele>
        <time>2021-03-06T12:14:20.000Z</time>
      </trkpt>
      <trkpt lat="46.53019" lon="5.41943">
        <ele>332.79998779297</ele>
        <time>2021-03-06T12:14:25.000Z</time>
      </trkpt>
      <trkpt lat="46.53015" lon="5.41981">
        <ele>333.60000610352</ele>
        <time>2021-03-06T12:14:31.000Z</time>
      </trkpt>
      <trkpt lat="46.53015" lon="5.41991">
        <ele>334</ele>
        <time>2021-03-06T12:14:33.000Z</time>
      </trkpt>
      <trkpt lat="46.53019" lon="5.42024">
        <ele>334.60000610352</ele>
        <time>2021-03-06T12:14:39.000Z</time>
      </trkpt>
      <trkpt lat="46.53023" lon="5.42027">
        <ele>334.60000610352</ele>
        <time>2021-03-06T12:14:40.000Z</time>
      </trkpt>
      <trkpt lat="46.53033" lon="5.42028">
        <ele>334.79998779297</ele>
        <time>2021-03-06T12:14:43.000Z</time>
      </trkpt>
      <trkpt lat="46.53049" lon="5.42024">
        <ele>335.79998779297</ele>
        <time>2021-03-06T12:14:47.000Z</time>
      </trkpt>
      <trkpt lat="46.53056" lon="5.42024">
        <ele>336.20001220703</ele>
        <time>2021-03-06T12:14:49.000Z</time>
      </trkpt>
      <trkpt lat="46.53071" lon="5.42029">
        <ele>333.79998779297</ele>
        <time>2021-03-06T12:14:53.000Z</time>
      </trkpt>
      <trkpt lat="46.53074" lon="5.42031">
        <ele>337.20001220703</ele>
        <time>2021-03-06T12:14:55.000Z</time>
      </trkpt>
      <trkpt lat="46.53088" lon="5.42047">
        <ele>337.60000610352</ele>
        <time>2021-03-06T12:14:59.000Z</time>
      </trkpt>
      <trkpt lat="46.5309" lon="5.42059">
        <ele>338.20001220703</ele>
        <time>2021-03-06T12:15:02.000Z</time>
      </trkpt>
      <trkpt lat="46.5309" lon="5.42063">
        <ele>338.20001220703</ele>
        <time>2021-03-06T12:15:03.000Z</time>
      </trkpt>
      <trkpt lat="46.53088" lon="5.42067">
        <ele>338.39999389648</ele>
        <time>2021-03-06T12:15:04.000Z</time>
      </trkpt>
      <trkpt lat="46.5308" lon="5.42091">
        <ele>339.20001220703</ele>
        <time>2021-03-06T12:15:09.000Z</time>
      </trkpt>
      <trkpt lat="46.53085" lon="5.42122">
        <ele>340.39999389648</ele>
        <time>2021-03-06T12:15:14.000Z</time>
      </trkpt>
      <trkpt lat="46.53096" lon="5.42144">
        <ele>341.39999389648</ele>
        <time>2021-03-06T12:15:19.000Z</time>
      </trkpt>
      <trkpt lat="46.53104" lon="5.42165">
        <ele>342.39999389648</ele>
        <time>2021-03-06T12:15:23.000Z</time>
      </trkpt>
      <trkpt lat="46.53104" lon="5.42169">
        <ele>342.60000610352</ele>
        <time>2021-03-06T12:15:24.000Z</time>
      </trkpt>
      <trkpt lat="46.53103" lon="5.42178">
        <ele>343</ele>
        <time>2021-03-06T12:15:26.000Z</time>
      </trkpt>
      <trkpt lat="46.53101" lon="5.42183">
        <ele>343</ele>
        <time>2021-03-06T12:15:27.000Z</time>
      </trkpt>
      <trkpt lat="46.53105" lon="5.42204">
        <ele>343.60000610352</ele>
        <time>2021-03-06T12:15:30.000Z</time>
      </trkpt>
      <trkpt lat="46.53104" lon="5.42218">
        <ele>344</ele>
        <time>2021-03-06T12:15:32.000Z</time>
      </trkpt>
      <trkpt lat="46.53105" lon="5.42238">
        <ele>345</ele>
        <time>2021-03-06T12:15:36.000Z</time>
      </trkpt>
      <trkpt lat="46.53104" lon="5.42246">
        <ele>345.20001220703</ele>
        <time>2021-03-06T12:15:37.000Z</time>
      </trkpt>
      <trkpt lat="46.53108" lon="5.42268">
        <ele>345.79998779297</ele>
        <time>2021-03-06T12:15:41.000Z</time>
      </trkpt>
      <trkpt lat="46.5311" lon="5.42289">
        <ele>346.20001220703</ele>
        <time>2021-03-06T12:15:46.000Z</time>
      </trkpt>
      <trkpt lat="46.53112" lon="5.42318">
        <ele>347.39999389648</ele>
        <time>2021-03-06T12:15:53.000Z</time>
      </trkpt>
      <trkpt lat="46.53118" lon="5.42333">
        <ele>348.39999389648</ele>
        <time>2021-03-06T12:15:57.000Z</time>
      </trkpt>
      <trkpt lat="46.53123" lon="5.42343">
        <ele>348.79998779297</ele>
        <time>2021-03-06T12:15:59.000Z</time>
      </trkpt>
      <trkpt lat="46.53136" lon="5.42365">
        <ele>349.39999389648</ele>
        <time>2021-03-06T12:16:05.000Z</time>
      </trkpt>
      <trkpt lat="46.53138" lon="5.42369">
        <ele>349.60000610352</ele>
        <time>2021-03-06T12:16:06.000Z</time>
      </trkpt>
      <trkpt lat="46.53145" lon="5.42377">
        <ele>350.20001220703</ele>
        <time>2021-03-06T12:16:09.000Z</time>
      </trkpt>
      <trkpt lat="46.53154" lon="5.42383">
        <ele>350.60000610352</ele>
        <time>2021-03-06T12:16:12.000Z</time>
      </trkpt>
      <trkpt lat="46.53154" lon="5.42383">
        <ele>351</ele>
        <time>2021-03-06T12:16:13.000Z</time>
      </trkpt>
      <trkpt lat="46.53168" lon="5.4239">
        <ele>351.60000610352</ele>
        <time>2021-03-06T12:16:16.000Z</time>
      </trkpt>
      <trkpt lat="46.53185" lon="5.42397">
        <ele>352.39999389648</ele>
        <time>2021-03-06T12:16:21.000Z</time>
      </trkpt>
      <trkpt lat="46.53191" lon="5.42402">
        <ele>353</ele>
        <time>2021-03-06T12:16:23.000Z</time>
      </trkpt>
      <trkpt lat="46.53213" lon="5.42417">
        <ele>354</ele>
        <time>2021-03-06T12:16:29.000Z</time>
      </trkpt>
      <trkpt lat="46.53238" lon="5.4245">
        <ele>355.20001220703</ele>
        <time>2021-03-06T12:16:38.000Z</time>
      </trkpt>
      <trkpt lat="46.53243" lon="5.42475">
        <ele>356.20001220703</ele>
        <time>2021-03-06T12:16:44.000Z</time>
      </trkpt>
      <trkpt lat="46.53244" lon="5.42479">
        <ele>356.60000610352</ele>
        <time>2021-03-06T12:16:45.000Z</time>
      </trkpt>
      <trkpt lat="46.53248" lon="5.42491">
        <ele>357.20001220703</ele>
        <time>2021-03-06T12:16:48.000Z</time>
      </trkpt>
      <trkpt lat="46.5325" lon="5.42494">
        <ele>357.39999389648</ele>
        <time>2021-03-06T12:16:49.000Z</time>
      </trkpt>
      <trkpt lat="46.53254" lon="5.42496">
        <ele>357.60000610352</ele>
        <time>2021-03-06T12:16:50.000Z</time>
      </trkpt>
      <trkpt lat="46.53257" lon="5.42496">
        <ele>357.60000610352</ele>
        <time>2021-03-06T12:16:51.000Z</time>
      </trkpt>
      <trkpt lat="46.53261" lon="5.42493">
        <ele>358</ele>
        <time>2021-03-06T12:16:53.000Z</time>
      </trkpt>
      <trkpt lat="46.53263" lon="5.4249">
        <ele>358.20001220703</ele>
        <time>2021-03-06T12:16:54.000Z</time>
      </trkpt>
      <trkpt lat="46.53264" lon="5.42487">
        <ele>358.39999389648</ele>
        <time>2021-03-06T12:16:55.000Z</time>
      </trkpt>
      <trkpt lat="46.53264" lon="5.42485">
        <ele>358.79998779297</ele>
        <time>2021-03-06T12:16:56.000Z</time>
      </trkpt>
      <trkpt lat="46.53266" lon="5.42477">
        <ele>359.20001220703</ele>
        <time>2021-03-06T12:16:58.000Z</time>
      </trkpt>
      <trkpt lat="46.53263" lon="5.4247">
        <ele>359.39999389648</ele>
        <time>2021-03-06T12:17:00.000Z</time>
      </trkpt>
      <trkpt lat="46.53258" lon="5.42461">
        <ele>359.60000610352</ele>
        <time>2021-03-06T12:17:02.000Z</time>
      </trkpt>
      <trkpt lat="46.53255" lon="5.42452">
        <ele>359.79998779297</ele>
        <time>2021-03-06T12:17:04.000Z</time>
      </trkpt>
      <trkpt lat="46.53251" lon="5.4244">
        <ele>360.60000610352</ele>
        <time>2021-03-06T12:17:07.000Z</time>
      </trkpt>
      <trkpt lat="46.53248" lon="5.42436">
        <ele>361</ele>
        <time>2021-03-06T12:17:08.000Z</time>
      </trkpt>
      <trkpt lat="46.53233" lon="5.42417">
        <ele>361.79998779297</ele>
        <time>2021-03-06T12:17:13.000Z</time>
      </trkpt>
      <trkpt lat="46.5323" lon="5.42414">
        <ele>362</ele>
        <time>2021-03-06T12:17:14.000Z</time>
      </trkpt>
      <trkpt lat="46.53221" lon="5.42407">
        <ele>363</ele>
        <time>2021-03-06T12:17:17.000Z</time>
      </trkpt>
      <trkpt lat="46.53216" lon="5.42402">
        <ele>363.20001220703</ele>
        <time>2021-03-06T12:17:19.000Z</time>
      </trkpt>
      <trkpt lat="46.53204" lon="5.42394">
        <ele>363.79998779297</ele>
        <time>2021-03-06T12:17:22.000Z</time>
      </trkpt>
      <trkpt lat="46.53182" lon="5.42373">
        <ele>364</ele>
        <time>2021-03-06T12:17:27.000Z</time>
      </trkpt>
      <trkpt lat="46.53167" lon="5.4235">
        <ele>364.60000610352</ele>
        <time>2021-03-06T12:17:33.000Z</time>
      </trkpt>
      <trkpt lat="46.53164" lon="5.42346">
        <ele>365</ele>
        <time>2021-03-06T12:17:34.000Z</time>
      </trkpt>
      <trkpt lat="46.53153" lon="5.42324">
        <ele>365.39999389648</ele>
        <time>2021-03-06T12:17:39.000Z</time>
      </trkpt>
      <trkpt lat="46.53149" lon="5.42305">
        <ele>366</ele>
        <time>2021-03-06T12:17:43.000Z</time>
      </trkpt>
      <trkpt lat="46.53148" lon="5.42295">
        <ele>366.20001220703</ele>
        <time>2021-03-06T12:17:46.000Z</time>
      </trkpt>
      <trkpt lat="46.53147" lon="5.42269">
        <ele>367.20001220703</ele>
        <time>2021-03-06T12:17:50.000Z</time>
      </trkpt>
      <trkpt lat="46.53148" lon="5.42249">
        <ele>367.79998779297</ele>
        <time>2021-03-06T12:17:54.000Z</time>
      </trkpt>
      <trkpt lat="46.5315" lon="5.42234">
        <ele>368.39999389648</ele>
        <time>2021-03-06T12:17:57.000Z</time>
      </trkpt>
      <trkpt lat="46.53153" lon="5.42199">
        <ele>369</ele>
        <time>2021-03-06T12:18:04.000Z</time>
      </trkpt>
      <trkpt lat="46.53153" lon="5.42189">
        <ele>369.39999389648</ele>
        <time>2021-03-06T12:18:06.000Z</time>
      </trkpt>
      <trkpt lat="46.53155" lon="5.42165">
        <ele>370.20001220703</ele>
        <time>2021-03-06T12:18:11.000Z</time>
      </trkpt>
      <trkpt lat="46.53156" lon="5.42144">
        <ele>370.60000610352</ele>
        <time>2021-03-06T12:18:15.000Z</time>
      </trkpt>
      <trkpt lat="46.53153" lon="5.42127">
        <ele>370.79998779297</ele>
        <time>2021-03-06T12:18:18.000Z</time>
      </trkpt>
      <trkpt lat="46.5315" lon="5.4211">
        <ele>371.60000610352</ele>
        <time>2021-03-06T12:18:22.000Z</time>
      </trkpt>
      <trkpt lat="46.53148" lon="5.42087">
        <ele>372.20001220703</ele>
        <time>2021-03-06T12:18:27.000Z</time>
      </trkpt>
      <trkpt lat="46.5315" lon="5.42069">
        <ele>373</ele>
        <time>2021-03-06T12:18:31.000Z</time>
      </trkpt>
      <trkpt lat="46.5315" lon="5.42066">
        <ele>373</ele>
        <time>2021-03-06T12:18:32.000Z</time>
      </trkpt>
      <trkpt lat="46.53155" lon="5.42055">
        <ele>373.39999389648</ele>
        <time>2021-03-06T12:18:35.000Z</time>
      </trkpt>
      <trkpt lat="46.53168" lon="5.42039">
        <ele>374</ele>
        <time>2021-03-06T12:18:40.000Z</time>
      </trkpt>
      <trkpt lat="46.53172" lon="5.42035">
        <ele>374.20001220703</ele>
        <time>2021-03-06T12:18:41.000Z</time>
      </trkpt>
      <trkpt lat="46.53182" lon="5.42021">
        <ele>374.60000610352</ele>
        <time>2021-03-06T12:18:44.000Z</time>
      </trkpt>
      <trkpt lat="46.53194" lon="5.41997">
        <ele>375</ele>
        <time>2021-03-06T12:18:49.000Z</time>
      </trkpt>
      <trkpt lat="46.53197" lon="5.41992">
        <ele>375.20001220703</ele>
        <time>2021-03-06T12:18:50.000Z</time>
      </trkpt>
      <trkpt lat="46.53205" lon="5.41966">
        <ele>375.79998779297</ele>
        <time>2021-03-06T12:18:55.000Z</time>
      </trkpt>
      <trkpt lat="46.53211" lon="5.41929">
        <ele>376.20001220703</ele>
        <time>2021-03-06T12:19:00.000Z</time>
      </trkpt>
      <trkpt lat="46.53213" lon="5.41922">
        <ele>376.39999389648</ele>
        <time>2021-03-06T12:19:01.000Z</time>
      </trkpt>
      <trkpt lat="46.53216" lon="5.41915">
        <ele>376.39999389648</ele>
        <time>2021-03-06T12:19:02.000Z</time>
      </trkpt>
      <trkpt lat="46.53221" lon="5.41879">
        <ele>376.79998779297</ele>
        <time>2021-03-06T12:19:07.000Z</time>
      </trkpt>
      <trkpt lat="46.53216" lon="5.4186">
        <ele>377.20001220703</ele>
        <time>2021-03-06T12:19:10.000Z</time>
      </trkpt>
      <trkpt lat="46.53214" lon="5.41855">
        <ele>377.20001220703</ele>
        <time>2021-03-06T12:19:11.000Z</time>
      </trkpt>
      <trkpt lat="46.53212" lon="5.41849">
        <ele>377.20001220703</ele>
        <time>2021-03-06T12:19:12.000Z</time>
      </trkpt>
      <trkpt lat="46.53208" lon="5.41844">
        <ele>377.39999389648</ele>
        <time>2021-03-06T12:19:13.000Z</time>
      </trkpt>
      <trkpt lat="46.53196" lon="5.41818">
        <ele>378</ele>
        <time>2021-03-06T12:19:18.000Z</time>
      </trkpt>
      <trkpt lat="46.53196" lon="5.41812">
        <ele>378.20001220703</ele>
        <time>2021-03-06T12:19:19.000Z</time>
      </trkpt>
      <trkpt lat="46.53195" lon="5.41801">
        <ele>378.20001220703</ele>
        <time>2021-03-06T12:19:21.000Z</time>
      </trkpt>
      <trkpt lat="46.53196" lon="5.41796">
        <ele>378.39999389648</ele>
        <time>2021-03-06T12:19:22.000Z</time>
      </trkpt>
      <trkpt lat="46.53204" lon="5.41781">
        <ele>379</ele>
        <time>2021-03-06T12:19:27.000Z</time>
      </trkpt>
      <trkpt lat="46.5321" lon="5.41774">
        <ele>379.39999389648</ele>
        <time>2021-03-06T12:19:30.000Z</time>
      </trkpt>
      <trkpt lat="46.53213" lon="5.41771">
        <ele>379.79998779297</ele>
        <time>2021-03-06T12:19:33.000Z</time>
      </trkpt>
      <trkpt lat="46.53213" lon="5.41771">
        <ele>380.20001220703</ele>
        <time>2021-03-06T12:19:35.000Z</time>
      </trkpt>
      <trkpt lat="46.53222" lon="5.41778">
        <ele>380.20001220703</ele>
        <time>2021-03-06T12:20:31.000Z</time>
      </trkpt>
      <trkpt lat="46.53225" lon="5.4178">
        <ele>380.20001220703</ele>
        <time>2021-03-06T12:20:32.000Z</time>
      </trkpt>
      <trkpt lat="46.53235" lon="5.41797">
        <ele>380.60000610352</ele>
        <time>2021-03-06T12:20:37.000Z</time>
      </trkpt>
      <trkpt lat="46.53236" lon="5.41802">
        <ele>380.79998779297</ele>
        <time>2021-03-06T12:20:38.000Z</time>
      </trkpt>
      <trkpt lat="46.5324" lon="5.41823">
        <ele>381.79998779297</ele>
        <time>2021-03-06T12:20:42.000Z</time>
      </trkpt>
      <trkpt lat="46.53241" lon="5.41828">
        <ele>382</ele>
        <time>2021-03-06T12:20:43.000Z</time>
      </trkpt>
      <trkpt lat="46.53244" lon="5.41854">
        <ele>383.20001220703</ele>
        <time>2021-03-06T12:20:48.000Z</time>
      </trkpt>
      <trkpt lat="46.53244" lon="5.41864">
        <ele>383.79998779297</ele>
        <time>2021-03-06T12:20:50.000Z</time>
      </trkpt>
      <trkpt lat="46.53244" lon="5.41874">
        <ele>384.20001220703</ele>
        <time>2021-03-06T12:20:52.000Z</time>
      </trkpt>
      <trkpt lat="46.53242" lon="5.41892">
        <ele>385.39999389648</ele>
        <time>2021-03-06T12:20:56.000Z</time>
      </trkpt>
      <trkpt lat="46.53242" lon="5.41897">
        <ele>386</ele>
        <time>2021-03-06T12:20:57.000Z</time>
      </trkpt>
      <trkpt lat="46.53241" lon="5.41905">
        <ele>386.39999389648</ele>
        <time>2021-03-06T12:20:59.000Z</time>
      </trkpt>
      <trkpt lat="46.53236" lon="5.41925">
        <ele>387.60000610352</ele>
        <time>2021-03-06T12:21:04.000Z</time>
      </trkpt>
      <trkpt lat="46.53234" lon="5.41933">
        <ele>388.20001220703</ele>
        <time>2021-03-06T12:21:06.000Z</time>
      </trkpt>
      <trkpt lat="46.53232" lon="5.41941">
        <ele>388.60000610352</ele>
        <time>2021-03-06T12:21:08.000Z</time>
      </trkpt>
      <trkpt lat="46.53225" lon="5.41956">
        <ele>389.39999389648</ele>
        <time>2021-03-06T12:21:12.000Z</time>
      </trkpt>
      <trkpt lat="46.53222" lon="5.41964">
        <ele>390</ele>
        <time>2021-03-06T12:21:14.000Z</time>
      </trkpt>
      <trkpt lat="46.53216" lon="5.41982">
        <ele>391</ele>
        <time>2021-03-06T12:21:19.000Z</time>
      </trkpt>
      <trkpt lat="46.53211" lon="5.41996">
        <ele>392.39999389648</ele>
        <time>2021-03-06T12:21:23.000Z</time>
      </trkpt>
      <trkpt lat="46.53203" lon="5.42014">
        <ele>393.60000610352</ele>
        <time>2021-03-06T12:21:28.000Z</time>
      </trkpt>
      <trkpt lat="46.53199" lon="5.42039">
        <ele>394.60000610352</ele>
        <time>2021-03-06T12:21:34.000Z</time>
      </trkpt>
      <trkpt lat="46.532" lon="5.4205">
        <ele>395.60000610352</ele>
        <time>2021-03-06T12:21:37.000Z</time>
      </trkpt>
      <trkpt lat="46.53201" lon="5.42053">
        <ele>395.79998779297</ele>
        <time>2021-03-06T12:21:38.000Z</time>
      </trkpt>
      <trkpt lat="46.53207" lon="5.42076">
        <ele>397.20001220703</ele>
        <time>2021-03-06T12:21:43.000Z</time>
      </trkpt>
      <trkpt lat="46.53209" lon="5.42081">
        <ele>397.60000610352</ele>
        <time>2021-03-06T12:21:44.000Z</time>
      </trkpt>
      <trkpt lat="46.53211" lon="5.4209">
        <ele>398.20001220703</ele>
        <time>2021-03-06T12:21:46.000Z</time>
      </trkpt>
      <trkpt lat="46.53217" lon="5.42108">
        <ele>399.20001220703</ele>
        <time>2021-03-06T12:21:50.000Z</time>
      </trkpt>
      <trkpt lat="46.53219" lon="5.42113">
        <ele>399.39999389648</ele>
        <time>2021-03-06T12:21:51.000Z</time>
      </trkpt>
      <trkpt lat="46.53227" lon="5.42141">
        <ele>400.60000610352</ele>
        <time>2021-03-06T12:21:57.000Z</time>
      </trkpt>
      <trkpt lat="46.5323" lon="5.42168">
        <ele>401.60000610352</ele>
        <time>2021-03-06T12:22:03.000Z</time>
      </trkpt>
      <trkpt lat="46.53232" lon="5.42182">
        <ele>402.60000610352</ele>
        <time>2021-03-06T12:22:06.000Z</time>
      </trkpt>
      <trkpt lat="46.53233" lon="5.42186">
        <ele>402.79998779297</ele>
        <time>2021-03-06T12:22:07.000Z</time>
      </trkpt>
      <trkpt lat="46.53239" lon="5.42205">
        <ele>403.79998779297</ele>
        <time>2021-03-06T12:22:12.000Z</time>
      </trkpt>
      <trkpt lat="46.53248" lon="5.42218">
        <ele>405</ele>
        <time>2021-03-06T12:22:16.000Z</time>
      </trkpt>
      <trkpt lat="46.53249" lon="5.42221">
        <ele>405.20001220703</ele>
        <time>2021-03-06T12:22:17.000Z</time>
      </trkpt>
      <trkpt lat="46.5326" lon="5.42243">
        <ele>406.20001220703</ele>
        <time>2021-03-06T12:22:23.000Z</time>
      </trkpt>
      <trkpt lat="46.53263" lon="5.42253">
        <ele>406.39999389648</ele>
        <time>2021-03-06T12:22:25.000Z</time>
      </trkpt>
      <trkpt lat="46.53269" lon="5.42284">
        <ele>407.20001220703</ele>
        <time>2021-03-06T12:22:31.000Z</time>
      </trkpt>
      <trkpt lat="46.5327" lon="5.42289">
        <ele>407.60000610352</ele>
        <time>2021-03-06T12:22:32.000Z</time>
      </trkpt>
      <trkpt lat="46.53273" lon="5.4231">
        <ele>408.20001220703</ele>
        <time>2021-03-06T12:22:36.000Z</time>
      </trkpt>
      <trkpt lat="46.53282" lon="5.42339">
        <ele>409.39999389648</ele>
        <time>2021-03-06T12:22:42.000Z</time>
      </trkpt>
      <trkpt lat="46.53295" lon="5.42369">
        <ele>410.60000610352</ele>
        <time>2021-03-06T12:22:48.000Z</time>
      </trkpt>
      <trkpt lat="46.53302" lon="5.42384">
        <ele>410.79998779297</ele>
        <time>2021-03-06T12:22:51.000Z</time>
      </trkpt>
      <trkpt lat="46.53311" lon="5.4241">
        <ele>411.79998779297</ele>
        <time>2021-03-06T12:22:56.000Z</time>
      </trkpt>
      <trkpt lat="46.53315" lon="5.4242">
        <ele>412</ele>
        <time>2021-03-06T12:22:58.000Z</time>
      </trkpt>
      <trkpt lat="46.53325" lon="5.42449">
        <ele>413</ele>
        <time>2021-03-06T12:23:04.000Z</time>
      </trkpt>
      <trkpt lat="46.53328" lon="5.42459">
        <ele>413.39999389648</ele>
        <time>2021-03-06T12:23:06.000Z</time>
      </trkpt>
      <trkpt lat="46.53332" lon="5.42474">
        <ele>414</ele>
        <time>2021-03-06T12:23:09.000Z</time>
      </trkpt>
      <trkpt lat="46.53342" lon="5.42502">
        <ele>414.79998779297</ele>
        <time>2021-03-06T12:23:15.000Z</time>
      </trkpt>
      <trkpt lat="46.53344" lon="5.42507">
        <ele>415.20001220703</ele>
        <time>2021-03-06T12:23:16.000Z</time>
      </trkpt>
      <trkpt lat="46.53355" lon="5.42535">
        <ele>416.60000610352</ele>
        <time>2021-03-06T12:23:22.000Z</time>
      </trkpt>
      <trkpt lat="46.53362" lon="5.42548">
        <ele>417.20001220703</ele>
        <time>2021-03-06T12:23:25.000Z</time>
      </trkpt>
      <trkpt lat="46.53371" lon="5.42564">
        <ele>417.60000610352</ele>
        <time>2021-03-06T12:23:29.000Z</time>
      </trkpt>
      <trkpt lat="46.53382" lon="5.42584">
        <ele>418.79998779297</ele>
        <time>2021-03-06T12:23:34.000Z</time>
      </trkpt>
      <trkpt lat="46.53385" lon="5.42587">
        <ele>418.79998779297</ele>
        <time>2021-03-06T12:23:35.000Z</time>
      </trkpt>
      <trkpt lat="46.53397" lon="5.42606">
        <ele>419.79998779297</ele>
        <time>2021-03-06T12:23:40.000Z</time>
      </trkpt>
      <trkpt lat="46.53407" lon="5.42621">
        <ele>420.79998779297</ele>
        <time>2021-03-06T12:23:44.000Z</time>
      </trkpt>
      <trkpt lat="46.53409" lon="5.42625">
        <ele>421</ele>
        <time>2021-03-06T12:23:45.000Z</time>
      </trkpt>
      <trkpt lat="46.53417" lon="5.42643">
        <ele>422.20001220703</ele>
        <time>2021-03-06T12:23:49.000Z</time>
      </trkpt>
      <trkpt lat="46.53426" lon="5.42667">
        <ele>423</ele>
        <time>2021-03-06T12:23:54.000Z</time>
      </trkpt>
      <trkpt lat="46.53431" lon="5.42682">
        <ele>423</ele>
        <time>2021-03-06T12:23:57.000Z</time>
      </trkpt>
      <trkpt lat="46.53436" lon="5.42709">
        <ele>424</ele>
        <time>2021-03-06T12:24:02.000Z</time>
      </trkpt>
      <trkpt lat="46.53441" lon="5.42737">
        <ele>424.60000610352</ele>
        <time>2021-03-06T12:24:07.000Z</time>
      </trkpt>
      <trkpt lat="46.53445" lon="5.42746">
        <ele>424.79998779297</ele>
        <time>2021-03-06T12:24:09.000Z</time>
      </trkpt>
      <trkpt lat="46.53458" lon="5.42755">
        <ele>425.20001220703</ele>
        <time>2021-03-06T12:24:13.000Z</time>
      </trkpt>
      <trkpt lat="46.53471" lon="5.4276">
        <ele>425.79998779297</ele>
        <time>2021-03-06T12:24:17.000Z</time>
      </trkpt>
      <trkpt lat="46.53479" lon="5.42764">
        <ele>426.39999389648</ele>
        <time>2021-03-06T12:24:19.000Z</time>
      </trkpt>
      <trkpt lat="46.53495" lon="5.42773">
        <ele>427</ele>
        <time>2021-03-06T12:24:23.000Z</time>
      </trkpt>
      <trkpt lat="46.53499" lon="5.42777">
        <ele>427.39999389648</ele>
        <time>2021-03-06T12:24:24.000Z</time>
      </trkpt>
      <trkpt lat="46.53503" lon="5.42781">
        <ele>427.79998779297</ele>
        <time>2021-03-06T12:24:25.000Z</time>
      </trkpt>
      <trkpt lat="46.53511" lon="5.42791">
        <ele>428.20001220703</ele>
        <time>2021-03-06T12:24:27.000Z</time>
      </trkpt>
      <trkpt lat="46.53524" lon="5.42809">
        <ele>428.20001220703</ele>
        <time>2021-03-06T12:24:30.000Z</time>
      </trkpt>
      <trkpt lat="46.53549" lon="5.42846">
        <ele>427.20001220703</ele>
        <time>2021-03-06T12:24:35.000Z</time>
      </trkpt>
      <trkpt lat="46.53554" lon="5.42854">
        <ele>426.60000610352</ele>
        <time>2021-03-06T12:24:36.000Z</time>
      </trkpt>
      <trkpt lat="46.53573" lon="5.42888">
        <ele>425.39999389648</ele>
        <time>2021-03-06T12:24:40.000Z</time>
      </trkpt>
      <trkpt lat="46.53582" lon="5.42906">
        <ele>425.20001220703</ele>
        <time>2021-03-06T12:24:42.000Z</time>
      </trkpt>
      <trkpt lat="46.536" lon="5.42944">
        <ele>424.60000610352</ele>
        <time>2021-03-06T12:24:46.000Z</time>
      </trkpt>
      <trkpt lat="46.53618" lon="5.42982">
        <ele>423.39999389648</ele>
        <time>2021-03-06T12:24:50.000Z</time>
      </trkpt>
      <trkpt lat="46.53656" lon="5.43051">
        <ele>422.60000610352</ele>
        <time>2021-03-06T12:24:58.000Z</time>
      </trkpt>
      <trkpt lat="46.53661" lon="5.43059">
        <ele>422.60000610352</ele>
        <time>2021-03-06T12:24:59.000Z</time>
      </trkpt>
      <trkpt lat="46.5367" lon="5.43077">
        <ele>422.39999389648</ele>
        <time>2021-03-06T12:25:01.000Z</time>
      </trkpt>
      <trkpt lat="46.53699" lon="5.43132">
        <ele>421.60000610352</ele>
        <time>2021-03-06T12:25:07.000Z</time>
      </trkpt>
      <trkpt lat="46.53703" lon="5.43139">
        <ele>421.39999389648</ele>
        <time>2021-03-06T12:25:08.000Z</time>
      </trkpt>
      <trkpt lat="46.53714" lon="5.4316">
        <ele>421.20001220703</ele>
        <time>2021-03-06T12:25:10.000Z</time>
      </trkpt>
      <trkpt lat="46.5372" lon="5.4318">
        <ele>421</ele>
        <time>2021-03-06T12:25:12.000Z</time>
      </trkpt>
      <trkpt lat="46.53721" lon="5.43205">
        <ele>420.60000610352</ele>
        <time>2021-03-06T12:25:14.000Z</time>
      </trkpt>
      <trkpt lat="46.53721" lon="5.43217">
        <ele>420.39999389648</ele>
        <time>2021-03-06T12:25:15.000Z</time>
      </trkpt>
      <trkpt lat="46.53721" lon="5.43232">
        <ele>420</ele>
        <time>2021-03-06T12:25:16.000Z</time>
      </trkpt>
      <trkpt lat="46.53727" lon="5.43255">
        <ele>419.39999389648</ele>
        <time>2021-03-06T12:25:18.000Z</time>
      </trkpt>
      <trkpt lat="46.53733" lon="5.43267">
        <ele>418.60000610352</ele>
        <time>2021-03-06T12:25:19.000Z</time>
      </trkpt>
      <trkpt lat="46.53753" lon="5.43303">
        <ele>417.20001220703</ele>
        <time>2021-03-06T12:25:22.000Z</time>
      </trkpt>
      <trkpt lat="46.53765" lon="5.43323">
        <ele>415.79998779297</ele>
        <time>2021-03-06T12:25:24.000Z</time>
      </trkpt>
      <trkpt lat="46.53779" lon="5.43347">
        <ele>414.60000610352</ele>
        <time>2021-03-06T12:25:26.000Z</time>
      </trkpt>
      <trkpt lat="46.53797" lon="5.43379">
        <ele>413.60000610352</ele>
        <time>2021-03-06T12:25:29.000Z</time>
      </trkpt>
      <trkpt lat="46.53802" lon="5.43389">
        <ele>413.60000610352</ele>
        <time>2021-03-06T12:25:30.000Z</time>
      </trkpt>
      <trkpt lat="46.53813" lon="5.4341">
        <ele>413</ele>
        <time>2021-03-06T12:25:32.000Z</time>
      </trkpt>
      <trkpt lat="46.53821" lon="5.43433">
        <ele>412.60000610352</ele>
        <time>2021-03-06T12:25:34.000Z</time>
      </trkpt>
      <trkpt lat="46.53827" lon="5.43456">
        <ele>412.39999389648</ele>
        <time>2021-03-06T12:25:36.000Z</time>
      </trkpt>
      <trkpt lat="46.53845" lon="5.43515">
        <ele>411.60000610352</ele>
        <time>2021-03-06T12:25:41.000Z</time>
      </trkpt>
      <trkpt lat="46.53849" lon="5.43524">
        <ele>411.39999389648</ele>
        <time>2021-03-06T12:25:42.000Z</time>
      </trkpt>
      <trkpt lat="46.53866" lon="5.4356">
        <ele>410.20001220703</ele>
        <time>2021-03-06T12:25:45.000Z</time>
      </trkpt>
      <trkpt lat="46.53872" lon="5.43571">
        <ele>409.79998779297</ele>
        <time>2021-03-06T12:25:46.000Z</time>
      </trkpt>
      <trkpt lat="46.53884" lon="5.43593">
        <ele>409</ele>
        <time>2021-03-06T12:25:48.000Z</time>
      </trkpt>
      <trkpt lat="46.53908" lon="5.43633">
        <ele>407.79998779297</ele>
        <time>2021-03-06T12:25:52.000Z</time>
      </trkpt>
      <trkpt lat="46.53922" lon="5.43654">
        <ele>407.60000610352</ele>
        <time>2021-03-06T12:25:54.000Z</time>
      </trkpt>
      <trkpt lat="46.53952" lon="5.43696">
        <ele>407.60000610352</ele>
        <time>2021-03-06T12:25:59.000Z</time>
      </trkpt>
      <trkpt lat="46.53982" lon="5.43742">
        <ele>408</ele>
        <time>2021-03-06T12:26:05.000Z</time>
      </trkpt>
      <trkpt lat="46.54001" lon="5.43774">
        <ele>409.20001220703</ele>
        <time>2021-03-06T12:26:09.000Z</time>
      </trkpt>
      <trkpt lat="46.54014" lon="5.43799">
        <ele>409.39999389648</ele>
        <time>2021-03-06T12:26:12.000Z</time>
      </trkpt>
      <trkpt lat="46.54047" lon="5.43851">
        <ele>409.79998779297</ele>
        <time>2021-03-06T12:26:19.000Z</time>
      </trkpt>
      <trkpt lat="46.54068" lon="5.43887">
        <ele>410.20001220703</ele>
        <time>2021-03-06T12:26:24.000Z</time>
      </trkpt>
      <trkpt lat="46.54085" lon="5.43919">
        <ele>410.60000610352</ele>
        <time>2021-03-06T12:26:28.000Z</time>
      </trkpt>
      <trkpt lat="46.54123" lon="5.43982">
        <ele>411.20001220703</ele>
        <time>2021-03-06T12:26:36.000Z</time>
      </trkpt>
      <trkpt lat="46.54141" lon="5.4401">
        <ele>411.60000610352</ele>
        <time>2021-03-06T12:26:40.000Z</time>
      </trkpt>
      <trkpt lat="46.54163" lon="5.44042">
        <ele>412.20001220703</ele>
        <time>2021-03-06T12:26:45.000Z</time>
      </trkpt>
      <trkpt lat="46.54176" lon="5.44059">
        <ele>412.60000610352</ele>
        <time>2021-03-06T12:26:48.000Z</time>
      </trkpt>
      <trkpt lat="46.5418" lon="5.44065">
        <ele>412.79998779297</ele>
        <time>2021-03-06T12:26:49.000Z</time>
      </trkpt>
      <trkpt lat="46.54198" lon="5.44089">
        <ele>413.39999389648</ele>
        <time>2021-03-06T12:26:53.000Z</time>
      </trkpt>
      <trkpt lat="46.54202" lon="5.44096">
        <ele>413.39999389648</ele>
        <time>2021-03-06T12:26:54.000Z</time>
      </trkpt>
      <trkpt lat="46.54219" lon="5.44128">
        <ele>413</ele>
        <time>2021-03-06T12:26:58.000Z</time>
      </trkpt>
      <trkpt lat="46.5423" lon="5.44158">
        <ele>412.60000610352</ele>
        <time>2021-03-06T12:27:01.000Z</time>
      </trkpt>
      <trkpt lat="46.54235" lon="5.4418">
        <ele>412.39999389648</ele>
        <time>2021-03-06T12:27:03.000Z</time>
      </trkpt>
      <trkpt lat="46.54238" lon="5.44204">
        <ele>411.60000610352</ele>
        <time>2021-03-06T12:27:05.000Z</time>
      </trkpt>
      <trkpt lat="46.54244" lon="5.44226">
        <ele>411</ele>
        <time>2021-03-06T12:27:07.000Z</time>
      </trkpt>
      <trkpt lat="46.54259" lon="5.44262">
        <ele>410.60000610352</ele>
        <time>2021-03-06T12:27:11.000Z</time>
      </trkpt>
      <trkpt lat="46.54285" lon="5.44309">
        <ele>411.39999389648</ele>
        <time>2021-03-06T12:27:17.000Z</time>
      </trkpt>
      <trkpt lat="46.54321" lon="5.44369">
        <ele>412</ele>
        <time>2021-03-06T12:27:25.000Z</time>
      </trkpt>
      <trkpt lat="46.54349" lon="5.44411">
        <ele>412</ele>
        <time>2021-03-06T12:27:31.000Z</time>
      </trkpt>
      <trkpt lat="46.54357" lon="5.44428">
        <ele>412</ele>
        <time>2021-03-06T12:27:33.000Z</time>
      </trkpt>
      <trkpt lat="46.54365" lon="5.44456">
        <ele>412</ele>
        <time>2021-03-06T12:27:36.000Z</time>
      </trkpt>
      <trkpt lat="46.54377" lon="5.44496">
        <ele>412.39999389648</ele>
        <time>2021-03-06T12:27:41.000Z</time>
      </trkpt>
      <trkpt lat="46.54387" lon="5.44513">
        <ele>413.20001220703</ele>
        <time>2021-03-06T12:27:44.000Z</time>
      </trkpt>
      <trkpt lat="46.5439" lon="5.44518">
        <ele>413.20001220703</ele>
        <time>2021-03-06T12:27:45.000Z</time>
      </trkpt>
      <trkpt lat="46.54403" lon="5.44539">
        <ele>414.39999389648</ele>
        <time>2021-03-06T12:27:49.000Z</time>
      </trkpt>
      <trkpt lat="46.54406" lon="5.44544">
        <ele>414.39999389648</ele>
        <time>2021-03-06T12:27:50.000Z</time>
      </trkpt>
      <trkpt lat="46.54421" lon="5.44571">
        <ele>415.39999389648</ele>
        <time>2021-03-06T12:27:55.000Z</time>
      </trkpt>
      <trkpt lat="46.54427" lon="5.44584">
        <ele>415.60000610352</ele>
        <time>2021-03-06T12:27:57.000Z</time>
      </trkpt>
      <trkpt lat="46.54447" lon="5.4463">
        <ele>416.39999389648</ele>
        <time>2021-03-06T12:28:04.000Z</time>
      </trkpt>
      <trkpt lat="46.54452" lon="5.44643">
        <ele>416.60000610352</ele>
        <time>2021-03-06T12:28:06.000Z</time>
      </trkpt>
      <trkpt lat="46.54454" lon="5.4465">
        <ele>416.79998779297</ele>
        <time>2021-03-06T12:28:07.000Z</time>
      </trkpt>
      <trkpt lat="46.54466" lon="5.44687">
        <ele>417</ele>
        <time>2021-03-06T12:28:12.000Z</time>
      </trkpt>
      <trkpt lat="46.54488" lon="5.44758">
        <ele>417.20001220703</ele>
        <time>2021-03-06T12:28:22.000Z</time>
      </trkpt>
      <trkpt lat="46.54494" lon="5.44771">
        <ele>417.39999389648</ele>
        <time>2021-03-06T12:28:24.000Z</time>
      </trkpt>
      <trkpt lat="46.54504" lon="5.44787">
        <ele>417.60000610352</ele>
        <time>2021-03-06T12:28:27.000Z</time>
      </trkpt>
      <trkpt lat="46.54508" lon="5.44792">
        <ele>417.79998779297</ele>
        <time>2021-03-06T12:28:28.000Z</time>
      </trkpt>
      <trkpt lat="46.54521" lon="5.44812">
        <ele>418.60000610352</ele>
        <time>2021-03-06T12:28:32.000Z</time>
      </trkpt>
      <trkpt lat="46.54528" lon="5.44823">
        <ele>418.79998779297</ele>
        <time>2021-03-06T12:28:34.000Z</time>
      </trkpt>
      <trkpt lat="46.5453" lon="5.44829">
        <ele>419</ele>
        <time>2021-03-06T12:28:35.000Z</time>
      </trkpt>
      <trkpt lat="46.54555" lon="5.44875">
        <ele>419.20001220703</ele>
        <time>2021-03-06T12:28:42.000Z</time>
      </trkpt>
      <trkpt lat="46.54584" lon="5.44927">
        <ele>419.20001220703</ele>
        <time>2021-03-06T12:28:49.000Z</time>
      </trkpt>
      <trkpt lat="46.54619" lon="5.4498">
        <ele>418.39999389648</ele>
        <time>2021-03-06T12:28:56.000Z</time>
      </trkpt>
      <trkpt lat="46.54642" lon="5.45011">
        <ele>418.20001220703</ele>
        <time>2021-03-06T12:29:01.000Z</time>
      </trkpt>
      <trkpt lat="46.54663" lon="5.45036">
        <ele>419</ele>
        <time>2021-03-06T12:29:06.000Z</time>
      </trkpt>
      <trkpt lat="46.54666" lon="5.45041">
        <ele>419.20001220703</ele>
        <time>2021-03-06T12:29:07.000Z</time>
      </trkpt>
      <trkpt lat="46.54684" lon="5.4507">
        <ele>420.20001220703</ele>
        <time>2021-03-06T12:29:12.000Z</time>
      </trkpt>
      <trkpt lat="46.54688" lon="5.45075">
        <ele>420.39999389648</ele>
        <time>2021-03-06T12:29:13.000Z</time>
      </trkpt>
      <trkpt lat="46.54696" lon="5.45086">
        <ele>420.79998779297</ele>
        <time>2021-03-06T12:29:15.000Z</time>
      </trkpt>
      <trkpt lat="46.54721" lon="5.45112">
        <ele>421.20001220703</ele>
        <time>2021-03-06T12:29:20.000Z</time>
      </trkpt>
      <trkpt lat="46.54726" lon="5.45117">
        <ele>421.20001220703</ele>
        <time>2021-03-06T12:29:21.000Z</time>
      </trkpt>
      <trkpt lat="46.54757" lon="5.45147">
        <ele>422.20001220703</ele>
        <time>2021-03-06T12:29:28.000Z</time>
      </trkpt>
      <trkpt lat="46.54762" lon="5.45151">
        <ele>422.60000610352</ele>
        <time>2021-03-06T12:29:29.000Z</time>
      </trkpt>
      <trkpt lat="46.54782" lon="5.45169">
        <ele>423.79998779297</ele>
        <time>2021-03-06T12:29:34.000Z</time>
      </trkpt>
      <trkpt lat="46.54802" lon="5.45189">
        <ele>424.79998779297</ele>
        <time>2021-03-06T12:29:39.000Z</time>
      </trkpt>
      <trkpt lat="46.54815" lon="5.45202">
        <ele>425.20001220703</ele>
        <time>2021-03-06T12:29:42.000Z</time>
      </trkpt>
      <trkpt lat="46.54852" lon="5.45236">
        <ele>426</ele>
        <time>2021-03-06T12:29:50.000Z</time>
      </trkpt>
      <trkpt lat="46.54856" lon="5.4524">
        <ele>426</ele>
        <time>2021-03-06T12:29:51.000Z</time>
      </trkpt>
      <trkpt lat="46.54871" lon="5.45249">
        <ele>426.20001220703</ele>
        <time>2021-03-06T12:29:54.000Z</time>
      </trkpt>
      <trkpt lat="46.54891" lon="5.45257">
        <ele>426.39999389648</ele>
        <time>2021-03-06T12:29:58.000Z</time>
      </trkpt>
      <trkpt lat="46.54914" lon="5.45273">
        <ele>427</ele>
        <time>2021-03-06T12:30:03.000Z</time>
      </trkpt>
      <trkpt lat="46.54918" lon="5.45278">
        <ele>427.39999389648</ele>
        <time>2021-03-06T12:30:04.000Z</time>
      </trkpt>
      <trkpt lat="46.54961" lon="5.4533">
        <ele>428</ele>
        <time>2021-03-06T12:30:14.000Z</time>
      </trkpt>
      <trkpt lat="46.54971" lon="5.4534">
        <ele>428</ele>
        <time>2021-03-06T12:30:16.000Z</time>
      </trkpt>
      <trkpt lat="46.55004" lon="5.45385">
        <ele>428.20001220703</ele>
        <time>2021-03-06T12:30:24.000Z</time>
      </trkpt>
      <trkpt lat="46.55029" lon="5.45423">
        <ele>429</ele>
        <time>2021-03-06T12:30:31.000Z</time>
      </trkpt>
      <trkpt lat="46.55035" lon="5.45435">
        <ele>429.20001220703</ele>
        <time>2021-03-06T12:30:33.000Z</time>
      </trkpt>
      <trkpt lat="46.55037" lon="5.45442">
        <ele>429.39999389648</ele>
        <time>2021-03-06T12:30:34.000Z</time>
      </trkpt>
      <trkpt lat="46.55042" lon="5.45457">
        <ele>429.60000610352</ele>
        <time>2021-03-06T12:30:36.000Z</time>
      </trkpt>
      <trkpt lat="46.55055" lon="5.45503">
        <ele>429.79998779297</ele>
        <time>2021-03-06T12:30:42.000Z</time>
      </trkpt>
      <trkpt lat="46.55074" lon="5.45567">
        <ele>429.60000610352</ele>
        <time>2021-03-06T12:30:50.000Z</time>
      </trkpt>
      <trkpt lat="46.55087" lon="5.45598">
        <ele>430</ele>
        <time>2021-03-06T12:30:55.000Z</time>
      </trkpt>
      <trkpt lat="46.55098" lon="5.45615">
        <ele>430.60000610352</ele>
        <time>2021-03-06T12:30:58.000Z</time>
      </trkpt>
      <trkpt lat="46.5511" lon="5.45641">
        <ele>431</ele>
        <time>2021-03-06T12:31:02.000Z</time>
      </trkpt>
      <trkpt lat="46.55129" lon="5.4569">
        <ele>431.39999389648</ele>
        <time>2021-03-06T12:31:09.000Z</time>
      </trkpt>
      <trkpt lat="46.55135" lon="5.45711">
        <ele>431.60000610352</ele>
        <time>2021-03-06T12:31:12.000Z</time>
      </trkpt>
      <trkpt lat="46.55137" lon="5.45725">
        <ele>431.79998779297</ele>
        <time>2021-03-06T12:31:14.000Z</time>
      </trkpt>
      <trkpt lat="46.55138" lon="5.45732">
        <ele>431.79998779297</ele>
        <time>2021-03-06T12:31:15.000Z</time>
      </trkpt>
      <trkpt lat="46.55138" lon="5.45739">
        <ele>431.79998779297</ele>
        <time>2021-03-06T12:31:16.000Z</time>
      </trkpt>
      <trkpt lat="46.5514" lon="5.45777">
        <ele>432.79998779297</ele>
        <time>2021-03-06T12:31:22.000Z</time>
      </trkpt>
      <trkpt lat="46.55141" lon="5.45783">
        <ele>433</ele>
        <time>2021-03-06T12:31:23.000Z</time>
      </trkpt>
      <trkpt lat="46.55149" lon="5.4581">
        <ele>434</ele>
        <time>2021-03-06T12:31:28.000Z</time>
      </trkpt>
      <trkpt lat="46.5515" lon="5.45815">
        <ele>434.20001220703</ele>
        <time>2021-03-06T12:31:29.000Z</time>
      </trkpt>
      <trkpt lat="46.55153" lon="5.45824">
        <ele>434.79998779297</ele>
        <time>2021-03-06T12:31:31.000Z</time>
      </trkpt>
      <trkpt lat="46.55158" lon="5.45833">
        <ele>435.20001220703</ele>
        <time>2021-03-06T12:31:33.000Z</time>
      </trkpt>
      <trkpt lat="46.55161" lon="5.45837">
        <ele>435.20001220703</ele>
        <time>2021-03-06T12:31:34.000Z</time>
      </trkpt>
      <trkpt lat="46.55178" lon="5.45851">
        <ele>436.60000610352</ele>
        <time>2021-03-06T12:31:40.000Z</time>
      </trkpt>
      <trkpt lat="46.55186" lon="5.45862">
        <ele>437.60000610352</ele>
        <time>2021-03-06T12:31:44.000Z</time>
      </trkpt>
      <trkpt lat="46.55186" lon="5.45865">
        <ele>438</ele>
        <time>2021-03-06T12:31:45.000Z</time>
      </trkpt>
      <trkpt lat="46.55183" lon="5.4587">
        <ele>439</ele>
        <time>2021-03-06T12:31:47.000Z</time>
      </trkpt>
      <trkpt lat="46.55179" lon="5.45872">
        <ele>439.39999389648</ele>
        <time>2021-03-06T12:31:49.000Z</time>
      </trkpt>
      <trkpt lat="46.55174" lon="5.45871">
        <ele>440.20001220703</ele>
        <time>2021-03-06T12:31:51.000Z</time>
      </trkpt>
      <trkpt lat="46.55168" lon="5.45871">
        <ele>440.79998779297</ele>
        <time>2021-03-06T12:31:53.000Z</time>
      </trkpt>
      <trkpt lat="46.55164" lon="5.45872">
        <ele>441</ele>
        <time>2021-03-06T12:31:54.000Z</time>
      </trkpt>
      <trkpt lat="46.55162" lon="5.45874">
        <ele>441.39999389648</ele>
        <time>2021-03-06T12:31:55.000Z</time>
      </trkpt>
      <trkpt lat="46.55152" lon="5.45885">
        <ele>442.60000610352</ele>
        <time>2021-03-06T12:31:59.000Z</time>
      </trkpt>
      <trkpt lat="46.55143" lon="5.45906">
        <ele>443.60000610352</ele>
        <time>2021-03-06T12:32:04.000Z</time>
      </trkpt>
      <trkpt lat="46.55142" lon="5.45911">
        <ele>444</ele>
        <time>2021-03-06T12:32:05.000Z</time>
      </trkpt>
      <trkpt lat="46.55133" lon="5.4592">
        <ele>444.60000610352</ele>
        <time>2021-03-06T12:32:09.000Z</time>
      </trkpt>
      <trkpt lat="46.55125" lon="5.45932">
        <ele>445.39999389648</ele>
        <time>2021-03-06T12:32:13.000Z</time>
      </trkpt>
      <trkpt lat="46.55121" lon="5.45944">
        <ele>445.79998779297</ele>
        <time>2021-03-06T12:32:15.000Z</time>
      </trkpt>
      <trkpt lat="46.55115" lon="5.4595">
        <ele>446.60000610352</ele>
        <time>2021-03-06T12:32:18.000Z</time>
      </trkpt>
      <trkpt lat="46.55112" lon="5.45955">
        <ele>446.79998779297</ele>
        <time>2021-03-06T12:32:19.000Z</time>
      </trkpt>
      <trkpt lat="46.551" lon="5.45963">
        <ele>447.60000610352</ele>
        <time>2021-03-06T12:32:24.000Z</time>
      </trkpt>
      <trkpt lat="46.55096" lon="5.45966">
        <ele>448.20001220703</ele>
        <time>2021-03-06T12:32:25.000Z</time>
      </trkpt>
      <trkpt lat="46.55087" lon="5.45985">
        <ele>449</ele>
        <time>2021-03-06T12:32:29.000Z</time>
      </trkpt>
      <trkpt lat="46.55084" lon="5.45987">
        <ele>449</ele>
        <time>2021-03-06T12:32:30.000Z</time>
      </trkpt>
      <trkpt lat="46.55078" lon="5.45988">
        <ele>449.39999389648</ele>
        <time>2021-03-06T12:32:32.000Z</time>
      </trkpt>
      <trkpt lat="46.55076" lon="5.45991">
        <ele>449.60000610352</ele>
        <time>2021-03-06T12:32:33.000Z</time>
      </trkpt>
      <trkpt lat="46.55067" lon="5.46001">
        <ele>450.60000610352</ele>
        <time>2021-03-06T12:32:37.000Z</time>
      </trkpt>
      <trkpt lat="46.5506" lon="5.46006">
        <ele>451.39999389648</ele>
        <time>2021-03-06T12:32:40.000Z</time>
      </trkpt>
      <trkpt lat="46.55059" lon="5.46008">
        <ele>451.39999389648</ele>
        <time>2021-03-06T12:32:41.000Z</time>
      </trkpt>
      <trkpt lat="46.55056" lon="5.46019">
        <ele>451.79998779297</ele>
        <time>2021-03-06T12:32:44.000Z</time>
      </trkpt>
      <trkpt lat="46.55054" lon="5.46029">
        <ele>452.39999389648</ele>
        <time>2021-03-06T12:32:46.000Z</time>
      </trkpt>
      <trkpt lat="46.55055" lon="5.46042">
        <ele>452.79998779297</ele>
        <time>2021-03-06T12:32:48.000Z</time>
      </trkpt>
      <trkpt lat="46.55055" lon="5.46047">
        <ele>452.79998779297</ele>
        <time>2021-03-06T12:32:49.000Z</time>
      </trkpt>
      <trkpt lat="46.55049" lon="5.46083">
        <ele>453.39999389648</ele>
        <time>2021-03-06T12:32:56.000Z</time>
      </trkpt>
      <trkpt lat="46.55048" lon="5.46087">
        <ele>453.79998779297</ele>
        <time>2021-03-06T12:32:57.000Z</time>
      </trkpt>
      <trkpt lat="46.55039" lon="5.46112">
        <ele>454.79998779297</ele>
        <time>2021-03-06T12:33:02.000Z</time>
      </trkpt>
      <trkpt lat="46.55038" lon="5.46118">
        <ele>455</ele>
        <time>2021-03-06T12:33:03.000Z</time>
      </trkpt>
      <trkpt lat="46.55022" lon="5.46154">
        <ele>455.79998779297</ele>
        <time>2021-03-06T12:33:11.000Z</time>
      </trkpt>
      <trkpt lat="46.5502" lon="5.46158">
        <ele>456</ele>
        <time>2021-03-06T12:33:12.000Z</time>
      </trkpt>
      <trkpt lat="46.55002" lon="5.46187">
        <ele>457</ele>
        <time>2021-03-06T12:33:20.000Z</time>
      </trkpt>
      <trkpt lat="46.54991" lon="5.46208">
        <ele>458.20001220703</ele>
        <time>2021-03-06T12:33:25.000Z</time>
      </trkpt>
      <trkpt lat="46.54988" lon="5.46218">
        <ele>458.39999389648</ele>
        <time>2021-03-06T12:33:27.000Z</time>
      </trkpt>
      <trkpt lat="46.5499" lon="5.46239">
        <ele>458.79998779297</ele>
        <time>2021-03-06T12:33:31.000Z</time>
      </trkpt>
      <trkpt lat="46.54997" lon="5.46247">
        <ele>459.20001220703</ele>
        <time>2021-03-06T12:33:34.000Z</time>
      </trkpt>
      <trkpt lat="46.55" lon="5.46249">
        <ele>459.20001220703</ele>
        <time>2021-03-06T12:33:35.000Z</time>
      </trkpt>
      <trkpt lat="46.55015" lon="5.46258">
        <ele>460.39999389648</ele>
        <time>2021-03-06T12:33:40.000Z</time>
      </trkpt>
      <trkpt lat="46.55023" lon="5.46263">
        <ele>461.39999389648</ele>
        <time>2021-03-06T12:33:43.000Z</time>
      </trkpt>
      <trkpt lat="46.5503" lon="5.46266">
        <ele>462.39999389648</ele>
        <time>2021-03-06T12:33:46.000Z</time>
      </trkpt>
      <trkpt lat="46.55039" lon="5.46268">
        <ele>463.60000610352</ele>
        <time>2021-03-06T12:33:49.000Z</time>
      </trkpt>
      <trkpt lat="46.55049" lon="5.46273">
        <ele>464.79998779297</ele>
        <time>2021-03-06T12:33:53.000Z</time>
      </trkpt>
      <trkpt lat="46.55054" lon="5.46277">
        <ele>465.79998779297</ele>
        <time>2021-03-06T12:33:55.000Z</time>
      </trkpt>
      <trkpt lat="46.55064" lon="5.46284">
        <ele>467.20001220703</ele>
        <time>2021-03-06T12:33:59.000Z</time>
      </trkpt>
      <trkpt lat="46.55073" lon="5.46291">
        <ele>468.39999389648</ele>
        <time>2021-03-06T12:34:03.000Z</time>
      </trkpt>
      <trkpt lat="46.55086" lon="5.46301">
        <ele>470</ele>
        <time>2021-03-06T12:34:08.000Z</time>
      </trkpt>
      <trkpt lat="46.55097" lon="5.46308">
        <ele>471</ele>
        <time>2021-03-06T12:34:12.000Z</time>
      </trkpt>
      <trkpt lat="46.55112" lon="5.46318">
        <ele>472.20001220703</ele>
        <time>2021-03-06T12:34:18.000Z</time>
      </trkpt>
      <trkpt lat="46.55124" lon="5.46323">
        <ele>473.20001220703</ele>
        <time>2021-03-06T12:34:22.000Z</time>
      </trkpt>
      <trkpt lat="46.55143" lon="5.46329">
        <ele>474.20001220703</ele>
        <time>2021-03-06T12:34:29.000Z</time>
      </trkpt>
      <trkpt lat="46.55149" lon="5.46331">
        <ele>475</ele>
        <time>2021-03-06T12:34:31.000Z</time>
      </trkpt>
      <trkpt lat="46.55157" lon="5.46332">
        <ele>475.39999389648</ele>
        <time>2021-03-06T12:34:34.000Z</time>
      </trkpt>
      <trkpt lat="46.55175" lon="5.46341">
        <ele>476.79998779297</ele>
        <time>2021-03-06T12:34:40.000Z</time>
      </trkpt>
      <trkpt lat="46.55197" lon="5.46358">
        <ele>477.20001220703</ele>
        <time>2021-03-06T12:34:46.000Z</time>
      </trkpt>
      <trkpt lat="46.55225" lon="5.46383">
        <ele>477.39999389648</ele>
        <time>2021-03-06T12:34:53.000Z</time>
      </trkpt>
      <trkpt lat="46.55259" lon="5.46417">
        <ele>477.79998779297</ele>
        <time>2021-03-06T12:35:01.000Z</time>
      </trkpt>
      <trkpt lat="46.55263" lon="5.4642">
        <ele>477.79998779297</ele>
        <time>2021-03-06T12:35:02.000Z</time>
      </trkpt>
      <trkpt lat="46.55295" lon="5.46449">
        <ele>479.39999389648</ele>
        <time>2021-03-06T12:35:10.000Z</time>
      </trkpt>
      <trkpt lat="46.5532" lon="5.46484">
        <ele>479.79998779297</ele>
        <time>2021-03-06T12:35:17.000Z</time>
      </trkpt>
      <trkpt lat="46.55332" lon="5.46515">
        <ele>480</ele>
        <time>2021-03-06T12:35:21.000Z</time>
      </trkpt>
      <trkpt lat="46.5535" lon="5.46564">
        <ele>479.20001220703</ele>
        <time>2021-03-06T12:35:27.000Z</time>
      </trkpt>
      <trkpt lat="46.55366" lon="5.4659">
        <ele>479.20001220703</ele>
        <time>2021-03-06T12:35:32.000Z</time>
      </trkpt>
      <trkpt lat="46.55379" lon="5.4661">
        <ele>480.60000610352</ele>
        <time>2021-03-06T12:35:37.000Z</time>
      </trkpt>
      <trkpt lat="46.55384" lon="5.46616">
        <ele>481.39999389648</ele>
        <time>2021-03-06T12:35:39.000Z</time>
      </trkpt>
      <trkpt lat="46.55386" lon="5.46619">
        <ele>482</ele>
        <time>2021-03-06T12:35:40.000Z</time>
      </trkpt>
      <trkpt lat="46.55394" lon="5.46628">
        <ele>483.20001220703</ele>
        <time>2021-03-06T12:35:43.000Z</time>
      </trkpt>
      <trkpt lat="46.55399" lon="5.46632">
        <ele>484.20001220703</ele>
        <time>2021-03-06T12:35:45.000Z</time>
      </trkpt>
      <trkpt lat="46.55402" lon="5.46634">
        <ele>484.79998779297</ele>
        <time>2021-03-06T12:35:46.000Z</time>
      </trkpt>
      <trkpt lat="46.55411" lon="5.46641">
        <ele>486.20001220703</ele>
        <time>2021-03-06T12:35:49.000Z</time>
      </trkpt>
      <trkpt lat="46.55418" lon="5.46648">
        <ele>487.20001220703</ele>
        <time>2021-03-06T12:35:52.000Z</time>
      </trkpt>
      <trkpt lat="46.5542" lon="5.4665">
        <ele>487.60000610352</ele>
        <time>2021-03-06T12:35:53.000Z</time>
      </trkpt>
      <trkpt lat="46.55425" lon="5.46654">
        <ele>488.20001220703</ele>
        <time>2021-03-06T12:35:55.000Z</time>
      </trkpt>
      <trkpt lat="46.55438" lon="5.46667">
        <ele>489.39999389648</ele>
        <time>2021-03-06T12:36:00.000Z</time>
      </trkpt>
      <trkpt lat="46.55441" lon="5.46669">
        <ele>489.60000610352</ele>
        <time>2021-03-06T12:36:01.000Z</time>
      </trkpt>
      <trkpt lat="46.55451" lon="5.4668">
        <ele>490.60000610352</ele>
        <time>2021-03-06T12:36:05.000Z</time>
      </trkpt>
      <trkpt lat="46.55456" lon="5.46684">
        <ele>491</ele>
        <time>2021-03-06T12:36:07.000Z</time>
      </trkpt>
      <trkpt lat="46.55466" lon="5.46695">
        <ele>491.60000610352</ele>
        <time>2021-03-06T12:36:11.000Z</time>
      </trkpt>
      <trkpt lat="46.55471" lon="5.467">
        <ele>492</ele>
        <time>2021-03-06T12:36:13.000Z</time>
      </trkpt>
      <trkpt lat="46.55476" lon="5.46709">
        <ele>492.60000610352</ele>
        <time>2021-03-06T12:36:16.000Z</time>
      </trkpt>
      <trkpt lat="46.55481" lon="5.46716">
        <ele>493.20001220703</ele>
        <time>2021-03-06T12:36:18.000Z</time>
      </trkpt>
      <trkpt lat="46.55483" lon="5.4672">
        <ele>493.39999389648</ele>
        <time>2021-03-06T12:36:19.000Z</time>
      </trkpt>
      <trkpt lat="46.55488" lon="5.4673">
        <ele>493.79998779297</ele>
        <time>2021-03-06T12:36:21.000Z</time>
      </trkpt>
      <trkpt lat="46.55483" lon="5.46762">
        <ele>494.20001220703</ele>
        <time>2021-03-06T12:36:26.000Z</time>
      </trkpt>
      <trkpt lat="46.55481" lon="5.46776">
        <ele>494.20001220703</ele>
        <time>2021-03-06T12:36:28.000Z</time>
      </trkpt>
      <trkpt lat="46.55482" lon="5.4679">
        <ele>494.60000610352</ele>
        <time>2021-03-06T12:36:30.000Z</time>
      </trkpt>
      <trkpt lat="46.55483" lon="5.46796">
        <ele>494.60000610352</ele>
        <time>2021-03-06T12:36:31.000Z</time>
      </trkpt>
      <trkpt lat="46.55492" lon="5.46819">
        <ele>494.60000610352</ele>
        <time>2021-03-06T12:36:35.000Z</time>
      </trkpt>
      <trkpt lat="46.55499" lon="5.46829">
        <ele>494.60000610352</ele>
        <time>2021-03-06T12:36:37.000Z</time>
      </trkpt>
      <trkpt lat="46.55531" lon="5.46871">
        <ele>494.60000610352</ele>
        <time>2021-03-06T12:36:45.000Z</time>
      </trkpt>
      <trkpt lat="46.55539" lon="5.46879">
        <ele>494.60000610352</ele>
        <time>2021-03-06T12:36:47.000Z</time>
      </trkpt>
      <trkpt lat="46.55557" lon="5.46889">
        <ele>494.79998779297</ele>
        <time>2021-03-06T12:36:51.000Z</time>
      </trkpt>
      <trkpt lat="46.55567" lon="5.46892">
        <ele>495.20001220703</ele>
        <time>2021-03-06T12:36:53.000Z</time>
      </trkpt>
      <trkpt lat="46.55593" lon="5.46904">
        <ele>495.60000610352</ele>
        <time>2021-03-06T12:36:59.000Z</time>
      </trkpt>
      <trkpt lat="46.55601" lon="5.46907">
        <ele>496.20001220703</ele>
        <time>2021-03-06T12:37:01.000Z</time>
      </trkpt>
      <trkpt lat="46.55605" lon="5.46909">
        <ele>496.60000610352</ele>
        <time>2021-03-06T12:37:02.000Z</time>
      </trkpt>
      <trkpt lat="46.55612" lon="5.46914">
        <ele>497</ele>
        <time>2021-03-06T12:37:04.000Z</time>
      </trkpt>
      <trkpt lat="46.55616" lon="5.46917">
        <ele>497.20001220703</ele>
        <time>2021-03-06T12:37:05.000Z</time>
      </trkpt>
      <trkpt lat="46.5562" lon="5.4692">
        <ele>497.79998779297</ele>
        <time>2021-03-06T12:37:06.000Z</time>
      </trkpt>
      <trkpt lat="46.55627" lon="5.46927">
        <ele>498.39999389648</ele>
        <time>2021-03-06T12:37:08.000Z</time>
      </trkpt>
      <trkpt lat="46.55632" lon="5.46935">
        <ele>498.79998779297</ele>
        <time>2021-03-06T12:37:10.000Z</time>
      </trkpt>
      <trkpt lat="46.55634" lon="5.46939">
        <ele>499</ele>
        <time>2021-03-06T12:37:11.000Z</time>
      </trkpt>
      <trkpt lat="46.55643" lon="5.46954">
        <ele>500.20001220703</ele>
        <time>2021-03-06T12:37:15.000Z</time>
      </trkpt>
      <trkpt lat="46.55653" lon="5.46985">
        <ele>501.20001220703</ele>
        <time>2021-03-06T12:37:21.000Z</time>
      </trkpt>
      <trkpt lat="46.55655" lon="5.46991">
        <ele>501.60000610352</ele>
        <time>2021-03-06T12:37:22.000Z</time>
      </trkpt>
      <trkpt lat="46.55664" lon="5.47018">
        <ele>502.79998779297</ele>
        <time>2021-03-06T12:37:27.000Z</time>
      </trkpt>
      <trkpt lat="46.55669" lon="5.47032">
        <ele>503.60000610352</ele>
        <time>2021-03-06T12:37:30.000Z</time>
      </trkpt>
      <trkpt lat="46.55671" lon="5.47036">
        <ele>504</ele>
        <time>2021-03-06T12:37:31.000Z</time>
      </trkpt>
      <trkpt lat="46.55682" lon="5.47057">
        <ele>505.20001220703</ele>
        <time>2021-03-06T12:37:36.000Z</time>
      </trkpt>
      <trkpt lat="46.55689" lon="5.47068">
        <ele>505.79998779297</ele>
        <time>2021-03-06T12:37:39.000Z</time>
      </trkpt>
      <trkpt lat="46.55694" lon="5.47074">
        <ele>506.20001220703</ele>
        <time>2021-03-06T12:37:41.000Z</time>
      </trkpt>
      <trkpt lat="46.55712" lon="5.47088">
        <ele>507.20001220703</ele>
        <time>2021-03-06T12:37:47.000Z</time>
      </trkpt>
      <trkpt lat="46.55715" lon="5.47091">
        <ele>507.39999389648</ele>
        <time>2021-03-06T12:37:48.000Z</time>
      </trkpt>
      <trkpt lat="46.55726" lon="5.47101">
        <ele>508.20001220703</ele>
        <time>2021-03-06T12:37:52.000Z</time>
      </trkpt>
      <trkpt lat="46.55728" lon="5.47103">
        <ele>508.39999389648</ele>
        <time>2021-03-06T12:37:53.000Z</time>
      </trkpt>
      <trkpt lat="46.55739" lon="5.47112">
        <ele>509.60000610352</ele>
        <time>2021-03-06T12:37:57.000Z</time>
      </trkpt>
      <trkpt lat="46.55748" lon="5.47119">
        <ele>510.20001220703</ele>
        <time>2021-03-06T12:38:00.000Z</time>
      </trkpt>
      <trkpt lat="46.55751" lon="5.47121">
        <ele>510.60000610352</ele>
        <time>2021-03-06T12:38:01.000Z</time>
      </trkpt>
      <trkpt lat="46.55779" lon="5.47134">
        <ele>512.20001220703</ele>
        <time>2021-03-06T12:38:10.000Z</time>
      </trkpt>
      <trkpt lat="46.55801" lon="5.47139">
        <ele>513.40002441406</ele>
        <time>2021-03-06T12:38:17.000Z</time>
      </trkpt>
      <trkpt lat="46.55807" lon="5.47141">
        <ele>513.59997558594</ele>
        <time>2021-03-06T12:38:19.000Z</time>
      </trkpt>
      <trkpt lat="46.55817" lon="5.47144">
        <ele>514.40002441406</ele>
        <time>2021-03-06T12:38:22.000Z</time>
      </trkpt>
      <trkpt lat="46.55836" lon="5.47152">
        <ele>515.79998779297</ele>
        <time>2021-03-06T12:38:28.000Z</time>
      </trkpt>
      <trkpt lat="46.55839" lon="5.47153">
        <ele>516</ele>
        <time>2021-03-06T12:38:29.000Z</time>
      </trkpt>
      <trkpt lat="46.55858" lon="5.47163">
        <ele>516.79998779297</ele>
        <time>2021-03-06T12:38:35.000Z</time>
      </trkpt>
      <trkpt lat="46.55871" lon="5.47169">
        <ele>517.40002441406</ele>
        <time>2021-03-06T12:38:39.000Z</time>
      </trkpt>
      <trkpt lat="46.55883" lon="5.47176">
        <ele>518</ele>
        <time>2021-03-06T12:38:43.000Z</time>
      </trkpt>
      <trkpt lat="46.55893" lon="5.47182">
        <ele>519.40002441406</ele>
        <time>2021-03-06T12:38:46.000Z</time>
      </trkpt>
      <trkpt lat="46.55909" lon="5.47192">
        <ele>520.59997558594</ele>
        <time>2021-03-06T12:38:51.000Z</time>
      </trkpt>
      <trkpt lat="46.55926" lon="5.47199">
        <ele>521.59997558594</ele>
        <time>2021-03-06T12:38:56.000Z</time>
      </trkpt>
      <trkpt lat="46.55936" lon="5.47201">
        <ele>522</ele>
        <time>2021-03-06T12:38:59.000Z</time>
      </trkpt>
      <trkpt lat="46.5595" lon="5.47201">
        <ele>522.79998779297</ele>
        <time>2021-03-06T12:39:03.000Z</time>
      </trkpt>
      <trkpt lat="46.55964" lon="5.47203">
        <ele>523.79998779297</ele>
        <time>2021-03-06T12:39:07.000Z</time>
      </trkpt>
      <trkpt lat="46.55992" lon="5.47212">
        <ele>525</ele>
        <time>2021-03-06T12:39:15.000Z</time>
      </trkpt>
      <trkpt lat="46.56003" lon="5.47214">
        <ele>525.79998779297</ele>
        <time>2021-03-06T12:39:18.000Z</time>
      </trkpt>
      <trkpt lat="46.56009" lon="5.47216">
        <ele>526</ele>
        <time>2021-03-06T12:39:20.000Z</time>
      </trkpt>
      <trkpt lat="46.56029" lon="5.47221">
        <ele>527</ele>
        <time>2021-03-06T12:39:26.000Z</time>
      </trkpt>
      <trkpt lat="46.56035" lon="5.47223">
        <ele>527.40002441406</ele>
        <time>2021-03-06T12:39:28.000Z</time>
      </trkpt>
      <trkpt lat="46.56051" lon="5.47227">
        <ele>528.40002441406</ele>
        <time>2021-03-06T12:39:33.000Z</time>
      </trkpt>
      <trkpt lat="46.56063" lon="5.47232">
        <ele>529.40002441406</ele>
        <time>2021-03-06T12:39:37.000Z</time>
      </trkpt>
      <trkpt lat="46.56066" lon="5.47233">
        <ele>529.79998779297</ele>
        <time>2021-03-06T12:39:38.000Z</time>
      </trkpt>
      <trkpt lat="46.56087" lon="5.4724">
        <ele>531</ele>
        <time>2021-03-06T12:39:45.000Z</time>
      </trkpt>
      <trkpt lat="46.56099" lon="5.47244">
        <ele>532</ele>
        <time>2021-03-06T12:39:49.000Z</time>
      </trkpt>
      <trkpt lat="46.56105" lon="5.47247">
        <ele>532.40002441406</ele>
        <time>2021-03-06T12:39:51.000Z</time>
      </trkpt>
      <trkpt lat="46.56124" lon="5.47254">
        <ele>533.20001220703</ele>
        <time>2021-03-06T12:39:57.000Z</time>
      </trkpt>
      <trkpt lat="46.56127" lon="5.47255">
        <ele>533.40002441406</ele>
        <time>2021-03-06T12:39:58.000Z</time>
      </trkpt>
      <trkpt lat="46.56146" lon="5.47261">
        <ele>534.40002441406</ele>
        <time>2021-03-06T12:40:04.000Z</time>
      </trkpt>
      <trkpt lat="46.56152" lon="5.47264">
        <ele>534.59997558594</ele>
        <time>2021-03-06T12:40:06.000Z</time>
      </trkpt>
      <trkpt lat="46.56164" lon="5.47268">
        <ele>535.40002441406</ele>
        <time>2021-03-06T12:40:10.000Z</time>
      </trkpt>
      <trkpt lat="46.5618" lon="5.47273">
        <ele>536.59997558594</ele>
        <time>2021-03-06T12:40:15.000Z</time>
      </trkpt>
      <trkpt lat="46.56187" lon="5.47275">
        <ele>537</ele>
        <time>2021-03-06T12:40:17.000Z</time>
      </trkpt>
      <trkpt lat="46.56203" lon="5.4728">
        <ele>537.79998779297</ele>
        <time>2021-03-06T12:40:22.000Z</time>
      </trkpt>
      <trkpt lat="46.56215" lon="5.47281">
        <ele>538.59997558594</ele>
        <time>2021-03-06T12:40:26.000Z</time>
      </trkpt>
      <trkpt lat="46.56219" lon="5.47281">
        <ele>538.79998779297</ele>
        <time>2021-03-06T12:40:27.000Z</time>
      </trkpt>
      <trkpt lat="46.56239" lon="5.47276">
        <ele>540</ele>
        <time>2021-03-06T12:40:33.000Z</time>
      </trkpt>
      <trkpt lat="46.56256" lon="5.47271">
        <ele>541.20001220703</ele>
        <time>2021-03-06T12:40:38.000Z</time>
      </trkpt>
      <trkpt lat="46.56266" lon="5.47268">
        <ele>541.59997558594</ele>
        <time>2021-03-06T12:40:41.000Z</time>
      </trkpt>
      <trkpt lat="46.56283" lon="5.47265">
        <ele>542.20001220703</ele>
        <time>2021-03-06T12:40:46.000Z</time>
      </trkpt>
      <trkpt lat="46.56294" lon="5.47268">
        <ele>542.59997558594</ele>
        <time>2021-03-06T12:40:49.000Z</time>
      </trkpt>
      <trkpt lat="46.56315" lon="5.47285">
        <ele>543.20001220703</ele>
        <time>2021-03-06T12:40:55.000Z</time>
      </trkpt>
      <trkpt lat="46.56322" lon="5.47293">
        <ele>543.20001220703</ele>
        <time>2021-03-06T12:40:57.000Z</time>
      </trkpt>
      <trkpt lat="46.56337" lon="5.47313">
        <ele>543.40002441406</ele>
        <time>2021-03-06T12:41:01.000Z</time>
      </trkpt>
      <trkpt lat="46.56348" lon="5.47326">
        <ele>543.20001220703</ele>
        <time>2021-03-06T12:41:03.000Z</time>
      </trkpt>
      <trkpt lat="46.56362" lon="5.4734">
        <ele>542.79998779297</ele>
        <time>2021-03-06T12:41:05.000Z</time>
      </trkpt>
      <trkpt lat="46.5637" lon="5.47348">
        <ele>541.79998779297</ele>
        <time>2021-03-06T12:41:06.000Z</time>
      </trkpt>
      <trkpt lat="46.56387" lon="5.47365">
        <ele>540.40002441406</ele>
        <time>2021-03-06T12:41:08.000Z</time>
      </trkpt>
      <trkpt lat="46.56397" lon="5.47374">
        <ele>539.79998779297</ele>
        <time>2021-03-06T12:41:09.000Z</time>
      </trkpt>
      <trkpt lat="46.56406" lon="5.47385">
        <ele>538.79998779297</ele>
        <time>2021-03-06T12:41:10.000Z</time>
      </trkpt>
      <trkpt lat="46.56416" lon="5.47395">
        <ele>537</ele>
        <time>2021-03-06T12:41:11.000Z</time>
      </trkpt>
      <trkpt lat="46.56436" lon="5.47416">
        <ele>534</ele>
        <time>2021-03-06T12:41:13.000Z</time>
      </trkpt>
      <trkpt lat="46.56447" lon="5.47427">
        <ele>533.20001220703</ele>
        <time>2021-03-06T12:41:14.000Z</time>
      </trkpt>
      <trkpt lat="46.56458" lon="5.47437">
        <ele>531.20001220703</ele>
        <time>2021-03-06T12:41:15.000Z</time>
      </trkpt>
      <trkpt lat="46.56479" lon="5.47458">
        <ele>528.20001220703</ele>
        <time>2021-03-06T12:41:17.000Z</time>
      </trkpt>
      <trkpt lat="46.56501" lon="5.47478">
        <ele>525</ele>
        <time>2021-03-06T12:41:19.000Z</time>
      </trkpt>
      <trkpt lat="46.56512" lon="5.47488">
        <ele>522.79998779297</ele>
        <time>2021-03-06T12:41:20.000Z</time>
      </trkpt>
      <trkpt lat="46.56534" lon="5.47506">
        <ele>520.59997558594</ele>
        <time>2021-03-06T12:41:22.000Z</time>
      </trkpt>
      <trkpt lat="46.56555" lon="5.47524">
        <ele>518.59997558594</ele>
        <time>2021-03-06T12:41:24.000Z</time>
      </trkpt>
      <trkpt lat="46.56573" lon="5.47544">
        <ele>517</ele>
        <time>2021-03-06T12:41:26.000Z</time>
      </trkpt>
      <trkpt lat="46.56581" lon="5.47555">
        <ele>515.79998779297</ele>
        <time>2021-03-06T12:41:27.000Z</time>
      </trkpt>
      <trkpt lat="46.56597" lon="5.47578">
        <ele>514.59997558594</ele>
        <time>2021-03-06T12:41:29.000Z</time>
      </trkpt>
      <trkpt lat="46.56604" lon="5.47585">
        <ele>514</ele>
        <time>2021-03-06T12:41:30.000Z</time>
      </trkpt>
      <trkpt lat="46.56616" lon="5.47595">
        <ele>513.20001220703</ele>
        <time>2021-03-06T12:41:31.000Z</time>
      </trkpt>
      <trkpt lat="46.56646" lon="5.47617">
        <ele>512</ele>
        <time>2021-03-06T12:41:34.000Z</time>
      </trkpt>
      <trkpt lat="46.56666" lon="5.47631">
        <ele>510.60000610352</ele>
        <time>2021-03-06T12:41:36.000Z</time>
      </trkpt>
      <trkpt lat="46.56676" lon="5.47638">
        <ele>510.39999389648</ele>
        <time>2021-03-06T12:41:37.000Z</time>
      </trkpt>
      <trkpt lat="46.56696" lon="5.4765">
        <ele>509.60000610352</ele>
        <time>2021-03-06T12:41:39.000Z</time>
      </trkpt>
      <trkpt lat="46.56726" lon="5.47667">
        <ele>508.39999389648</ele>
        <time>2021-03-06T12:41:42.000Z</time>
      </trkpt>
      <trkpt lat="46.56755" lon="5.47685">
        <ele>506.60000610352</ele>
        <time>2021-03-06T12:41:45.000Z</time>
      </trkpt>
      <trkpt lat="46.56765" lon="5.4769">
        <ele>506.20001220703</ele>
        <time>2021-03-06T12:41:46.000Z</time>
      </trkpt>
      <trkpt lat="46.56775" lon="5.47695">
        <ele>505</ele>
        <time>2021-03-06T12:41:47.000Z</time>
      </trkpt>
      <trkpt lat="46.56794" lon="5.47705">
        <ele>503.79998779297</ele>
        <time>2021-03-06T12:41:49.000Z</time>
      </trkpt>
      <trkpt lat="46.56822" lon="5.47725">
        <ele>503</ele>
        <time>2021-03-06T12:41:52.000Z</time>
      </trkpt>
      <trkpt lat="46.56848" lon="5.47747">
        <ele>502.60000610352</ele>
        <time>2021-03-06T12:41:55.000Z</time>
      </trkpt>
      <trkpt lat="46.56866" lon="5.47761">
        <ele>501.39999389648</ele>
        <time>2021-03-06T12:41:57.000Z</time>
      </trkpt>
      <trkpt lat="46.56884" lon="5.47776">
        <ele>500</ele>
        <time>2021-03-06T12:41:59.000Z</time>
      </trkpt>
      <trkpt lat="46.56901" lon="5.47788">
        <ele>498.60000610352</ele>
        <time>2021-03-06T12:42:01.000Z</time>
      </trkpt>
      <trkpt lat="46.56918" lon="5.47797">
        <ele>498</ele>
        <time>2021-03-06T12:42:03.000Z</time>
      </trkpt>
      <trkpt lat="46.56938" lon="5.47802">
        <ele>497.60000610352</ele>
        <time>2021-03-06T12:42:05.000Z</time>
      </trkpt>
      <trkpt lat="46.56947" lon="5.47805">
        <ele>497.60000610352</ele>
        <time>2021-03-06T12:42:06.000Z</time>
      </trkpt>
      <trkpt lat="46.56968" lon="5.47808">
        <ele>496.39999389648</ele>
        <time>2021-03-06T12:42:08.000Z</time>
      </trkpt>
      <trkpt lat="46.56988" lon="5.47808">
        <ele>495.60000610352</ele>
        <time>2021-03-06T12:42:10.000Z</time>
      </trkpt>
      <trkpt lat="46.56999" lon="5.47806">
        <ele>495.39999389648</ele>
        <time>2021-03-06T12:42:11.000Z</time>
      </trkpt>
      <trkpt lat="46.5701" lon="5.47805">
        <ele>494.79998779297</ele>
        <time>2021-03-06T12:42:12.000Z</time>
      </trkpt>
      <trkpt lat="46.5702" lon="5.47805">
        <ele>494.60000610352</ele>
        <time>2021-03-06T12:42:13.000Z</time>
      </trkpt>
      <trkpt lat="46.57042" lon="5.47809">
        <ele>493</ele>
        <time>2021-03-06T12:42:15.000Z</time>
      </trkpt>
      <trkpt lat="46.57052" lon="5.47814">
        <ele>491.60000610352</ele>
        <time>2021-03-06T12:42:16.000Z</time>
      </trkpt>
      <trkpt lat="46.57072" lon="5.47825">
        <ele>490.60000610352</ele>
        <time>2021-03-06T12:42:18.000Z</time>
      </trkpt>
      <trkpt lat="46.57082" lon="5.47831">
        <ele>489.79998779297</ele>
        <time>2021-03-06T12:42:19.000Z</time>
      </trkpt>
      <trkpt lat="46.57091" lon="5.47837">
        <ele>489.39999389648</ele>
        <time>2021-03-06T12:42:20.000Z</time>
      </trkpt>
      <trkpt lat="46.57119" lon="5.47855">
        <ele>487.79998779297</ele>
        <time>2021-03-06T12:42:23.000Z</time>
      </trkpt>
      <trkpt lat="46.57136" lon="5.47869">
        <ele>487</ele>
        <time>2021-03-06T12:42:25.000Z</time>
      </trkpt>
      <trkpt lat="46.57144" lon="5.47876">
        <ele>486.79998779297</ele>
        <time>2021-03-06T12:42:26.000Z</time>
      </trkpt>
      <trkpt lat="46.57168" lon="5.47899">
        <ele>485.79998779297</ele>
        <time>2021-03-06T12:42:29.000Z</time>
      </trkpt>
      <trkpt lat="46.57177" lon="5.47905">
        <ele>485</ele>
        <time>2021-03-06T12:42:30.000Z</time>
      </trkpt>
      <trkpt lat="46.57186" lon="5.47909">
        <ele>484.60000610352</ele>
        <time>2021-03-06T12:42:31.000Z</time>
      </trkpt>
      <trkpt lat="46.57196" lon="5.47911">
        <ele>483.79998779297</ele>
        <time>2021-03-06T12:42:32.000Z</time>
      </trkpt>
      <trkpt lat="46.57206" lon="5.47913">
        <ele>483</ele>
        <time>2021-03-06T12:42:33.000Z</time>
      </trkpt>
      <trkpt lat="46.57216" lon="5.47913">
        <ele>482.60000610352</ele>
        <time>2021-03-06T12:42:34.000Z</time>
      </trkpt>
      <trkpt lat="46.57244" lon="5.47909">
        <ele>481.39999389648</ele>
        <time>2021-03-06T12:42:37.000Z</time>
      </trkpt>
      <trkpt lat="46.57253" lon="5.47907">
        <ele>481.20001220703</ele>
        <time>2021-03-06T12:42:38.000Z</time>
      </trkpt>
      <trkpt lat="46.57262" lon="5.47905">
        <ele>480.60000610352</ele>
        <time>2021-03-06T12:42:39.000Z</time>
      </trkpt>
      <trkpt lat="46.57271" lon="5.47904">
        <ele>480.20001220703</ele>
        <time>2021-03-06T12:42:40.000Z</time>
      </trkpt>
      <trkpt lat="46.57288" lon="5.47901">
        <ele>479.39999389648</ele>
        <time>2021-03-06T12:42:42.000Z</time>
      </trkpt>
      <trkpt lat="46.57305" lon="5.47898">
        <ele>479</ele>
        <time>2021-03-06T12:42:44.000Z</time>
      </trkpt>
      <trkpt lat="46.57338" lon="5.47896">
        <ele>477.79998779297</ele>
        <time>2021-03-06T12:42:48.000Z</time>
      </trkpt>
      <trkpt lat="46.5736" lon="5.47904">
        <ele>477.39999389648</ele>
        <time>2021-03-06T12:42:51.000Z</time>
      </trkpt>
      <trkpt lat="46.57367" lon="5.47908">
        <ele>477.39999389648</ele>
        <time>2021-03-06T12:42:52.000Z</time>
      </trkpt>
      <trkpt lat="46.57404" lon="5.47937">
        <ele>477.60000610352</ele>
        <time>2021-03-06T12:42:58.000Z</time>
      </trkpt>
      <trkpt lat="46.57427" lon="5.4795">
        <ele>478.20001220703</ele>
        <time>2021-03-06T12:43:02.000Z</time>
      </trkpt>
      <trkpt lat="46.57435" lon="5.47953">
        <ele>478.39999389648</ele>
        <time>2021-03-06T12:43:03.000Z</time>
      </trkpt>
      <trkpt lat="46.57446" lon="5.47957">
        <ele>478.79998779297</ele>
        <time>2021-03-06T12:43:05.000Z</time>
      </trkpt>
      <trkpt lat="46.57472" lon="5.47967">
        <ele>479.39999389648</ele>
        <time>2021-03-06T12:43:09.000Z</time>
      </trkpt>
      <trkpt lat="46.57486" lon="5.47973">
        <ele>479.39999389648</ele>
        <time>2021-03-06T12:43:11.000Z</time>
      </trkpt>
      <trkpt lat="46.57491" lon="5.47977">
        <ele>479.39999389648</ele>
        <time>2021-03-06T12:43:12.000Z</time>
      </trkpt>
      <trkpt lat="46.57494" lon="5.47982">
        <ele>479.39999389648</ele>
        <time>2021-03-06T12:43:13.000Z</time>
      </trkpt>
      <trkpt lat="46.57502" lon="5.47996">
        <ele>479.60000610352</ele>
        <time>2021-03-06T12:43:15.000Z</time>
      </trkpt>
      <trkpt lat="46.57518" lon="5.4802">
        <ele>479.60000610352</ele>
        <time>2021-03-06T12:43:19.000Z</time>
      </trkpt>
      <trkpt lat="46.5753" lon="5.4804">
        <ele>480</ele>
        <time>2021-03-06T12:43:22.000Z</time>
      </trkpt>
      <trkpt lat="46.57539" lon="5.48053">
        <ele>480.60000610352</ele>
        <time>2021-03-06T12:43:24.000Z</time>
      </trkpt>
      <trkpt lat="46.57541" lon="5.4806">
        <ele>480.79998779297</ele>
        <time>2021-03-06T12:43:25.000Z</time>
      </trkpt>
      <trkpt lat="46.57558" lon="5.48092">
        <ele>481</ele>
        <time>2021-03-06T12:43:30.000Z</time>
      </trkpt>
      <trkpt lat="46.57562" lon="5.48098">
        <ele>481</ele>
        <time>2021-03-06T12:43:31.000Z</time>
      </trkpt>
      <trkpt lat="46.57566" lon="5.48105">
        <ele>481</ele>
        <time>2021-03-06T12:43:32.000Z</time>
      </trkpt>
      <trkpt lat="46.57575" lon="5.48116">
        <ele>481.39999389648</ele>
        <time>2021-03-06T12:43:34.000Z</time>
      </trkpt>
      <trkpt lat="46.57584" lon="5.48126">
        <ele>481.79998779297</ele>
        <time>2021-03-06T12:43:36.000Z</time>
      </trkpt>
      <trkpt lat="46.57589" lon="5.48131">
        <ele>482.20001220703</ele>
        <time>2021-03-06T12:43:37.000Z</time>
      </trkpt>
      <trkpt lat="46.57594" lon="5.48136">
        <ele>482.20001220703</ele>
        <time>2021-03-06T12:43:38.000Z</time>
      </trkpt>
      <trkpt lat="46.57608" lon="5.48153">
        <ele>482.79998779297</ele>
        <time>2021-03-06T12:43:41.000Z</time>
      </trkpt>
      <trkpt lat="46.57613" lon="5.48158">
        <ele>482.79998779297</ele>
        <time>2021-03-06T12:43:42.000Z</time>
      </trkpt>
      <trkpt lat="46.57621" lon="5.48169">
        <ele>483</ele>
        <time>2021-03-06T12:43:44.000Z</time>
      </trkpt>
      <trkpt lat="46.57624" lon="5.48175">
        <ele>483</ele>
        <time>2021-03-06T12:43:45.000Z</time>
      </trkpt>
      <trkpt lat="46.57633" lon="5.48186">
        <ele>483</ele>
        <time>2021-03-06T12:43:47.000Z</time>
      </trkpt>
      <trkpt lat="46.57648" lon="5.48208">
        <ele>483</ele>
        <time>2021-03-06T12:43:51.000Z</time>
      </trkpt>
      <trkpt lat="46.5766" lon="5.48231">
        <ele>483.20001220703</ele>
        <time>2021-03-06T12:43:55.000Z</time>
      </trkpt>
      <trkpt lat="46.57675" lon="5.48255">
        <ele>483.39999389648</ele>
        <time>2021-03-06T12:43:59.000Z</time>
      </trkpt>
      <trkpt lat="46.57698" lon="5.48296">
        <ele>484.20001220703</ele>
        <time>2021-03-06T12:44:06.000Z</time>
      </trkpt>
      <trkpt lat="46.57701" lon="5.48303">
        <ele>484.20001220703</ele>
        <time>2021-03-06T12:44:07.000Z</time>
      </trkpt>
      <trkpt lat="46.57704" lon="5.48309">
        <ele>484.39999389648</ele>
        <time>2021-03-06T12:44:08.000Z</time>
      </trkpt>
      <trkpt lat="46.57712" lon="5.48322">
        <ele>484.39999389648</ele>
        <time>2021-03-06T12:44:10.000Z</time>
      </trkpt>
      <trkpt lat="46.57718" lon="5.48333">
        <ele>484.60000610352</ele>
        <time>2021-03-06T12:44:12.000Z</time>
      </trkpt>
      <trkpt lat="46.57725" lon="5.48343">
        <ele>484.79998779297</ele>
        <time>2021-03-06T12:44:14.000Z</time>
      </trkpt>
      <trkpt lat="46.57736" lon="5.48359">
        <ele>485.20001220703</ele>
        <time>2021-03-06T12:44:17.000Z</time>
      </trkpt>
      <trkpt lat="46.57739" lon="5.48364">
        <ele>485.39999389648</ele>
        <time>2021-03-06T12:44:18.000Z</time>
      </trkpt>
      <trkpt lat="46.57743" lon="5.4837">
        <ele>485.60000610352</ele>
        <time>2021-03-06T12:44:19.000Z</time>
      </trkpt>
      <trkpt lat="46.57753" lon="5.48382">
        <ele>486.60000610352</ele>
        <time>2021-03-06T12:44:22.000Z</time>
      </trkpt>
      <trkpt lat="46.57761" lon="5.4839">
        <ele>487</ele>
        <time>2021-03-06T12:44:24.000Z</time>
      </trkpt>
      <trkpt lat="46.57779" lon="5.4841">
        <ele>487.60000610352</ele>
        <time>2021-03-06T12:44:29.000Z</time>
      </trkpt>
      <trkpt lat="46.57785" lon="5.48416">
        <ele>488</ele>
        <time>2021-03-06T12:44:31.000Z</time>
      </trkpt>
      <trkpt lat="46.57788" lon="5.4842">
        <ele>488.20001220703</ele>
        <time>2021-03-06T12:44:32.000Z</time>
      </trkpt>
      <trkpt lat="46.57799" lon="5.48433">
        <ele>489</ele>
        <time>2021-03-06T12:44:36.000Z</time>
      </trkpt>
      <trkpt lat="46.57801" lon="5.48436">
        <ele>489.20001220703</ele>
        <time>2021-03-06T12:44:37.000Z</time>
      </trkpt>
      <trkpt lat="46.57812" lon="5.48448">
        <ele>490.39999389648</ele>
        <time>2021-03-06T12:44:42.000Z</time>
      </trkpt>
      <trkpt lat="46.57823" lon="5.48461">
        <ele>491.60000610352</ele>
        <time>2021-03-06T12:44:46.000Z</time>
      </trkpt>
      <trkpt lat="46.57834" lon="5.48473">
        <ele>492.20001220703</ele>
        <time>2021-03-06T12:44:49.000Z</time>
      </trkpt>
      <trkpt lat="46.57837" lon="5.48477">
        <ele>492.60000610352</ele>
        <time>2021-03-06T12:44:50.000Z</time>
      </trkpt>
      <trkpt lat="46.57843" lon="5.48483">
        <ele>493.20001220703</ele>
        <time>2021-03-06T12:44:52.000Z</time>
      </trkpt>
      <trkpt lat="46.57848" lon="5.48485">
        <ele>493.39999389648</ele>
        <time>2021-03-06T12:44:53.000Z</time>
      </trkpt>
      <trkpt lat="46.57852" lon="5.48487">
        <ele>493.79998779297</ele>
        <time>2021-03-06T12:44:54.000Z</time>
      </trkpt>
      <trkpt lat="46.57869" lon="5.485">
        <ele>494.39999389648</ele>
        <time>2021-03-06T12:44:59.000Z</time>
      </trkpt>
      <trkpt lat="46.57874" lon="5.48507">
        <ele>494.79998779297</ele>
        <time>2021-03-06T12:45:01.000Z</time>
      </trkpt>
      <trkpt lat="46.57892" lon="5.48525">
        <ele>495.79998779297</ele>
        <time>2021-03-06T12:45:06.000Z</time>
      </trkpt>
      <trkpt lat="46.57904" lon="5.48547">
        <ele>496.79998779297</ele>
        <time>2021-03-06T12:45:11.000Z</time>
      </trkpt>
      <trkpt lat="46.57907" lon="5.48552">
        <ele>497</ele>
        <time>2021-03-06T12:45:12.000Z</time>
      </trkpt>
      <trkpt lat="46.57918" lon="5.48577">
        <ele>498.20001220703</ele>
        <time>2021-03-06T12:45:18.000Z</time>
      </trkpt>
      <trkpt lat="46.57928" lon="5.48594">
        <ele>499.20001220703</ele>
        <time>2021-03-06T12:45:23.000Z</time>
      </trkpt>
      <trkpt lat="46.57942" lon="5.48609">
        <ele>500.39999389648</ele>
        <time>2021-03-06T12:45:28.000Z</time>
      </trkpt>
      <trkpt lat="46.57945" lon="5.48612">
        <ele>500.60000610352</ele>
        <time>2021-03-06T12:45:29.000Z</time>
      </trkpt>
      <trkpt lat="46.57957" lon="5.48624">
        <ele>501.60000610352</ele>
        <time>2021-03-06T12:45:33.000Z</time>
      </trkpt>
      <trkpt lat="46.57963" lon="5.4863">
        <ele>502</ele>
        <time>2021-03-06T12:45:35.000Z</time>
      </trkpt>
      <trkpt lat="46.57976" lon="5.48644">
        <ele>502.60000610352</ele>
        <time>2021-03-06T12:45:40.000Z</time>
      </trkpt>
      <trkpt lat="46.57987" lon="5.48652">
        <ele>503.20001220703</ele>
        <time>2021-03-06T12:45:43.000Z</time>
      </trkpt>
      <trkpt lat="46.57995" lon="5.48657">
        <ele>503.79998779297</ele>
        <time>2021-03-06T12:45:46.000Z</time>
      </trkpt>
      <trkpt lat="46.57997" lon="5.48659">
        <ele>504</ele>
        <time>2021-03-06T12:45:47.000Z</time>
      </trkpt>
      <trkpt lat="46.58013" lon="5.4867">
        <ele>505</ele>
        <time>2021-03-06T12:45:51.000Z</time>
      </trkpt>
      <trkpt lat="46.58033" lon="5.48684">
        <ele>505.79998779297</ele>
        <time>2021-03-06T12:45:57.000Z</time>
      </trkpt>
      <trkpt lat="46.58035" lon="5.48687">
        <ele>506</ele>
        <time>2021-03-06T12:45:58.000Z</time>
      </trkpt>
      <trkpt lat="46.58044" lon="5.48697">
        <ele>507</ele>
        <time>2021-03-06T12:46:02.000Z</time>
      </trkpt>
      <trkpt lat="46.58047" lon="5.487">
        <ele>507.20001220703</ele>
        <time>2021-03-06T12:46:03.000Z</time>
      </trkpt>
      <trkpt lat="46.5806" lon="5.48711">
        <ele>508.20001220703</ele>
        <time>2021-03-06T12:46:07.000Z</time>
      </trkpt>
      <trkpt lat="46.58079" lon="5.48727">
        <ele>509.60000610352</ele>
        <time>2021-03-06T12:46:13.000Z</time>
      </trkpt>
      <trkpt lat="46.58097" lon="5.48739">
        <ele>511</ele>
        <time>2021-03-06T12:46:18.000Z</time>
      </trkpt>
      <trkpt lat="46.58111" lon="5.4875">
        <ele>511.79998779297</ele>
        <time>2021-03-06T12:46:23.000Z</time>
      </trkpt>
      <trkpt lat="46.58118" lon="5.48755">
        <ele>512.20001220703</ele>
        <time>2021-03-06T12:46:25.000Z</time>
      </trkpt>
      <trkpt lat="46.58132" lon="5.48766">
        <ele>513</ele>
        <time>2021-03-06T12:46:30.000Z</time>
      </trkpt>
      <trkpt lat="46.5814" lon="5.4877">
        <ele>513.59997558594</ele>
        <time>2021-03-06T12:46:32.000Z</time>
      </trkpt>
      <trkpt lat="46.58148" lon="5.48775">
        <ele>514</ele>
        <time>2021-03-06T12:46:34.000Z</time>
      </trkpt>
      <trkpt lat="46.58159" lon="5.48781">
        <ele>514.79998779297</ele>
        <time>2021-03-06T12:46:37.000Z</time>
      </trkpt>
      <trkpt lat="46.58175" lon="5.48793">
        <ele>515.59997558594</ele>
        <time>2021-03-06T12:46:42.000Z</time>
      </trkpt>
      <trkpt lat="46.58178" lon="5.48795">
        <ele>515.79998779297</ele>
        <time>2021-03-06T12:46:43.000Z</time>
      </trkpt>
      <trkpt lat="46.58186" lon="5.48804">
        <ele>517</ele>
        <time>2021-03-06T12:46:47.000Z</time>
      </trkpt>
      <trkpt lat="46.582" lon="5.48816">
        <ele>517.79998779297</ele>
        <time>2021-03-06T12:46:51.000Z</time>
      </trkpt>
      <trkpt lat="46.58209" lon="5.48821">
        <ele>518</ele>
        <time>2021-03-06T12:46:53.000Z</time>
      </trkpt>
      <trkpt lat="46.58221" lon="5.4883">
        <ele>518.79998779297</ele>
        <time>2021-03-06T12:46:57.000Z</time>
      </trkpt>
      <trkpt lat="46.58228" lon="5.48835">
        <ele>519</ele>
        <time>2021-03-06T12:46:59.000Z</time>
      </trkpt>
      <trkpt lat="46.58238" lon="5.48844">
        <ele>519.40002441406</ele>
        <time>2021-03-06T12:47:02.000Z</time>
      </trkpt>
      <trkpt lat="46.58248" lon="5.48864">
        <ele>519.79998779297</ele>
        <time>2021-03-06T12:47:06.000Z</time>
      </trkpt>
      <trkpt lat="46.58248" lon="5.4887">
        <ele>520</ele>
        <time>2021-03-06T12:47:07.000Z</time>
      </trkpt>
      <trkpt lat="46.58248" lon="5.48876">
        <ele>520</ele>
        <time>2021-03-06T12:47:08.000Z</time>
      </trkpt>
      <trkpt lat="46.58246" lon="5.48881">
        <ele>520.20001220703</ele>
        <time>2021-03-06T12:47:09.000Z</time>
      </trkpt>
      <trkpt lat="46.58239" lon="5.48888">
        <ele>520.40002441406</ele>
        <time>2021-03-06T12:47:11.000Z</time>
      </trkpt>
      <trkpt lat="46.58235" lon="5.48887">
        <ele>520.40002441406</ele>
        <time>2021-03-06T12:47:12.000Z</time>
      </trkpt>
      <trkpt lat="46.58224" lon="5.48871">
        <ele>520.59997558594</ele>
        <time>2021-03-06T12:47:16.000Z</time>
      </trkpt>
      <trkpt lat="46.58217" lon="5.48855">
        <ele>521.20001220703</ele>
        <time>2021-03-06T12:47:19.000Z</time>
      </trkpt>
      <trkpt lat="46.58208" lon="5.48845">
        <ele>521.79998779297</ele>
        <time>2021-03-06T12:47:22.000Z</time>
      </trkpt>
      <trkpt lat="46.58178" lon="5.48821">
        <ele>522.20001220703</ele>
        <time>2021-03-06T12:47:29.000Z</time>
      </trkpt>
      <trkpt lat="46.58174" lon="5.48819">
        <ele>522.20001220703</ele>
        <time>2021-03-06T12:47:30.000Z</time>
      </trkpt>
      <trkpt lat="46.5816" lon="5.48812">
        <ele>522.59997558594</ele>
        <time>2021-03-06T12:47:33.000Z</time>
      </trkpt>
      <trkpt lat="46.58148" lon="5.48807">
        <ele>523.20001220703</ele>
        <time>2021-03-06T12:47:36.000Z</time>
      </trkpt>
      <trkpt lat="46.58142" lon="5.48804">
        <ele>523.59997558594</ele>
        <time>2021-03-06T12:47:38.000Z</time>
      </trkpt>
      <trkpt lat="46.58131" lon="5.48805">
        <ele>524.20001220703</ele>
        <time>2021-03-06T12:47:41.000Z</time>
      </trkpt>
      <trkpt lat="46.58127" lon="5.48803">
        <ele>524.79998779297</ele>
        <time>2021-03-06T12:47:42.000Z</time>
      </trkpt>
      <trkpt lat="46.58123" lon="5.48804">
        <ele>524.79998779297</ele>
        <time>2021-03-06T12:47:43.000Z</time>
      </trkpt>
      <trkpt lat="46.58097" lon="5.4881">
        <ele>525.79998779297</ele>
        <time>2021-03-06T12:47:49.000Z</time>
      </trkpt>
      <trkpt lat="46.58074" lon="5.4882">
        <ele>526.79998779297</ele>
        <time>2021-03-06T12:47:55.000Z</time>
      </trkpt>
      <trkpt lat="46.58071" lon="5.48822">
        <ele>527.40002441406</ele>
        <time>2021-03-06T12:47:56.000Z</time>
      </trkpt>
      <trkpt lat="46.58056" lon="5.48836">
        <ele>528.59997558594</ele>
        <time>2021-03-06T12:48:00.000Z</time>
      </trkpt>
      <trkpt lat="46.58048" lon="5.48847">
        <ele>529.40002441406</ele>
        <time>2021-03-06T12:48:03.000Z</time>
      </trkpt>
      <trkpt lat="46.58045" lon="5.48851">
        <ele>529.79998779297</ele>
        <time>2021-03-06T12:48:04.000Z</time>
      </trkpt>
      <trkpt lat="46.58038" lon="5.48869">
        <ele>530.79998779297</ele>
        <time>2021-03-06T12:48:08.000Z</time>
      </trkpt>
      <trkpt lat="46.58036" lon="5.48874">
        <ele>531</ele>
        <time>2021-03-06T12:48:09.000Z</time>
      </trkpt>
      <trkpt lat="46.5802" lon="5.48894">
        <ele>531.79998779297</ele>
        <time>2021-03-06T12:48:14.000Z</time>
      </trkpt>
      <trkpt lat="46.58014" lon="5.489">
        <ele>532</ele>
        <time>2021-03-06T12:48:16.000Z</time>
      </trkpt>
      <trkpt lat="46.58005" lon="5.48904">
        <ele>532.20001220703</ele>
        <time>2021-03-06T12:48:18.000Z</time>
      </trkpt>
      <trkpt lat="46.57992" lon="5.48905">
        <ele>533</ele>
        <time>2021-03-06T12:48:22.000Z</time>
      </trkpt>
      <trkpt lat="46.57986" lon="5.48904">
        <ele>533.40002441406</ele>
        <time>2021-03-06T12:48:24.000Z</time>
      </trkpt>
      <trkpt lat="46.57979" lon="5.48904">
        <ele>534.20001220703</ele>
        <time>2021-03-06T12:48:26.000Z</time>
      </trkpt>
      <trkpt lat="46.5797" lon="5.489">
        <ele>535</ele>
        <time>2021-03-06T12:48:29.000Z</time>
      </trkpt>
      <trkpt lat="46.57962" lon="5.48898">
        <ele>535.20001220703</ele>
        <time>2021-03-06T12:48:31.000Z</time>
      </trkpt>
      <trkpt lat="46.57952" lon="5.48899">
        <ele>536.20001220703</ele>
        <time>2021-03-06T12:48:34.000Z</time>
      </trkpt>
      <trkpt lat="46.57949" lon="5.489">
        <ele>536.59997558594</ele>
        <time>2021-03-06T12:48:35.000Z</time>
      </trkpt>
      <trkpt lat="46.57934" lon="5.48894">
        <ele>537.40002441406</ele>
        <time>2021-03-06T12:48:38.000Z</time>
      </trkpt>
      <trkpt lat="46.57927" lon="5.48892">
        <ele>537.59997558594</ele>
        <time>2021-03-06T12:48:40.000Z</time>
      </trkpt>
      <trkpt lat="46.5791" lon="5.4889">
        <ele>538.79998779297</ele>
        <time>2021-03-06T12:48:45.000Z</time>
      </trkpt>
      <trkpt lat="46.57889" lon="5.48896">
        <ele>540</ele>
        <time>2021-03-06T12:48:51.000Z</time>
      </trkpt>
      <trkpt lat="46.57878" lon="5.48901">
        <ele>541.20001220703</ele>
        <time>2021-03-06T12:48:55.000Z</time>
      </trkpt>
      <trkpt lat="46.57868" lon="5.48905">
        <ele>541.59997558594</ele>
        <time>2021-03-06T12:48:58.000Z</time>
      </trkpt>
      <trkpt lat="46.5786" lon="5.48907">
        <ele>542.20001220703</ele>
        <time>2021-03-06T12:49:01.000Z</time>
      </trkpt>
      <trkpt lat="46.57853" lon="5.48908">
        <ele>542.79998779297</ele>
        <time>2021-03-06T12:49:04.000Z</time>
      </trkpt>
      <trkpt lat="46.57843" lon="5.48905">
        <ele>543.40002441406</ele>
        <time>2021-03-06T12:49:07.000Z</time>
      </trkpt>
      <trkpt lat="46.57832" lon="5.48903">
        <ele>544</ele>
        <time>2021-03-06T12:49:10.000Z</time>
      </trkpt>
      <trkpt lat="46.57823" lon="5.48902">
        <ele>544.40002441406</ele>
        <time>2021-03-06T12:49:12.000Z</time>
      </trkpt>
      <trkpt lat="46.57792" lon="5.48913">
        <ele>545</ele>
        <time>2021-03-06T12:49:18.000Z</time>
      </trkpt>
      <trkpt lat="46.57764" lon="5.48918">
        <ele>545.20001220703</ele>
        <time>2021-03-06T12:49:23.000Z</time>
      </trkpt>
      <trkpt lat="46.57757" lon="5.48918">
        <ele>545.20001220703</ele>
        <time>2021-03-06T12:49:24.000Z</time>
      </trkpt>
      <trkpt lat="46.57749" lon="5.48918">
        <ele>545.20001220703</ele>
        <time>2021-03-06T12:49:25.000Z</time>
      </trkpt>
      <trkpt lat="46.57719" lon="5.48923">
        <ele>545</ele>
        <time>2021-03-06T12:49:29.000Z</time>
      </trkpt>
      <trkpt lat="46.57709" lon="5.48924">
        <ele>545</ele>
        <time>2021-03-06T12:49:30.000Z</time>
      </trkpt>
      <trkpt lat="46.57687" lon="5.48925">
        <ele>544</ele>
        <time>2021-03-06T12:49:33.000Z</time>
      </trkpt>
      <trkpt lat="46.5768" lon="5.48925">
        <ele>543.20001220703</ele>
        <time>2021-03-06T12:49:34.000Z</time>
      </trkpt>
      <trkpt lat="46.57657" lon="5.48927">
        <ele>542.20001220703</ele>
        <time>2021-03-06T12:49:37.000Z</time>
      </trkpt>
      <trkpt lat="46.57633" lon="5.48931">
        <ele>540.40002441406</ele>
        <time>2021-03-06T12:49:40.000Z</time>
      </trkpt>
      <trkpt lat="46.57617" lon="5.48937">
        <ele>539.20001220703</ele>
        <time>2021-03-06T12:49:42.000Z</time>
      </trkpt>
      <trkpt lat="46.57598" lon="5.48941">
        <ele>538.20001220703</ele>
        <time>2021-03-06T12:49:44.000Z</time>
      </trkpt>
      <trkpt lat="46.57589" lon="5.48941">
        <ele>537.59997558594</ele>
        <time>2021-03-06T12:49:45.000Z</time>
      </trkpt>
      <trkpt lat="46.5758" lon="5.4894">
        <ele>537.20001220703</ele>
        <time>2021-03-06T12:49:46.000Z</time>
      </trkpt>
      <trkpt lat="46.57563" lon="5.48932">
        <ele>535.59997558594</ele>
        <time>2021-03-06T12:49:48.000Z</time>
      </trkpt>
      <trkpt lat="46.57544" lon="5.48917">
        <ele>534.20001220703</ele>
        <time>2021-03-06T12:49:50.000Z</time>
      </trkpt>
      <trkpt lat="46.57531" lon="5.48903">
        <ele>533.59997558594</ele>
        <time>2021-03-06T12:49:52.000Z</time>
      </trkpt>
      <trkpt lat="46.57517" lon="5.48891">
        <ele>532.79998779297</ele>
        <time>2021-03-06T12:49:54.000Z</time>
      </trkpt>
      <trkpt lat="46.5751" lon="5.48889">
        <ele>532.20001220703</ele>
        <time>2021-03-06T12:49:55.000Z</time>
      </trkpt>
      <trkpt lat="46.57505" lon="5.4889">
        <ele>531.59997558594</ele>
        <time>2021-03-06T12:49:56.000Z</time>
      </trkpt>
      <trkpt lat="46.57502" lon="5.48895">
        <ele>531</ele>
        <time>2021-03-06T12:49:57.000Z</time>
      </trkpt>
      <trkpt lat="46.57508" lon="5.48915">
        <ele>530.40002441406</ele>
        <time>2021-03-06T12:49:59.000Z</time>
      </trkpt>
      <trkpt lat="46.5753" lon="5.48952">
        <ele>529</ele>
        <time>2021-03-06T12:50:03.000Z</time>
      </trkpt>
      <trkpt lat="46.57535" lon="5.48962">
        <ele>528.59997558594</ele>
        <time>2021-03-06T12:50:04.000Z</time>
      </trkpt>
      <trkpt lat="46.5754" lon="5.48972">
        <ele>527.79998779297</ele>
        <time>2021-03-06T12:50:05.000Z</time>
      </trkpt>
      <trkpt lat="46.57554" lon="5.49005">
        <ele>527</ele>
        <time>2021-03-06T12:50:08.000Z</time>
      </trkpt>
      <trkpt lat="46.57558" lon="5.4902">
        <ele>526.79998779297</ele>
        <time>2021-03-06T12:50:09.000Z</time>
      </trkpt>
      <trkpt lat="46.57563" lon="5.49043">
        <ele>525.79998779297</ele>
        <time>2021-03-06T12:50:11.000Z</time>
      </trkpt>
      <trkpt lat="46.57571" lon="5.49084">
        <ele>524.40002441406</ele>
        <time>2021-03-06T12:50:14.000Z</time>
      </trkpt>
      <trkpt lat="46.57584" lon="5.49129">
        <ele>523.20001220703</ele>
        <time>2021-03-06T12:50:17.000Z</time>
      </trkpt>
      <trkpt lat="46.57595" lon="5.49158">
        <ele>522</ele>
        <time>2021-03-06T12:50:19.000Z</time>
      </trkpt>
      <trkpt lat="46.57607" lon="5.49184">
        <ele>520.79998779297</ele>
        <time>2021-03-06T12:50:21.000Z</time>
      </trkpt>
      <trkpt lat="46.57619" lon="5.49211">
        <ele>519.20001220703</ele>
        <time>2021-03-06T12:50:23.000Z</time>
      </trkpt>
      <trkpt lat="46.5763" lon="5.49237">
        <ele>517.59997558594</ele>
        <time>2021-03-06T12:50:25.000Z</time>
      </trkpt>
      <trkpt lat="46.57642" lon="5.49264">
        <ele>516.59997558594</ele>
        <time>2021-03-06T12:50:27.000Z</time>
      </trkpt>
      <trkpt lat="46.57647" lon="5.49279">
        <ele>516.20001220703</ele>
        <time>2021-03-06T12:50:28.000Z</time>
      </trkpt>
      <trkpt lat="46.57649" lon="5.49294">
        <ele>516</ele>
        <time>2021-03-06T12:50:29.000Z</time>
      </trkpt>
      <trkpt lat="46.5765" lon="5.49323">
        <ele>514.59997558594</ele>
        <time>2021-03-06T12:50:31.000Z</time>
      </trkpt>
      <trkpt lat="46.57646" lon="5.49336">
        <ele>514</ele>
        <time>2021-03-06T12:50:32.000Z</time>
      </trkpt>
      <trkpt lat="46.57641" lon="5.49347">
        <ele>512.79998779297</ele>
        <time>2021-03-06T12:50:33.000Z</time>
      </trkpt>
      <trkpt lat="46.57633" lon="5.49355">
        <ele>512.40002441406</ele>
        <time>2021-03-06T12:50:34.000Z</time>
      </trkpt>
      <trkpt lat="46.57623" lon="5.49358">
        <ele>511.79998779297</ele>
        <time>2021-03-06T12:50:35.000Z</time>
      </trkpt>
      <trkpt lat="46.57603" lon="5.49359">
        <ele>510.79998779297</ele>
        <time>2021-03-06T12:50:37.000Z</time>
      </trkpt>
      <trkpt lat="46.57593" lon="5.49356">
        <ele>510.39999389648</ele>
        <time>2021-03-06T12:50:38.000Z</time>
      </trkpt>
      <trkpt lat="46.57565" lon="5.49345">
        <ele>509.20001220703</ele>
        <time>2021-03-06T12:50:41.000Z</time>
      </trkpt>
      <trkpt lat="46.57555" lon="5.49341">
        <ele>508.60000610352</ele>
        <time>2021-03-06T12:50:42.000Z</time>
      </trkpt>
      <trkpt lat="46.57537" lon="5.49334">
        <ele>508.20001220703</ele>
        <time>2021-03-06T12:50:44.000Z</time>
      </trkpt>
      <trkpt lat="46.57499" lon="5.49325">
        <ele>506.79998779297</ele>
        <time>2021-03-06T12:50:48.000Z</time>
      </trkpt>
      <trkpt lat="46.5749" lon="5.49324">
        <ele>506.20001220703</ele>
        <time>2021-03-06T12:50:49.000Z</time>
      </trkpt>
      <trkpt lat="46.57471" lon="5.49326">
        <ele>505.60000610352</ele>
        <time>2021-03-06T12:50:51.000Z</time>
      </trkpt>
      <trkpt lat="46.57432" lon="5.49328">
        <ele>504.79998779297</ele>
        <time>2021-03-06T12:50:55.000Z</time>
      </trkpt>
      <trkpt lat="46.57422" lon="5.49328">
        <ele>504.39999389648</ele>
        <time>2021-03-06T12:50:56.000Z</time>
      </trkpt>
      <trkpt lat="46.57403" lon="5.49325">
        <ele>503.20001220703</ele>
        <time>2021-03-06T12:50:58.000Z</time>
      </trkpt>
      <trkpt lat="46.57386" lon="5.49321">
        <ele>502.39999389648</ele>
        <time>2021-03-06T12:51:00.000Z</time>
      </trkpt>
      <trkpt lat="46.57377" lon="5.49318">
        <ele>502.20001220703</ele>
        <time>2021-03-06T12:51:01.000Z</time>
      </trkpt>
      <trkpt lat="46.57332" lon="5.49298">
        <ele>501.20001220703</ele>
        <time>2021-03-06T12:51:06.000Z</time>
      </trkpt>
      <trkpt lat="46.57323" lon="5.49295">
        <ele>500.79998779297</ele>
        <time>2021-03-06T12:51:07.000Z</time>
      </trkpt>
      <trkpt lat="46.57278" lon="5.49285">
        <ele>499.60000610352</ele>
        <time>2021-03-06T12:51:12.000Z</time>
      </trkpt>
      <trkpt lat="46.57223" lon="5.49281">
        <ele>498.39999389648</ele>
        <time>2021-03-06T12:51:18.000Z</time>
      </trkpt>
      <trkpt lat="46.57205" lon="5.4928">
        <ele>497.79998779297</ele>
        <time>2021-03-06T12:51:20.000Z</time>
      </trkpt>
      <trkpt lat="46.57196" lon="5.49278">
        <ele>497.39999389648</ele>
        <time>2021-03-06T12:51:21.000Z</time>
      </trkpt>
      <trkpt lat="46.57178" lon="5.49269">
        <ele>497.20001220703</ele>
        <time>2021-03-06T12:51:23.000Z</time>
      </trkpt>
      <trkpt lat="46.5717" lon="5.49264">
        <ele>497</ele>
        <time>2021-03-06T12:51:24.000Z</time>
      </trkpt>
      <trkpt lat="46.57131" lon="5.49244">
        <ele>496</ele>
        <time>2021-03-06T12:51:29.000Z</time>
      </trkpt>
      <trkpt lat="46.57113" lon="5.49237">
        <ele>495.60000610352</ele>
        <time>2021-03-06T12:51:31.000Z</time>
      </trkpt>
      <trkpt lat="46.5707" lon="5.49231">
        <ele>495</ele>
        <time>2021-03-06T12:51:36.000Z</time>
      </trkpt>
      <trkpt lat="46.57053" lon="5.49226">
        <ele>494.20001220703</ele>
        <time>2021-03-06T12:51:38.000Z</time>
      </trkpt>
      <trkpt lat="46.57044" lon="5.49221">
        <ele>493.60000610352</ele>
        <time>2021-03-06T12:51:39.000Z</time>
      </trkpt>
      <trkpt lat="46.57037" lon="5.49212">
        <ele>493.20001220703</ele>
        <time>2021-03-06T12:51:40.000Z</time>
      </trkpt>
      <trkpt lat="46.57029" lon="5.49203">
        <ele>493</ele>
        <time>2021-03-06T12:51:41.000Z</time>
      </trkpt>
      <trkpt lat="46.57017" lon="5.49186">
        <ele>492.79998779297</ele>
        <time>2021-03-06T12:51:43.000Z</time>
      </trkpt>
      <trkpt lat="46.5701" lon="5.49178">
        <ele>492.60000610352</ele>
        <time>2021-03-06T12:51:44.000Z</time>
      </trkpt>
      <trkpt lat="46.57002" lon="5.49172">
        <ele>492.79998779297</ele>
        <time>2021-03-06T12:51:45.000Z</time>
      </trkpt>
      <trkpt lat="46.56994" lon="5.49167">
        <ele>492.39999389648</ele>
        <time>2021-03-06T12:51:46.000Z</time>
      </trkpt>
      <trkpt lat="46.56976" lon="5.49159">
        <ele>492.20001220703</ele>
        <time>2021-03-06T12:51:48.000Z</time>
      </trkpt>
      <trkpt lat="46.5694" lon="5.49141">
        <ele>491.39999389648</ele>
        <time>2021-03-06T12:51:52.000Z</time>
      </trkpt>
      <trkpt lat="46.56924" lon="5.49134">
        <ele>490.60000610352</ele>
        <time>2021-03-06T12:51:54.000Z</time>
      </trkpt>
      <trkpt lat="46.56916" lon="5.49131">
        <ele>490.20001220703</ele>
        <time>2021-03-06T12:51:55.000Z</time>
      </trkpt>
      <trkpt lat="46.569" lon="5.49127">
        <ele>489.60000610352</ele>
        <time>2021-03-06T12:51:57.000Z</time>
      </trkpt>
      <trkpt lat="46.56891" lon="5.49127">
        <ele>489.60000610352</ele>
        <time>2021-03-06T12:51:58.000Z</time>
      </trkpt>
      <trkpt lat="46.56873" lon="5.49123">
        <ele>489.20001220703</ele>
        <time>2021-03-06T12:52:00.000Z</time>
      </trkpt>
      <trkpt lat="46.56864" lon="5.49118">
        <ele>489</ele>
        <time>2021-03-06T12:52:01.000Z</time>
      </trkpt>
      <trkpt lat="46.56858" lon="5.49111">
        <ele>488.79998779297</ele>
        <time>2021-03-06T12:52:02.000Z</time>
      </trkpt>
      <trkpt lat="46.56848" lon="5.49091">
        <ele>488.20001220703</ele>
        <time>2021-03-06T12:52:04.000Z</time>
      </trkpt>
      <trkpt lat="46.56844" lon="5.49079">
        <ele>488.20001220703</ele>
        <time>2021-03-06T12:52:05.000Z</time>
      </trkpt>
      <trkpt lat="46.5684" lon="5.49068">
        <ele>487.79998779297</ele>
        <time>2021-03-06T12:52:06.000Z</time>
      </trkpt>
      <trkpt lat="46.5682" lon="5.49028">
        <ele>487.20001220703</ele>
        <time>2021-03-06T12:52:10.000Z</time>
      </trkpt>
      <trkpt lat="46.56807" lon="5.49011">
        <ele>486.79998779297</ele>
        <time>2021-03-06T12:52:12.000Z</time>
      </trkpt>
      <trkpt lat="46.568" lon="5.49005">
        <ele>486.79998779297</ele>
        <time>2021-03-06T12:52:13.000Z</time>
      </trkpt>
      <trkpt lat="46.56792" lon="5.48999">
        <ele>486.60000610352</ele>
        <time>2021-03-06T12:52:14.000Z</time>
      </trkpt>
      <trkpt lat="46.56768" lon="5.4898">
        <ele>485.60000610352</ele>
        <time>2021-03-06T12:52:17.000Z</time>
      </trkpt>
      <trkpt lat="46.56744" lon="5.48963">
        <ele>485</ele>
        <time>2021-03-06T12:52:20.000Z</time>
      </trkpt>
      <trkpt lat="46.56719" lon="5.48948">
        <ele>484.39999389648</ele>
        <time>2021-03-06T12:52:23.000Z</time>
      </trkpt>
      <trkpt lat="46.56694" lon="5.48936">
        <ele>483.39999389648</ele>
        <time>2021-03-06T12:52:26.000Z</time>
      </trkpt>
      <trkpt lat="46.56641" lon="5.48913">
        <ele>482.39999389648</ele>
        <time>2021-03-06T12:52:32.000Z</time>
      </trkpt>
      <trkpt lat="46.56609" lon="5.48897">
        <ele>481.79998779297</ele>
        <time>2021-03-06T12:52:36.000Z</time>
      </trkpt>
      <trkpt lat="46.56588" lon="5.48881">
        <ele>481.60000610352</ele>
        <time>2021-03-06T12:52:39.000Z</time>
      </trkpt>
      <trkpt lat="46.56575" lon="5.48866">
        <ele>481.60000610352</ele>
        <time>2021-03-06T12:52:41.000Z</time>
      </trkpt>
      <trkpt lat="46.56561" lon="5.48838">
        <ele>481.39999389648</ele>
        <time>2021-03-06T12:52:44.000Z</time>
      </trkpt>
      <trkpt lat="46.56558" lon="5.48827">
        <ele>481.39999389648</ele>
        <time>2021-03-06T12:52:45.000Z</time>
      </trkpt>
      <trkpt lat="46.56543" lon="5.48775">
        <ele>481.60000610352</ele>
        <time>2021-03-06T12:52:50.000Z</time>
      </trkpt>
      <trkpt lat="46.56538" lon="5.48766">
        <ele>481.60000610352</ele>
        <time>2021-03-06T12:52:51.000Z</time>
      </trkpt>
      <trkpt lat="46.56532" lon="5.48757">
        <ele>482</ele>
        <time>2021-03-06T12:52:52.000Z</time>
      </trkpt>
      <trkpt lat="46.56521" lon="5.48747">
        <ele>482</ele>
        <time>2021-03-06T12:52:54.000Z</time>
      </trkpt>
      <trkpt lat="46.56486" lon="5.48729">
        <ele>482</ele>
        <time>2021-03-06T12:52:59.000Z</time>
      </trkpt>
      <trkpt lat="46.56442" lon="5.48716">
        <ele>482</ele>
        <time>2021-03-06T12:53:05.000Z</time>
      </trkpt>
      <trkpt lat="46.56403" lon="5.48719">
        <ele>482.20001220703</ele>
        <time>2021-03-06T12:53:10.000Z</time>
      </trkpt>
      <trkpt lat="46.56382" lon="5.48733">
        <ele>482.20001220703</ele>
        <time>2021-03-06T12:53:13.000Z</time>
      </trkpt>
      <trkpt lat="46.56363" lon="5.48748">
        <ele>482.20001220703</ele>
        <time>2021-03-06T12:53:16.000Z</time>
      </trkpt>
      <trkpt lat="46.56356" lon="5.4875">
        <ele>482.20001220703</ele>
        <time>2021-03-06T12:53:17.000Z</time>
      </trkpt>
      <trkpt lat="46.56349" lon="5.48749">
        <ele>482.20001220703</ele>
        <time>2021-03-06T12:53:18.000Z</time>
      </trkpt>
      <trkpt lat="46.56336" lon="5.48743">
        <ele>482.20001220703</ele>
        <time>2021-03-06T12:53:20.000Z</time>
      </trkpt>
      <trkpt lat="46.56317" lon="5.48721">
        <ele>482</ele>
        <time>2021-03-06T12:53:23.000Z</time>
      </trkpt>
      <trkpt lat="46.56312" lon="5.48713">
        <ele>482.20001220703</ele>
        <time>2021-03-06T12:53:24.000Z</time>
      </trkpt>
      <trkpt lat="46.56285" lon="5.48676">
        <ele>482</ele>
        <time>2021-03-06T12:53:29.000Z</time>
      </trkpt>
      <trkpt lat="46.56279" lon="5.48671">
        <ele>482</ele>
        <time>2021-03-06T12:53:30.000Z</time>
      </trkpt>
      <trkpt lat="46.56239" lon="5.48651">
        <ele>482.20001220703</ele>
        <time>2021-03-06T12:53:36.000Z</time>
      </trkpt>
      <trkpt lat="46.562" lon="5.48631">
        <ele>482.20001220703</ele>
        <time>2021-03-06T12:53:42.000Z</time>
      </trkpt>
      <trkpt lat="46.56187" lon="5.48621">
        <ele>482.20001220703</ele>
        <time>2021-03-06T12:53:44.000Z</time>
      </trkpt>
      <trkpt lat="46.56176" lon="5.48608">
        <ele>482.20001220703</ele>
        <time>2021-03-06T12:53:46.000Z</time>
      </trkpt>
      <trkpt lat="46.56168" lon="5.48593">
        <ele>482.39999389648</ele>
        <time>2021-03-06T12:53:48.000Z</time>
      </trkpt>
      <trkpt lat="46.56159" lon="5.4858">
        <ele>482.39999389648</ele>
        <time>2021-03-06T12:53:50.000Z</time>
      </trkpt>
      <trkpt lat="46.56141" lon="5.48569">
        <ele>482.60000610352</ele>
        <time>2021-03-06T12:53:53.000Z</time>
      </trkpt>
      <trkpt lat="46.56134" lon="5.48567">
        <ele>482.60000610352</ele>
        <time>2021-03-06T12:53:54.000Z</time>
      </trkpt>
      <trkpt lat="46.56092" lon="5.48559">
        <ele>482.39999389648</ele>
        <time>2021-03-06T12:54:00.000Z</time>
      </trkpt>
      <trkpt lat="46.56058" lon="5.4855">
        <ele>482.20001220703</ele>
        <time>2021-03-06T12:54:05.000Z</time>
      </trkpt>
      <trkpt lat="46.56044" lon="5.48542">
        <ele>482.39999389648</ele>
        <time>2021-03-06T12:54:07.000Z</time>
      </trkpt>
      <trkpt lat="46.56007" lon="5.48517">
        <ele>482.79998779297</ele>
        <time>2021-03-06T12:54:13.000Z</time>
      </trkpt>
      <trkpt lat="46.56" lon="5.48514">
        <ele>483</ele>
        <time>2021-03-06T12:54:14.000Z</time>
      </trkpt>
      <trkpt lat="46.55985" lon="5.4851">
        <ele>482.79998779297</ele>
        <time>2021-03-06T12:54:16.000Z</time>
      </trkpt>
      <trkpt lat="46.55978" lon="5.48509">
        <ele>482.79998779297</ele>
        <time>2021-03-06T12:54:17.000Z</time>
      </trkpt>
      <trkpt lat="46.55922" lon="5.48506">
        <ele>482.39999389648</ele>
        <time>2021-03-06T12:54:24.000Z</time>
      </trkpt>
      <trkpt lat="46.55914" lon="5.48507">
        <ele>482.39999389648</ele>
        <time>2021-03-06T12:54:25.000Z</time>
      </trkpt>
      <trkpt lat="46.55897" lon="5.48512">
        <ele>482</ele>
        <time>2021-03-06T12:54:27.000Z</time>
      </trkpt>
      <trkpt lat="46.55888" lon="5.48516">
        <ele>481.79998779297</ele>
        <time>2021-03-06T12:54:28.000Z</time>
      </trkpt>
      <trkpt lat="46.5587" lon="5.48527">
        <ele>481.20001220703</ele>
        <time>2021-03-06T12:54:30.000Z</time>
      </trkpt>
      <trkpt lat="46.55854" lon="5.48544">
        <ele>480.60000610352</ele>
        <time>2021-03-06T12:54:32.000Z</time>
      </trkpt>
      <trkpt lat="46.5584" lon="5.48565">
        <ele>479.39999389648</ele>
        <time>2021-03-06T12:54:34.000Z</time>
      </trkpt>
      <trkpt lat="46.55827" lon="5.48586">
        <ele>478.39999389648</ele>
        <time>2021-03-06T12:54:36.000Z</time>
      </trkpt>
      <trkpt lat="46.5582" lon="5.48596">
        <ele>477.60000610352</ele>
        <time>2021-03-06T12:54:37.000Z</time>
      </trkpt>
      <trkpt lat="46.55814" lon="5.48606">
        <ele>476.79998779297</ele>
        <time>2021-03-06T12:54:38.000Z</time>
      </trkpt>
      <trkpt lat="46.55779" lon="5.4866">
        <ele>476.20001220703</ele>
        <time>2021-03-06T12:54:44.000Z</time>
      </trkpt>
      <trkpt lat="46.55774" lon="5.48669">
        <ele>476.20001220703</ele>
        <time>2021-03-06T12:54:45.000Z</time>
      </trkpt>
      <trkpt lat="46.55769" lon="5.48691">
        <ele>476.20001220703</ele>
        <time>2021-03-06T12:54:47.000Z</time>
      </trkpt>
      <trkpt lat="46.5577" lon="5.48714">
        <ele>476.20001220703</ele>
        <time>2021-03-06T12:54:49.000Z</time>
      </trkpt>
      <trkpt lat="46.55772" lon="5.48725">
        <ele>476.20001220703</ele>
        <time>2021-03-06T12:54:50.000Z</time>
      </trkpt>
      <trkpt lat="46.55776" lon="5.48774">
        <ele>475.79998779297</ele>
        <time>2021-03-06T12:54:54.000Z</time>
      </trkpt>
      <trkpt lat="46.55778" lon="5.48809">
        <ele>475.60000610352</ele>
        <time>2021-03-06T12:54:57.000Z</time>
      </trkpt>
      <trkpt lat="46.55781" lon="5.48858">
        <ele>475.60000610352</ele>
        <time>2021-03-06T12:55:02.000Z</time>
      </trkpt>
      <trkpt lat="46.55783" lon="5.48885">
        <ele>477.20001220703</ele>
        <time>2021-03-06T12:55:06.000Z</time>
      </trkpt>
      <trkpt lat="46.55783" lon="5.48906">
        <ele>478.20001220703</ele>
        <time>2021-03-06T12:55:09.000Z</time>
      </trkpt>
      <trkpt lat="46.55783" lon="5.48912">
        <ele>478.79998779297</ele>
        <time>2021-03-06T12:55:10.000Z</time>
      </trkpt>
      <trkpt lat="46.55783" lon="5.48918">
        <ele>479.20001220703</ele>
        <time>2021-03-06T12:55:11.000Z</time>
      </trkpt>
      <trkpt lat="46.55782" lon="5.48925">
        <ele>479.39999389648</ele>
        <time>2021-03-06T12:55:12.000Z</time>
      </trkpt>
      <trkpt lat="46.55782" lon="5.48931">
        <ele>479.79998779297</ele>
        <time>2021-03-06T12:55:13.000Z</time>
      </trkpt>
      <trkpt lat="46.55778" lon="5.48949">
        <ele>480.20001220703</ele>
        <time>2021-03-06T12:55:16.000Z</time>
      </trkpt>
      <trkpt lat="46.55774" lon="5.48961">
        <ele>480.79998779297</ele>
        <time>2021-03-06T12:55:18.000Z</time>
      </trkpt>
      <trkpt lat="46.55769" lon="5.48979">
        <ele>481.39999389648</ele>
        <time>2021-03-06T12:55:21.000Z</time>
      </trkpt>
      <trkpt lat="46.55761" lon="5.49001">
        <ele>482</ele>
        <time>2021-03-06T12:55:25.000Z</time>
      </trkpt>
      <trkpt lat="46.55756" lon="5.49011">
        <ele>482.60000610352</ele>
        <time>2021-03-06T12:55:27.000Z</time>
      </trkpt>
      <trkpt lat="46.55754" lon="5.49015">
        <ele>482.79998779297</ele>
        <time>2021-03-06T12:55:28.000Z</time>
      </trkpt>
      <trkpt lat="46.55747" lon="5.49023">
        <ele>483.20001220703</ele>
        <time>2021-03-06T12:55:30.000Z</time>
      </trkpt>
      <trkpt lat="46.55744" lon="5.49026">
        <ele>483.79998779297</ele>
        <time>2021-03-06T12:55:31.000Z</time>
      </trkpt>
      <trkpt lat="46.55741" lon="5.49028">
        <ele>484</ele>
        <time>2021-03-06T12:55:32.000Z</time>
      </trkpt>
      <trkpt lat="46.55737" lon="5.49031">
        <ele>484.39999389648</ele>
        <time>2021-03-06T12:55:33.000Z</time>
      </trkpt>
      <trkpt lat="46.55732" lon="5.49035">
        <ele>485</ele>
        <time>2021-03-06T12:55:35.000Z</time>
      </trkpt>
      <trkpt lat="46.55722" lon="5.49044">
        <ele>485.60000610352</ele>
        <time>2021-03-06T12:55:38.000Z</time>
      </trkpt>
      <trkpt lat="46.55713" lon="5.49053">
        <ele>486.20001220703</ele>
        <time>2021-03-06T12:55:41.000Z</time>
      </trkpt>
      <trkpt lat="46.55704" lon="5.49065">
        <ele>487.20001220703</ele>
        <time>2021-03-06T12:55:44.000Z</time>
      </trkpt>
      <trkpt lat="46.557" lon="5.49068">
        <ele>487.60000610352</ele>
        <time>2021-03-06T12:55:45.000Z</time>
      </trkpt>
      <trkpt lat="46.55683" lon="5.49091">
        <ele>489</ele>
        <time>2021-03-06T12:55:51.000Z</time>
      </trkpt>
      <trkpt lat="46.55681" lon="5.49095">
        <ele>489.20001220703</ele>
        <time>2021-03-06T12:55:52.000Z</time>
      </trkpt>
      <trkpt lat="46.55672" lon="5.49109">
        <ele>490</ele>
        <time>2021-03-06T12:55:56.000Z</time>
      </trkpt>
      <trkpt lat="46.55669" lon="5.49114">
        <ele>490.20001220703</ele>
        <time>2021-03-06T12:55:57.000Z</time>
      </trkpt>
      <trkpt lat="46.55662" lon="5.49133">
        <ele>491.20001220703</ele>
        <time>2021-03-06T12:56:01.000Z</time>
      </trkpt>
      <trkpt lat="46.5566" lon="5.49144">
        <ele>491.60000610352</ele>
        <time>2021-03-06T12:56:03.000Z</time>
      </trkpt>
      <trkpt lat="46.55659" lon="5.49159">
        <ele>492.39999389648</ele>
        <time>2021-03-06T12:56:06.000Z</time>
      </trkpt>
      <trkpt lat="46.55659" lon="5.4918">
        <ele>493.39999389648</ele>
        <time>2021-03-06T12:56:10.000Z</time>
      </trkpt>
      <trkpt lat="46.55659" lon="5.49185">
        <ele>493.60000610352</ele>
        <time>2021-03-06T12:56:11.000Z</time>
      </trkpt>
      <trkpt lat="46.55662" lon="5.49199">
        <ele>494.39999389648</ele>
        <time>2021-03-06T12:56:14.000Z</time>
      </trkpt>
      <trkpt lat="46.55668" lon="5.49217">
        <ele>495.39999389648</ele>
        <time>2021-03-06T12:56:18.000Z</time>
      </trkpt>
      <trkpt lat="46.55681" lon="5.49239">
        <ele>496.60000610352</ele>
        <time>2021-03-06T12:56:24.000Z</time>
      </trkpt>
      <trkpt lat="46.55683" lon="5.49243">
        <ele>496.79998779297</ele>
        <time>2021-03-06T12:56:25.000Z</time>
      </trkpt>
      <trkpt lat="46.55694" lon="5.49259">
        <ele>498</ele>
        <time>2021-03-06T12:56:30.000Z</time>
      </trkpt>
      <trkpt lat="46.557" lon="5.49276">
        <ele>499</ele>
        <time>2021-03-06T12:56:34.000Z</time>
      </trkpt>
      <trkpt lat="46.557" lon="5.4928">
        <ele>499.20001220703</ele>
        <time>2021-03-06T12:56:35.000Z</time>
      </trkpt>
      <trkpt lat="46.55698" lon="5.49289">
        <ele>499.39999389648</ele>
        <time>2021-03-06T12:56:37.000Z</time>
      </trkpt>
      <trkpt lat="46.55695" lon="5.49291">
        <ele>499.60000610352</ele>
        <time>2021-03-06T12:56:38.000Z</time>
      </trkpt>
      <trkpt lat="46.55686" lon="5.49289">
        <ele>500.20001220703</ele>
        <time>2021-03-06T12:56:41.000Z</time>
      </trkpt>
      <trkpt lat="46.55683" lon="5.49287">
        <ele>500.60000610352</ele>
        <time>2021-03-06T12:56:42.000Z</time>
      </trkpt>
      <trkpt lat="46.5568" lon="5.49285">
        <ele>500.60000610352</ele>
        <time>2021-03-06T12:56:43.000Z</time>
      </trkpt>
      <trkpt lat="46.55673" lon="5.49282">
        <ele>501.39999389648</ele>
        <time>2021-03-06T12:56:45.000Z</time>
      </trkpt>
      <trkpt lat="46.55654" lon="5.4927">
        <ele>502.60000610352</ele>
        <time>2021-03-06T12:56:51.000Z</time>
      </trkpt>
      <trkpt lat="46.5564" lon="5.49262">
        <ele>503.60000610352</ele>
        <time>2021-03-06T12:56:56.000Z</time>
      </trkpt>
      <trkpt lat="46.55637" lon="5.4926">
        <ele>503.60000610352</ele>
        <time>2021-03-06T12:56:57.000Z</time>
      </trkpt>
      <trkpt lat="46.55615" lon="5.4925">
        <ele>504.79998779297</ele>
        <time>2021-03-06T12:57:03.000Z</time>
      </trkpt>
      <trkpt lat="46.55606" lon="5.49247">
        <ele>504.79998779297</ele>
        <time>2021-03-06T12:57:05.000Z</time>
      </trkpt>
      <trkpt lat="46.55582" lon="5.49233">
        <ele>506</ele>
        <time>2021-03-06T12:57:12.000Z</time>
      </trkpt>
      <trkpt lat="46.55575" lon="5.49229">
        <ele>506.20001220703</ele>
        <time>2021-03-06T12:57:14.000Z</time>
      </trkpt>
      <trkpt lat="46.55561" lon="5.49223">
        <ele>506.79998779297</ele>
        <time>2021-03-06T12:57:19.000Z</time>
      </trkpt>
      <trkpt lat="46.5556" lon="5.49229">
        <ele>507</ele>
        <time>2021-03-06T12:57:21.000Z</time>
      </trkpt>
      <trkpt lat="46.55569" lon="5.49238">
        <ele>507.20001220703</ele>
        <time>2021-03-06T12:57:24.000Z</time>
      </trkpt>
      <trkpt lat="46.55599" lon="5.49264">
        <ele>507.60000610352</ele>
        <time>2021-03-06T12:57:31.000Z</time>
      </trkpt>
      <trkpt lat="46.55639" lon="5.493">
        <ele>507.20001220703</ele>
        <time>2021-03-06T12:57:39.000Z</time>
      </trkpt>
      <trkpt lat="46.55674" lon="5.49338">
        <ele>507.20001220703</ele>
        <time>2021-03-06T12:57:47.000Z</time>
      </trkpt>
      <trkpt lat="46.55678" lon="5.49345">
        <ele>507.20001220703</ele>
        <time>2021-03-06T12:57:48.000Z</time>
      </trkpt>
      <trkpt lat="46.55693" lon="5.49374">
        <ele>507.20001220703</ele>
        <time>2021-03-06T12:57:52.000Z</time>
      </trkpt>
      <trkpt lat="46.55698" lon="5.49381">
        <ele>507.20001220703</ele>
        <time>2021-03-06T12:57:53.000Z</time>
      </trkpt>
      <trkpt lat="46.55703" lon="5.49388">
        <ele>507.20001220703</ele>
        <time>2021-03-06T12:57:54.000Z</time>
      </trkpt>
      <trkpt lat="46.55725" lon="5.49412">
        <ele>506.60000610352</ele>
        <time>2021-03-06T12:57:58.000Z</time>
      </trkpt>
      <trkpt lat="46.55736" lon="5.49424">
        <ele>506</ele>
        <time>2021-03-06T12:58:00.000Z</time>
      </trkpt>
      <trkpt lat="46.55764" lon="5.49449">
        <ele>505.20001220703</ele>
        <time>2021-03-06T12:58:04.000Z</time>
      </trkpt>
      <trkpt lat="46.55779" lon="5.49463">
        <ele>504.79998779297</ele>
        <time>2021-03-06T12:58:06.000Z</time>
      </trkpt>
      <trkpt lat="46.55786" lon="5.4947">
        <ele>504.39999389648</ele>
        <time>2021-03-06T12:58:07.000Z</time>
      </trkpt>
      <trkpt lat="46.55799" lon="5.49487">
        <ele>504</ele>
        <time>2021-03-06T12:58:09.000Z</time>
      </trkpt>
      <trkpt lat="46.55811" lon="5.49504">
        <ele>503.20001220703</ele>
        <time>2021-03-06T12:58:11.000Z</time>
      </trkpt>
      <trkpt lat="46.5583" lon="5.49526">
        <ele>502.39999389648</ele>
        <time>2021-03-06T12:58:14.000Z</time>
      </trkpt>
      <trkpt lat="46.55837" lon="5.49531">
        <ele>501.79998779297</ele>
        <time>2021-03-06T12:58:15.000Z</time>
      </trkpt>
      <trkpt lat="46.55844" lon="5.49533">
        <ele>501.39999389648</ele>
        <time>2021-03-06T12:58:16.000Z</time>
      </trkpt>
      <trkpt lat="46.55859" lon="5.49535">
        <ele>501</ele>
        <time>2021-03-06T12:58:18.000Z</time>
      </trkpt>
      <trkpt lat="46.55876" lon="5.49536">
        <ele>500.60000610352</ele>
        <time>2021-03-06T12:58:20.000Z</time>
      </trkpt>
      <trkpt lat="46.55902" lon="5.49537">
        <ele>499.20001220703</ele>
        <time>2021-03-06T12:58:23.000Z</time>
      </trkpt>
      <trkpt lat="46.55942" lon="5.49539">
        <ele>498</ele>
        <time>2021-03-06T12:58:27.000Z</time>
      </trkpt>
      <trkpt lat="46.55953" lon="5.4954">
        <ele>497.60000610352</ele>
        <time>2021-03-06T12:58:28.000Z</time>
      </trkpt>
      <trkpt lat="46.55962" lon="5.49542">
        <ele>496.60000610352</ele>
        <time>2021-03-06T12:58:29.000Z</time>
      </trkpt>
      <trkpt lat="46.55985" lon="5.49546">
        <ele>494.79998779297</ele>
        <time>2021-03-06T12:58:31.000Z</time>
      </trkpt>
      <trkpt lat="46.56008" lon="5.49553">
        <ele>493.39999389648</ele>
        <time>2021-03-06T12:58:33.000Z</time>
      </trkpt>
      <trkpt lat="46.5602" lon="5.49557">
        <ele>491.79998779297</ele>
        <time>2021-03-06T12:58:34.000Z</time>
      </trkpt>
      <trkpt lat="46.56042" lon="5.49566">
        <ele>489</ele>
        <time>2021-03-06T12:58:36.000Z</time>
      </trkpt>
      <trkpt lat="46.56065" lon="5.49574">
        <ele>487.20001220703</ele>
        <time>2021-03-06T12:58:38.000Z</time>
      </trkpt>
      <trkpt lat="46.56076" lon="5.49578">
        <ele>486.60000610352</ele>
        <time>2021-03-06T12:58:39.000Z</time>
      </trkpt>
      <trkpt lat="46.56086" lon="5.49583">
        <ele>485.39999389648</ele>
        <time>2021-03-06T12:58:40.000Z</time>
      </trkpt>
      <trkpt lat="46.56105" lon="5.49593">
        <ele>484.20001220703</ele>
        <time>2021-03-06T12:58:42.000Z</time>
      </trkpt>
      <trkpt lat="46.56114" lon="5.49599">
        <ele>483.60000610352</ele>
        <time>2021-03-06T12:58:43.000Z</time>
      </trkpt>
      <trkpt lat="46.56153" lon="5.49629">
        <ele>483.39999389648</ele>
        <time>2021-03-06T12:58:48.000Z</time>
      </trkpt>
      <trkpt lat="46.56201" lon="5.49666">
        <ele>484.20001220703</ele>
        <time>2021-03-06T12:58:55.000Z</time>
      </trkpt>
      <trkpt lat="46.56218" lon="5.49681">
        <ele>484.79998779297</ele>
        <time>2021-03-06T12:58:58.000Z</time>
      </trkpt>
      <trkpt lat="46.56229" lon="5.49692">
        <ele>485.20001220703</ele>
        <time>2021-03-06T12:59:00.000Z</time>
      </trkpt>
      <trkpt lat="46.56234" lon="5.49697">
        <ele>485.39999389648</ele>
        <time>2021-03-06T12:59:01.000Z</time>
      </trkpt>
      <trkpt lat="46.56245" lon="5.49706">
        <ele>486</ele>
        <time>2021-03-06T12:59:03.000Z</time>
      </trkpt>
      <trkpt lat="46.56262" lon="5.49716">
        <ele>486.39999389648</ele>
        <time>2021-03-06T12:59:06.000Z</time>
      </trkpt>
      <trkpt lat="46.56267" lon="5.49718">
        <ele>486.39999389648</ele>
        <time>2021-03-06T12:59:07.000Z</time>
      </trkpt>
      <trkpt lat="46.56281" lon="5.49724">
        <ele>487.60000610352</ele>
        <time>2021-03-06T12:59:10.000Z</time>
      </trkpt>
      <trkpt lat="46.56295" lon="5.4973">
        <ele>488.60000610352</ele>
        <time>2021-03-06T12:59:13.000Z</time>
      </trkpt>
      <trkpt lat="46.56306" lon="5.49734">
        <ele>489.20001220703</ele>
        <time>2021-03-06T12:59:15.000Z</time>
      </trkpt>
      <trkpt lat="46.56314" lon="5.49738">
        <ele>490</ele>
        <time>2021-03-06T12:59:17.000Z</time>
      </trkpt>
      <trkpt lat="46.56353" lon="5.49756">
        <ele>491.20001220703</ele>
        <time>2021-03-06T12:59:25.000Z</time>
      </trkpt>
      <trkpt lat="46.5638" lon="5.49768">
        <ele>492.20001220703</ele>
        <time>2021-03-06T12:59:30.000Z</time>
      </trkpt>
      <trkpt lat="46.56405" lon="5.49779">
        <ele>493</ele>
        <time>2021-03-06T12:59:35.000Z</time>
      </trkpt>
      <trkpt lat="46.56413" lon="5.49782">
        <ele>493.39999389648</ele>
        <time>2021-03-06T12:59:37.000Z</time>
      </trkpt>
      <trkpt lat="46.56422" lon="5.49788">
        <ele>493.79998779297</ele>
        <time>2021-03-06T12:59:40.000Z</time>
      </trkpt>
      <trkpt lat="46.56432" lon="5.49796">
        <ele>494.60000610352</ele>
        <time>2021-03-06T12:59:44.000Z</time>
      </trkpt>
      <trkpt lat="46.56445" lon="5.49803">
        <ele>495.39999389648</ele>
        <time>2021-03-06T12:59:47.000Z</time>
      </trkpt>
      <trkpt lat="46.56452" lon="5.49807">
        <ele>496</ele>
        <time>2021-03-06T12:59:49.000Z</time>
      </trkpt>
      <trkpt lat="46.56471" lon="5.49816">
        <ele>496.60000610352</ele>
        <time>2021-03-06T12:59:53.000Z</time>
      </trkpt>
      <trkpt lat="46.56495" lon="5.49825">
        <ele>497.20001220703</ele>
        <time>2021-03-06T12:59:58.000Z</time>
      </trkpt>
      <trkpt lat="46.56515" lon="5.49832">
        <ele>497.60000610352</ele>
        <time>2021-03-06T13:00:01.000Z</time>
      </trkpt>
      <trkpt lat="46.56551" lon="5.49848">
        <ele>498.20001220703</ele>
        <time>2021-03-06T13:00:08.000Z</time>
      </trkpt>
      <trkpt lat="46.56568" lon="5.49857">
        <ele>498.39999389648</ele>
        <time>2021-03-06T13:00:11.000Z</time>
      </trkpt>
      <trkpt lat="46.56593" lon="5.49874">
        <ele>498</ele>
        <time>2021-03-06T13:00:16.000Z</time>
      </trkpt>
      <trkpt lat="46.56596" lon="5.49878">
        <ele>497.79998779297</ele>
        <time>2021-03-06T13:00:17.000Z</time>
      </trkpt>
      <trkpt lat="46.56606" lon="5.49887">
        <ele>497.60000610352</ele>
        <time>2021-03-06T13:00:19.000Z</time>
      </trkpt>
      <trkpt lat="46.56617" lon="5.49893">
        <ele>497.20001220703</ele>
        <time>2021-03-06T13:00:21.000Z</time>
      </trkpt>
      <trkpt lat="46.56623" lon="5.49893">
        <ele>497</ele>
        <time>2021-03-06T13:00:22.000Z</time>
      </trkpt>
      <trkpt lat="46.56645" lon="5.49893">
        <ele>496.20001220703</ele>
        <time>2021-03-06T13:00:25.000Z</time>
      </trkpt>
      <trkpt lat="46.56666" lon="5.499">
        <ele>495.79998779297</ele>
        <time>2021-03-06T13:00:27.000Z</time>
      </trkpt>
      <trkpt lat="46.56678" lon="5.49898">
        <ele>495.60000610352</ele>
        <time>2021-03-06T13:00:29.000Z</time>
      </trkpt>
      <trkpt lat="46.56684" lon="5.49897">
        <ele>495.20001220703</ele>
        <time>2021-03-06T13:00:30.000Z</time>
      </trkpt>
      <trkpt lat="46.56697" lon="5.49895">
        <ele>495.39999389648</ele>
        <time>2021-03-06T13:00:32.000Z</time>
      </trkpt>
      <trkpt lat="46.56723" lon="5.49887">
        <ele>496.20001220703</ele>
        <time>2021-03-06T13:00:36.000Z</time>
      </trkpt>
      <trkpt lat="46.56747" lon="5.49881">
        <ele>496.79998779297</ele>
        <time>2021-03-06T13:00:41.000Z</time>
      </trkpt>
      <trkpt lat="46.56751" lon="5.49882">
        <ele>497</ele>
        <time>2021-03-06T13:00:42.000Z</time>
      </trkpt>
      <trkpt lat="46.56772" lon="5.49881">
        <ele>497.79998779297</ele>
        <time>2021-03-06T13:00:46.000Z</time>
      </trkpt>
      <trkpt lat="46.56781" lon="5.49884">
        <ele>498.39999389648</ele>
        <time>2021-03-06T13:00:48.000Z</time>
      </trkpt>
      <trkpt lat="46.56809" lon="5.49888">
        <ele>499.20001220703</ele>
        <time>2021-03-06T13:00:52.000Z</time>
      </trkpt>
      <trkpt lat="46.56815" lon="5.49889">
        <ele>499.39999389648</ele>
        <time>2021-03-06T13:00:53.000Z</time>
      </trkpt>
      <trkpt lat="46.56839" lon="5.4989">
        <ele>499.39999389648</ele>
        <time>2021-03-06T13:00:57.000Z</time>
      </trkpt>
      <trkpt lat="46.56851" lon="5.49887">
        <ele>499.39999389648</ele>
        <time>2021-03-06T13:01:00.000Z</time>
      </trkpt>
      <trkpt lat="46.56867" lon="5.49883">
        <ele>499.60000610352</ele>
        <time>2021-03-06T13:01:02.000Z</time>
      </trkpt>
      <trkpt lat="46.5687" lon="5.49882">
        <ele>499.79998779297</ele>
        <time>2021-03-06T13:01:03.000Z</time>
      </trkpt>
      <trkpt lat="46.56882" lon="5.49878">
        <ele>500.20001220703</ele>
        <time>2021-03-06T13:01:05.000Z</time>
      </trkpt>
      <trkpt lat="46.56893" lon="5.49875">
        <ele>500.60000610352</ele>
        <time>2021-03-06T13:01:07.000Z</time>
      </trkpt>
      <trkpt lat="46.56917" lon="5.49876">
        <ele>501.20001220703</ele>
        <time>2021-03-06T13:01:12.000Z</time>
      </trkpt>
      <trkpt lat="46.56926" lon="5.49879">
        <ele>501.79998779297</ele>
        <time>2021-03-06T13:01:14.000Z</time>
      </trkpt>
      <trkpt lat="46.56949" lon="5.49888">
        <ele>503.20001220703</ele>
        <time>2021-03-06T13:01:20.000Z</time>
      </trkpt>
      <trkpt lat="46.5699" lon="5.49909">
        <ele>503.79998779297</ele>
        <time>2021-03-06T13:01:30.000Z</time>
      </trkpt>
      <trkpt lat="46.57005" lon="5.49916">
        <ele>504.60000610352</ele>
        <time>2021-03-06T13:01:34.000Z</time>
      </trkpt>
      <trkpt lat="46.57018" lon="5.49921">
        <ele>505.20001220703</ele>
        <time>2021-03-06T13:01:38.000Z</time>
      </trkpt>
      <trkpt lat="46.57026" lon="5.49922">
        <ele>505.60000610352</ele>
        <time>2021-03-06T13:01:40.000Z</time>
      </trkpt>
      <trkpt lat="46.57043" lon="5.49922">
        <ele>506.79998779297</ele>
        <time>2021-03-06T13:01:45.000Z</time>
      </trkpt>
      <trkpt lat="46.57046" lon="5.49922">
        <ele>507.20001220703</ele>
        <time>2021-03-06T13:01:46.000Z</time>
      </trkpt>
      <trkpt lat="46.57053" lon="5.49922">
        <ele>508</ele>
        <time>2021-03-06T13:01:48.000Z</time>
      </trkpt>
      <trkpt lat="46.57073" lon="5.49925">
        <ele>509</ele>
        <time>2021-03-06T13:01:53.000Z</time>
      </trkpt>
      <trkpt lat="46.57082" lon="5.49926">
        <ele>509.20001220703</ele>
        <time>2021-03-06T13:01:55.000Z</time>
      </trkpt>
      <trkpt lat="46.57102" lon="5.49928">
        <ele>510</ele>
        <time>2021-03-06T13:02:00.000Z</time>
      </trkpt>
      <trkpt lat="46.57116" lon="5.49929">
        <ele>510.60000610352</ele>
        <time>2021-03-06T13:02:04.000Z</time>
      </trkpt>
      <trkpt lat="46.57123" lon="5.49929">
        <ele>511</ele>
        <time>2021-03-06T13:02:06.000Z</time>
      </trkpt>
      <trkpt lat="46.57144" lon="5.49927">
        <ele>511.60000610352</ele>
        <time>2021-03-06T13:02:12.000Z</time>
      </trkpt>
      <trkpt lat="46.5715" lon="5.49925">
        <ele>512</ele>
        <time>2021-03-06T13:02:14.000Z</time>
      </trkpt>
      <trkpt lat="46.57171" lon="5.49919">
        <ele>513.20001220703</ele>
        <time>2021-03-06T13:02:20.000Z</time>
      </trkpt>
      <trkpt lat="46.57187" lon="5.49916">
        <ele>514.40002441406</ele>
        <time>2021-03-06T13:02:26.000Z</time>
      </trkpt>
      <trkpt lat="46.57197" lon="5.49915">
        <ele>515.40002441406</ele>
        <time>2021-03-06T13:02:30.000Z</time>
      </trkpt>
      <trkpt lat="46.5721" lon="5.49917">
        <ele>516.59997558594</ele>
        <time>2021-03-06T13:02:34.000Z</time>
      </trkpt>
      <trkpt lat="46.57229" lon="5.4992">
        <ele>517.79998779297</ele>
        <time>2021-03-06T13:02:40.000Z</time>
      </trkpt>
      <trkpt lat="46.57247" lon="5.49922">
        <ele>518.59997558594</ele>
        <time>2021-03-06T13:02:46.000Z</time>
      </trkpt>
      <trkpt lat="46.57256" lon="5.49924">
        <ele>519</ele>
        <time>2021-03-06T13:02:49.000Z</time>
      </trkpt>
      <trkpt lat="46.57279" lon="5.49926">
        <ele>520.40002441406</ele>
        <time>2021-03-06T13:02:56.000Z</time>
      </trkpt>
      <trkpt lat="46.57303" lon="5.49928">
        <ele>521.40002441406</ele>
        <time>2021-03-06T13:03:03.000Z</time>
      </trkpt>
      <trkpt lat="46.57325" lon="5.49929">
        <ele>522.40002441406</ele>
        <time>2021-03-06T13:03:09.000Z</time>
      </trkpt>
      <trkpt lat="46.57355" lon="5.49934">
        <ele>523.40002441406</ele>
        <time>2021-03-06T13:03:17.000Z</time>
      </trkpt>
      <trkpt lat="46.57378" lon="5.49953">
        <ele>523.40002441406</ele>
        <time>2021-03-06T13:03:23.000Z</time>
      </trkpt>
      <trkpt lat="46.57403" lon="5.49976">
        <ele>522.79998779297</ele>
        <time>2021-03-06T13:03:28.000Z</time>
      </trkpt>
      <trkpt lat="46.5741" lon="5.49981">
        <ele>522.59997558594</ele>
        <time>2021-03-06T13:03:29.000Z</time>
      </trkpt>
      <trkpt lat="46.57429" lon="5.49986">
        <ele>522</ele>
        <time>2021-03-06T13:03:32.000Z</time>
      </trkpt>
      <trkpt lat="46.57458" lon="5.49998">
        <ele>521.59997558594</ele>
        <time>2021-03-06T13:03:37.000Z</time>
      </trkpt>
      <trkpt lat="46.57491" lon="5.50018">
        <ele>521.79998779297</ele>
        <time>2021-03-06T13:03:43.000Z</time>
      </trkpt>
      <trkpt lat="46.57496" lon="5.50022">
        <ele>522</ele>
        <time>2021-03-06T13:03:44.000Z</time>
      </trkpt>
      <trkpt lat="46.57518" lon="5.50033">
        <ele>522</ele>
        <time>2021-03-06T13:03:48.000Z</time>
      </trkpt>
      <trkpt lat="46.57529" lon="5.50034">
        <ele>522</ele>
        <time>2021-03-06T13:03:50.000Z</time>
      </trkpt>
      <trkpt lat="46.57543" lon="5.50032">
        <ele>522</ele>
        <time>2021-03-06T13:03:52.000Z</time>
      </trkpt>
      <trkpt lat="46.57551" lon="5.50033">
        <ele>521.79998779297</ele>
        <time>2021-03-06T13:03:53.000Z</time>
      </trkpt>
      <trkpt lat="46.57558" lon="5.50035">
        <ele>521.59997558594</ele>
        <time>2021-03-06T13:03:54.000Z</time>
      </trkpt>
      <trkpt lat="46.57565" lon="5.50039">
        <ele>521.40002441406</ele>
        <time>2021-03-06T13:03:55.000Z</time>
      </trkpt>
      <trkpt lat="46.57572" lon="5.50042">
        <ele>521</ele>
        <time>2021-03-06T13:03:56.000Z</time>
      </trkpt>
      <trkpt lat="46.57578" lon="5.50043">
        <ele>521</ele>
        <time>2021-03-06T13:03:57.000Z</time>
      </trkpt>
      <trkpt lat="46.57584" lon="5.50044">
        <ele>520.59997558594</ele>
        <time>2021-03-06T13:03:58.000Z</time>
      </trkpt>
      <trkpt lat="46.57595" lon="5.50043">
        <ele>520.40002441406</ele>
        <time>2021-03-06T13:04:00.000Z</time>
      </trkpt>
      <trkpt lat="46.57601" lon="5.50042">
        <ele>520.40002441406</ele>
        <time>2021-03-06T13:04:01.000Z</time>
      </trkpt>
      <trkpt lat="46.57607" lon="5.50039">
        <ele>520.40002441406</ele>
        <time>2021-03-06T13:04:02.000Z</time>
      </trkpt>
      <trkpt lat="46.57617" lon="5.50032">
        <ele>520.59997558594</ele>
        <time>2021-03-06T13:04:04.000Z</time>
      </trkpt>
      <trkpt lat="46.57622" lon="5.50027">
        <ele>520.59997558594</ele>
        <time>2021-03-06T13:04:05.000Z</time>
      </trkpt>
      <trkpt lat="46.57627" lon="5.50021">
        <ele>520.59997558594</ele>
        <time>2021-03-06T13:04:06.000Z</time>
      </trkpt>
      <trkpt lat="46.57636" lon="5.50008">
        <ele>520.79998779297</ele>
        <time>2021-03-06T13:04:08.000Z</time>
      </trkpt>
      <trkpt lat="46.57652" lon="5.49998">
        <ele>520.59997558594</ele>
        <time>2021-03-06T13:04:10.000Z</time>
      </trkpt>
      <trkpt lat="46.57668" lon="5.49999">
        <ele>520.40002441406</ele>
        <time>2021-03-06T13:04:12.000Z</time>
      </trkpt>
      <trkpt lat="46.57683" lon="5.50005">
        <ele>518.79998779297</ele>
        <time>2021-03-06T13:04:14.000Z</time>
      </trkpt>
      <trkpt lat="46.57706" lon="5.50014">
        <ele>517.59997558594</ele>
        <time>2021-03-06T13:04:17.000Z</time>
      </trkpt>
      <trkpt lat="46.57713" lon="5.50016">
        <ele>517.40002441406</ele>
        <time>2021-03-06T13:04:18.000Z</time>
      </trkpt>
      <trkpt lat="46.57734" lon="5.5002">
        <ele>517</ele>
        <time>2021-03-06T13:04:21.000Z</time>
      </trkpt>
      <trkpt lat="46.57748" lon="5.50021">
        <ele>517</ele>
        <time>2021-03-06T13:04:23.000Z</time>
      </trkpt>
      <trkpt lat="46.57782" lon="5.50019">
        <ele>517.20001220703</ele>
        <time>2021-03-06T13:04:28.000Z</time>
      </trkpt>
      <trkpt lat="46.57789" lon="5.50019">
        <ele>517.40002441406</ele>
        <time>2021-03-06T13:04:29.000Z</time>
      </trkpt>
      <trkpt lat="46.57835" lon="5.50019">
        <ele>516.40002441406</ele>
        <time>2021-03-06T13:04:35.000Z</time>
      </trkpt>
      <trkpt lat="46.57851" lon="5.50029">
        <ele>514.79998779297</ele>
        <time>2021-03-06T13:04:37.000Z</time>
      </trkpt>
      <trkpt lat="46.57861" lon="5.50035">
        <ele>514.20001220703</ele>
        <time>2021-03-06T13:04:38.000Z</time>
      </trkpt>
      <trkpt lat="46.57872" lon="5.5004">
        <ele>513.20001220703</ele>
        <time>2021-03-06T13:04:39.000Z</time>
      </trkpt>
      <trkpt lat="46.57881" lon="5.50043">
        <ele>512.20001220703</ele>
        <time>2021-03-06T13:04:40.000Z</time>
      </trkpt>
      <trkpt lat="46.57889" lon="5.50044">
        <ele>510.60000610352</ele>
        <time>2021-03-06T13:04:41.000Z</time>
      </trkpt>
      <trkpt lat="46.57903" lon="5.50047">
        <ele>510</ele>
        <time>2021-03-06T13:04:43.000Z</time>
      </trkpt>
      <trkpt lat="46.57913" lon="5.50051">
        <ele>509.79998779297</ele>
        <time>2021-03-06T13:04:45.000Z</time>
      </trkpt>
      <trkpt lat="46.57922" lon="5.50057">
        <ele>510</ele>
        <time>2021-03-06T13:04:47.000Z</time>
      </trkpt>
      <trkpt lat="46.5793" lon="5.50063">
        <ele>510.39999389648</ele>
        <time>2021-03-06T13:04:49.000Z</time>
      </trkpt>
      <trkpt lat="46.57937" lon="5.50072">
        <ele>511.20001220703</ele>
        <time>2021-03-06T13:04:51.000Z</time>
      </trkpt>
      <trkpt lat="46.57939" lon="5.50076">
        <ele>511.79998779297</ele>
        <time>2021-03-06T13:04:52.000Z</time>
      </trkpt>
      <trkpt lat="46.57941" lon="5.50082">
        <ele>512.20001220703</ele>
        <time>2021-03-06T13:04:53.000Z</time>
      </trkpt>
      <trkpt lat="46.5794" lon="5.50093">
        <ele>512.79998779297</ele>
        <time>2021-03-06T13:04:55.000Z</time>
      </trkpt>
      <trkpt lat="46.57937" lon="5.50098">
        <ele>513</ele>
        <time>2021-03-06T13:04:56.000Z</time>
      </trkpt>
      <trkpt lat="46.57933" lon="5.50104">
        <ele>513.20001220703</ele>
        <time>2021-03-06T13:04:57.000Z</time>
      </trkpt>
      <trkpt lat="46.57922" lon="5.50114">
        <ele>513.40002441406</ele>
        <time>2021-03-06T13:04:59.000Z</time>
      </trkpt>
      <trkpt lat="46.57893" lon="5.50146">
        <ele>511.79998779297</ele>
        <time>2021-03-06T13:05:04.000Z</time>
      </trkpt>
      <trkpt lat="46.57887" lon="5.50152">
        <ele>511.39999389648</ele>
        <time>2021-03-06T13:05:05.000Z</time>
      </trkpt>
      <trkpt lat="46.5788" lon="5.50158">
        <ele>510.60000610352</ele>
        <time>2021-03-06T13:05:07.000Z</time>
      </trkpt>
      <trkpt lat="46.57865" lon="5.50165">
        <ele>510</ele>
        <time>2021-03-06T13:05:08.000Z</time>
      </trkpt>
      <trkpt lat="46.57857" lon="5.50167">
        <ele>509.79998779297</ele>
        <time>2021-03-06T13:05:09.000Z</time>
      </trkpt>
      <trkpt lat="46.5785" lon="5.50168">
        <ele>509.20001220703</ele>
        <time>2021-03-06T13:05:10.000Z</time>
      </trkpt>
      <trkpt lat="46.57844" lon="5.50171">
        <ele>508.39999389648</ele>
        <time>2021-03-06T13:05:11.000Z</time>
      </trkpt>
      <trkpt lat="46.57839" lon="5.50175">
        <ele>507.79998779297</ele>
        <time>2021-03-06T13:05:12.000Z</time>
      </trkpt>
      <trkpt lat="46.57836" lon="5.50183">
        <ele>506.79998779297</ele>
        <time>2021-03-06T13:05:13.000Z</time>
      </trkpt>
      <trkpt lat="46.57835" lon="5.50192">
        <ele>506.20001220703</ele>
        <time>2021-03-06T13:05:14.000Z</time>
      </trkpt>
      <trkpt lat="46.57835" lon="5.50203">
        <ele>505.39999389648</ele>
        <time>2021-03-06T13:05:15.000Z</time>
      </trkpt>
      <trkpt lat="46.57835" lon="5.50228">
        <ele>504.39999389648</ele>
        <time>2021-03-06T13:05:17.000Z</time>
      </trkpt>
      <trkpt lat="46.57833" lon="5.50241">
        <ele>503.39999389648</ele>
        <time>2021-03-06T13:05:18.000Z</time>
      </trkpt>
      <trkpt lat="46.57829" lon="5.50254">
        <ele>502.79998779297</ele>
        <time>2021-03-06T13:05:19.000Z</time>
      </trkpt>
      <trkpt lat="46.57825" lon="5.50267">
        <ele>501.79998779297</ele>
        <time>2021-03-06T13:05:20.000Z</time>
      </trkpt>
      <trkpt lat="46.5782" lon="5.50279">
        <ele>501.20001220703</ele>
        <time>2021-03-06T13:05:21.000Z</time>
      </trkpt>
      <trkpt lat="46.57815" lon="5.50291">
        <ele>499.79998779297</ele>
        <time>2021-03-06T13:05:22.000Z</time>
      </trkpt>
      <trkpt lat="46.57807" lon="5.50313">
        <ele>498.60000610352</ele>
        <time>2021-03-06T13:05:24.000Z</time>
      </trkpt>
      <trkpt lat="46.57802" lon="5.50324">
        <ele>498</ele>
        <time>2021-03-06T13:05:25.000Z</time>
      </trkpt>
      <trkpt lat="46.57798" lon="5.50335">
        <ele>497.20001220703</ele>
        <time>2021-03-06T13:05:26.000Z</time>
      </trkpt>
      <trkpt lat="46.57784" lon="5.50367">
        <ele>495.39999389648</ele>
        <time>2021-03-06T13:05:29.000Z</time>
      </trkpt>
      <trkpt lat="46.5778" lon="5.50377">
        <ele>495</ele>
        <time>2021-03-06T13:05:30.000Z</time>
      </trkpt>
      <trkpt lat="46.57777" lon="5.50387">
        <ele>493.79998779297</ele>
        <time>2021-03-06T13:05:31.000Z</time>
      </trkpt>
      <trkpt lat="46.57774" lon="5.50417">
        <ele>492.79998779297</ele>
        <time>2021-03-06T13:05:33.000Z</time>
      </trkpt>
      <trkpt lat="46.57773" lon="5.50434">
        <ele>492.39999389648</ele>
        <time>2021-03-06T13:05:34.000Z</time>
      </trkpt>
      <trkpt lat="46.57769" lon="5.50457">
        <ele>489.60000610352</ele>
        <time>2021-03-06T13:05:36.000Z</time>
      </trkpt>
      <trkpt lat="46.57765" lon="5.50469">
        <ele>488.60000610352</ele>
        <time>2021-03-06T13:05:37.000Z</time>
      </trkpt>
      <trkpt lat="46.57761" lon="5.50479">
        <ele>487</ele>
        <time>2021-03-06T13:05:38.000Z</time>
      </trkpt>
      <trkpt lat="46.57749" lon="5.50497">
        <ele>485.20001220703</ele>
        <time>2021-03-06T13:05:40.000Z</time>
      </trkpt>
      <trkpt lat="46.57734" lon="5.5051">
        <ele>483.60000610352</ele>
        <time>2021-03-06T13:05:42.000Z</time>
      </trkpt>
      <trkpt lat="46.57716" lon="5.50523">
        <ele>481.79998779297</ele>
        <time>2021-03-06T13:05:44.000Z</time>
      </trkpt>
      <trkpt lat="46.57708" lon="5.50528">
        <ele>480.79998779297</ele>
        <time>2021-03-06T13:05:45.000Z</time>
      </trkpt>
      <trkpt lat="46.57698" lon="5.50532">
        <ele>480.20001220703</ele>
        <time>2021-03-06T13:05:46.000Z</time>
      </trkpt>
      <trkpt lat="46.57687" lon="5.50537">
        <ele>478</ele>
        <time>2021-03-06T13:05:47.000Z</time>
      </trkpt>
      <trkpt lat="46.57675" lon="5.50545">
        <ele>477</ele>
        <time>2021-03-06T13:05:48.000Z</time>
      </trkpt>
      <trkpt lat="46.57663" lon="5.50558">
        <ele>475</ele>
        <time>2021-03-06T13:05:49.000Z</time>
      </trkpt>
      <trkpt lat="46.57651" lon="5.50574">
        <ele>474.20001220703</ele>
        <time>2021-03-06T13:05:50.000Z</time>
      </trkpt>
      <trkpt lat="46.57639" lon="5.50586">
        <ele>468.79998779297</ele>
        <time>2021-03-06T13:05:51.000Z</time>
      </trkpt>
      <trkpt lat="46.57631" lon="5.50595">
        <ele>466</ele>
        <time>2021-03-06T13:05:52.000Z</time>
      </trkpt>
      <trkpt lat="46.57622" lon="5.50607">
        <ele>465</ele>
        <time>2021-03-06T13:05:53.000Z</time>
      </trkpt>
      <trkpt lat="46.57618" lon="5.50616">
        <ele>463.20001220703</ele>
        <time>2021-03-06T13:05:54.000Z</time>
      </trkpt>
      <trkpt lat="46.57607" lon="5.50627">
        <ele>462</ele>
        <time>2021-03-06T13:05:57.000Z</time>
      </trkpt>
      <trkpt lat="46.57604" lon="5.50637">
        <ele>461.60000610352</ele>
        <time>2021-03-06T13:05:58.000Z</time>
      </trkpt>
      <trkpt lat="46.57592" lon="5.50676">
        <ele>461.20001220703</ele>
        <time>2021-03-06T13:06:02.000Z</time>
      </trkpt>
      <trkpt lat="46.57591" lon="5.50688">
        <ele>460.79998779297</ele>
        <time>2021-03-06T13:06:03.000Z</time>
      </trkpt>
      <trkpt lat="46.57593" lon="5.50701">
        <ele>460.79998779297</ele>
        <time>2021-03-06T13:06:04.000Z</time>
      </trkpt>
      <trkpt lat="46.576" lon="5.50723">
        <ele>460.20001220703</ele>
        <time>2021-03-06T13:06:06.000Z</time>
      </trkpt>
      <trkpt lat="46.57606" lon="5.50735">
        <ele>459</ele>
        <time>2021-03-06T13:06:07.000Z</time>
      </trkpt>
      <trkpt lat="46.57614" lon="5.50745">
        <ele>457.79998779297</ele>
        <time>2021-03-06T13:06:08.000Z</time>
      </trkpt>
      <trkpt lat="46.57614" lon="5.50745">
        <ele>456.60000610352</ele>
        <time>2021-03-06T13:06:09.000Z</time>
      </trkpt>
      <trkpt lat="46.57628" lon="5.50769">
        <ele>455.20001220703</ele>
        <time>2021-03-06T13:06:10.000Z</time>
      </trkpt>
      <trkpt lat="46.57631" lon="5.50782">
        <ele>454.39999389648</ele>
        <time>2021-03-06T13:06:11.000Z</time>
      </trkpt>
      <trkpt lat="46.57634" lon="5.50795">
        <ele>453.60000610352</ele>
        <time>2021-03-06T13:06:12.000Z</time>
      </trkpt>
      <trkpt lat="46.57642" lon="5.50832">
        <ele>452.60000610352</ele>
        <time>2021-03-06T13:06:15.000Z</time>
      </trkpt>
      <trkpt lat="46.57646" lon="5.50844">
        <ele>452.20001220703</ele>
        <time>2021-03-06T13:06:16.000Z</time>
      </trkpt>
      <trkpt lat="46.5766" lon="5.50875">
        <ele>451.79998779297</ele>
        <time>2021-03-06T13:06:19.000Z</time>
      </trkpt>
      <trkpt lat="46.5769" lon="5.50935">
        <ele>451.60000610352</ele>
        <time>2021-03-06T13:06:25.000Z</time>
      </trkpt>
      <trkpt lat="46.57703" lon="5.5096">
        <ele>451.60000610352</ele>
        <time>2021-03-06T13:06:28.000Z</time>
      </trkpt>
      <trkpt lat="46.5771" lon="5.50979">
        <ele>451.39999389648</ele>
        <time>2021-03-06T13:06:30.000Z</time>
      </trkpt>
      <trkpt lat="46.57723" lon="5.5102">
        <ele>451.39999389648</ele>
        <time>2021-03-06T13:06:34.000Z</time>
      </trkpt>
      <trkpt lat="46.57727" lon="5.51028">
        <ele>451.60000610352</ele>
        <time>2021-03-06T13:06:35.000Z</time>
      </trkpt>
      <trkpt lat="46.57732" lon="5.51036">
        <ele>451.79998779297</ele>
        <time>2021-03-06T13:06:36.000Z</time>
      </trkpt>
      <trkpt lat="46.57739" lon="5.51058">
        <ele>452.60000610352</ele>
        <time>2021-03-06T13:06:39.000Z</time>
      </trkpt>
      <trkpt lat="46.57741" lon="5.51066">
        <ele>452.79998779297</ele>
        <time>2021-03-06T13:06:40.000Z</time>
      </trkpt>
      <trkpt lat="46.57745" lon="5.51081">
        <ele>453</ele>
        <time>2021-03-06T13:06:42.000Z</time>
      </trkpt>
      <trkpt lat="46.57749" lon="5.5109">
        <ele>453</ele>
        <time>2021-03-06T13:06:43.000Z</time>
      </trkpt>
      <trkpt lat="46.57752" lon="5.51099">
        <ele>453.39999389648</ele>
        <time>2021-03-06T13:06:44.000Z</time>
      </trkpt>
      <trkpt lat="46.57757" lon="5.51113">
        <ele>453.79998779297</ele>
        <time>2021-03-06T13:06:46.000Z</time>
      </trkpt>
      <trkpt lat="46.57762" lon="5.51129">
        <ele>454.20001220703</ele>
        <time>2021-03-06T13:06:48.000Z</time>
      </trkpt>
      <trkpt lat="46.57772" lon="5.51149">
        <ele>454.20001220703</ele>
        <time>2021-03-06T13:06:52.000Z</time>
      </trkpt>
      <trkpt lat="46.57778" lon="5.51161">
        <ele>454.20001220703</ele>
        <time>2021-03-06T13:06:54.000Z</time>
      </trkpt>
      <trkpt lat="46.57784" lon="5.51171">
        <ele>454.60000610352</ele>
        <time>2021-03-06T13:06:56.000Z</time>
      </trkpt>
      <trkpt lat="46.57794" lon="5.51182">
        <ele>455.39999389648</ele>
        <time>2021-03-06T13:06:58.000Z</time>
      </trkpt>
      <trkpt lat="46.57804" lon="5.51192">
        <ele>455.60000610352</ele>
        <time>2021-03-06T13:07:00.000Z</time>
      </trkpt>
      <trkpt lat="46.5781" lon="5.51205">
        <ele>456.20001220703</ele>
        <time>2021-03-06T13:07:02.000Z</time>
      </trkpt>
      <trkpt lat="46.57813" lon="5.51213">
        <ele>456.20001220703</ele>
        <time>2021-03-06T13:07:03.000Z</time>
      </trkpt>
      <trkpt lat="46.57816" lon="5.5123">
        <ele>456.39999389648</ele>
        <time>2021-03-06T13:07:05.000Z</time>
      </trkpt>
      <trkpt lat="46.57818" lon="5.51248">
        <ele>456.60000610352</ele>
        <time>2021-03-06T13:07:07.000Z</time>
      </trkpt>
      <trkpt lat="46.57821" lon="5.51293">
        <ele>457</ele>
        <time>2021-03-06T13:07:12.000Z</time>
      </trkpt>
      <trkpt lat="46.5782" lon="5.513">
        <ele>457.20001220703</ele>
        <time>2021-03-06T13:07:13.000Z</time>
      </trkpt>
      <trkpt lat="46.57816" lon="5.51334">
        <ele>457.79998779297</ele>
        <time>2021-03-06T13:07:17.000Z</time>
      </trkpt>
      <trkpt lat="46.57815" lon="5.51342">
        <ele>458</ele>
        <time>2021-03-06T13:07:18.000Z</time>
      </trkpt>
      <trkpt lat="46.57813" lon="5.51381">
        <ele>458.60000610352</ele>
        <time>2021-03-06T13:07:24.000Z</time>
      </trkpt>
      <trkpt lat="46.5781" lon="5.51398">
        <ele>459</ele>
        <time>2021-03-06T13:07:27.000Z</time>
      </trkpt>
      <trkpt lat="46.57811" lon="5.51417">
        <ele>459.39999389648</ele>
        <time>2021-03-06T13:07:30.000Z</time>
      </trkpt>
      <trkpt lat="46.57811" lon="5.51427">
        <ele>460.20001220703</ele>
        <time>2021-03-06T13:07:32.000Z</time>
      </trkpt>
      <trkpt lat="46.5781" lon="5.51457">
        <ele>461</ele>
        <time>2021-03-06T13:07:37.000Z</time>
      </trkpt>
      <trkpt lat="46.57809" lon="5.51463">
        <ele>461.39999389648</ele>
        <time>2021-03-06T13:07:38.000Z</time>
      </trkpt>
      <trkpt lat="46.57809" lon="5.51497">
        <ele>462</ele>
        <time>2021-03-06T13:07:44.000Z</time>
      </trkpt>
      <trkpt lat="46.57808" lon="5.51508">
        <ele>462.39999389648</ele>
        <time>2021-03-06T13:07:46.000Z</time>
      </trkpt>
      <trkpt lat="46.57809" lon="5.51526">
        <ele>463.60000610352</ele>
        <time>2021-03-06T13:07:50.000Z</time>
      </trkpt>
      <trkpt lat="46.57823" lon="5.51534">
        <ele>464.39999389648</ele>
        <time>2021-03-06T13:07:54.000Z</time>
      </trkpt>
      <trkpt lat="46.57838" lon="5.51538">
        <ele>464.60000610352</ele>
        <time>2021-03-06T13:07:58.000Z</time>
      </trkpt>
      <trkpt lat="46.57853" lon="5.51544">
        <ele>465.20001220703</ele>
        <time>2021-03-06T13:08:02.000Z</time>
      </trkpt>
      <trkpt lat="46.57868" lon="5.51552">
        <ele>465.79998779297</ele>
        <time>2021-03-06T13:08:06.000Z</time>
      </trkpt>
      <trkpt lat="46.57887" lon="5.51561">
        <ele>466.79998779297</ele>
        <time>2021-03-06T13:08:11.000Z</time>
      </trkpt>
      <trkpt lat="46.57898" lon="5.51565">
        <ele>467.60000610352</ele>
        <time>2021-03-06T13:08:14.000Z</time>
      </trkpt>
      <trkpt lat="46.57913" lon="5.51572">
        <ele>468.20001220703</ele>
        <time>2021-03-06T13:08:18.000Z</time>
      </trkpt>
      <trkpt lat="46.57928" lon="5.51577">
        <ele>469.20001220703</ele>
        <time>2021-03-06T13:08:22.000Z</time>
      </trkpt>
      <trkpt lat="46.57932" lon="5.51579">
        <ele>469.39999389648</ele>
        <time>2021-03-06T13:08:23.000Z</time>
      </trkpt>
      <trkpt lat="46.57947" lon="5.51585">
        <ele>470.39999389648</ele>
        <time>2021-03-06T13:08:27.000Z</time>
      </trkpt>
      <trkpt lat="46.57964" lon="5.51592">
        <ele>471.39999389648</ele>
        <time>2021-03-06T13:08:32.000Z</time>
      </trkpt>
      <trkpt lat="46.57971" lon="5.51594">
        <ele>471.79998779297</ele>
        <time>2021-03-06T13:08:34.000Z</time>
      </trkpt>
      <trkpt lat="46.57989" lon="5.51601">
        <ele>472.60000610352</ele>
        <time>2021-03-06T13:08:39.000Z</time>
      </trkpt>
      <trkpt lat="46.58" lon="5.51604">
        <ele>473</ele>
        <time>2021-03-06T13:08:42.000Z</time>
      </trkpt>
      <trkpt lat="46.58013" lon="5.51607">
        <ele>473.60000610352</ele>
        <time>2021-03-06T13:08:45.000Z</time>
      </trkpt>
      <trkpt lat="46.58027" lon="5.51611">
        <ele>474</ele>
        <time>2021-03-06T13:08:48.000Z</time>
      </trkpt>
      <trkpt lat="46.58053" lon="5.51617">
        <ele>474.79998779297</ele>
        <time>2021-03-06T13:08:54.000Z</time>
      </trkpt>
      <trkpt lat="46.58069" lon="5.51621">
        <ele>475.39999389648</ele>
        <time>2021-03-06T13:08:58.000Z</time>
      </trkpt>
      <trkpt lat="46.58089" lon="5.51626">
        <ele>475.79998779297</ele>
        <time>2021-03-06T13:09:03.000Z</time>
      </trkpt>
      <trkpt lat="46.58101" lon="5.51629">
        <ele>476.20001220703</ele>
        <time>2021-03-06T13:09:06.000Z</time>
      </trkpt>
      <trkpt lat="46.58113" lon="5.51632">
        <ele>477.20001220703</ele>
        <time>2021-03-06T13:09:09.000Z</time>
      </trkpt>
      <trkpt lat="46.58133" lon="5.51637">
        <ele>478.20001220703</ele>
        <time>2021-03-06T13:09:14.000Z</time>
      </trkpt>
      <trkpt lat="46.58146" lon="5.5164">
        <ele>478.60000610352</ele>
        <time>2021-03-06T13:09:17.000Z</time>
      </trkpt>
      <trkpt lat="46.58182" lon="5.51649">
        <ele>479.20001220703</ele>
        <time>2021-03-06T13:09:25.000Z</time>
      </trkpt>
      <trkpt lat="46.58192" lon="5.51652">
        <ele>479.39999389648</ele>
        <time>2021-03-06T13:09:27.000Z</time>
      </trkpt>
      <trkpt lat="46.58229" lon="5.51669">
        <ele>480.39999389648</ele>
        <time>2021-03-06T13:09:35.000Z</time>
      </trkpt>
      <trkpt lat="46.58234" lon="5.51672">
        <ele>480.39999389648</ele>
        <time>2021-03-06T13:09:36.000Z</time>
      </trkpt>
      <trkpt lat="46.58282" lon="5.51706">
        <ele>481.20001220703</ele>
        <time>2021-03-06T13:09:47.000Z</time>
      </trkpt>
      <trkpt lat="46.58296" lon="5.51719">
        <ele>481.20001220703</ele>
        <time>2021-03-06T13:09:50.000Z</time>
      </trkpt>
      <trkpt lat="46.58317" lon="5.51734">
        <ele>481.79998779297</ele>
        <time>2021-03-06T13:09:54.000Z</time>
      </trkpt>
      <trkpt lat="46.58364" lon="5.51762">
        <ele>481.79998779297</ele>
        <time>2021-03-06T13:10:03.000Z</time>
      </trkpt>
      <trkpt lat="46.58384" lon="5.5177">
        <ele>482.39999389648</ele>
        <time>2021-03-06T13:10:07.000Z</time>
      </trkpt>
      <trkpt lat="46.58398" lon="5.51775">
        <ele>483</ele>
        <time>2021-03-06T13:10:10.000Z</time>
      </trkpt>
      <trkpt lat="46.58422" lon="5.5178">
        <ele>483.60000610352</ele>
        <time>2021-03-06T13:10:15.000Z</time>
      </trkpt>
      <trkpt lat="46.5844" lon="5.51783">
        <ele>484.20001220703</ele>
        <time>2021-03-06T13:10:19.000Z</time>
      </trkpt>
      <trkpt lat="46.58449" lon="5.51786">
        <ele>484.39999389648</ele>
        <time>2021-03-06T13:10:21.000Z</time>
      </trkpt>
      <trkpt lat="46.58469" lon="5.51793">
        <ele>485.60000610352</ele>
        <time>2021-03-06T13:10:25.000Z</time>
      </trkpt>
      <trkpt lat="46.58479" lon="5.51796">
        <ele>485.79998779297</ele>
        <time>2021-03-06T13:10:27.000Z</time>
      </trkpt>
      <trkpt lat="46.58503" lon="5.51805">
        <ele>487</ele>
        <time>2021-03-06T13:10:32.000Z</time>
      </trkpt>
      <trkpt lat="46.58517" lon="5.51811">
        <ele>487.39999389648</ele>
        <time>2021-03-06T13:10:35.000Z</time>
      </trkpt>
      <trkpt lat="46.58531" lon="5.51816">
        <ele>488</ele>
        <time>2021-03-06T13:10:38.000Z</time>
      </trkpt>
      <trkpt lat="46.58563" lon="5.51828">
        <ele>488.79998779297</ele>
        <time>2021-03-06T13:10:45.000Z</time>
      </trkpt>
      <trkpt lat="46.58573" lon="5.51832">
        <ele>489</ele>
        <time>2021-03-06T13:10:47.000Z</time>
      </trkpt>
      <trkpt lat="46.58603" lon="5.51845">
        <ele>490</ele>
        <time>2021-03-06T13:10:54.000Z</time>
      </trkpt>
      <trkpt lat="46.58616" lon="5.51851">
        <ele>490.39999389648</ele>
        <time>2021-03-06T13:10:57.000Z</time>
      </trkpt>
      <trkpt lat="46.58646" lon="5.51867">
        <ele>491.20001220703</ele>
        <time>2021-03-06T13:11:04.000Z</time>
      </trkpt>
      <trkpt lat="46.58651" lon="5.5187">
        <ele>491.60000610352</ele>
        <time>2021-03-06T13:11:05.000Z</time>
      </trkpt>
      <trkpt lat="46.58677" lon="5.51889">
        <ele>492.20001220703</ele>
        <time>2021-03-06T13:11:11.000Z</time>
      </trkpt>
      <trkpt lat="46.58691" lon="5.51898">
        <ele>492.60000610352</ele>
        <time>2021-03-06T13:11:14.000Z</time>
      </trkpt>
      <trkpt lat="46.58739" lon="5.5192">
        <ele>493.20001220703</ele>
        <time>2021-03-06T13:11:24.000Z</time>
      </trkpt>
      <trkpt lat="46.58782" lon="5.51926">
        <ele>494.20001220703</ele>
        <time>2021-03-06T13:11:32.000Z</time>
      </trkpt>
      <trkpt lat="46.58819" lon="5.51927">
        <ele>494</ele>
        <time>2021-03-06T13:11:38.000Z</time>
      </trkpt>
      <trkpt lat="46.58872" lon="5.51933">
        <ele>493.20001220703</ele>
        <time>2021-03-06T13:11:46.000Z</time>
      </trkpt>
      <trkpt lat="46.58919" lon="5.51944">
        <ele>492.79998779297</ele>
        <time>2021-03-06T13:11:53.000Z</time>
      </trkpt>
      <trkpt lat="46.58954" lon="5.5195">
        <ele>492.39999389648</ele>
        <time>2021-03-06T13:11:58.000Z</time>
      </trkpt>
      <trkpt lat="46.58975" lon="5.51951">
        <ele>492.39999389648</ele>
        <time>2021-03-06T13:12:01.000Z</time>
      </trkpt>
      <trkpt lat="46.59027" lon="5.5195">
        <ele>492.79998779297</ele>
        <time>2021-03-06T13:12:09.000Z</time>
      </trkpt>
      <trkpt lat="46.59087" lon="5.51959">
        <ele>492.39999389648</ele>
        <time>2021-03-06T13:12:18.000Z</time>
      </trkpt>
      <trkpt lat="46.59135" lon="5.51969">
        <ele>492</ele>
        <time>2021-03-06T13:12:25.000Z</time>
      </trkpt>
      <trkpt lat="46.59194" lon="5.51979">
        <ele>491.60000610352</ele>
        <time>2021-03-06T13:12:33.000Z</time>
      </trkpt>
      <trkpt lat="46.59208" lon="5.51981">
        <ele>491.39999389648</ele>
        <time>2021-03-06T13:12:35.000Z</time>
      </trkpt>
      <trkpt lat="46.59224" lon="5.51983">
        <ele>491.39999389648</ele>
        <time>2021-03-06T13:12:37.000Z</time>
      </trkpt>
      <trkpt lat="46.59269" lon="5.5199">
        <ele>490.20001220703</ele>
        <time>2021-03-06T13:12:43.000Z</time>
      </trkpt>
      <trkpt lat="46.59278" lon="5.51991">
        <ele>489.79998779297</ele>
        <time>2021-03-06T13:12:44.000Z</time>
      </trkpt>
      <trkpt lat="46.59334" lon="5.51995">
        <ele>489.39999389648</ele>
        <time>2021-03-06T13:12:52.000Z</time>
      </trkpt>
      <trkpt lat="46.5934" lon="5.51995">
        <ele>489.39999389648</ele>
        <time>2021-03-06T13:12:53.000Z</time>
      </trkpt>
      <trkpt lat="46.59394" lon="5.51995">
        <ele>489.79998779297</ele>
        <time>2021-03-06T13:13:01.000Z</time>
      </trkpt>
      <trkpt lat="46.59449" lon="5.51991">
        <ele>489.79998779297</ele>
        <time>2021-03-06T13:13:09.000Z</time>
      </trkpt>
      <trkpt lat="46.5946" lon="5.5199">
        <ele>490</ele>
        <time>2021-03-06T13:13:11.000Z</time>
      </trkpt>
      <trkpt lat="46.59501" lon="5.51986">
        <ele>491.20001220703</ele>
        <time>2021-03-06T13:13:18.000Z</time>
      </trkpt>
      <trkpt lat="46.5951" lon="5.51985">
        <ele>491.60000610352</ele>
        <time>2021-03-06T13:13:20.000Z</time>
      </trkpt>
      <trkpt lat="46.59532" lon="5.51985">
        <ele>492.39999389648</ele>
        <time>2021-03-06T13:13:24.000Z</time>
      </trkpt>
      <trkpt lat="46.59536" lon="5.51985">
        <ele>492.60000610352</ele>
        <time>2021-03-06T13:13:25.000Z</time>
      </trkpt>
      <trkpt lat="46.59576" lon="5.51983">
        <ele>493.79998779297</ele>
        <time>2021-03-06T13:13:33.000Z</time>
      </trkpt>
      <trkpt lat="46.59582" lon="5.51983">
        <ele>494</ele>
        <time>2021-03-06T13:13:34.000Z</time>
      </trkpt>
      <trkpt lat="46.59586" lon="5.51982">
        <ele>494.20001220703</ele>
        <time>2021-03-06T13:13:35.000Z</time>
      </trkpt>
      <trkpt lat="46.5961" lon="5.51979">
        <ele>495</ele>
        <time>2021-03-06T13:13:40.000Z</time>
      </trkpt>
      <trkpt lat="46.59629" lon="5.51977">
        <ele>495.60000610352</ele>
        <time>2021-03-06T13:13:44.000Z</time>
      </trkpt>
      <trkpt lat="46.59639" lon="5.51976">
        <ele>496</ele>
        <time>2021-03-06T13:13:46.000Z</time>
      </trkpt>
      <trkpt lat="46.59671" lon="5.51973">
        <ele>497</ele>
        <time>2021-03-06T13:13:53.000Z</time>
      </trkpt>
      <trkpt lat="46.59698" lon="5.5197">
        <ele>498.39999389648</ele>
        <time>2021-03-06T13:13:59.000Z</time>
      </trkpt>
      <trkpt lat="46.59725" lon="5.51967">
        <ele>499.39999389648</ele>
        <time>2021-03-06T13:14:05.000Z</time>
      </trkpt>
      <trkpt lat="46.59729" lon="5.51967">
        <ele>499.79998779297</ele>
        <time>2021-03-06T13:14:06.000Z</time>
      </trkpt>
      <trkpt lat="46.59766" lon="5.51963">
        <ele>501</ele>
        <time>2021-03-06T13:14:15.000Z</time>
      </trkpt>
      <trkpt lat="46.59797" lon="5.5196">
        <ele>502.39999389648</ele>
        <time>2021-03-06T13:14:22.000Z</time>
      </trkpt>
      <trkpt lat="46.59815" lon="5.51959">
        <ele>502.79998779297</ele>
        <time>2021-03-06T13:14:26.000Z</time>
      </trkpt>
      <trkpt lat="46.59838" lon="5.51958">
        <ele>503.39999389648</ele>
        <time>2021-03-06T13:14:31.000Z</time>
      </trkpt>
      <trkpt lat="46.59857" lon="5.51958">
        <ele>503.79998779297</ele>
        <time>2021-03-06T13:14:35.000Z</time>
      </trkpt>
      <trkpt lat="46.59871" lon="5.51958">
        <ele>504.39999389648</ele>
        <time>2021-03-06T13:14:38.000Z</time>
      </trkpt>
      <trkpt lat="46.59875" lon="5.51958">
        <ele>504.39999389648</ele>
        <time>2021-03-06T13:14:39.000Z</time>
      </trkpt>
      <trkpt lat="46.59903" lon="5.51961">
        <ele>505.79998779297</ele>
        <time>2021-03-06T13:14:45.000Z</time>
      </trkpt>
      <trkpt lat="46.59908" lon="5.51961">
        <ele>505.79998779297</ele>
        <time>2021-03-06T13:14:46.000Z</time>
      </trkpt>
      <trkpt lat="46.59932" lon="5.51964">
        <ele>506.79998779297</ele>
        <time>2021-03-06T13:14:51.000Z</time>
      </trkpt>
      <trkpt lat="46.59954" lon="5.51968">
        <ele>506.79998779297</ele>
        <time>2021-03-06T13:14:55.000Z</time>
      </trkpt>
      <trkpt lat="46.59996" lon="5.51981">
        <ele>507</ele>
        <time>2021-03-06T13:15:02.000Z</time>
      </trkpt>
      <trkpt lat="46.60053" lon="5.51997">
        <ele>506.20001220703</ele>
        <time>2021-03-06T13:15:11.000Z</time>
      </trkpt>
      <trkpt lat="46.60067" lon="5.52001">
        <ele>506</ele>
        <time>2021-03-06T13:15:13.000Z</time>
      </trkpt>
      <trkpt lat="46.60113" lon="5.5201">
        <ele>505</ele>
        <time>2021-03-06T13:15:19.000Z</time>
      </trkpt>
      <trkpt lat="46.60143" lon="5.52015">
        <ele>503.79998779297</ele>
        <time>2021-03-06T13:15:23.000Z</time>
      </trkpt>
      <trkpt lat="46.60168" lon="5.52016">
        <ele>502.39999389648</ele>
        <time>2021-03-06T13:15:26.000Z</time>
      </trkpt>
      <trkpt lat="46.60186" lon="5.52015">
        <ele>501.20001220703</ele>
        <time>2021-03-06T13:15:28.000Z</time>
      </trkpt>
      <trkpt lat="46.60219" lon="5.52016">
        <ele>500</ele>
        <time>2021-03-06T13:15:32.000Z</time>
      </trkpt>
      <trkpt lat="46.60243" lon="5.52022">
        <ele>498.39999389648</ele>
        <time>2021-03-06T13:15:35.000Z</time>
      </trkpt>
      <trkpt lat="46.60267" lon="5.5203">
        <ele>497.39999389648</ele>
        <time>2021-03-06T13:15:38.000Z</time>
      </trkpt>
      <trkpt lat="46.60274" lon="5.52032">
        <ele>497.20001220703</ele>
        <time>2021-03-06T13:15:39.000Z</time>
      </trkpt>
      <trkpt lat="46.60317" lon="5.52053">
        <ele>497</ele>
        <time>2021-03-06T13:15:45.000Z</time>
      </trkpt>
      <trkpt lat="46.6037" lon="5.52083">
        <ele>496.60000610352</ele>
        <time>2021-03-06T13:15:53.000Z</time>
      </trkpt>
      <trkpt lat="46.60376" lon="5.52087">
        <ele>496.60000610352</ele>
        <time>2021-03-06T13:15:54.000Z</time>
      </trkpt>
      <trkpt lat="46.60385" lon="5.52101">
        <ele>496.39999389648</ele>
        <time>2021-03-06T13:15:56.000Z</time>
      </trkpt>
      <trkpt lat="46.60385" lon="5.52112">
        <ele>496.20001220703</ele>
        <time>2021-03-06T13:15:57.000Z</time>
      </trkpt>
      <trkpt lat="46.6038" lon="5.52124">
        <ele>496</ele>
        <time>2021-03-06T13:15:58.000Z</time>
      </trkpt>
      <trkpt lat="46.60368" lon="5.52137">
        <ele>495.79998779297</ele>
        <time>2021-03-06T13:16:00.000Z</time>
      </trkpt>
      <trkpt lat="46.6035" lon="5.52147">
        <ele>495</ele>
        <time>2021-03-06T13:16:02.000Z</time>
      </trkpt>
      <trkpt lat="46.60338" lon="5.52151">
        <ele>494.79998779297</ele>
        <time>2021-03-06T13:16:03.000Z</time>
      </trkpt>
      <trkpt lat="46.6033" lon="5.52154">
        <ele>494.60000610352</ele>
        <time>2021-03-06T13:16:04.000Z</time>
      </trkpt>
      <trkpt lat="46.6032" lon="5.52156">
        <ele>494</ele>
        <time>2021-03-06T13:16:05.000Z</time>
      </trkpt>
      <trkpt lat="46.60309" lon="5.52159">
        <ele>492.20001220703</ele>
        <time>2021-03-06T13:16:06.000Z</time>
      </trkpt>
      <trkpt lat="46.60296" lon="5.52162">
        <ele>491.20001220703</ele>
        <time>2021-03-06T13:16:07.000Z</time>
      </trkpt>
      <trkpt lat="46.60275" lon="5.52167">
        <ele>490</ele>
        <time>2021-03-06T13:16:09.000Z</time>
      </trkpt>
      <trkpt lat="46.60264" lon="5.52171">
        <ele>489.60000610352</ele>
        <time>2021-03-06T13:16:10.000Z</time>
      </trkpt>
      <trkpt lat="46.60253" lon="5.52178">
        <ele>488.60000610352</ele>
        <time>2021-03-06T13:16:11.000Z</time>
      </trkpt>
      <trkpt lat="46.60244" lon="5.52187">
        <ele>487.79998779297</ele>
        <time>2021-03-06T13:16:12.000Z</time>
      </trkpt>
      <trkpt lat="46.60235" lon="5.52202">
        <ele>486.39999389648</ele>
        <time>2021-03-06T13:16:13.000Z</time>
      </trkpt>
      <trkpt lat="46.6023" lon="5.52214">
        <ele>485.20001220703</ele>
        <time>2021-03-06T13:16:14.000Z</time>
      </trkpt>
      <trkpt lat="46.60227" lon="5.52231">
        <ele>484.60000610352</ele>
        <time>2021-03-06T13:16:15.000Z</time>
      </trkpt>
      <trkpt lat="46.60226" lon="5.52248">
        <ele>483.20001220703</ele>
        <time>2021-03-06T13:16:16.000Z</time>
      </trkpt>
      <trkpt lat="46.60225" lon="5.52283">
        <ele>481.20001220703</ele>
        <time>2021-03-06T13:16:18.000Z</time>
      </trkpt>
      <trkpt lat="46.60225" lon="5.5231">
        <ele>480</ele>
        <time>2021-03-06T13:16:20.000Z</time>
      </trkpt>
      <trkpt lat="46.60223" lon="5.52355">
        <ele>479.60000610352</ele>
        <time>2021-03-06T13:16:23.000Z</time>
      </trkpt>
      <trkpt lat="46.60219" lon="5.52427">
        <ele>479.60000610352</ele>
        <time>2021-03-06T13:16:29.000Z</time>
      </trkpt>
      <trkpt lat="46.60207" lon="5.52492">
        <ele>480.39999389648</ele>
        <time>2021-03-06T13:16:35.000Z</time>
      </trkpt>
      <trkpt lat="46.60198" lon="5.52519">
        <ele>481.20001220703</ele>
        <time>2021-03-06T13:16:38.000Z</time>
      </trkpt>
      <trkpt lat="46.60194" lon="5.52532">
        <ele>481.79998779297</ele>
        <time>2021-03-06T13:16:40.000Z</time>
      </trkpt>
      <trkpt lat="46.6019" lon="5.52547">
        <ele>482.39999389648</ele>
        <time>2021-03-06T13:16:42.000Z</time>
      </trkpt>
      <trkpt lat="46.60184" lon="5.52567">
        <ele>483.79998779297</ele>
        <time>2021-03-06T13:16:45.000Z</time>
      </trkpt>
      <trkpt lat="46.60178" lon="5.52587">
        <ele>485.20001220703</ele>
        <time>2021-03-06T13:16:48.000Z</time>
      </trkpt>
      <trkpt lat="46.60171" lon="5.52609">
        <ele>486.20001220703</ele>
        <time>2021-03-06T13:16:52.000Z</time>
      </trkpt>
      <trkpt lat="46.60167" lon="5.52625">
        <ele>487.20001220703</ele>
        <time>2021-03-06T13:16:55.000Z</time>
      </trkpt>
      <trkpt lat="46.60165" lon="5.52632">
        <ele>487.39999389648</ele>
        <time>2021-03-06T13:16:56.000Z</time>
      </trkpt>
      <trkpt lat="46.60163" lon="5.52647">
        <ele>488.60000610352</ele>
        <time>2021-03-06T13:16:59.000Z</time>
      </trkpt>
      <trkpt lat="46.60161" lon="5.52664">
        <ele>490.20001220703</ele>
        <time>2021-03-06T13:17:02.000Z</time>
      </trkpt>
      <trkpt lat="46.6016" lon="5.52669">
        <ele>490.39999389648</ele>
        <time>2021-03-06T13:17:03.000Z</time>
      </trkpt>
      <trkpt lat="46.60159" lon="5.52684">
        <ele>491.60000610352</ele>
        <time>2021-03-06T13:17:06.000Z</time>
      </trkpt>
      <trkpt lat="46.60157" lon="5.52701">
        <ele>492.79998779297</ele>
        <time>2021-03-06T13:17:09.000Z</time>
      </trkpt>
      <trkpt lat="46.60155" lon="5.52713">
        <ele>493.60000610352</ele>
        <time>2021-03-06T13:17:11.000Z</time>
      </trkpt>
      <trkpt lat="46.60154" lon="5.5272">
        <ele>493.79998779297</ele>
        <time>2021-03-06T13:17:12.000Z</time>
      </trkpt>
      <trkpt lat="46.60151" lon="5.52731">
        <ele>494.20001220703</ele>
        <time>2021-03-06T13:17:14.000Z</time>
      </trkpt>
      <trkpt lat="46.60144" lon="5.52747">
        <ele>494.60000610352</ele>
        <time>2021-03-06T13:17:17.000Z</time>
      </trkpt>
      <trkpt lat="46.60137" lon="5.52758">
        <ele>495.20001220703</ele>
        <time>2021-03-06T13:17:20.000Z</time>
      </trkpt>
      <trkpt lat="46.60126" lon="5.5277">
        <ele>496</ele>
        <time>2021-03-06T13:17:24.000Z</time>
      </trkpt>
      <trkpt lat="46.60123" lon="5.52772">
        <ele>496.20001220703</ele>
        <time>2021-03-06T13:17:25.000Z</time>
      </trkpt>
      <trkpt lat="46.60111" lon="5.52782">
        <ele>497.20001220703</ele>
        <time>2021-03-06T13:17:29.000Z</time>
      </trkpt>
      <trkpt lat="46.60098" lon="5.52791">
        <ele>498</ele>
        <time>2021-03-06T13:17:33.000Z</time>
      </trkpt>
      <trkpt lat="46.60095" lon="5.52793">
        <ele>498.39999389648</ele>
        <time>2021-03-06T13:17:34.000Z</time>
      </trkpt>
      <trkpt lat="46.60092" lon="5.52795">
        <ele>498.60000610352</ele>
        <time>2021-03-06T13:17:35.000Z</time>
      </trkpt>
      <trkpt lat="46.60082" lon="5.528">
        <ele>499.39999389648</ele>
        <time>2021-03-06T13:17:38.000Z</time>
      </trkpt>
      <trkpt lat="46.60068" lon="5.52807">
        <ele>500.39999389648</ele>
        <time>2021-03-06T13:17:42.000Z</time>
      </trkpt>
      <trkpt lat="46.60065" lon="5.52808">
        <ele>501</ele>
        <time>2021-03-06T13:17:43.000Z</time>
      </trkpt>
      <trkpt lat="46.60055" lon="5.52814">
        <ele>501.60000610352</ele>
        <time>2021-03-06T13:17:46.000Z</time>
      </trkpt>
      <trkpt lat="46.60042" lon="5.5282">
        <ele>502.60000610352</ele>
        <time>2021-03-06T13:17:50.000Z</time>
      </trkpt>
      <trkpt lat="46.60031" lon="5.52825">
        <ele>503.60000610352</ele>
        <time>2021-03-06T13:17:53.000Z</time>
      </trkpt>
      <trkpt lat="46.60028" lon="5.52827">
        <ele>503.79998779297</ele>
        <time>2021-03-06T13:17:54.000Z</time>
      </trkpt>
      <trkpt lat="46.60002" lon="5.52839">
        <ele>505</ele>
        <time>2021-03-06T13:18:01.000Z</time>
      </trkpt>
      <trkpt lat="46.59995" lon="5.52842">
        <ele>505.20001220703</ele>
        <time>2021-03-06T13:18:03.000Z</time>
      </trkpt>
      <trkpt lat="46.59981" lon="5.52846">
        <ele>506</ele>
        <time>2021-03-06T13:18:07.000Z</time>
      </trkpt>
      <trkpt lat="46.5997" lon="5.52849">
        <ele>507</ele>
        <time>2021-03-06T13:18:10.000Z</time>
      </trkpt>
      <trkpt lat="46.59966" lon="5.5285">
        <ele>507.20001220703</ele>
        <time>2021-03-06T13:18:11.000Z</time>
      </trkpt>
      <trkpt lat="46.59953" lon="5.52853">
        <ele>508.20001220703</ele>
        <time>2021-03-06T13:18:15.000Z</time>
      </trkpt>
      <trkpt lat="46.59946" lon="5.52855">
        <ele>509</ele>
        <time>2021-03-06T13:18:17.000Z</time>
      </trkpt>
      <trkpt lat="46.59939" lon="5.52857">
        <ele>509.60000610352</ele>
        <time>2021-03-06T13:18:19.000Z</time>
      </trkpt>
      <trkpt lat="46.59932" lon="5.5286">
        <ele>509.79998779297</ele>
        <time>2021-03-06T13:18:21.000Z</time>
      </trkpt>
      <trkpt lat="46.59922" lon="5.52865">
        <ele>511</ele>
        <time>2021-03-06T13:18:24.000Z</time>
      </trkpt>
      <trkpt lat="46.59916" lon="5.5287">
        <ele>511.60000610352</ele>
        <time>2021-03-06T13:18:26.000Z</time>
      </trkpt>
      <trkpt lat="46.5991" lon="5.52876">
        <ele>512.20001220703</ele>
        <time>2021-03-06T13:18:28.000Z</time>
      </trkpt>
      <trkpt lat="46.59896" lon="5.52893">
        <ele>513.59997558594</ele>
        <time>2021-03-06T13:18:33.000Z</time>
      </trkpt>
      <trkpt lat="46.59894" lon="5.52897">
        <ele>513.59997558594</ele>
        <time>2021-03-06T13:18:34.000Z</time>
      </trkpt>
      <trkpt lat="46.59887" lon="5.52911">
        <ele>514.79998779297</ele>
        <time>2021-03-06T13:18:37.000Z</time>
      </trkpt>
      <trkpt lat="46.59882" lon="5.52926">
        <ele>515.79998779297</ele>
        <time>2021-03-06T13:18:40.000Z</time>
      </trkpt>
      <trkpt lat="46.5988" lon="5.52931">
        <ele>516</ele>
        <time>2021-03-06T13:18:41.000Z</time>
      </trkpt>
      <trkpt lat="46.59878" lon="5.52954">
        <ele>517</ele>
        <time>2021-03-06T13:18:45.000Z</time>
      </trkpt>
      <trkpt lat="46.59878" lon="5.5296">
        <ele>517</ele>
        <time>2021-03-06T13:18:46.000Z</time>
      </trkpt>
      <trkpt lat="46.59877" lon="5.52987">
        <ele>517.40002441406</ele>
        <time>2021-03-06T13:18:50.000Z</time>
      </trkpt>
      <trkpt lat="46.59874" lon="5.53003">
        <ele>517.40002441406</ele>
        <time>2021-03-06T13:18:52.000Z</time>
      </trkpt>
      <trkpt lat="46.59868" lon="5.53018">
        <ele>517.40002441406</ele>
        <time>2021-03-06T13:18:54.000Z</time>
      </trkpt>
      <trkpt lat="46.59857" lon="5.5303">
        <ele>517.20001220703</ele>
        <time>2021-03-06T13:18:56.000Z</time>
      </trkpt>
      <trkpt lat="46.59845" lon="5.53038">
        <ele>516.59997558594</ele>
        <time>2021-03-06T13:18:58.000Z</time>
      </trkpt>
      <trkpt lat="46.59825" lon="5.53047">
        <ele>516</ele>
        <time>2021-03-06T13:19:01.000Z</time>
      </trkpt>
      <trkpt lat="46.59819" lon="5.5305">
        <ele>516</ele>
        <time>2021-03-06T13:19:02.000Z</time>
      </trkpt>
      <trkpt lat="46.59792" lon="5.53065">
        <ele>515.79998779297</ele>
        <time>2021-03-06T13:19:06.000Z</time>
      </trkpt>
      <trkpt lat="46.59786" lon="5.5307">
        <ele>515.79998779297</ele>
        <time>2021-03-06T13:19:07.000Z</time>
      </trkpt>
      <trkpt lat="46.59742" lon="5.53109">
        <ele>515.40002441406</ele>
        <time>2021-03-06T13:19:14.000Z</time>
      </trkpt>
      <trkpt lat="46.59736" lon="5.53112">
        <ele>515.40002441406</ele>
        <time>2021-03-06T13:19:15.000Z</time>
      </trkpt>
      <trkpt lat="46.59722" lon="5.53118">
        <ele>514.79998779297</ele>
        <time>2021-03-06T13:19:17.000Z</time>
      </trkpt>
      <trkpt lat="46.59697" lon="5.53127">
        <ele>514.79998779297</ele>
        <time>2021-03-06T13:19:21.000Z</time>
      </trkpt>
      <trkpt lat="46.59662" lon="5.53139">
        <ele>516</ele>
        <time>2021-03-06T13:19:27.000Z</time>
      </trkpt>
      <trkpt lat="46.59657" lon="5.53142">
        <ele>516.40002441406</ele>
        <time>2021-03-06T13:19:28.000Z</time>
      </trkpt>
      <trkpt lat="46.59632" lon="5.53155">
        <ele>517.59997558594</ele>
        <time>2021-03-06T13:19:32.000Z</time>
      </trkpt>
      <trkpt lat="46.59619" lon="5.53162">
        <ele>518</ele>
        <time>2021-03-06T13:19:34.000Z</time>
      </trkpt>
      <trkpt lat="46.59575" lon="5.53183">
        <ele>518.59997558594</ele>
        <time>2021-03-06T13:19:41.000Z</time>
      </trkpt>
      <trkpt lat="46.59568" lon="5.53187">
        <ele>518.59997558594</ele>
        <time>2021-03-06T13:19:42.000Z</time>
      </trkpt>
      <trkpt lat="46.59531" lon="5.53207">
        <ele>518.20001220703</ele>
        <time>2021-03-06T13:19:47.000Z</time>
      </trkpt>
      <trkpt lat="46.59523" lon="5.53211">
        <ele>517.59997558594</ele>
        <time>2021-03-06T13:19:48.000Z</time>
      </trkpt>
      <trkpt lat="46.59498" lon="5.53218">
        <ele>516.20001220703</ele>
        <time>2021-03-06T13:19:51.000Z</time>
      </trkpt>
      <trkpt lat="46.59489" lon="5.5322">
        <ele>516.20001220703</ele>
        <time>2021-03-06T13:19:52.000Z</time>
      </trkpt>
      <trkpt lat="46.59453" lon="5.53224">
        <ele>515.59997558594</ele>
        <time>2021-03-06T13:19:57.000Z</time>
      </trkpt>
      <trkpt lat="46.59407" lon="5.53232">
        <ele>517</ele>
        <time>2021-03-06T13:20:04.000Z</time>
      </trkpt>
      <trkpt lat="46.59368" lon="5.53249">
        <ele>516.40002441406</ele>
        <time>2021-03-06T13:20:09.000Z</time>
      </trkpt>
      <trkpt lat="46.59355" lon="5.53263">
        <ele>516</ele>
        <time>2021-03-06T13:20:11.000Z</time>
      </trkpt>
      <trkpt lat="46.59349" lon="5.53272">
        <ele>515.59997558594</ele>
        <time>2021-03-06T13:20:12.000Z</time>
      </trkpt>
      <trkpt lat="46.59342" lon="5.53282">
        <ele>515</ele>
        <time>2021-03-06T13:20:13.000Z</time>
      </trkpt>
      <trkpt lat="46.59324" lon="5.53313">
        <ele>513.59997558594</ele>
        <time>2021-03-06T13:20:16.000Z</time>
      </trkpt>
      <trkpt lat="46.59311" lon="5.53332">
        <ele>513.20001220703</ele>
        <time>2021-03-06T13:20:18.000Z</time>
      </trkpt>
      <trkpt lat="46.59296" lon="5.53348">
        <ele>512.40002441406</ele>
        <time>2021-03-06T13:20:20.000Z</time>
      </trkpt>
      <trkpt lat="46.59266" lon="5.53377">
        <ele>511.60000610352</ele>
        <time>2021-03-06T13:20:24.000Z</time>
      </trkpt>
      <trkpt lat="46.59259" lon="5.53384">
        <ele>511.39999389648</ele>
        <time>2021-03-06T13:20:25.000Z</time>
      </trkpt>
      <trkpt lat="46.59229" lon="5.53411">
        <ele>510.79998779297</ele>
        <time>2021-03-06T13:20:29.000Z</time>
      </trkpt>
      <trkpt lat="46.59212" lon="5.53421">
        <ele>510.60000610352</ele>
        <time>2021-03-06T13:20:31.000Z</time>
      </trkpt>
      <trkpt lat="46.59203" lon="5.53424">
        <ele>510</ele>
        <time>2021-03-06T13:20:32.000Z</time>
      </trkpt>
      <trkpt lat="46.59194" lon="5.53425">
        <ele>509.60000610352</ele>
        <time>2021-03-06T13:20:33.000Z</time>
      </trkpt>
      <trkpt lat="46.59185" lon="5.53424">
        <ele>509.39999389648</ele>
        <time>2021-03-06T13:20:34.000Z</time>
      </trkpt>
      <trkpt lat="46.59161" lon="5.53416">
        <ele>509.20001220703</ele>
        <time>2021-03-06T13:20:37.000Z</time>
      </trkpt>
      <trkpt lat="46.59146" lon="5.53406">
        <ele>509.20001220703</ele>
        <time>2021-03-06T13:20:39.000Z</time>
      </trkpt>
      <trkpt lat="46.59131" lon="5.53393">
        <ele>508.79998779297</ele>
        <time>2021-03-06T13:20:41.000Z</time>
      </trkpt>
      <trkpt lat="46.59108" lon="5.53375">
        <ele>508</ele>
        <time>2021-03-06T13:20:44.000Z</time>
      </trkpt>
      <trkpt lat="46.59099" lon="5.53371">
        <ele>507.60000610352</ele>
        <time>2021-03-06T13:20:45.000Z</time>
      </trkpt>
      <trkpt lat="46.5909" lon="5.5337">
        <ele>507.20001220703</ele>
        <time>2021-03-06T13:20:46.000Z</time>
      </trkpt>
      <trkpt lat="46.59075" lon="5.53381">
        <ele>506.79998779297</ele>
        <time>2021-03-06T13:20:48.000Z</time>
      </trkpt>
      <trkpt lat="46.5906" lon="5.53398">
        <ele>506.39999389648</ele>
        <time>2021-03-06T13:20:50.000Z</time>
      </trkpt>
      <trkpt lat="46.59045" lon="5.53416">
        <ele>505.60000610352</ele>
        <time>2021-03-06T13:20:52.000Z</time>
      </trkpt>
      <trkpt lat="46.59037" lon="5.53424">
        <ele>504.79998779297</ele>
        <time>2021-03-06T13:20:53.000Z</time>
      </trkpt>
      <trkpt lat="46.59014" lon="5.53447">
        <ele>503.79998779297</ele>
        <time>2021-03-06T13:20:56.000Z</time>
      </trkpt>
      <trkpt lat="46.59007" lon="5.53455">
        <ele>503.39999389648</ele>
        <time>2021-03-06T13:20:57.000Z</time>
      </trkpt>
      <trkpt lat="46.58987" lon="5.53484">
        <ele>502.79998779297</ele>
        <time>2021-03-06T13:21:00.000Z</time>
      </trkpt>
      <trkpt lat="46.58981" lon="5.53495">
        <ele>502.60000610352</ele>
        <time>2021-03-06T13:21:01.000Z</time>
      </trkpt>
      <trkpt lat="46.58976" lon="5.53507">
        <ele>502.60000610352</ele>
        <time>2021-03-06T13:21:02.000Z</time>
      </trkpt>
      <trkpt lat="46.58965" lon="5.53545">
        <ele>501.60000610352</ele>
        <time>2021-03-06T13:21:05.000Z</time>
      </trkpt>
      <trkpt lat="46.58959" lon="5.53571">
        <ele>501.20001220703</ele>
        <time>2021-03-06T13:21:07.000Z</time>
      </trkpt>
      <trkpt lat="46.58956" lon="5.53585">
        <ele>500.39999389648</ele>
        <time>2021-03-06T13:21:08.000Z</time>
      </trkpt>
      <trkpt lat="46.58947" lon="5.53626">
        <ele>499</ele>
        <time>2021-03-06T13:21:11.000Z</time>
      </trkpt>
      <trkpt lat="46.58936" lon="5.5367">
        <ele>497.79998779297</ele>
        <time>2021-03-06T13:21:14.000Z</time>
      </trkpt>
      <trkpt lat="46.58932" lon="5.53685">
        <ele>496.79998779297</ele>
        <time>2021-03-06T13:21:15.000Z</time>
      </trkpt>
      <trkpt lat="46.58923" lon="5.53715">
        <ele>495.60000610352</ele>
        <time>2021-03-06T13:21:17.000Z</time>
      </trkpt>
      <trkpt lat="46.58913" lon="5.53745">
        <ele>494</ele>
        <time>2021-03-06T13:21:19.000Z</time>
      </trkpt>
      <trkpt lat="46.58904" lon="5.53776">
        <ele>492.60000610352</ele>
        <time>2021-03-06T13:21:21.000Z</time>
      </trkpt>
      <trkpt lat="46.58899" lon="5.53791">
        <ele>491.20001220703</ele>
        <time>2021-03-06T13:21:22.000Z</time>
      </trkpt>
      <trkpt lat="46.5889" lon="5.53821">
        <ele>489.60000610352</ele>
        <time>2021-03-06T13:21:24.000Z</time>
      </trkpt>
      <trkpt lat="46.58881" lon="5.53852">
        <ele>488.20001220703</ele>
        <time>2021-03-06T13:21:26.000Z</time>
      </trkpt>
      <trkpt lat="46.58876" lon="5.53867">
        <ele>486.60000610352</ele>
        <time>2021-03-06T13:21:27.000Z</time>
      </trkpt>
      <trkpt lat="46.58867" lon="5.53897">
        <ele>485.39999389648</ele>
        <time>2021-03-06T13:21:29.000Z</time>
      </trkpt>
      <trkpt lat="46.58854" lon="5.53939">
        <ele>484.20001220703</ele>
        <time>2021-03-06T13:21:32.000Z</time>
      </trkpt>
      <trkpt lat="46.58846" lon="5.53967">
        <ele>483.79998779297</ele>
        <time>2021-03-06T13:21:34.000Z</time>
      </trkpt>
      <trkpt lat="46.5883" lon="5.54018">
        <ele>483</ele>
        <time>2021-03-06T13:21:38.000Z</time>
      </trkpt>
      <trkpt lat="46.58827" lon="5.54029">
        <ele>483</ele>
        <time>2021-03-06T13:21:39.000Z</time>
      </trkpt>
      <trkpt lat="46.58812" lon="5.54101">
        <ele>482.39999389648</ele>
        <time>2021-03-06T13:21:45.000Z</time>
      </trkpt>
      <trkpt lat="46.58804" lon="5.54153">
        <ele>481.60000610352</ele>
        <time>2021-03-06T13:21:49.000Z</time>
      </trkpt>
      <trkpt lat="46.58797" lon="5.54192">
        <ele>480.60000610352</ele>
        <time>2021-03-06T13:21:52.000Z</time>
      </trkpt>
      <trkpt lat="46.58795" lon="5.54204">
        <ele>480.60000610352</ele>
        <time>2021-03-06T13:21:53.000Z</time>
      </trkpt>
      <trkpt lat="46.58782" lon="5.54271">
        <ele>480.20001220703</ele>
        <time>2021-03-06T13:21:59.000Z</time>
      </trkpt>
      <trkpt lat="46.58766" lon="5.54325">
        <ele>480.60000610352</ele>
        <time>2021-03-06T13:22:05.000Z</time>
      </trkpt>
      <trkpt lat="46.58749" lon="5.54379">
        <ele>481.79998779297</ele>
        <time>2021-03-06T13:22:12.000Z</time>
      </trkpt>
      <trkpt lat="46.58741" lon="5.54406">
        <ele>482.79998779297</ele>
        <time>2021-03-06T13:22:16.000Z</time>
      </trkpt>
      <trkpt lat="46.58738" lon="5.54419">
        <ele>483.20001220703</ele>
        <time>2021-03-06T13:22:18.000Z</time>
      </trkpt>
      <trkpt lat="46.58732" lon="5.54442">
        <ele>484.20001220703</ele>
        <time>2021-03-06T13:22:22.000Z</time>
      </trkpt>
      <trkpt lat="46.58726" lon="5.54465">
        <ele>485.39999389648</ele>
        <time>2021-03-06T13:22:26.000Z</time>
      </trkpt>
      <trkpt lat="46.58717" lon="5.54499">
        <ele>486.60000610352</ele>
        <time>2021-03-06T13:22:32.000Z</time>
      </trkpt>
      <trkpt lat="46.58711" lon="5.5452">
        <ele>487.39999389648</ele>
        <time>2021-03-06T13:22:36.000Z</time>
      </trkpt>
      <trkpt lat="46.5871" lon="5.54525">
        <ele>487.60000610352</ele>
        <time>2021-03-06T13:22:37.000Z</time>
      </trkpt>
      <trkpt lat="46.58704" lon="5.54547">
        <ele>488.60000610352</ele>
        <time>2021-03-06T13:22:41.000Z</time>
      </trkpt>
      <trkpt lat="46.58697" lon="5.54569">
        <ele>489.60000610352</ele>
        <time>2021-03-06T13:22:45.000Z</time>
      </trkpt>
      <trkpt lat="46.58692" lon="5.54579">
        <ele>489.79998779297</ele>
        <time>2021-03-06T13:22:47.000Z</time>
      </trkpt>
      <trkpt lat="46.58677" lon="5.54611">
        <ele>490.60000610352</ele>
        <time>2021-03-06T13:22:54.000Z</time>
      </trkpt>
      <trkpt lat="46.58675" lon="5.54616">
        <ele>490.79998779297</ele>
        <time>2021-03-06T13:22:55.000Z</time>
      </trkpt>
      <trkpt lat="46.58663" lon="5.54647">
        <ele>492</ele>
        <time>2021-03-06T13:23:01.000Z</time>
      </trkpt>
      <trkpt lat="46.58659" lon="5.54659">
        <ele>492.20001220703</ele>
        <time>2021-03-06T13:23:03.000Z</time>
      </trkpt>
      <trkpt lat="46.58657" lon="5.54665">
        <ele>492.20001220703</ele>
        <time>2021-03-06T13:23:04.000Z</time>
      </trkpt>
      <trkpt lat="46.58652" lon="5.54682">
        <ele>492.39999389648</ele>
        <time>2021-03-06T13:23:07.000Z</time>
      </trkpt>
      <trkpt lat="46.58646" lon="5.54699">
        <ele>492.60000610352</ele>
        <time>2021-03-06T13:23:10.000Z</time>
      </trkpt>
      <trkpt lat="46.58639" lon="5.54721">
        <ele>493</ele>
        <time>2021-03-06T13:23:14.000Z</time>
      </trkpt>
      <trkpt lat="46.58632" lon="5.54743">
        <ele>493.79998779297</ele>
        <time>2021-03-06T13:23:18.000Z</time>
      </trkpt>
      <trkpt lat="46.58628" lon="5.54754">
        <ele>494.39999389648</ele>
        <time>2021-03-06T13:23:20.000Z</time>
      </trkpt>
      <trkpt lat="46.58624" lon="5.54763">
        <ele>494.79998779297</ele>
        <time>2021-03-06T13:23:22.000Z</time>
      </trkpt>
      <trkpt lat="46.58615" lon="5.54777">
        <ele>495.20001220703</ele>
        <time>2021-03-06T13:23:25.000Z</time>
      </trkpt>
      <trkpt lat="46.58612" lon="5.54782">
        <ele>495.60000610352</ele>
        <time>2021-03-06T13:23:26.000Z</time>
      </trkpt>
      <trkpt lat="46.5861" lon="5.54787">
        <ele>495.79998779297</ele>
        <time>2021-03-06T13:23:27.000Z</time>
      </trkpt>
      <trkpt lat="46.58602" lon="5.54805">
        <ele>496.39999389648</ele>
        <time>2021-03-06T13:23:30.000Z</time>
      </trkpt>
      <trkpt lat="46.586" lon="5.54811">
        <ele>496.79998779297</ele>
        <time>2021-03-06T13:23:31.000Z</time>
      </trkpt>
      <trkpt lat="46.58597" lon="5.54823">
        <ele>497.20001220703</ele>
        <time>2021-03-06T13:23:33.000Z</time>
      </trkpt>
      <trkpt lat="46.58592" lon="5.54834">
        <ele>497.39999389648</ele>
        <time>2021-03-06T13:23:35.000Z</time>
      </trkpt>
      <trkpt lat="46.58587" lon="5.54845">
        <ele>497.79998779297</ele>
        <time>2021-03-06T13:23:37.000Z</time>
      </trkpt>
      <trkpt lat="46.58583" lon="5.54856">
        <ele>498</ele>
        <time>2021-03-06T13:23:39.000Z</time>
      </trkpt>
      <trkpt lat="46.58578" lon="5.54867">
        <ele>498.20001220703</ele>
        <time>2021-03-06T13:23:41.000Z</time>
      </trkpt>
      <trkpt lat="46.58571" lon="5.54898">
        <ele>499.20001220703</ele>
        <time>2021-03-06T13:23:46.000Z</time>
      </trkpt>
      <trkpt lat="46.58569" lon="5.54912">
        <ele>499.39999389648</ele>
        <time>2021-03-06T13:23:48.000Z</time>
      </trkpt>
      <trkpt lat="46.58568" lon="5.54918">
        <ele>499.60000610352</ele>
        <time>2021-03-06T13:23:49.000Z</time>
      </trkpt>
      <trkpt lat="46.58566" lon="5.54931">
        <ele>499.79998779297</ele>
        <time>2021-03-06T13:23:51.000Z</time>
      </trkpt>
      <trkpt lat="46.58564" lon="5.54943">
        <ele>500</ele>
        <time>2021-03-06T13:23:53.000Z</time>
      </trkpt>
      <trkpt lat="46.58562" lon="5.54949">
        <ele>500.20001220703</ele>
        <time>2021-03-06T13:23:54.000Z</time>
      </trkpt>
      <trkpt lat="46.5856" lon="5.54954">
        <ele>500.39999389648</ele>
        <time>2021-03-06T13:23:55.000Z</time>
      </trkpt>
      <trkpt lat="46.58553" lon="5.54973">
        <ele>501.20001220703</ele>
        <time>2021-03-06T13:23:59.000Z</time>
      </trkpt>
      <trkpt lat="46.58552" lon="5.54977">
        <ele>501.60000610352</ele>
        <time>2021-03-06T13:24:00.000Z</time>
      </trkpt>
      <trkpt lat="46.58553" lon="5.54982">
        <ele>501.79998779297</ele>
        <time>2021-03-06T13:24:01.000Z</time>
      </trkpt>
      <trkpt lat="46.58557" lon="5.54991">
        <ele>502.39999389648</ele>
        <time>2021-03-06T13:24:03.000Z</time>
      </trkpt>
      <trkpt lat="46.58571" lon="5.55015">
        <ele>503.39999389648</ele>
        <time>2021-03-06T13:24:09.000Z</time>
      </trkpt>
      <trkpt lat="46.58587" lon="5.55041">
        <ele>504.20001220703</ele>
        <time>2021-03-06T13:24:15.000Z</time>
      </trkpt>
      <trkpt lat="46.5859" lon="5.55045">
        <ele>504.60000610352</ele>
        <time>2021-03-06T13:24:16.000Z</time>
      </trkpt>
      <trkpt lat="46.58607" lon="5.5506">
        <ele>505.60000610352</ele>
        <time>2021-03-06T13:24:22.000Z</time>
      </trkpt>
      <trkpt lat="46.58609" lon="5.55062">
        <ele>505.60000610352</ele>
        <time>2021-03-06T13:24:23.000Z</time>
      </trkpt>
      <trkpt lat="46.5862" lon="5.55067">
        <ele>507</ele>
        <time>2021-03-06T13:24:27.000Z</time>
      </trkpt>
      <trkpt lat="46.58623" lon="5.55069">
        <ele>507.39999389648</ele>
        <time>2021-03-06T13:24:28.000Z</time>
      </trkpt>
      <trkpt lat="46.58628" lon="5.55071">
        <ele>508</ele>
        <time>2021-03-06T13:24:30.000Z</time>
      </trkpt>
      <trkpt lat="46.58638" lon="5.55075">
        <ele>508.79998779297</ele>
        <time>2021-03-06T13:24:34.000Z</time>
      </trkpt>
      <trkpt lat="46.5864" lon="5.55076">
        <ele>509</ele>
        <time>2021-03-06T13:24:35.000Z</time>
      </trkpt>
      <trkpt lat="46.58647" lon="5.55081">
        <ele>510.39999389648</ele>
        <time>2021-03-06T13:24:38.000Z</time>
      </trkpt>
      <trkpt lat="46.58659" lon="5.55089">
        <ele>511.79998779297</ele>
        <time>2021-03-06T13:24:43.000Z</time>
      </trkpt>
      <trkpt lat="46.58661" lon="5.55091">
        <ele>512.20001220703</ele>
        <time>2021-03-06T13:24:44.000Z</time>
      </trkpt>
      <trkpt lat="46.58663" lon="5.55097">
        <ele>512.40002441406</ele>
        <time>2021-03-06T13:24:46.000Z</time>
      </trkpt>
      <trkpt lat="46.58662" lon="5.55104">
        <ele>513</ele>
        <time>2021-03-06T13:24:48.000Z</time>
      </trkpt>
      <trkpt lat="46.58656" lon="5.55109">
        <ele>514.20001220703</ele>
        <time>2021-03-06T13:24:51.000Z</time>
      </trkpt>
      <trkpt lat="46.58653" lon="5.55109">
        <ele>514.59997558594</ele>
        <time>2021-03-06T13:24:52.000Z</time>
      </trkpt>
      <trkpt lat="46.58648" lon="5.55109">
        <ele>515.40002441406</ele>
        <time>2021-03-06T13:24:54.000Z</time>
      </trkpt>
      <trkpt lat="46.58639" lon="5.55112">
        <ele>516.40002441406</ele>
        <time>2021-03-06T13:24:57.000Z</time>
      </trkpt>
      <trkpt lat="46.58633" lon="5.55116">
        <ele>517.40002441406</ele>
        <time>2021-03-06T13:25:00.000Z</time>
      </trkpt>
      <trkpt lat="46.58631" lon="5.55118">
        <ele>517.59997558594</ele>
        <time>2021-03-06T13:25:01.000Z</time>
      </trkpt>
      <trkpt lat="46.58623" lon="5.55126">
        <ele>518.59997558594</ele>
        <time>2021-03-06T13:25:05.000Z</time>
      </trkpt>
      <trkpt lat="46.58615" lon="5.55135">
        <ele>519.59997558594</ele>
        <time>2021-03-06T13:25:09.000Z</time>
      </trkpt>
      <trkpt lat="46.58613" lon="5.55137">
        <ele>519.79998779297</ele>
        <time>2021-03-06T13:25:10.000Z</time>
      </trkpt>
      <trkpt lat="46.58604" lon="5.5515">
        <ele>520.59997558594</ele>
        <time>2021-03-06T13:25:15.000Z</time>
      </trkpt>
      <trkpt lat="46.58599" lon="5.55157">
        <ele>521.40002441406</ele>
        <time>2021-03-06T13:25:18.000Z</time>
      </trkpt>
      <trkpt lat="46.58596" lon="5.55164">
        <ele>521.79998779297</ele>
        <time>2021-03-06T13:25:20.000Z</time>
      </trkpt>
      <trkpt lat="46.5859" lon="5.55181">
        <ele>523</ele>
        <time>2021-03-06T13:25:25.000Z</time>
      </trkpt>
      <trkpt lat="46.58579" lon="5.55199">
        <ele>524.59997558594</ele>
        <time>2021-03-06T13:25:31.000Z</time>
      </trkpt>
      <trkpt lat="46.58578" lon="5.55202">
        <ele>525</ele>
        <time>2021-03-06T13:25:32.000Z</time>
      </trkpt>
      <trkpt lat="46.5857" lon="5.55218">
        <ele>525.79998779297</ele>
        <time>2021-03-06T13:25:37.000Z</time>
      </trkpt>
      <trkpt lat="46.58564" lon="5.55231">
        <ele>527</ele>
        <time>2021-03-06T13:25:41.000Z</time>
      </trkpt>
      <trkpt lat="46.58563" lon="5.55234">
        <ele>527</ele>
        <time>2021-03-06T13:25:42.000Z</time>
      </trkpt>
      <trkpt lat="46.58555" lon="5.55249">
        <ele>528</ele>
        <time>2021-03-06T13:25:47.000Z</time>
      </trkpt>
      <trkpt lat="46.58551" lon="5.55258">
        <ele>528.40002441406</ele>
        <time>2021-03-06T13:25:50.000Z</time>
      </trkpt>
      <trkpt lat="46.58548" lon="5.55264">
        <ele>529</ele>
        <time>2021-03-06T13:25:52.000Z</time>
      </trkpt>
      <trkpt lat="46.58542" lon="5.55279">
        <ele>530</ele>
        <time>2021-03-06T13:25:57.000Z</time>
      </trkpt>
      <trkpt lat="46.58539" lon="5.55288">
        <ele>530.59997558594</ele>
        <time>2021-03-06T13:26:00.000Z</time>
      </trkpt>
      <trkpt lat="46.58535" lon="5.55297">
        <ele>531.40002441406</ele>
        <time>2021-03-06T13:26:03.000Z</time>
      </trkpt>
      <trkpt lat="46.58529" lon="5.55312">
        <ele>532.40002441406</ele>
        <time>2021-03-06T13:26:08.000Z</time>
      </trkpt>
      <trkpt lat="46.58528" lon="5.55315">
        <ele>532.59997558594</ele>
        <time>2021-03-06T13:26:09.000Z</time>
      </trkpt>
      <trkpt lat="46.58524" lon="5.55326">
        <ele>533.59997558594</ele>
        <time>2021-03-06T13:26:13.000Z</time>
      </trkpt>
      <trkpt lat="46.5852" lon="5.55334">
        <ele>534.40002441406</ele>
        <time>2021-03-06T13:26:16.000Z</time>
      </trkpt>
      <trkpt lat="46.58519" lon="5.55336">
        <ele>534.79998779297</ele>
        <time>2021-03-06T13:26:17.000Z</time>
      </trkpt>
      <trkpt lat="46.58514" lon="5.55346">
        <ele>535.59997558594</ele>
        <time>2021-03-06T13:26:21.000Z</time>
      </trkpt>
      <trkpt lat="46.58513" lon="5.55349">
        <ele>536</ele>
        <time>2021-03-06T13:26:22.000Z</time>
      </trkpt>
      <trkpt lat="46.58509" lon="5.55361">
        <ele>537.20001220703</ele>
        <time>2021-03-06T13:26:26.000Z</time>
      </trkpt>
      <trkpt lat="46.58507" lon="5.55364">
        <ele>537.59997558594</ele>
        <time>2021-03-06T13:26:27.000Z</time>
      </trkpt>
      <trkpt lat="46.58505" lon="5.55371">
        <ele>538.20001220703</ele>
        <time>2021-03-06T13:26:29.000Z</time>
      </trkpt>
      <trkpt lat="46.58502" lon="5.55389">
        <ele>539.40002441406</ele>
        <time>2021-03-06T13:26:34.000Z</time>
      </trkpt>
      <trkpt lat="46.58502" lon="5.55393">
        <ele>539.40002441406</ele>
        <time>2021-03-06T13:26:35.000Z</time>
      </trkpt>
      <trkpt lat="46.58503" lon="5.55412">
        <ele>540.40002441406</ele>
        <time>2021-03-06T13:26:40.000Z</time>
      </trkpt>
      <trkpt lat="46.58503" lon="5.55424">
        <ele>541.20001220703</ele>
        <time>2021-03-06T13:26:43.000Z</time>
      </trkpt>
      <trkpt lat="46.58505" lon="5.55435">
        <ele>541.40002441406</ele>
        <time>2021-03-06T13:26:46.000Z</time>
      </trkpt>
      <trkpt lat="46.58507" lon="5.55446">
        <ele>542.40002441406</ele>
        <time>2021-03-06T13:26:49.000Z</time>
      </trkpt>
      <trkpt lat="46.58509" lon="5.55454">
        <ele>543</ele>
        <time>2021-03-06T13:26:51.000Z</time>
      </trkpt>
      <trkpt lat="46.58509" lon="5.55457">
        <ele>543.59997558594</ele>
        <time>2021-03-06T13:26:52.000Z</time>
      </trkpt>
      <trkpt lat="46.58513" lon="5.55478">
        <ele>544.59997558594</ele>
        <time>2021-03-06T13:26:58.000Z</time>
      </trkpt>
      <trkpt lat="46.58514" lon="5.55481">
        <ele>544.79998779297</ele>
        <time>2021-03-06T13:26:59.000Z</time>
      </trkpt>
      <trkpt lat="46.58517" lon="5.55499">
        <ele>545.79998779297</ele>
        <time>2021-03-06T13:27:04.000Z</time>
      </trkpt>
      <trkpt lat="46.5852" lon="5.55514">
        <ele>546.59997558594</ele>
        <time>2021-03-06T13:27:08.000Z</time>
      </trkpt>
      <trkpt lat="46.58521" lon="5.55517">
        <ele>546.79998779297</ele>
        <time>2021-03-06T13:27:09.000Z</time>
      </trkpt>
      <trkpt lat="46.58525" lon="5.55535">
        <ele>547.79998779297</ele>
        <time>2021-03-06T13:27:14.000Z</time>
      </trkpt>
      <trkpt lat="46.58528" lon="5.55553">
        <ele>549</ele>
        <time>2021-03-06T13:27:19.000Z</time>
      </trkpt>
      <trkpt lat="46.58533" lon="5.55573">
        <ele>550.20001220703</ele>
        <time>2021-03-06T13:27:25.000Z</time>
      </trkpt>
      <trkpt lat="46.58535" lon="5.5558">
        <ele>550.59997558594</ele>
        <time>2021-03-06T13:27:27.000Z</time>
      </trkpt>
      <trkpt lat="46.58537" lon="5.55587">
        <ele>551.20001220703</ele>
        <time>2021-03-06T13:27:29.000Z</time>
      </trkpt>
      <trkpt lat="46.58542" lon="5.55605">
        <ele>552.40002441406</ele>
        <time>2021-03-06T13:27:35.000Z</time>
      </trkpt>
      <trkpt lat="46.58547" lon="5.55618">
        <ele>553.59997558594</ele>
        <time>2021-03-06T13:27:39.000Z</time>
      </trkpt>
      <trkpt lat="46.58553" lon="5.55628">
        <ele>554.40002441406</ele>
        <time>2021-03-06T13:27:43.000Z</time>
      </trkpt>
      <trkpt lat="46.58554" lon="5.5563">
        <ele>554.79998779297</ele>
        <time>2021-03-06T13:27:44.000Z</time>
      </trkpt>
      <trkpt lat="46.58559" lon="5.55638">
        <ele>556</ele>
        <time>2021-03-06T13:27:47.000Z</time>
      </trkpt>
      <trkpt lat="46.58567" lon="5.55646">
        <ele>557</ele>
        <time>2021-03-06T13:27:51.000Z</time>
      </trkpt>
      <trkpt lat="46.58577" lon="5.55656">
        <ele>558</ele>
        <time>2021-03-06T13:27:55.000Z</time>
      </trkpt>
      <trkpt lat="46.58582" lon="5.55661">
        <ele>558.40002441406</ele>
        <time>2021-03-06T13:27:57.000Z</time>
      </trkpt>
      <trkpt lat="46.58588" lon="5.55665">
        <ele>559</ele>
        <time>2021-03-06T13:27:59.000Z</time>
      </trkpt>
      <trkpt lat="46.58601" lon="5.55683">
        <ele>560</ele>
        <time>2021-03-06T13:28:06.000Z</time>
      </trkpt>
      <trkpt lat="46.58602" lon="5.55685">
        <ele>560.20001220703</ele>
        <time>2021-03-06T13:28:07.000Z</time>
      </trkpt>
      <trkpt lat="46.58613" lon="5.55696">
        <ele>561.40002441406</ele>
        <time>2021-03-06T13:28:12.000Z</time>
      </trkpt>
      <trkpt lat="46.58622" lon="5.55707">
        <ele>562.20001220703</ele>
        <time>2021-03-06T13:28:17.000Z</time>
      </trkpt>
      <trkpt lat="46.58625" lon="5.55709">
        <ele>562.40002441406</ele>
        <time>2021-03-06T13:28:18.000Z</time>
      </trkpt>
      <trkpt lat="46.58635" lon="5.55721">
        <ele>563.59997558594</ele>
        <time>2021-03-06T13:28:23.000Z</time>
      </trkpt>
      <trkpt lat="46.58645" lon="5.55731">
        <ele>564.40002441406</ele>
        <time>2021-03-06T13:28:28.000Z</time>
      </trkpt>
      <trkpt lat="46.58647" lon="5.55733">
        <ele>564.59997558594</ele>
        <time>2021-03-06T13:28:29.000Z</time>
      </trkpt>
      <trkpt lat="46.58659" lon="5.55743">
        <ele>565.59997558594</ele>
        <time>2021-03-06T13:28:34.000Z</time>
      </trkpt>
      <trkpt lat="46.58665" lon="5.55749">
        <ele>566.20001220703</ele>
        <time>2021-03-06T13:28:37.000Z</time>
      </trkpt>
      <trkpt lat="46.58667" lon="5.55751">
        <ele>566.20001220703</ele>
        <time>2021-03-06T13:28:38.000Z</time>
      </trkpt>
      <trkpt lat="46.58672" lon="5.55754">
        <ele>566.79998779297</ele>
        <time>2021-03-06T13:28:40.000Z</time>
      </trkpt>
      <trkpt lat="46.58682" lon="5.55762">
        <ele>567.59997558594</ele>
        <time>2021-03-06T13:28:45.000Z</time>
      </trkpt>
      <trkpt lat="46.58685" lon="5.55764">
        <ele>568</ele>
        <time>2021-03-06T13:28:46.000Z</time>
      </trkpt>
      <trkpt lat="46.58694" lon="5.5577">
        <ele>569.20001220703</ele>
        <time>2021-03-06T13:28:50.000Z</time>
      </trkpt>
      <trkpt lat="46.58706" lon="5.55777">
        <ele>570.40002441406</ele>
        <time>2021-03-06T13:28:55.000Z</time>
      </trkpt>
      <trkpt lat="46.58716" lon="5.55783">
        <ele>571.40002441406</ele>
        <time>2021-03-06T13:28:59.000Z</time>
      </trkpt>
      <trkpt lat="46.58719" lon="5.55785">
        <ele>571.59997558594</ele>
        <time>2021-03-06T13:29:00.000Z</time>
      </trkpt>
      <trkpt lat="46.58736" lon="5.55795">
        <ele>572.79998779297</ele>
        <time>2021-03-06T13:29:07.000Z</time>
      </trkpt>
      <trkpt lat="46.58741" lon="5.55798">
        <ele>573</ele>
        <time>2021-03-06T13:29:09.000Z</time>
      </trkpt>
      <trkpt lat="46.58753" lon="5.55805">
        <ele>573.79998779297</ele>
        <time>2021-03-06T13:29:13.000Z</time>
      </trkpt>
      <trkpt lat="46.58763" lon="5.55818">
        <ele>574.40002441406</ele>
        <time>2021-03-06T13:29:17.000Z</time>
      </trkpt>
      <trkpt lat="46.58772" lon="5.55841">
        <ele>574.79998779297</ele>
        <time>2021-03-06T13:29:22.000Z</time>
      </trkpt>
      <trkpt lat="46.58775" lon="5.5585">
        <ele>575</ele>
        <time>2021-03-06T13:29:24.000Z</time>
      </trkpt>
      <trkpt lat="46.5878" lon="5.55869">
        <ele>576</ele>
        <time>2021-03-06T13:29:28.000Z</time>
      </trkpt>
      <trkpt lat="46.58786" lon="5.55886">
        <ele>577</ele>
        <time>2021-03-06T13:29:32.000Z</time>
      </trkpt>
      <trkpt lat="46.58792" lon="5.55907">
        <ele>578.20001220703</ele>
        <time>2021-03-06T13:29:37.000Z</time>
      </trkpt>
      <trkpt lat="46.58796" lon="5.55919">
        <ele>578.79998779297</ele>
        <time>2021-03-06T13:29:40.000Z</time>
      </trkpt>
      <trkpt lat="46.58798" lon="5.55927">
        <ele>579.40002441406</ele>
        <time>2021-03-06T13:29:42.000Z</time>
      </trkpt>
      <trkpt lat="46.58807" lon="5.55952">
        <ele>580.59997558594</ele>
        <time>2021-03-06T13:29:48.000Z</time>
      </trkpt>
      <trkpt lat="46.58811" lon="5.55964">
        <ele>581</ele>
        <time>2021-03-06T13:29:51.000Z</time>
      </trkpt>
      <trkpt lat="46.58815" lon="5.55972">
        <ele>581.59997558594</ele>
        <time>2021-03-06T13:29:53.000Z</time>
      </trkpt>
      <trkpt lat="46.58828" lon="5.55993">
        <ele>582.20001220703</ele>
        <time>2021-03-06T13:29:59.000Z</time>
      </trkpt>
      <trkpt lat="46.58836" lon="5.56002">
        <ele>582.79998779297</ele>
        <time>2021-03-06T13:30:02.000Z</time>
      </trkpt>
      <trkpt lat="46.58852" lon="5.56019">
        <ele>584</ele>
        <time>2021-03-06T13:30:08.000Z</time>
      </trkpt>
      <trkpt lat="46.58866" lon="5.56029">
        <ele>585.20001220703</ele>
        <time>2021-03-06T13:30:13.000Z</time>
      </trkpt>
      <trkpt lat="46.58879" lon="5.56036">
        <ele>585.79998779297</ele>
        <time>2021-03-06T13:30:17.000Z</time>
      </trkpt>
      <trkpt lat="46.58887" lon="5.5604">
        <ele>586.40002441406</ele>
        <time>2021-03-06T13:30:20.000Z</time>
      </trkpt>
      <trkpt lat="46.58903" lon="5.56049">
        <ele>587.40002441406</ele>
        <time>2021-03-06T13:30:25.000Z</time>
      </trkpt>
      <trkpt lat="46.58906" lon="5.56051">
        <ele>587.59997558594</ele>
        <time>2021-03-06T13:30:26.000Z</time>
      </trkpt>
      <trkpt lat="46.58921" lon="5.56061">
        <ele>588.59997558594</ele>
        <time>2021-03-06T13:30:31.000Z</time>
      </trkpt>
      <trkpt lat="46.58933" lon="5.56069">
        <ele>589.59997558594</ele>
        <time>2021-03-06T13:30:35.000Z</time>
      </trkpt>
      <trkpt lat="46.58939" lon="5.56074">
        <ele>590</ele>
        <time>2021-03-06T13:30:37.000Z</time>
      </trkpt>
      <trkpt lat="46.58956" lon="5.56085">
        <ele>590.79998779297</ele>
        <time>2021-03-06T13:30:42.000Z</time>
      </trkpt>
      <trkpt lat="46.58961" lon="5.56087">
        <ele>591.20001220703</ele>
        <time>2021-03-06T13:30:44.000Z</time>
      </trkpt>
      <trkpt lat="46.58966" lon="5.56097">
        <ele>591.79998779297</ele>
        <time>2021-03-06T13:30:47.000Z</time>
      </trkpt>
      <trkpt lat="46.58971" lon="5.56108">
        <ele>592.59997558594</ele>
        <time>2021-03-06T13:30:50.000Z</time>
      </trkpt>
      <trkpt lat="46.58972" lon="5.56113">
        <ele>592.79998779297</ele>
        <time>2021-03-06T13:30:51.000Z</time>
      </trkpt>
      <trkpt lat="46.58972" lon="5.56117">
        <ele>593</ele>
        <time>2021-03-06T13:30:52.000Z</time>
      </trkpt>
      <trkpt lat="46.58971" lon="5.56119">
        <ele>593.40002441406</ele>
        <time>2021-03-06T13:30:54.000Z</time>
      </trkpt>
      <trkpt lat="46.58968" lon="5.5612">
        <ele>593.40002441406</ele>
        <time>2021-03-06T13:30:55.000Z</time>
      </trkpt>
      <trkpt lat="46.58965" lon="5.56121">
        <ele>594.20001220703</ele>
        <time>2021-03-06T13:30:56.000Z</time>
      </trkpt>
      <trkpt lat="46.58959" lon="5.56121">
        <ele>595.20001220703</ele>
        <time>2021-03-06T13:30:58.000Z</time>
      </trkpt>
      <trkpt lat="46.58956" lon="5.56121">
        <ele>595.59997558594</ele>
        <time>2021-03-06T13:30:59.000Z</time>
      </trkpt>
      <trkpt lat="46.58945" lon="5.56122">
        <ele>596.40002441406</ele>
        <time>2021-03-06T13:31:03.000Z</time>
      </trkpt>
      <trkpt lat="46.58942" lon="5.56122">
        <ele>596.79998779297</ele>
        <time>2021-03-06T13:31:04.000Z</time>
      </trkpt>
      <trkpt lat="46.58934" lon="5.56123">
        <ele>597.79998779297</ele>
        <time>2021-03-06T13:31:08.000Z</time>
      </trkpt>
      <trkpt lat="46.58931" lon="5.56123">
        <ele>598</ele>
        <time>2021-03-06T13:31:09.000Z</time>
      </trkpt>
      <trkpt lat="46.58922" lon="5.56124">
        <ele>599</ele>
        <time>2021-03-06T13:31:13.000Z</time>
      </trkpt>
      <trkpt lat="46.5892" lon="5.56124">
        <ele>599.20001220703</ele>
        <time>2021-03-06T13:31:14.000Z</time>
      </trkpt>
      <trkpt lat="46.58904" lon="5.56123">
        <ele>600.40002441406</ele>
        <time>2021-03-06T13:31:19.000Z</time>
      </trkpt>
      <trkpt lat="46.58897" lon="5.56124">
        <ele>600.79998779297</ele>
        <time>2021-03-06T13:31:21.000Z</time>
      </trkpt>
      <trkpt lat="46.58881" lon="5.56124">
        <ele>601.59997558594</ele>
        <time>2021-03-06T13:31:26.000Z</time>
      </trkpt>
      <trkpt lat="46.58877" lon="5.56124">
        <ele>601.79998779297</ele>
        <time>2021-03-06T13:31:27.000Z</time>
      </trkpt>
      <trkpt lat="46.58862" lon="5.56127">
        <ele>602.79998779297</ele>
        <time>2021-03-06T13:31:31.000Z</time>
      </trkpt>
      <trkpt lat="46.58857" lon="5.56128">
        <ele>602.79998779297</ele>
        <time>2021-03-06T13:31:32.000Z</time>
      </trkpt>
      <trkpt lat="46.58845" lon="5.56129">
        <ele>603.79998779297</ele>
        <time>2021-03-06T13:31:36.000Z</time>
      </trkpt>
      <trkpt lat="46.58841" lon="5.5613">
        <ele>604</ele>
        <time>2021-03-06T13:31:37.000Z</time>
      </trkpt>
      <trkpt lat="46.58826" lon="5.56132">
        <ele>604.79998779297</ele>
        <time>2021-03-06T13:31:41.000Z</time>
      </trkpt>
      <trkpt lat="46.58814" lon="5.56135">
        <ele>605.79998779297</ele>
        <time>2021-03-06T13:31:45.000Z</time>
      </trkpt>
      <trkpt lat="46.5881" lon="5.56138">
        <ele>605.79998779297</ele>
        <time>2021-03-06T13:31:46.000Z</time>
      </trkpt>
      <trkpt lat="46.58795" lon="5.56154">
        <ele>607</ele>
        <time>2021-03-06T13:31:52.000Z</time>
      </trkpt>
      <trkpt lat="46.58786" lon="5.56181">
        <ele>607.40002441406</ele>
        <time>2021-03-06T13:31:57.000Z</time>
      </trkpt>
      <trkpt lat="46.5877" lon="5.56206">
        <ele>608</ele>
        <time>2021-03-06T13:32:02.000Z</time>
      </trkpt>
      <trkpt lat="46.58765" lon="5.5621">
        <ele>608</ele>
        <time>2021-03-06T13:32:03.000Z</time>
      </trkpt>
      <trkpt lat="46.58751" lon="5.56229">
        <ele>608</ele>
        <time>2021-03-06T13:32:06.000Z</time>
      </trkpt>
      <trkpt lat="46.58742" lon="5.56244">
        <ele>607</ele>
        <time>2021-03-06T13:32:08.000Z</time>
      </trkpt>
      <trkpt lat="46.58724" lon="5.56276">
        <ele>605.79998779297</ele>
        <time>2021-03-06T13:32:12.000Z</time>
      </trkpt>
      <trkpt lat="46.58718" lon="5.56284">
        <ele>605.59997558594</ele>
        <time>2021-03-06T13:32:13.000Z</time>
      </trkpt>
      <trkpt lat="46.58712" lon="5.5629">
        <ele>605.20001220703</ele>
        <time>2021-03-06T13:32:14.000Z</time>
      </trkpt>
      <trkpt lat="46.58705" lon="5.56295">
        <ele>604.79998779297</ele>
        <time>2021-03-06T13:32:15.000Z</time>
      </trkpt>
      <trkpt lat="46.58698" lon="5.56299">
        <ele>604.20001220703</ele>
        <time>2021-03-06T13:32:16.000Z</time>
      </trkpt>
      <trkpt lat="46.58691" lon="5.56299">
        <ele>603.79998779297</ele>
        <time>2021-03-06T13:32:17.000Z</time>
      </trkpt>
      <trkpt lat="46.58683" lon="5.56298">
        <ele>603.79998779297</ele>
        <time>2021-03-06T13:32:18.000Z</time>
      </trkpt>
      <trkpt lat="46.58674" lon="5.56295">
        <ele>603</ele>
        <time>2021-03-06T13:32:19.000Z</time>
      </trkpt>
      <trkpt lat="46.58665" lon="5.56292">
        <ele>602.79998779297</ele>
        <time>2021-03-06T13:32:20.000Z</time>
      </trkpt>
      <trkpt lat="46.58656" lon="5.5629">
        <ele>602.20001220703</ele>
        <time>2021-03-06T13:32:21.000Z</time>
      </trkpt>
      <trkpt lat="46.58646" lon="5.56286">
        <ele>601.40002441406</ele>
        <time>2021-03-06T13:32:22.000Z</time>
      </trkpt>
      <trkpt lat="46.58626" lon="5.56279">
        <ele>599.59997558594</ele>
        <time>2021-03-06T13:32:24.000Z</time>
      </trkpt>
      <trkpt lat="46.58604" lon="5.56272">
        <ele>598.40002441406</ele>
        <time>2021-03-06T13:32:26.000Z</time>
      </trkpt>
      <trkpt lat="46.58594" lon="5.56267">
        <ele>598.20001220703</ele>
        <time>2021-03-06T13:32:27.000Z</time>
      </trkpt>
      <trkpt lat="46.58586" lon="5.56262">
        <ele>597</ele>
        <time>2021-03-06T13:32:28.000Z</time>
      </trkpt>
      <trkpt lat="46.58572" lon="5.56255">
        <ele>595.40002441406</ele>
        <time>2021-03-06T13:32:30.000Z</time>
      </trkpt>
      <trkpt lat="46.58559" lon="5.56261">
        <ele>594.20001220703</ele>
        <time>2021-03-06T13:32:32.000Z</time>
      </trkpt>
      <trkpt lat="46.58556" lon="5.56269">
        <ele>593.79998779297</ele>
        <time>2021-03-06T13:32:33.000Z</time>
      </trkpt>
      <trkpt lat="46.58558" lon="5.56283">
        <ele>593.20001220703</ele>
        <time>2021-03-06T13:32:35.000Z</time>
      </trkpt>
      <trkpt lat="46.58563" lon="5.56286">
        <ele>593</ele>
        <time>2021-03-06T13:32:36.000Z</time>
      </trkpt>
      <trkpt lat="46.58569" lon="5.56287">
        <ele>592.20001220703</ele>
        <time>2021-03-06T13:32:37.000Z</time>
      </trkpt>
      <trkpt lat="46.58576" lon="5.56289">
        <ele>592</ele>
        <time>2021-03-06T13:32:38.000Z</time>
      </trkpt>
      <trkpt lat="46.58584" lon="5.56294">
        <ele>591.59997558594</ele>
        <time>2021-03-06T13:32:39.000Z</time>
      </trkpt>
      <trkpt lat="46.58591" lon="5.56302">
        <ele>590.59997558594</ele>
        <time>2021-03-06T13:32:40.000Z</time>
      </trkpt>
      <trkpt lat="46.58602" lon="5.56322">
        <ele>589.20001220703</ele>
        <time>2021-03-06T13:32:42.000Z</time>
      </trkpt>
      <trkpt lat="46.58613" lon="5.56342">
        <ele>587.79998779297</ele>
        <time>2021-03-06T13:32:44.000Z</time>
      </trkpt>
      <trkpt lat="46.58626" lon="5.56363">
        <ele>586.59997558594</ele>
        <time>2021-03-06T13:32:46.000Z</time>
      </trkpt>
      <trkpt lat="46.58642" lon="5.56379">
        <ele>585.40002441406</ele>
        <time>2021-03-06T13:32:48.000Z</time>
      </trkpt>
      <trkpt lat="46.58651" lon="5.56384">
        <ele>584.40002441406</ele>
        <time>2021-03-06T13:32:49.000Z</time>
      </trkpt>
      <trkpt lat="46.58661" lon="5.56389">
        <ele>583.79998779297</ele>
        <time>2021-03-06T13:32:50.000Z</time>
      </trkpt>
      <trkpt lat="46.58672" lon="5.56393">
        <ele>582.79998779297</ele>
        <time>2021-03-06T13:32:51.000Z</time>
      </trkpt>
      <trkpt lat="46.58682" lon="5.56396">
        <ele>582.59997558594</ele>
        <time>2021-03-06T13:32:52.000Z</time>
      </trkpt>
      <trkpt lat="46.58692" lon="5.56398">
        <ele>582</ele>
        <time>2021-03-06T13:32:53.000Z</time>
      </trkpt>
      <trkpt lat="46.58702" lon="5.56398">
        <ele>581.40002441406</ele>
        <time>2021-03-06T13:32:54.000Z</time>
      </trkpt>
      <trkpt lat="46.58712" lon="5.56398">
        <ele>580.40002441406</ele>
        <time>2021-03-06T13:32:55.000Z</time>
      </trkpt>
      <trkpt lat="46.5872" lon="5.564">
        <ele>579.40002441406</ele>
        <time>2021-03-06T13:32:56.000Z</time>
      </trkpt>
      <trkpt lat="46.58728" lon="5.56404">
        <ele>579.20001220703</ele>
        <time>2021-03-06T13:32:57.000Z</time>
      </trkpt>
      <trkpt lat="46.58736" lon="5.5641">
        <ele>578.59997558594</ele>
        <time>2021-03-06T13:32:58.000Z</time>
      </trkpt>
      <trkpt lat="46.58742" lon="5.56419">
        <ele>578.40002441406</ele>
        <time>2021-03-06T13:32:59.000Z</time>
      </trkpt>
      <trkpt lat="46.58747" lon="5.56431">
        <ele>577.59997558594</ele>
        <time>2021-03-06T13:33:00.000Z</time>
      </trkpt>
      <trkpt lat="46.5876" lon="5.56451">
        <ele>576.79998779297</ele>
        <time>2021-03-06T13:33:02.000Z</time>
      </trkpt>
      <trkpt lat="46.58768" lon="5.56461">
        <ele>576</ele>
        <time>2021-03-06T13:33:03.000Z</time>
      </trkpt>
      <trkpt lat="46.58784" lon="5.56477">
        <ele>574.79998779297</ele>
        <time>2021-03-06T13:33:05.000Z</time>
      </trkpt>
      <trkpt lat="46.58801" lon="5.56497">
        <ele>573.79998779297</ele>
        <time>2021-03-06T13:33:07.000Z</time>
      </trkpt>
      <trkpt lat="46.58809" lon="5.56509">
        <ele>573.20001220703</ele>
        <time>2021-03-06T13:33:08.000Z</time>
      </trkpt>
      <trkpt lat="46.58817" lon="5.56521">
        <ele>572.40002441406</ele>
        <time>2021-03-06T13:33:09.000Z</time>
      </trkpt>
      <trkpt lat="46.58831" lon="5.56547">
        <ele>571</ele>
        <time>2021-03-06T13:33:11.000Z</time>
      </trkpt>
      <trkpt lat="46.58837" lon="5.56559">
        <ele>569.79998779297</ele>
        <time>2021-03-06T13:33:12.000Z</time>
      </trkpt>
      <trkpt lat="46.58842" lon="5.56573">
        <ele>568.79998779297</ele>
        <time>2021-03-06T13:33:13.000Z</time>
      </trkpt>
      <trkpt lat="46.58845" lon="5.56586">
        <ele>567.40002441406</ele>
        <time>2021-03-06T13:33:14.000Z</time>
      </trkpt>
      <trkpt lat="46.58849" lon="5.56608">
        <ele>566.40002441406</ele>
        <time>2021-03-06T13:33:16.000Z</time>
      </trkpt>
      <trkpt lat="46.58846" lon="5.56622">
        <ele>565.59997558594</ele>
        <time>2021-03-06T13:33:18.000Z</time>
      </trkpt>
      <trkpt lat="46.58837" lon="5.56629">
        <ele>565.40002441406</ele>
        <time>2021-03-06T13:33:20.000Z</time>
      </trkpt>
      <trkpt lat="46.58832" lon="5.56629">
        <ele>565.20001220703</ele>
        <time>2021-03-06T13:33:21.000Z</time>
      </trkpt>
      <trkpt lat="46.58825" lon="5.56627">
        <ele>565.20001220703</ele>
        <time>2021-03-06T13:33:22.000Z</time>
      </trkpt>
      <trkpt lat="46.5881" lon="5.56621">
        <ele>565</ele>
        <time>2021-03-06T13:33:24.000Z</time>
      </trkpt>
      <trkpt lat="46.58777" lon="5.56607">
        <ele>564.20001220703</ele>
        <time>2021-03-06T13:33:28.000Z</time>
      </trkpt>
      <trkpt lat="46.58768" lon="5.56604">
        <ele>564.20001220703</ele>
        <time>2021-03-06T13:33:29.000Z</time>
      </trkpt>
      <trkpt lat="46.58724" lon="5.56586">
        <ele>563.20001220703</ele>
        <time>2021-03-06T13:33:34.000Z</time>
      </trkpt>
      <trkpt lat="46.58706" lon="5.5658">
        <ele>562.79998779297</ele>
        <time>2021-03-06T13:33:36.000Z</time>
      </trkpt>
      <trkpt lat="46.58653" lon="5.56559">
        <ele>562.20001220703</ele>
        <time>2021-03-06T13:33:42.000Z</time>
      </trkpt>
      <trkpt lat="46.58636" lon="5.56553">
        <ele>562</ele>
        <time>2021-03-06T13:33:44.000Z</time>
      </trkpt>
      <trkpt lat="46.58627" lon="5.56549">
        <ele>562</ele>
        <time>2021-03-06T13:33:45.000Z</time>
      </trkpt>
      <trkpt lat="46.58567" lon="5.56525">
        <ele>561.40002441406</ele>
        <time>2021-03-06T13:33:52.000Z</time>
      </trkpt>
      <trkpt lat="46.58558" lon="5.56523">
        <ele>561.40002441406</ele>
        <time>2021-03-06T13:33:53.000Z</time>
      </trkpt>
      <trkpt lat="46.58513" lon="5.56516">
        <ele>561</ele>
        <time>2021-03-06T13:33:58.000Z</time>
      </trkpt>
      <trkpt lat="46.58503" lon="5.56516">
        <ele>561</ele>
        <time>2021-03-06T13:33:59.000Z</time>
      </trkpt>
      <trkpt lat="46.58452" lon="5.56515">
        <ele>560</ele>
        <time>2021-03-06T13:34:04.000Z</time>
      </trkpt>
      <trkpt lat="46.5842" lon="5.56515">
        <ele>558.79998779297</ele>
        <time>2021-03-06T13:34:07.000Z</time>
      </trkpt>
      <trkpt lat="46.584" lon="5.56511">
        <ele>557.59997558594</ele>
        <time>2021-03-06T13:34:09.000Z</time>
      </trkpt>
      <trkpt lat="46.58391" lon="5.5651">
        <ele>557.59997558594</ele>
        <time>2021-03-06T13:34:10.000Z</time>
      </trkpt>
      <trkpt lat="46.58346" lon="5.56497">
        <ele>557.20001220703</ele>
        <time>2021-03-06T13:34:15.000Z</time>
      </trkpt>
      <trkpt lat="46.58291" lon="5.56477">
        <ele>557.79998779297</ele>
        <time>2021-03-06T13:34:21.000Z</time>
      </trkpt>
      <trkpt lat="46.58232" lon="5.56464">
        <ele>556.79998779297</ele>
        <time>2021-03-06T13:34:27.000Z</time>
      </trkpt>
      <trkpt lat="46.58223" lon="5.56462">
        <ele>557</ele>
        <time>2021-03-06T13:34:28.000Z</time>
      </trkpt>
      <trkpt lat="46.58213" lon="5.5646">
        <ele>556.79998779297</ele>
        <time>2021-03-06T13:34:29.000Z</time>
      </trkpt>
      <trkpt lat="46.58158" lon="5.56449">
        <ele>556.40002441406</ele>
        <time>2021-03-06T13:34:35.000Z</time>
      </trkpt>
      <trkpt lat="46.58131" lon="5.5644">
        <ele>556.59997558594</ele>
        <time>2021-03-06T13:34:38.000Z</time>
      </trkpt>
      <trkpt lat="46.5808" lon="5.56416">
        <ele>556.79998779297</ele>
        <time>2021-03-06T13:34:44.000Z</time>
      </trkpt>
      <trkpt lat="46.58071" lon="5.56411">
        <ele>556.79998779297</ele>
        <time>2021-03-06T13:34:45.000Z</time>
      </trkpt>
      <trkpt lat="46.58021" lon="5.56386">
        <ele>556.79998779297</ele>
        <time>2021-03-06T13:34:51.000Z</time>
      </trkpt>
      <trkpt lat="46.57963" lon="5.56369">
        <ele>556.79998779297</ele>
        <time>2021-03-06T13:34:58.000Z</time>
      </trkpt>
      <trkpt lat="46.57901" lon="5.56354">
        <ele>557.20001220703</ele>
        <time>2021-03-06T13:35:05.000Z</time>
      </trkpt>
      <trkpt lat="46.57891" lon="5.56352">
        <ele>557.20001220703</ele>
        <time>2021-03-06T13:35:06.000Z</time>
      </trkpt>
      <trkpt lat="46.57844" lon="5.56346">
        <ele>556.59997558594</ele>
        <time>2021-03-06T13:35:11.000Z</time>
      </trkpt>
      <trkpt lat="46.57788" lon="5.56339">
        <ele>556.40002441406</ele>
        <time>2021-03-06T13:35:17.000Z</time>
      </trkpt>
      <trkpt lat="46.57779" lon="5.56336">
        <ele>556.40002441406</ele>
        <time>2021-03-06T13:35:18.000Z</time>
      </trkpt>
      <trkpt lat="46.57738" lon="5.5632">
        <ele>556.79998779297</ele>
        <time>2021-03-06T13:35:23.000Z</time>
      </trkpt>
      <trkpt lat="46.57688" lon="5.56303">
        <ele>556.79998779297</ele>
        <time>2021-03-06T13:35:29.000Z</time>
      </trkpt>
      <trkpt lat="46.5764" lon="5.56287">
        <ele>556</ele>
        <time>2021-03-06T13:35:34.000Z</time>
      </trkpt>
      <trkpt lat="46.57618" lon="5.5628">
        <ele>555.79998779297</ele>
        <time>2021-03-06T13:35:36.000Z</time>
      </trkpt>
      <trkpt lat="46.57589" lon="5.56268">
        <ele>554.79998779297</ele>
        <time>2021-03-06T13:35:39.000Z</time>
      </trkpt>
      <trkpt lat="46.57569" lon="5.5626">
        <ele>554.20001220703</ele>
        <time>2021-03-06T13:35:41.000Z</time>
      </trkpt>
      <trkpt lat="46.57549" lon="5.56252">
        <ele>553.79998779297</ele>
        <time>2021-03-06T13:35:43.000Z</time>
      </trkpt>
      <trkpt lat="46.57489" lon="5.5623">
        <ele>552.79998779297</ele>
        <time>2021-03-06T13:35:49.000Z</time>
      </trkpt>
      <trkpt lat="46.57479" lon="5.56227">
        <ele>552.59997558594</ele>
        <time>2021-03-06T13:35:50.000Z</time>
      </trkpt>
      <trkpt lat="46.57449" lon="5.56219">
        <ele>551.40002441406</ele>
        <time>2021-03-06T13:35:53.000Z</time>
      </trkpt>
      <trkpt lat="46.57419" lon="5.56215">
        <ele>551</ele>
        <time>2021-03-06T13:35:56.000Z</time>
      </trkpt>
      <trkpt lat="46.57357" lon="5.56209">
        <ele>551.79998779297</ele>
        <time>2021-03-06T13:36:03.000Z</time>
      </trkpt>
      <trkpt lat="46.57306" lon="5.56203">
        <ele>552.40002441406</ele>
        <time>2021-03-06T13:36:09.000Z</time>
      </trkpt>
      <trkpt lat="46.57288" lon="5.56202">
        <ele>552.59997558594</ele>
        <time>2021-03-06T13:36:11.000Z</time>
      </trkpt>
      <trkpt lat="46.57234" lon="5.56196">
        <ele>552.40002441406</ele>
        <time>2021-03-06T13:36:17.000Z</time>
      </trkpt>
      <trkpt lat="46.57215" lon="5.56195">
        <ele>552.40002441406</ele>
        <time>2021-03-06T13:36:19.000Z</time>
      </trkpt>
      <trkpt lat="46.5716" lon="5.5619">
        <ele>551.40002441406</ele>
        <time>2021-03-06T13:36:25.000Z</time>
      </trkpt>
      <trkpt lat="46.57151" lon="5.56188">
        <ele>551.40002441406</ele>
        <time>2021-03-06T13:36:26.000Z</time>
      </trkpt>
      <trkpt lat="46.57142" lon="5.56185">
        <ele>551.40002441406</ele>
        <time>2021-03-06T13:36:27.000Z</time>
      </trkpt>
      <trkpt lat="46.57089" lon="5.56162">
        <ele>551</ele>
        <time>2021-03-06T13:36:33.000Z</time>
      </trkpt>
      <trkpt lat="46.57035" lon="5.56137">
        <ele>550.20001220703</ele>
        <time>2021-03-06T13:36:39.000Z</time>
      </trkpt>
      <trkpt lat="46.57008" lon="5.56127">
        <ele>549.20001220703</ele>
        <time>2021-03-06T13:36:42.000Z</time>
      </trkpt>
      <trkpt lat="46.56953" lon="5.5611">
        <ele>548.40002441406</ele>
        <time>2021-03-06T13:36:48.000Z</time>
      </trkpt>
      <trkpt lat="46.56933" lon="5.56104">
        <ele>548.20001220703</ele>
        <time>2021-03-06T13:36:50.000Z</time>
      </trkpt>
      <trkpt lat="46.56923" lon="5.56101">
        <ele>548</ele>
        <time>2021-03-06T13:36:51.000Z</time>
      </trkpt>
      <trkpt lat="46.56883" lon="5.56082">
        <ele>546.79998779297</ele>
        <time>2021-03-06T13:36:55.000Z</time>
      </trkpt>
      <trkpt lat="46.56873" lon="5.56075">
        <ele>546.59997558594</ele>
        <time>2021-03-06T13:36:56.000Z</time>
      </trkpt>
      <trkpt lat="46.56855" lon="5.56058">
        <ele>545.40002441406</ele>
        <time>2021-03-06T13:36:58.000Z</time>
      </trkpt>
      <trkpt lat="46.56836" lon="5.56038">
        <ele>544.59997558594</ele>
        <time>2021-03-06T13:37:00.000Z</time>
      </trkpt>
      <trkpt lat="46.56827" lon="5.56028">
        <ele>544.20001220703</ele>
        <time>2021-03-06T13:37:01.000Z</time>
      </trkpt>
      <trkpt lat="46.56808" lon="5.56009">
        <ele>542.79998779297</ele>
        <time>2021-03-06T13:37:03.000Z</time>
      </trkpt>
      <trkpt lat="46.5679" lon="5.55995">
        <ele>541.40002441406</ele>
        <time>2021-03-06T13:37:05.000Z</time>
      </trkpt>
      <trkpt lat="46.56745" lon="5.55977">
        <ele>540.40002441406</ele>
        <time>2021-03-06T13:37:09.000Z</time>
      </trkpt>
      <trkpt lat="46.56734" lon="5.55973">
        <ele>540.40002441406</ele>
        <time>2021-03-06T13:37:10.000Z</time>
      </trkpt>
      <trkpt lat="46.56681" lon="5.55955">
        <ele>539.59997558594</ele>
        <time>2021-03-06T13:37:15.000Z</time>
      </trkpt>
      <trkpt lat="46.56648" lon="5.55944">
        <ele>539.20001220703</ele>
        <time>2021-03-06T13:37:18.000Z</time>
      </trkpt>
      <trkpt lat="46.56625" lon="5.55937">
        <ele>539</ele>
        <time>2021-03-06T13:37:20.000Z</time>
      </trkpt>
      <trkpt lat="46.56567" lon="5.55919">
        <ele>537.79998779297</ele>
        <time>2021-03-06T13:37:25.000Z</time>
      </trkpt>
      <trkpt lat="46.56547" lon="5.55912">
        <ele>536.79998779297</ele>
        <time>2021-03-06T13:37:27.000Z</time>
      </trkpt>
      <trkpt lat="46.56511" lon="5.55899">
        <ele>535.79998779297</ele>
        <time>2021-03-06T13:37:30.000Z</time>
      </trkpt>
      <trkpt lat="46.56468" lon="5.55888">
        <ele>534.59997558594</ele>
        <time>2021-03-06T13:37:34.000Z</time>
      </trkpt>
      <trkpt lat="46.56428" lon="5.55894">
        <ele>533</ele>
        <time>2021-03-06T13:37:37.000Z</time>
      </trkpt>
      <trkpt lat="46.56392" lon="5.55903">
        <ele>531.79998779297</ele>
        <time>2021-03-06T13:37:40.000Z</time>
      </trkpt>
      <trkpt lat="46.5637" lon="5.55904">
        <ele>530.79998779297</ele>
        <time>2021-03-06T13:37:42.000Z</time>
      </trkpt>
      <trkpt lat="46.56346" lon="5.55902">
        <ele>529.20001220703</ele>
        <time>2021-03-06T13:37:44.000Z</time>
      </trkpt>
      <trkpt lat="46.56335" lon="5.559">
        <ele>528.59997558594</ele>
        <time>2021-03-06T13:37:45.000Z</time>
      </trkpt>
      <trkpt lat="46.56324" lon="5.55895">
        <ele>527.79998779297</ele>
        <time>2021-03-06T13:37:46.000Z</time>
      </trkpt>
      <trkpt lat="46.56314" lon="5.55888">
        <ele>527.59997558594</ele>
        <time>2021-03-06T13:37:47.000Z</time>
      </trkpt>
      <trkpt lat="46.56295" lon="5.55867">
        <ele>527.20001220703</ele>
        <time>2021-03-06T13:37:49.000Z</time>
      </trkpt>
      <trkpt lat="46.56273" lon="5.55837">
        <ele>526.79998779297</ele>
        <time>2021-03-06T13:37:52.000Z</time>
      </trkpt>
      <trkpt lat="46.56253" lon="5.55817">
        <ele>526.79998779297</ele>
        <time>2021-03-06T13:37:54.000Z</time>
      </trkpt>
      <trkpt lat="46.562" lon="5.55767">
        <ele>525.59997558594</ele>
        <time>2021-03-06T13:38:00.000Z</time>
      </trkpt>
      <trkpt lat="46.56182" lon="5.55753">
        <ele>525.20001220703</ele>
        <time>2021-03-06T13:38:02.000Z</time>
      </trkpt>
      <trkpt lat="46.56162" lon="5.55741">
        <ele>524.59997558594</ele>
        <time>2021-03-06T13:38:04.000Z</time>
      </trkpt>
      <trkpt lat="46.56115" lon="5.55716">
        <ele>523.59997558594</ele>
        <time>2021-03-06T13:38:09.000Z</time>
      </trkpt>
      <trkpt lat="46.56106" lon="5.55713">
        <ele>523.59997558594</ele>
        <time>2021-03-06T13:38:10.000Z</time>
      </trkpt>
      <trkpt lat="46.56076" lon="5.55707">
        <ele>523</ele>
        <time>2021-03-06T13:38:13.000Z</time>
      </trkpt>
      <trkpt lat="46.56049" lon="5.55707">
        <ele>522.40002441406</ele>
        <time>2021-03-06T13:38:16.000Z</time>
      </trkpt>
      <trkpt lat="46.56008" lon="5.55708">
        <ele>521.59997558594</ele>
        <time>2021-03-06T13:38:20.000Z</time>
      </trkpt>
      <trkpt lat="46.5599" lon="5.55708">
        <ele>521.40002441406</ele>
        <time>2021-03-06T13:38:22.000Z</time>
      </trkpt>
      <trkpt lat="46.55964" lon="5.55707">
        <ele>521.20001220703</ele>
        <time>2021-03-06T13:38:25.000Z</time>
      </trkpt>
      <trkpt lat="46.55956" lon="5.55705">
        <ele>521.20001220703</ele>
        <time>2021-03-06T13:38:26.000Z</time>
      </trkpt>
      <trkpt lat="46.55941" lon="5.55695">
        <ele>521</ele>
        <time>2021-03-06T13:38:28.000Z</time>
      </trkpt>
      <trkpt lat="46.55921" lon="5.55674">
        <ele>520.59997558594</ele>
        <time>2021-03-06T13:38:31.000Z</time>
      </trkpt>
      <trkpt lat="46.55897" lon="5.55654">
        <ele>519.79998779297</ele>
        <time>2021-03-06T13:38:34.000Z</time>
      </trkpt>
      <trkpt lat="46.5588" lon="5.5564">
        <ele>519.20001220703</ele>
        <time>2021-03-06T13:38:36.000Z</time>
      </trkpt>
      <trkpt lat="46.55864" lon="5.55622">
        <ele>518.20001220703</ele>
        <time>2021-03-06T13:38:38.000Z</time>
      </trkpt>
      <trkpt lat="46.55856" lon="5.55614">
        <ele>517.79998779297</ele>
        <time>2021-03-06T13:38:39.000Z</time>
      </trkpt>
      <trkpt lat="46.55849" lon="5.55604">
        <ele>517.59997558594</ele>
        <time>2021-03-06T13:38:40.000Z</time>
      </trkpt>
      <trkpt lat="46.55838" lon="5.5558">
        <ele>517</ele>
        <time>2021-03-06T13:38:42.000Z</time>
      </trkpt>
      <trkpt lat="46.55834" lon="5.55568">
        <ele>516.59997558594</ele>
        <time>2021-03-06T13:38:43.000Z</time>
      </trkpt>
      <trkpt lat="46.55821" lon="5.5552">
        <ele>515.59997558594</ele>
        <time>2021-03-06T13:38:47.000Z</time>
      </trkpt>
      <trkpt lat="46.55806" lon="5.55465">
        <ele>516.40002441406</ele>
        <time>2021-03-06T13:38:52.000Z</time>
      </trkpt>
      <trkpt lat="46.55798" lon="5.55439">
        <ele>517.40002441406</ele>
        <time>2021-03-06T13:38:55.000Z</time>
      </trkpt>
      <trkpt lat="46.55789" lon="5.55423">
        <ele>517.79998779297</ele>
        <time>2021-03-06T13:38:57.000Z</time>
      </trkpt>
      <trkpt lat="46.55776" lon="5.55411">
        <ele>518.79998779297</ele>
        <time>2021-03-06T13:39:00.000Z</time>
      </trkpt>
      <trkpt lat="46.55771" lon="5.55409">
        <ele>519.20001220703</ele>
        <time>2021-03-06T13:39:01.000Z</time>
      </trkpt>
      <trkpt lat="46.55756" lon="5.55406">
        <ele>520.40002441406</ele>
        <time>2021-03-06T13:39:04.000Z</time>
      </trkpt>
      <trkpt lat="46.55747" lon="5.55403">
        <ele>521.79998779297</ele>
        <time>2021-03-06T13:39:06.000Z</time>
      </trkpt>
      <trkpt lat="46.55737" lon="5.55401">
        <ele>522.40002441406</ele>
        <time>2021-03-06T13:39:08.000Z</time>
      </trkpt>
      <trkpt lat="46.55729" lon="5.55399">
        <ele>522.79998779297</ele>
        <time>2021-03-06T13:39:10.000Z</time>
      </trkpt>
      <trkpt lat="46.55725" lon="5.55397">
        <ele>523.20001220703</ele>
        <time>2021-03-06T13:39:11.000Z</time>
      </trkpt>
      <trkpt lat="46.55716" lon="5.5539">
        <ele>523.79998779297</ele>
        <time>2021-03-06T13:39:13.000Z</time>
      </trkpt>
      <trkpt lat="46.55711" lon="5.55382">
        <ele>524.40002441406</ele>
        <time>2021-03-06T13:39:15.000Z</time>
      </trkpt>
      <trkpt lat="46.55709" lon="5.55377">
        <ele>524.79998779297</ele>
        <time>2021-03-06T13:39:16.000Z</time>
      </trkpt>
      <trkpt lat="46.55708" lon="5.55371">
        <ele>525.40002441406</ele>
        <time>2021-03-06T13:39:17.000Z</time>
      </trkpt>
      <trkpt lat="46.55709" lon="5.55358">
        <ele>526.40002441406</ele>
        <time>2021-03-06T13:39:19.000Z</time>
      </trkpt>
      <trkpt lat="46.55711" lon="5.55335">
        <ele>527.40002441406</ele>
        <time>2021-03-06T13:39:22.000Z</time>
      </trkpt>
      <trkpt lat="46.55711" lon="5.55327">
        <ele>527.40002441406</ele>
        <time>2021-03-06T13:39:23.000Z</time>
      </trkpt>
      <trkpt lat="46.55711" lon="5.55321">
        <ele>527.59997558594</ele>
        <time>2021-03-06T13:39:24.000Z</time>
      </trkpt>
      <trkpt lat="46.55711" lon="5.55313">
        <ele>527.59997558594</ele>
        <time>2021-03-06T13:39:25.000Z</time>
      </trkpt>
      <trkpt lat="46.55707" lon="5.55297">
        <ele>527.79998779297</ele>
        <time>2021-03-06T13:39:27.000Z</time>
      </trkpt>
      <trkpt lat="46.55684" lon="5.55233">
        <ele>528.40002441406</ele>
        <time>2021-03-06T13:39:36.000Z</time>
      </trkpt>
      <trkpt lat="46.55675" lon="5.55206">
        <ele>528.59997558594</ele>
        <time>2021-03-06T13:39:40.000Z</time>
      </trkpt>
      <trkpt lat="46.55662" lon="5.5517">
        <ele>529.40002441406</ele>
        <time>2021-03-06T13:39:45.000Z</time>
      </trkpt>
      <trkpt lat="46.55653" lon="5.55152">
        <ele>530</ele>
        <time>2021-03-06T13:39:48.000Z</time>
      </trkpt>
      <trkpt lat="46.55647" lon="5.55141">
        <ele>530.59997558594</ele>
        <time>2021-03-06T13:39:50.000Z</time>
      </trkpt>
      <trkpt lat="46.55639" lon="5.55131">
        <ele>530.79998779297</ele>
        <time>2021-03-06T13:39:52.000Z</time>
      </trkpt>
      <trkpt lat="46.55634" lon="5.55126">
        <ele>531</ele>
        <time>2021-03-06T13:39:53.000Z</time>
      </trkpt>
      <trkpt lat="46.55599" lon="5.55098">
        <ele>532</ele>
        <time>2021-03-06T13:40:00.000Z</time>
      </trkpt>
      <trkpt lat="46.55588" lon="5.55091">
        <ele>532</ele>
        <time>2021-03-06T13:40:02.000Z</time>
      </trkpt>
      <trkpt lat="46.55554" lon="5.55067">
        <ele>531.79998779297</ele>
        <time>2021-03-06T13:40:08.000Z</time>
      </trkpt>
      <trkpt lat="46.55501" lon="5.55029">
        <ele>532</ele>
        <time>2021-03-06T13:40:17.000Z</time>
      </trkpt>
      <trkpt lat="46.55458" lon="5.54997">
        <ele>533.20001220703</ele>
        <time>2021-03-06T13:40:25.000Z</time>
      </trkpt>
      <trkpt lat="46.55453" lon="5.54993">
        <ele>533.20001220703</ele>
        <time>2021-03-06T13:40:26.000Z</time>
      </trkpt>
      <trkpt lat="46.55428" lon="5.54975">
        <ele>534.40002441406</ele>
        <time>2021-03-06T13:40:31.000Z</time>
      </trkpt>
      <trkpt lat="46.55407" lon="5.5496">
        <ele>535.20001220703</ele>
        <time>2021-03-06T13:40:35.000Z</time>
      </trkpt>
      <trkpt lat="46.55379" lon="5.54938">
        <ele>535.59997558594</ele>
        <time>2021-03-06T13:40:40.000Z</time>
      </trkpt>
      <trkpt lat="46.55368" lon="5.54929">
        <ele>535.59997558594</ele>
        <time>2021-03-06T13:40:42.000Z</time>
      </trkpt>
      <trkpt lat="46.55318" lon="5.54898">
        <ele>536.20001220703</ele>
        <time>2021-03-06T13:40:51.000Z</time>
      </trkpt>
      <trkpt lat="46.55307" lon="5.54895">
        <ele>536.79998779297</ele>
        <time>2021-03-06T13:40:53.000Z</time>
      </trkpt>
      <trkpt lat="46.55281" lon="5.54887">
        <ele>537.79998779297</ele>
        <time>2021-03-06T13:40:58.000Z</time>
      </trkpt>
      <trkpt lat="46.55275" lon="5.54885">
        <ele>537.79998779297</ele>
        <time>2021-03-06T13:40:59.000Z</time>
      </trkpt>
      <trkpt lat="46.55265" lon="5.54879">
        <ele>538.20001220703</ele>
        <time>2021-03-06T13:41:01.000Z</time>
      </trkpt>
      <trkpt lat="46.55255" lon="5.54869">
        <ele>538.40002441406</ele>
        <time>2021-03-06T13:41:03.000Z</time>
      </trkpt>
      <trkpt lat="46.55236" lon="5.54836">
        <ele>538.79998779297</ele>
        <time>2021-03-06T13:41:08.000Z</time>
      </trkpt>
      <trkpt lat="46.55233" lon="5.5483">
        <ele>538.79998779297</ele>
        <time>2021-03-06T13:41:09.000Z</time>
      </trkpt>
      <trkpt lat="46.55225" lon="5.54819">
        <ele>539</ele>
        <time>2021-03-06T13:41:11.000Z</time>
      </trkpt>
      <trkpt lat="46.55216" lon="5.5481">
        <ele>539.20001220703</ele>
        <time>2021-03-06T13:41:13.000Z</time>
      </trkpt>
      <trkpt lat="46.55193" lon="5.54797">
        <ele>540</ele>
        <time>2021-03-06T13:41:17.000Z</time>
      </trkpt>
      <trkpt lat="46.55187" lon="5.54794">
        <ele>540</ele>
        <time>2021-03-06T13:41:18.000Z</time>
      </trkpt>
      <trkpt lat="46.55168" lon="5.5478">
        <ele>540.40002441406</ele>
        <time>2021-03-06T13:41:21.000Z</time>
      </trkpt>
      <trkpt lat="46.55163" lon="5.54773">
        <ele>540.40002441406</ele>
        <time>2021-03-06T13:41:22.000Z</time>
      </trkpt>
      <trkpt lat="46.55159" lon="5.54765">
        <ele>540.40002441406</ele>
        <time>2021-03-06T13:41:23.000Z</time>
      </trkpt>
      <trkpt lat="46.55145" lon="5.54733">
        <ele>540</ele>
        <time>2021-03-06T13:41:27.000Z</time>
      </trkpt>
      <trkpt lat="46.55126" lon="5.54699">
        <ele>540.40002441406</ele>
        <time>2021-03-06T13:41:32.000Z</time>
      </trkpt>
      <trkpt lat="46.55115" lon="5.54686">
        <ele>541.20001220703</ele>
        <time>2021-03-06T13:41:34.000Z</time>
      </trkpt>
      <trkpt lat="46.55097" lon="5.54666">
        <ele>541.59997558594</ele>
        <time>2021-03-06T13:41:37.000Z</time>
      </trkpt>
      <trkpt lat="46.55089" lon="5.5466">
        <ele>541.59997558594</ele>
        <time>2021-03-06T13:41:38.000Z</time>
      </trkpt>
      <trkpt lat="46.55072" lon="5.54652">
        <ele>541.40002441406</ele>
        <time>2021-03-06T13:41:40.000Z</time>
      </trkpt>
      <trkpt lat="46.55044" lon="5.54644">
        <ele>540</ele>
        <time>2021-03-06T13:41:43.000Z</time>
      </trkpt>
      <trkpt lat="46.55035" lon="5.54639">
        <ele>539.40002441406</ele>
        <time>2021-03-06T13:41:44.000Z</time>
      </trkpt>
      <trkpt lat="46.55027" lon="5.54632">
        <ele>539.20001220703</ele>
        <time>2021-03-06T13:41:45.000Z</time>
      </trkpt>
      <trkpt lat="46.5502" lon="5.54624">
        <ele>538.59997558594</ele>
        <time>2021-03-06T13:41:46.000Z</time>
      </trkpt>
      <trkpt lat="46.55014" lon="5.54615">
        <ele>538</ele>
        <time>2021-03-06T13:41:47.000Z</time>
      </trkpt>
      <trkpt lat="46.54988" lon="5.54573">
        <ele>537.40002441406</ele>
        <time>2021-03-06T13:41:52.000Z</time>
      </trkpt>
      <trkpt lat="46.54977" lon="5.54558">
        <ele>537.59997558594</ele>
        <time>2021-03-06T13:41:54.000Z</time>
      </trkpt>
      <trkpt lat="46.54964" lon="5.54548">
        <ele>538.20001220703</ele>
        <time>2021-03-06T13:41:56.000Z</time>
      </trkpt>
      <trkpt lat="46.54949" lon="5.5454">
        <ele>538.79998779297</ele>
        <time>2021-03-06T13:41:58.000Z</time>
      </trkpt>
      <trkpt lat="46.54924" lon="5.54528">
        <ele>539.59997558594</ele>
        <time>2021-03-06T13:42:01.000Z</time>
      </trkpt>
      <trkpt lat="46.54865" lon="5.54499">
        <ele>538.20001220703</ele>
        <time>2021-03-06T13:42:08.000Z</time>
      </trkpt>
      <trkpt lat="46.54846" lon="5.54492">
        <ele>537.59997558594</ele>
        <time>2021-03-06T13:42:10.000Z</time>
      </trkpt>
      <trkpt lat="46.54827" lon="5.54488">
        <ele>536.40002441406</ele>
        <time>2021-03-06T13:42:12.000Z</time>
      </trkpt>
      <trkpt lat="46.54781" lon="5.54485">
        <ele>535.20001220703</ele>
        <time>2021-03-06T13:42:17.000Z</time>
      </trkpt>
      <trkpt lat="46.54773" lon="5.54482">
        <ele>535</ele>
        <time>2021-03-06T13:42:18.000Z</time>
      </trkpt>
      <trkpt lat="46.54766" lon="5.54477">
        <ele>535.20001220703</ele>
        <time>2021-03-06T13:42:19.000Z</time>
      </trkpt>
      <trkpt lat="46.5476" lon="5.54472">
        <ele>535.20001220703</ele>
        <time>2021-03-06T13:42:20.000Z</time>
      </trkpt>
      <trkpt lat="46.54732" lon="5.54446">
        <ele>536.40002441406</ele>
        <time>2021-03-06T13:42:25.000Z</time>
      </trkpt>
      <trkpt lat="46.54714" lon="5.54436">
        <ele>537.59997558594</ele>
        <time>2021-03-06T13:42:28.000Z</time>
      </trkpt>
      <trkpt lat="46.54708" lon="5.54435">
        <ele>537.59997558594</ele>
        <time>2021-03-06T13:42:29.000Z</time>
      </trkpt>
      <trkpt lat="46.54691" lon="5.54432">
        <ele>538.59997558594</ele>
        <time>2021-03-06T13:42:32.000Z</time>
      </trkpt>
      <trkpt lat="46.54672" lon="5.5443">
        <ele>539.20001220703</ele>
        <time>2021-03-06T13:42:35.000Z</time>
      </trkpt>
      <trkpt lat="46.54661" lon="5.54429">
        <ele>539.40002441406</ele>
        <time>2021-03-06T13:42:37.000Z</time>
      </trkpt>
      <trkpt lat="46.54649" lon="5.54424">
        <ele>539.59997558594</ele>
        <time>2021-03-06T13:42:39.000Z</time>
      </trkpt>
      <trkpt lat="46.54643" lon="5.5442">
        <ele>539.79998779297</ele>
        <time>2021-03-06T13:42:40.000Z</time>
      </trkpt>
      <trkpt lat="46.5462" lon="5.54396">
        <ele>539.79998779297</ele>
        <time>2021-03-06T13:42:44.000Z</time>
      </trkpt>
      <trkpt lat="46.54607" lon="5.54382">
        <ele>539.59997558594</ele>
        <time>2021-03-06T13:42:46.000Z</time>
      </trkpt>
      <trkpt lat="46.54601" lon="5.54375">
        <ele>539.59997558594</ele>
        <time>2021-03-06T13:42:47.000Z</time>
      </trkpt>
      <trkpt lat="46.54587" lon="5.54364">
        <ele>539.40002441406</ele>
        <time>2021-03-06T13:42:49.000Z</time>
      </trkpt>
      <trkpt lat="46.54561" lon="5.54359">
        <ele>539</ele>
        <time>2021-03-06T13:42:52.000Z</time>
      </trkpt>
      <trkpt lat="46.54553" lon="5.54358">
        <ele>538.59997558594</ele>
        <time>2021-03-06T13:42:53.000Z</time>
      </trkpt>
      <trkpt lat="46.54519" lon="5.54356">
        <ele>537.59997558594</ele>
        <time>2021-03-06T13:42:57.000Z</time>
      </trkpt>
      <trkpt lat="46.54496" lon="5.5435">
        <ele>537.20001220703</ele>
        <time>2021-03-06T13:43:00.000Z</time>
      </trkpt>
      <trkpt lat="46.54481" lon="5.54342">
        <ele>537.20001220703</ele>
        <time>2021-03-06T13:43:02.000Z</time>
      </trkpt>
      <trkpt lat="46.54465" lon="5.54334">
        <ele>537</ele>
        <time>2021-03-06T13:43:04.000Z</time>
      </trkpt>
      <trkpt lat="46.54442" lon="5.5432">
        <ele>536.40002441406</ele>
        <time>2021-03-06T13:43:07.000Z</time>
      </trkpt>
      <trkpt lat="46.54416" lon="5.54304">
        <ele>536</ele>
        <time>2021-03-06T13:43:10.000Z</time>
      </trkpt>
      <trkpt lat="46.54408" lon="5.54297">
        <ele>535.79998779297</ele>
        <time>2021-03-06T13:43:11.000Z</time>
      </trkpt>
      <trkpt lat="46.54393" lon="5.54282">
        <ele>535</ele>
        <time>2021-03-06T13:43:13.000Z</time>
      </trkpt>
      <trkpt lat="46.54386" lon="5.54274">
        <ele>534.59997558594</ele>
        <time>2021-03-06T13:43:14.000Z</time>
      </trkpt>
      <trkpt lat="46.54351" lon="5.54238">
        <ele>533.79998779297</ele>
        <time>2021-03-06T13:43:19.000Z</time>
      </trkpt>
      <trkpt lat="46.54335" lon="5.54233">
        <ele>533.79998779297</ele>
        <time>2021-03-06T13:43:21.000Z</time>
      </trkpt>
      <trkpt lat="46.54328" lon="5.54232">
        <ele>533.79998779297</ele>
        <time>2021-03-06T13:43:22.000Z</time>
      </trkpt>
      <trkpt lat="46.54298" lon="5.54227">
        <ele>534.20001220703</ele>
        <time>2021-03-06T13:43:26.000Z</time>
      </trkpt>
      <trkpt lat="46.54291" lon="5.54223">
        <ele>534.40002441406</ele>
        <time>2021-03-06T13:43:27.000Z</time>
      </trkpt>
      <trkpt lat="46.54285" lon="5.54217">
        <ele>534.40002441406</ele>
        <time>2021-03-06T13:43:28.000Z</time>
      </trkpt>
      <trkpt lat="46.54266" lon="5.54198">
        <ele>534.59997558594</ele>
        <time>2021-03-06T13:43:31.000Z</time>
      </trkpt>
      <trkpt lat="46.54262" lon="5.54191">
        <ele>535</ele>
        <time>2021-03-06T13:43:32.000Z</time>
      </trkpt>
      <trkpt lat="46.54258" lon="5.54183">
        <ele>535.20001220703</ele>
        <time>2021-03-06T13:43:33.000Z</time>
      </trkpt>
      <trkpt lat="46.54252" lon="5.54166">
        <ele>535.59997558594</ele>
        <time>2021-03-06T13:43:35.000Z</time>
      </trkpt>
      <trkpt lat="46.5425" lon="5.54149">
        <ele>536</ele>
        <time>2021-03-06T13:43:37.000Z</time>
      </trkpt>
      <trkpt lat="46.54246" lon="5.54123">
        <ele>536.59997558594</ele>
        <time>2021-03-06T13:43:40.000Z</time>
      </trkpt>
      <trkpt lat="46.54243" lon="5.54081">
        <ele>537.20001220703</ele>
        <time>2021-03-06T13:43:45.000Z</time>
      </trkpt>
      <trkpt lat="46.54243" lon="5.54073">
        <ele>537.40002441406</ele>
        <time>2021-03-06T13:43:46.000Z</time>
      </trkpt>
      <trkpt lat="46.54242" lon="5.54035">
        <ele>538.20001220703</ele>
        <time>2021-03-06T13:43:51.000Z</time>
      </trkpt>
      <trkpt lat="46.54242" lon="5.54028">
        <ele>538.79998779297</ele>
        <time>2021-03-06T13:43:52.000Z</time>
      </trkpt>
      <trkpt lat="46.54241" lon="5.54022">
        <ele>539.40002441406</ele>
        <time>2021-03-06T13:43:53.000Z</time>
      </trkpt>
      <trkpt lat="46.5424" lon="5.54016">
        <ele>539.59997558594</ele>
        <time>2021-03-06T13:43:54.000Z</time>
      </trkpt>
      <trkpt lat="46.54234" lon="5.54">
        <ele>540.59997558594</ele>
        <time>2021-03-06T13:43:57.000Z</time>
      </trkpt>
      <trkpt lat="46.54232" lon="5.53995">
        <ele>540.79998779297</ele>
        <time>2021-03-06T13:43:58.000Z</time>
      </trkpt>
      <trkpt lat="46.54226" lon="5.53986">
        <ele>541.59997558594</ele>
        <time>2021-03-06T13:44:00.000Z</time>
      </trkpt>
      <trkpt lat="46.54218" lon="5.53974">
        <ele>542.59997558594</ele>
        <time>2021-03-06T13:44:03.000Z</time>
      </trkpt>
      <trkpt lat="46.54215" lon="5.5397">
        <ele>543</ele>
        <time>2021-03-06T13:44:04.000Z</time>
      </trkpt>
      <trkpt lat="46.54207" lon="5.53957">
        <ele>543.79998779297</ele>
        <time>2021-03-06T13:44:08.000Z</time>
      </trkpt>
      <trkpt lat="46.54206" lon="5.53955">
        <ele>544</ele>
        <time>2021-03-06T13:44:09.000Z</time>
      </trkpt>
      <trkpt lat="46.54204" lon="5.5395">
        <ele>544.40002441406</ele>
        <time>2021-03-06T13:44:12.000Z</time>
      </trkpt>
      <trkpt lat="46.54203" lon="5.53945">
        <ele>544.79998779297</ele>
        <time>2021-03-06T13:44:14.000Z</time>
      </trkpt>
      <trkpt lat="46.54202" lon="5.53935">
        <ele>545</ele>
        <time>2021-03-06T13:44:16.000Z</time>
      </trkpt>
      <trkpt lat="46.54202" lon="5.5392">
        <ele>545.20001220703</ele>
        <time>2021-03-06T13:44:18.000Z</time>
      </trkpt>
      <trkpt lat="46.54203" lon="5.53859">
        <ele>545.59997558594</ele>
        <time>2021-03-06T13:44:25.000Z</time>
      </trkpt>
      <trkpt lat="46.54201" lon="5.53838">
        <ele>545.59997558594</ele>
        <time>2021-03-06T13:44:27.000Z</time>
      </trkpt>
      <trkpt lat="46.54201" lon="5.53818">
        <ele>545.40002441406</ele>
        <time>2021-03-06T13:44:29.000Z</time>
      </trkpt>
      <trkpt lat="46.54205" lon="5.53754">
        <ele>544.40002441406</ele>
        <time>2021-03-06T13:44:35.000Z</time>
      </trkpt>
      <trkpt lat="46.54205" lon="5.53708">
        <ele>544</ele>
        <time>2021-03-06T13:44:39.000Z</time>
      </trkpt>
      <trkpt lat="46.54209" lon="5.53688">
        <ele>543.59997558594</ele>
        <time>2021-03-06T13:44:41.000Z</time>
      </trkpt>
      <trkpt lat="46.54217" lon="5.53658">
        <ele>543.20001220703</ele>
        <time>2021-03-06T13:44:44.000Z</time>
      </trkpt>
      <trkpt lat="46.54221" lon="5.5365">
        <ele>542.79998779297</ele>
        <time>2021-03-06T13:44:45.000Z</time>
      </trkpt>
      <trkpt lat="46.54249" lon="5.53597">
        <ele>542.20001220703</ele>
        <time>2021-03-06T13:44:51.000Z</time>
      </trkpt>
      <trkpt lat="46.54268" lon="5.53561">
        <ele>541.79998779297</ele>
        <time>2021-03-06T13:44:55.000Z</time>
      </trkpt>
      <trkpt lat="46.54282" lon="5.53522">
        <ele>541</ele>
        <time>2021-03-06T13:44:59.000Z</time>
      </trkpt>
      <trkpt lat="46.54288" lon="5.53502">
        <ele>540.59997558594</ele>
        <time>2021-03-06T13:45:01.000Z</time>
      </trkpt>
      <trkpt lat="46.54295" lon="5.5348">
        <ele>540.40002441406</ele>
        <time>2021-03-06T13:45:03.000Z</time>
      </trkpt>
      <trkpt lat="46.54303" lon="5.53463">
        <ele>540.20001220703</ele>
        <time>2021-03-06T13:45:05.000Z</time>
      </trkpt>
      <trkpt lat="46.54309" lon="5.53455">
        <ele>540</ele>
        <time>2021-03-06T13:45:06.000Z</time>
      </trkpt>
      <trkpt lat="46.54329" lon="5.5343">
        <ele>540</ele>
        <time>2021-03-06T13:45:09.000Z</time>
      </trkpt>
      <trkpt lat="46.54342" lon="5.53414">
        <ele>539.79998779297</ele>
        <time>2021-03-06T13:45:11.000Z</time>
      </trkpt>
      <trkpt lat="46.54347" lon="5.53403">
        <ele>539.59997558594</ele>
        <time>2021-03-06T13:45:12.000Z</time>
      </trkpt>
      <trkpt lat="46.54351" lon="5.53393">
        <ele>539.40002441406</ele>
        <time>2021-03-06T13:45:13.000Z</time>
      </trkpt>
      <trkpt lat="46.54361" lon="5.53348">
        <ele>538.20001220703</ele>
        <time>2021-03-06T13:45:17.000Z</time>
      </trkpt>
      <trkpt lat="46.54364" lon="5.53336">
        <ele>538</ele>
        <time>2021-03-06T13:45:18.000Z</time>
      </trkpt>
      <trkpt lat="46.54367" lon="5.53322">
        <ele>537.59997558594</ele>
        <time>2021-03-06T13:45:19.000Z</time>
      </trkpt>
      <trkpt lat="46.54377" lon="5.533">
        <ele>537</ele>
        <time>2021-03-06T13:45:21.000Z</time>
      </trkpt>
      <trkpt lat="46.5439" lon="5.53283">
        <ele>536.20001220703</ele>
        <time>2021-03-06T13:45:23.000Z</time>
      </trkpt>
      <trkpt lat="46.54397" lon="5.53275">
        <ele>535.59997558594</ele>
        <time>2021-03-06T13:45:24.000Z</time>
      </trkpt>
      <trkpt lat="46.54405" lon="5.5327">
        <ele>535.40002441406</ele>
        <time>2021-03-06T13:45:25.000Z</time>
      </trkpt>
      <trkpt lat="46.54413" lon="5.53265">
        <ele>534.40002441406</ele>
        <time>2021-03-06T13:45:26.000Z</time>
      </trkpt>
      <trkpt lat="46.5443" lon="5.5326">
        <ele>533.20001220703</ele>
        <time>2021-03-06T13:45:28.000Z</time>
      </trkpt>
      <trkpt lat="46.54439" lon="5.53258">
        <ele>532.79998779297</ele>
        <time>2021-03-06T13:45:29.000Z</time>
      </trkpt>
      <trkpt lat="46.54448" lon="5.53256">
        <ele>532</ele>
        <time>2021-03-06T13:45:30.000Z</time>
      </trkpt>
      <trkpt lat="46.54477" lon="5.5325">
        <ele>530</ele>
        <time>2021-03-06T13:45:33.000Z</time>
      </trkpt>
      <trkpt lat="46.54496" lon="5.53245">
        <ele>529.20001220703</ele>
        <time>2021-03-06T13:45:35.000Z</time>
      </trkpt>
      <trkpt lat="46.54506" lon="5.53243">
        <ele>528.79998779297</ele>
        <time>2021-03-06T13:45:36.000Z</time>
      </trkpt>
      <trkpt lat="46.54526" lon="5.53239">
        <ele>527.20001220703</ele>
        <time>2021-03-06T13:45:38.000Z</time>
      </trkpt>
      <trkpt lat="46.54545" lon="5.53235">
        <ele>525.40002441406</ele>
        <time>2021-03-06T13:45:40.000Z</time>
      </trkpt>
      <trkpt lat="46.54564" lon="5.5323">
        <ele>524.20001220703</ele>
        <time>2021-03-06T13:45:42.000Z</time>
      </trkpt>
      <trkpt lat="46.54583" lon="5.53224">
        <ele>523</ele>
        <time>2021-03-06T13:45:44.000Z</time>
      </trkpt>
      <trkpt lat="46.54611" lon="5.53213">
        <ele>521.40002441406</ele>
        <time>2021-03-06T13:45:47.000Z</time>
      </trkpt>
      <trkpt lat="46.54639" lon="5.53201">
        <ele>520.20001220703</ele>
        <time>2021-03-06T13:45:50.000Z</time>
      </trkpt>
      <trkpt lat="46.54657" lon="5.53196">
        <ele>519</ele>
        <time>2021-03-06T13:45:52.000Z</time>
      </trkpt>
      <trkpt lat="46.54677" lon="5.53195">
        <ele>518.20001220703</ele>
        <time>2021-03-06T13:45:54.000Z</time>
      </trkpt>
      <trkpt lat="46.54686" lon="5.53195">
        <ele>518</ele>
        <time>2021-03-06T13:45:55.000Z</time>
      </trkpt>
      <trkpt lat="46.54705" lon="5.53197">
        <ele>516.79998779297</ele>
        <time>2021-03-06T13:45:57.000Z</time>
      </trkpt>
      <trkpt lat="46.54725" lon="5.53199">
        <ele>515.20001220703</ele>
        <time>2021-03-06T13:45:59.000Z</time>
      </trkpt>
      <trkpt lat="46.54734" lon="5.532">
        <ele>514.79998779297</ele>
        <time>2021-03-06T13:46:00.000Z</time>
      </trkpt>
      <trkpt lat="46.54744" lon="5.53199">
        <ele>513.79998779297</ele>
        <time>2021-03-06T13:46:01.000Z</time>
      </trkpt>
      <trkpt lat="46.54762" lon="5.53197">
        <ele>512.79998779297</ele>
        <time>2021-03-06T13:46:03.000Z</time>
      </trkpt>
      <trkpt lat="46.54771" lon="5.53195">
        <ele>512.20001220703</ele>
        <time>2021-03-06T13:46:04.000Z</time>
      </trkpt>
      <trkpt lat="46.54779" lon="5.53192">
        <ele>511.39999389648</ele>
        <time>2021-03-06T13:46:05.000Z</time>
      </trkpt>
      <trkpt lat="46.54793" lon="5.53184">
        <ele>510.39999389648</ele>
        <time>2021-03-06T13:46:07.000Z</time>
      </trkpt>
      <trkpt lat="46.54799" lon="5.53178">
        <ele>510</ele>
        <time>2021-03-06T13:46:08.000Z</time>
      </trkpt>
      <trkpt lat="46.54801" lon="5.5317">
        <ele>510</ele>
        <time>2021-03-06T13:46:09.000Z</time>
      </trkpt>
      <trkpt lat="46.54799" lon="5.53161">
        <ele>510</ele>
        <time>2021-03-06T13:46:10.000Z</time>
      </trkpt>
      <trkpt lat="46.54795" lon="5.53154">
        <ele>509.79998779297</ele>
        <time>2021-03-06T13:46:11.000Z</time>
      </trkpt>
      <trkpt lat="46.54789" lon="5.53149">
        <ele>509.79998779297</ele>
        <time>2021-03-06T13:46:12.000Z</time>
      </trkpt>
      <trkpt lat="46.54782" lon="5.53146">
        <ele>509.79998779297</ele>
        <time>2021-03-06T13:46:13.000Z</time>
      </trkpt>
      <trkpt lat="46.54767" lon="5.53145">
        <ele>510.20001220703</ele>
        <time>2021-03-06T13:46:15.000Z</time>
      </trkpt>
      <trkpt lat="46.54734" lon="5.53139">
        <ele>510.20001220703</ele>
        <time>2021-03-06T13:46:19.000Z</time>
      </trkpt>
      <trkpt lat="46.54691" lon="5.53118">
        <ele>509.79998779297</ele>
        <time>2021-03-06T13:46:24.000Z</time>
      </trkpt>
      <trkpt lat="46.54648" lon="5.53093">
        <ele>509.39999389648</ele>
        <time>2021-03-06T13:46:29.000Z</time>
      </trkpt>
      <trkpt lat="46.54639" lon="5.53087">
        <ele>509.20001220703</ele>
        <time>2021-03-06T13:46:30.000Z</time>
      </trkpt>
      <trkpt lat="46.54583" lon="5.53054">
        <ele>509.60000610352</ele>
        <time>2021-03-06T13:46:37.000Z</time>
      </trkpt>
      <trkpt lat="46.54575" lon="5.5305">
        <ele>509.60000610352</ele>
        <time>2021-03-06T13:46:38.000Z</time>
      </trkpt>
      <trkpt lat="46.54561" lon="5.5304">
        <ele>509.79998779297</ele>
        <time>2021-03-06T13:46:40.000Z</time>
      </trkpt>
      <trkpt lat="46.54541" lon="5.5302">
        <ele>509.79998779297</ele>
        <time>2021-03-06T13:46:43.000Z</time>
      </trkpt>
      <trkpt lat="46.54514" lon="5.5298">
        <ele>510.20001220703</ele>
        <time>2021-03-06T13:46:48.000Z</time>
      </trkpt>
      <trkpt lat="46.54496" lon="5.52966">
        <ele>510.60000610352</ele>
        <time>2021-03-06T13:46:51.000Z</time>
      </trkpt>
      <trkpt lat="46.54489" lon="5.52963">
        <ele>510.79998779297</ele>
        <time>2021-03-06T13:46:52.000Z</time>
      </trkpt>
      <trkpt lat="46.54461" lon="5.52954">
        <ele>511.79998779297</ele>
        <time>2021-03-06T13:46:56.000Z</time>
      </trkpt>
      <trkpt lat="46.54433" lon="5.52941">
        <ele>512</ele>
        <time>2021-03-06T13:47:00.000Z</time>
      </trkpt>
      <trkpt lat="46.54389" lon="5.52924">
        <ele>512</ele>
        <time>2021-03-06T13:47:06.000Z</time>
      </trkpt>
      <trkpt lat="46.54331" lon="5.52912">
        <ele>510.79998779297</ele>
        <time>2021-03-06T13:47:14.000Z</time>
      </trkpt>
      <trkpt lat="46.54297" lon="5.52908">
        <ele>509.39999389648</ele>
        <time>2021-03-06T13:47:18.000Z</time>
      </trkpt>
      <trkpt lat="46.54288" lon="5.52907">
        <ele>509.20001220703</ele>
        <time>2021-03-06T13:47:19.000Z</time>
      </trkpt>
      <trkpt lat="46.54269" lon="5.52909">
        <ele>508.79998779297</ele>
        <time>2021-03-06T13:47:21.000Z</time>
      </trkpt>
      <trkpt lat="46.54249" lon="5.52915">
        <ele>507.60000610352</ele>
        <time>2021-03-06T13:47:23.000Z</time>
      </trkpt>
      <trkpt lat="46.5424" lon="5.5292">
        <ele>507.60000610352</ele>
        <time>2021-03-06T13:47:24.000Z</time>
      </trkpt>
      <trkpt lat="46.54223" lon="5.52938">
        <ele>507</ele>
        <time>2021-03-06T13:47:26.000Z</time>
      </trkpt>
      <trkpt lat="46.54217" lon="5.5295">
        <ele>506.20001220703</ele>
        <time>2021-03-06T13:47:27.000Z</time>
      </trkpt>
      <trkpt lat="46.54214" lon="5.52964">
        <ele>505.20001220703</ele>
        <time>2021-03-06T13:47:28.000Z</time>
      </trkpt>
      <trkpt lat="46.54211" lon="5.52991">
        <ele>504.20001220703</ele>
        <time>2021-03-06T13:47:30.000Z</time>
      </trkpt>
      <trkpt lat="46.54209" lon="5.53017">
        <ele>503.79998779297</ele>
        <time>2021-03-06T13:47:32.000Z</time>
      </trkpt>
      <trkpt lat="46.54205" lon="5.53072">
        <ele>504</ele>
        <time>2021-03-06T13:47:37.000Z</time>
      </trkpt>
      <trkpt lat="46.54202" lon="5.531">
        <ele>505.20001220703</ele>
        <time>2021-03-06T13:47:40.000Z</time>
      </trkpt>
      <trkpt lat="46.54198" lon="5.53117">
        <ele>506.39999389648</ele>
        <time>2021-03-06T13:47:42.000Z</time>
      </trkpt>
      <trkpt lat="46.54188" lon="5.53149">
        <ele>508.20001220703</ele>
        <time>2021-03-06T13:47:46.000Z</time>
      </trkpt>
      <trkpt lat="46.54178" lon="5.53179">
        <ele>509.60000610352</ele>
        <time>2021-03-06T13:47:50.000Z</time>
      </trkpt>
      <trkpt lat="46.54169" lon="5.532">
        <ele>510.60000610352</ele>
        <time>2021-03-06T13:47:53.000Z</time>
      </trkpt>
      <trkpt lat="46.54157" lon="5.53228">
        <ele>511.60000610352</ele>
        <time>2021-03-06T13:47:57.000Z</time>
      </trkpt>
      <trkpt lat="46.54145" lon="5.53255">
        <ele>512.79998779297</ele>
        <time>2021-03-06T13:48:01.000Z</time>
      </trkpt>
      <trkpt lat="46.54135" lon="5.53284">
        <ele>513.40002441406</ele>
        <time>2021-03-06T13:48:05.000Z</time>
      </trkpt>
      <trkpt lat="46.54129" lon="5.53306">
        <ele>513.79998779297</ele>
        <time>2021-03-06T13:48:08.000Z</time>
      </trkpt>
      <trkpt lat="46.54123" lon="5.53319">
        <ele>514.20001220703</ele>
        <time>2021-03-06T13:48:10.000Z</time>
      </trkpt>
      <trkpt lat="46.54115" lon="5.53329">
        <ele>514.59997558594</ele>
        <time>2021-03-06T13:48:12.000Z</time>
      </trkpt>
      <trkpt lat="46.5411" lon="5.53332">
        <ele>514.79998779297</ele>
        <time>2021-03-06T13:48:13.000Z</time>
      </trkpt>
      <trkpt lat="46.54105" lon="5.53333">
        <ele>515</ele>
        <time>2021-03-06T13:48:14.000Z</time>
      </trkpt>
      <trkpt lat="46.54094" lon="5.53333">
        <ele>515.40002441406</ele>
        <time>2021-03-06T13:48:16.000Z</time>
      </trkpt>
      <trkpt lat="46.54056" lon="5.5333">
        <ele>515.79998779297</ele>
        <time>2021-03-06T13:48:22.000Z</time>
      </trkpt>
      <trkpt lat="46.54036" lon="5.53333">
        <ele>515.79998779297</ele>
        <time>2021-03-06T13:48:25.000Z</time>
      </trkpt>
      <trkpt lat="46.54024" lon="5.53338">
        <ele>515.59997558594</ele>
        <time>2021-03-06T13:48:27.000Z</time>
      </trkpt>
      <trkpt lat="46.54009" lon="5.53348">
        <ele>516</ele>
        <time>2021-03-06T13:48:30.000Z</time>
      </trkpt>
      <trkpt lat="46.54" lon="5.53357">
        <ele>516.20001220703</ele>
        <time>2021-03-06T13:48:32.000Z</time>
      </trkpt>
      <trkpt lat="46.53987" lon="5.53372">
        <ele>516.79998779297</ele>
        <time>2021-03-06T13:48:35.000Z</time>
      </trkpt>
      <trkpt lat="46.5398" lon="5.53385">
        <ele>517.20001220703</ele>
        <time>2021-03-06T13:48:37.000Z</time>
      </trkpt>
      <trkpt lat="46.5396" lon="5.53426">
        <ele>518.40002441406</ele>
        <time>2021-03-06T13:48:43.000Z</time>
      </trkpt>
      <trkpt lat="46.53956" lon="5.53432">
        <ele>518.79998779297</ele>
        <time>2021-03-06T13:48:44.000Z</time>
      </trkpt>
      <trkpt lat="46.53946" lon="5.53442">
        <ele>519.40002441406</ele>
        <time>2021-03-06T13:48:46.000Z</time>
      </trkpt>
      <trkpt lat="46.5394" lon="5.53446">
        <ele>519.59997558594</ele>
        <time>2021-03-06T13:48:47.000Z</time>
      </trkpt>
      <trkpt lat="46.53911" lon="5.53462">
        <ele>520.59997558594</ele>
        <time>2021-03-06T13:48:52.000Z</time>
      </trkpt>
      <trkpt lat="46.53899" lon="5.53467">
        <ele>520.79998779297</ele>
        <time>2021-03-06T13:48:54.000Z</time>
      </trkpt>
      <trkpt lat="46.53885" lon="5.53471">
        <ele>521</ele>
        <time>2021-03-06T13:48:56.000Z</time>
      </trkpt>
      <trkpt lat="46.53878" lon="5.53471">
        <ele>521</ele>
        <time>2021-03-06T13:48:57.000Z</time>
      </trkpt>
      <trkpt lat="46.53848" lon="5.53466">
        <ele>520.40002441406</ele>
        <time>2021-03-06T13:49:01.000Z</time>
      </trkpt>
      <trkpt lat="46.53841" lon="5.53464">
        <ele>520.20001220703</ele>
        <time>2021-03-06T13:49:02.000Z</time>
      </trkpt>
      <trkpt lat="46.53825" lon="5.5346">
        <ele>519.79998779297</ele>
        <time>2021-03-06T13:49:04.000Z</time>
      </trkpt>
      <trkpt lat="46.53802" lon="5.53458">
        <ele>518.59997558594</ele>
        <time>2021-03-06T13:49:07.000Z</time>
      </trkpt>
      <trkpt lat="46.53795" lon="5.53457">
        <ele>518.40002441406</ele>
        <time>2021-03-06T13:49:08.000Z</time>
      </trkpt>
      <trkpt lat="46.53769" lon="5.53457">
        <ele>517.59997558594</ele>
        <time>2021-03-06T13:49:12.000Z</time>
      </trkpt>
      <trkpt lat="46.53762" lon="5.53458">
        <ele>517.40002441406</ele>
        <time>2021-03-06T13:49:13.000Z</time>
      </trkpt>
      <trkpt lat="46.53736" lon="5.53458">
        <ele>518.59997558594</ele>
        <time>2021-03-06T13:49:17.000Z</time>
      </trkpt>
      <trkpt lat="46.53721" lon="5.53458">
        <ele>518.79998779297</ele>
        <time>2021-03-06T13:49:19.000Z</time>
      </trkpt>
      <trkpt lat="46.5368" lon="5.53463">
        <ele>518.40002441406</ele>
        <time>2021-03-06T13:49:25.000Z</time>
      </trkpt>
      <trkpt lat="46.53674" lon="5.53465">
        <ele>518.40002441406</ele>
        <time>2021-03-06T13:49:26.000Z</time>
      </trkpt>
      <trkpt lat="46.53628" lon="5.53477">
        <ele>518.40002441406</ele>
        <time>2021-03-06T13:49:33.000Z</time>
      </trkpt>
      <trkpt lat="46.53598" lon="5.53477">
        <ele>517.79998779297</ele>
        <time>2021-03-06T13:49:37.000Z</time>
      </trkpt>
      <trkpt lat="46.5359" lon="5.53475">
        <ele>517.79998779297</ele>
        <time>2021-03-06T13:49:38.000Z</time>
      </trkpt>
      <trkpt lat="46.53573" lon="5.53469">
        <ele>517</ele>
        <time>2021-03-06T13:49:40.000Z</time>
      </trkpt>
      <trkpt lat="46.53546" lon="5.5346">
        <ele>516.59997558594</ele>
        <time>2021-03-06T13:49:43.000Z</time>
      </trkpt>
      <trkpt lat="46.53527" lon="5.53454">
        <ele>515.79998779297</ele>
        <time>2021-03-06T13:49:45.000Z</time>
      </trkpt>
      <trkpt lat="46.53509" lon="5.53448">
        <ele>514.79998779297</ele>
        <time>2021-03-06T13:49:47.000Z</time>
      </trkpt>
      <trkpt lat="46.5348" lon="5.5344">
        <ele>513.59997558594</ele>
        <time>2021-03-06T13:49:50.000Z</time>
      </trkpt>
      <trkpt lat="46.53471" lon="5.53439">
        <ele>513.20001220703</ele>
        <time>2021-03-06T13:49:51.000Z</time>
      </trkpt>
      <trkpt lat="46.53461" lon="5.5344">
        <ele>512.79998779297</ele>
        <time>2021-03-06T13:49:52.000Z</time>
      </trkpt>
      <trkpt lat="46.53444" lon="5.53444">
        <ele>512.59997558594</ele>
        <time>2021-03-06T13:49:54.000Z</time>
      </trkpt>
      <trkpt lat="46.53436" lon="5.53446">
        <ele>512.59997558594</ele>
        <time>2021-03-06T13:49:55.000Z</time>
      </trkpt>
      <trkpt lat="46.53396" lon="5.53451">
        <ele>512.79998779297</ele>
        <time>2021-03-06T13:50:00.000Z</time>
      </trkpt>
      <trkpt lat="46.53374" lon="5.53447">
        <ele>514.20001220703</ele>
        <time>2021-03-06T13:50:03.000Z</time>
      </trkpt>
      <trkpt lat="46.53351" lon="5.53441">
        <ele>515</ele>
        <time>2021-03-06T13:50:06.000Z</time>
      </trkpt>
      <trkpt lat="46.53343" lon="5.53439">
        <ele>515.20001220703</ele>
        <time>2021-03-06T13:50:07.000Z</time>
      </trkpt>
      <trkpt lat="46.53309" lon="5.5343">
        <ele>515.59997558594</ele>
        <time>2021-03-06T13:50:11.000Z</time>
      </trkpt>
      <trkpt lat="46.53256" lon="5.53416">
        <ele>515</ele>
        <time>2021-03-06T13:50:17.000Z</time>
      </trkpt>
      <trkpt lat="46.53247" lon="5.53414">
        <ele>515</ele>
        <time>2021-03-06T13:50:18.000Z</time>
      </trkpt>
      <trkpt lat="46.53195" lon="5.53411">
        <ele>514.59997558594</ele>
        <time>2021-03-06T13:50:24.000Z</time>
      </trkpt>
      <trkpt lat="46.53133" lon="5.53418">
        <ele>514.79998779297</ele>
        <time>2021-03-06T13:50:31.000Z</time>
      </trkpt>
      <trkpt lat="46.53124" lon="5.53419">
        <ele>514.59997558594</ele>
        <time>2021-03-06T13:50:32.000Z</time>
      </trkpt>
      <trkpt lat="46.53078" lon="5.53427">
        <ele>514.20001220703</ele>
        <time>2021-03-06T13:50:37.000Z</time>
      </trkpt>
      <trkpt lat="46.53059" lon="5.53431">
        <ele>514.20001220703</ele>
        <time>2021-03-06T13:50:39.000Z</time>
      </trkpt>
      <trkpt lat="46.53006" lon="5.53445">
        <ele>514.40002441406</ele>
        <time>2021-03-06T13:50:45.000Z</time>
      </trkpt>
      <trkpt lat="46.52988" lon="5.53446">
        <ele>514.40002441406</ele>
        <time>2021-03-06T13:50:47.000Z</time>
      </trkpt>
      <trkpt lat="46.52933" lon="5.53436">
        <ele>514.59997558594</ele>
        <time>2021-03-06T13:50:53.000Z</time>
      </trkpt>
      <trkpt lat="46.52877" lon="5.53427">
        <ele>513.79998779297</ele>
        <time>2021-03-06T13:50:59.000Z</time>
      </trkpt>
      <trkpt lat="46.52859" lon="5.53424">
        <ele>513.59997558594</ele>
        <time>2021-03-06T13:51:01.000Z</time>
      </trkpt>
      <trkpt lat="46.5285" lon="5.53422">
        <ele>513.79998779297</ele>
        <time>2021-03-06T13:51:02.000Z</time>
      </trkpt>
      <trkpt lat="46.52797" lon="5.53409">
        <ele>513.59997558594</ele>
        <time>2021-03-06T13:51:08.000Z</time>
      </trkpt>
      <trkpt lat="46.52777" lon="5.534">
        <ele>513.40002441406</ele>
        <time>2021-03-06T13:51:10.000Z</time>
      </trkpt>
      <trkpt lat="46.52736" lon="5.53383">
        <ele>512</ele>
        <time>2021-03-06T13:51:14.000Z</time>
      </trkpt>
      <trkpt lat="46.52706" lon="5.53367">
        <ele>511</ele>
        <time>2021-03-06T13:51:17.000Z</time>
      </trkpt>
      <trkpt lat="46.52696" lon="5.53359">
        <ele>510.60000610352</ele>
        <time>2021-03-06T13:51:18.000Z</time>
      </trkpt>
      <trkpt lat="46.52688" lon="5.53349">
        <ele>510.20001220703</ele>
        <time>2021-03-06T13:51:19.000Z</time>
      </trkpt>
      <trkpt lat="46.52676" lon="5.53328">
        <ele>509.79998779297</ele>
        <time>2021-03-06T13:51:21.000Z</time>
      </trkpt>
      <trkpt lat="46.5267" lon="5.53316">
        <ele>509.60000610352</ele>
        <time>2021-03-06T13:51:22.000Z</time>
      </trkpt>
      <trkpt lat="46.52639" lon="5.53265">
        <ele>509</ele>
        <time>2021-03-06T13:51:27.000Z</time>
      </trkpt>
      <trkpt lat="46.52633" lon="5.53256">
        <ele>508.79998779297</ele>
        <time>2021-03-06T13:51:28.000Z</time>
      </trkpt>
      <trkpt lat="46.5261" lon="5.53232">
        <ele>508.79998779297</ele>
        <time>2021-03-06T13:51:31.000Z</time>
      </trkpt>
      <trkpt lat="46.52602" lon="5.53225">
        <ele>508.39999389648</ele>
        <time>2021-03-06T13:51:32.000Z</time>
      </trkpt>
      <trkpt lat="46.52594" lon="5.53219">
        <ele>508.39999389648</ele>
        <time>2021-03-06T13:51:33.000Z</time>
      </trkpt>
      <trkpt lat="46.52577" lon="5.53211">
        <ele>508</ele>
        <time>2021-03-06T13:51:35.000Z</time>
      </trkpt>
      <trkpt lat="46.52549" lon="5.53209">
        <ele>507.39999389648</ele>
        <time>2021-03-06T13:51:38.000Z</time>
      </trkpt>
      <trkpt lat="46.5254" lon="5.5321">
        <ele>507.20001220703</ele>
        <time>2021-03-06T13:51:39.000Z</time>
      </trkpt>
      <trkpt lat="46.52485" lon="5.53211">
        <ele>506.20001220703</ele>
        <time>2021-03-06T13:51:45.000Z</time>
      </trkpt>
      <trkpt lat="46.52476" lon="5.5321">
        <ele>506</ele>
        <time>2021-03-06T13:51:46.000Z</time>
      </trkpt>
      <trkpt lat="46.52432" lon="5.53199">
        <ele>505.20001220703</ele>
        <time>2021-03-06T13:51:51.000Z</time>
      </trkpt>
      <trkpt lat="46.52423" lon="5.53196">
        <ele>504.60000610352</ele>
        <time>2021-03-06T13:51:52.000Z</time>
      </trkpt>
      <trkpt lat="46.52404" lon="5.5319">
        <ele>503.60000610352</ele>
        <time>2021-03-06T13:51:54.000Z</time>
      </trkpt>
      <trkpt lat="46.52394" lon="5.53188">
        <ele>503.20001220703</ele>
        <time>2021-03-06T13:51:55.000Z</time>
      </trkpt>
      <trkpt lat="46.52383" lon="5.53188">
        <ele>503</ele>
        <time>2021-03-06T13:51:56.000Z</time>
      </trkpt>
      <trkpt lat="46.52362" lon="5.53189">
        <ele>502.39999389648</ele>
        <time>2021-03-06T13:51:58.000Z</time>
      </trkpt>
      <trkpt lat="46.5235" lon="5.53189">
        <ele>502</ele>
        <time>2021-03-06T13:51:59.000Z</time>
      </trkpt>
      <trkpt lat="46.52325" lon="5.53188">
        <ele>500.20001220703</ele>
        <time>2021-03-06T13:52:01.000Z</time>
      </trkpt>
      <trkpt lat="46.523" lon="5.53183">
        <ele>499.20001220703</ele>
        <time>2021-03-06T13:52:03.000Z</time>
      </trkpt>
      <trkpt lat="46.52288" lon="5.53179">
        <ele>498.60000610352</ele>
        <time>2021-03-06T13:52:04.000Z</time>
      </trkpt>
      <trkpt lat="46.52276" lon="5.53173">
        <ele>497.39999389648</ele>
        <time>2021-03-06T13:52:05.000Z</time>
      </trkpt>
      <trkpt lat="46.52265" lon="5.53166">
        <ele>495.79998779297</ele>
        <time>2021-03-06T13:52:06.000Z</time>
      </trkpt>
      <trkpt lat="46.52255" lon="5.53159">
        <ele>494.79998779297</ele>
        <time>2021-03-06T13:52:07.000Z</time>
      </trkpt>
      <trkpt lat="46.52245" lon="5.53152">
        <ele>493.39999389648</ele>
        <time>2021-03-06T13:52:08.000Z</time>
      </trkpt>
      <trkpt lat="46.52225" lon="5.53138">
        <ele>492</ele>
        <time>2021-03-06T13:52:10.000Z</time>
      </trkpt>
      <trkpt lat="46.52215" lon="5.53131">
        <ele>491.60000610352</ele>
        <time>2021-03-06T13:52:11.000Z</time>
      </trkpt>
      <trkpt lat="46.52177" lon="5.53113">
        <ele>491</ele>
        <time>2021-03-06T13:52:15.000Z</time>
      </trkpt>
      <trkpt lat="46.52156" lon="5.53112">
        <ele>491</ele>
        <time>2021-03-06T13:52:17.000Z</time>
      </trkpt>
      <trkpt lat="46.52146" lon="5.53114">
        <ele>491.20001220703</ele>
        <time>2021-03-06T13:52:18.000Z</time>
      </trkpt>
      <trkpt lat="46.52086" lon="5.53127">
        <ele>491.60000610352</ele>
        <time>2021-03-06T13:52:24.000Z</time>
      </trkpt>
      <trkpt lat="46.52076" lon="5.5313">
        <ele>491.60000610352</ele>
        <time>2021-03-06T13:52:25.000Z</time>
      </trkpt>
      <trkpt lat="46.52025" lon="5.53141">
        <ele>491.60000610352</ele>
        <time>2021-03-06T13:52:30.000Z</time>
      </trkpt>
      <trkpt lat="46.51974" lon="5.53153">
        <ele>491.20001220703</ele>
        <time>2021-03-06T13:52:35.000Z</time>
      </trkpt>
      <trkpt lat="46.51912" lon="5.53166">
        <ele>490.60000610352</ele>
        <time>2021-03-06T13:52:41.000Z</time>
      </trkpt>
      <trkpt lat="46.51881" lon="5.53173">
        <ele>490.60000610352</ele>
        <time>2021-03-06T13:52:44.000Z</time>
      </trkpt>
      <trkpt lat="46.51839" lon="5.53185">
        <ele>490.20001220703</ele>
        <time>2021-03-06T13:52:48.000Z</time>
      </trkpt>
      <trkpt lat="46.51778" lon="5.53203">
        <ele>489.39999389648</ele>
        <time>2021-03-06T13:52:54.000Z</time>
      </trkpt>
      <trkpt lat="46.51748" lon="5.53212">
        <ele>489</ele>
        <time>2021-03-06T13:52:57.000Z</time>
      </trkpt>
      <trkpt lat="46.51688" lon="5.53231">
        <ele>488.20001220703</ele>
        <time>2021-03-06T13:53:03.000Z</time>
      </trkpt>
      <trkpt lat="46.51668" lon="5.53238">
        <ele>488</ele>
        <time>2021-03-06T13:53:05.000Z</time>
      </trkpt>
      <trkpt lat="46.51607" lon="5.53257">
        <ele>487</ele>
        <time>2021-03-06T13:53:11.000Z</time>
      </trkpt>
      <trkpt lat="46.51597" lon="5.5326">
        <ele>486.79998779297</ele>
        <time>2021-03-06T13:53:12.000Z</time>
      </trkpt>
      <trkpt lat="46.5154" lon="5.53277">
        <ele>486.60000610352</ele>
        <time>2021-03-06T13:53:18.000Z</time>
      </trkpt>
      <trkpt lat="46.51522" lon="5.53283">
        <ele>486.79998779297</ele>
        <time>2021-03-06T13:53:20.000Z</time>
      </trkpt>
      <trkpt lat="46.51461" lon="5.53302">
        <ele>487.79998779297</ele>
        <time>2021-03-06T13:53:27.000Z</time>
      </trkpt>
      <trkpt lat="46.51453" lon="5.53305">
        <ele>487.79998779297</ele>
        <time>2021-03-06T13:53:28.000Z</time>
      </trkpt>
      <trkpt lat="46.51445" lon="5.53307">
        <ele>488</ele>
        <time>2021-03-06T13:53:29.000Z</time>
      </trkpt>
      <trkpt lat="46.51386" lon="5.53326">
        <ele>488.20001220703</ele>
        <time>2021-03-06T13:53:36.000Z</time>
      </trkpt>
      <trkpt lat="46.51378" lon="5.53328">
        <ele>488.20001220703</ele>
        <time>2021-03-06T13:53:37.000Z</time>
      </trkpt>
      <trkpt lat="46.5132" lon="5.53345">
        <ele>488.79998779297</ele>
        <time>2021-03-06T13:53:44.000Z</time>
      </trkpt>
      <trkpt lat="46.51312" lon="5.53348">
        <ele>489</ele>
        <time>2021-03-06T13:53:45.000Z</time>
      </trkpt>
      <trkpt lat="46.51257" lon="5.53366">
        <ele>489.60000610352</ele>
        <time>2021-03-06T13:53:52.000Z</time>
      </trkpt>
      <trkpt lat="46.51241" lon="5.53371">
        <ele>490</ele>
        <time>2021-03-06T13:53:54.000Z</time>
      </trkpt>
      <trkpt lat="46.51195" lon="5.53386">
        <ele>489</ele>
        <time>2021-03-06T13:53:59.000Z</time>
      </trkpt>
      <trkpt lat="46.51138" lon="5.53403">
        <ele>488.20001220703</ele>
        <time>2021-03-06T13:54:05.000Z</time>
      </trkpt>
      <trkpt lat="46.51128" lon="5.53406">
        <ele>488</ele>
        <time>2021-03-06T13:54:06.000Z</time>
      </trkpt>
      <trkpt lat="46.51099" lon="5.53416">
        <ele>488</ele>
        <time>2021-03-06T13:54:09.000Z</time>
      </trkpt>
      <trkpt lat="46.51044" lon="5.53433">
        <ele>487.60000610352</ele>
        <time>2021-03-06T13:54:15.000Z</time>
      </trkpt>
      <trkpt lat="46.51027" lon="5.53438">
        <ele>487.39999389648</ele>
        <time>2021-03-06T13:54:17.000Z</time>
      </trkpt>
      <trkpt lat="46.50971" lon="5.53455">
        <ele>488.20001220703</ele>
        <time>2021-03-06T13:54:24.000Z</time>
      </trkpt>
      <trkpt lat="46.50948" lon="5.53464">
        <ele>489.39999389648</ele>
        <time>2021-03-06T13:54:27.000Z</time>
      </trkpt>
      <trkpt lat="46.50918" lon="5.53474">
        <ele>490.60000610352</ele>
        <time>2021-03-06T13:54:31.000Z</time>
      </trkpt>
      <trkpt lat="46.50911" lon="5.53476">
        <ele>491</ele>
        <time>2021-03-06T13:54:32.000Z</time>
      </trkpt>
      <trkpt lat="46.50889" lon="5.53483">
        <ele>491.60000610352</ele>
        <time>2021-03-06T13:54:35.000Z</time>
      </trkpt>
      <trkpt lat="46.50847" lon="5.5349">
        <ele>492.60000610352</ele>
        <time>2021-03-06T13:54:40.000Z</time>
      </trkpt>
      <trkpt lat="46.50839" lon="5.5349">
        <ele>493</ele>
        <time>2021-03-06T13:54:41.000Z</time>
      </trkpt>
      <trkpt lat="46.50782" lon="5.53493">
        <ele>493.60000610352</ele>
        <time>2021-03-06T13:54:48.000Z</time>
      </trkpt>
      <trkpt lat="46.50725" lon="5.53496">
        <ele>493.60000610352</ele>
        <time>2021-03-06T13:54:55.000Z</time>
      </trkpt>
      <trkpt lat="46.50668" lon="5.535">
        <ele>494</ele>
        <time>2021-03-06T13:55:02.000Z</time>
      </trkpt>
      <trkpt lat="46.50642" lon="5.53504">
        <ele>494</ele>
        <time>2021-03-06T13:55:05.000Z</time>
      </trkpt>
      <trkpt lat="46.50591" lon="5.53516">
        <ele>493.20001220703</ele>
        <time>2021-03-06T13:55:11.000Z</time>
      </trkpt>
      <trkpt lat="46.50565" lon="5.53522">
        <ele>493.20001220703</ele>
        <time>2021-03-06T13:55:14.000Z</time>
      </trkpt>
      <trkpt lat="46.50548" lon="5.53527">
        <ele>492.79998779297</ele>
        <time>2021-03-06T13:55:16.000Z</time>
      </trkpt>
      <trkpt lat="46.50497" lon="5.53537">
        <ele>492.60000610352</ele>
        <time>2021-03-06T13:55:22.000Z</time>
      </trkpt>
      <trkpt lat="46.50454" lon="5.53528">
        <ele>492.20001220703</ele>
        <time>2021-03-06T13:55:27.000Z</time>
      </trkpt>
      <trkpt lat="46.50395" lon="5.53507">
        <ele>492.20001220703</ele>
        <time>2021-03-06T13:55:34.000Z</time>
      </trkpt>
      <trkpt lat="46.50387" lon="5.53505">
        <ele>492.20001220703</ele>
        <time>2021-03-06T13:55:35.000Z</time>
      </trkpt>
      <trkpt lat="46.5033" lon="5.53499">
        <ele>492.60000610352</ele>
        <time>2021-03-06T13:55:42.000Z</time>
      </trkpt>
      <trkpt lat="46.50272" lon="5.53497">
        <ele>492.60000610352</ele>
        <time>2021-03-06T13:55:49.000Z</time>
      </trkpt>
      <trkpt lat="46.50265" lon="5.53496">
        <ele>492.60000610352</ele>
        <time>2021-03-06T13:55:50.000Z</time>
      </trkpt>
      <trkpt lat="46.50218" lon="5.53487">
        <ele>493</ele>
        <time>2021-03-06T13:55:56.000Z</time>
      </trkpt>
      <trkpt lat="46.50167" lon="5.53469">
        <ele>493.20001220703</ele>
        <time>2021-03-06T13:56:03.000Z</time>
      </trkpt>
      <trkpt lat="46.50126" lon="5.53447">
        <ele>494.20001220703</ele>
        <time>2021-03-06T13:56:09.000Z</time>
      </trkpt>
      <trkpt lat="46.50119" lon="5.53443">
        <ele>494.39999389648</ele>
        <time>2021-03-06T13:56:10.000Z</time>
      </trkpt>
      <trkpt lat="46.50107" lon="5.53436">
        <ele>495.20001220703</ele>
        <time>2021-03-06T13:56:12.000Z</time>
      </trkpt>
      <trkpt lat="46.5008" lon="5.53422">
        <ele>496.39999389648</ele>
        <time>2021-03-06T13:56:16.000Z</time>
      </trkpt>
      <trkpt lat="46.50068" lon="5.53416">
        <ele>496.79998779297</ele>
        <time>2021-03-06T13:56:18.000Z</time>
      </trkpt>
      <trkpt lat="46.50035" lon="5.53395">
        <ele>497.39999389648</ele>
        <time>2021-03-06T13:56:23.000Z</time>
      </trkpt>
      <trkpt lat="46.50022" lon="5.53388">
        <ele>497.79998779297</ele>
        <time>2021-03-06T13:56:25.000Z</time>
      </trkpt>
      <trkpt lat="46.50003" lon="5.53376">
        <ele>498.60000610352</ele>
        <time>2021-03-06T13:56:28.000Z</time>
      </trkpt>
      <trkpt lat="46.49987" lon="5.53364">
        <ele>499</ele>
        <time>2021-03-06T13:56:31.000Z</time>
      </trkpt>
      <trkpt lat="46.4997" lon="5.5335">
        <ele>499.79998779297</ele>
        <time>2021-03-06T13:56:34.000Z</time>
      </trkpt>
      <trkpt lat="46.49948" lon="5.53332">
        <ele>500.79998779297</ele>
        <time>2021-03-06T13:56:38.000Z</time>
      </trkpt>
      <trkpt lat="46.49943" lon="5.53327">
        <ele>500.60000610352</ele>
        <time>2021-03-06T13:56:39.000Z</time>
      </trkpt>
      <trkpt lat="46.49932" lon="5.53314">
        <ele>501</ele>
        <time>2021-03-06T13:56:41.000Z</time>
      </trkpt>
      <trkpt lat="46.49918" lon="5.53297">
        <ele>501.60000610352</ele>
        <time>2021-03-06T13:56:44.000Z</time>
      </trkpt>
      <trkpt lat="46.49902" lon="5.53281">
        <ele>502.39999389648</ele>
        <time>2021-03-06T13:56:47.000Z</time>
      </trkpt>
      <trkpt lat="46.4989" lon="5.53273">
        <ele>502.79998779297</ele>
        <time>2021-03-06T13:56:49.000Z</time>
      </trkpt>
      <trkpt lat="46.49859" lon="5.53256">
        <ele>503.39999389648</ele>
        <time>2021-03-06T13:56:54.000Z</time>
      </trkpt>
      <trkpt lat="46.49846" lon="5.53249">
        <ele>503.60000610352</ele>
        <time>2021-03-06T13:56:56.000Z</time>
      </trkpt>
      <trkpt lat="46.49834" lon="5.53243">
        <ele>503.60000610352</ele>
        <time>2021-03-06T13:56:58.000Z</time>
      </trkpt>
      <trkpt lat="46.49783" lon="5.53223">
        <ele>503</ele>
        <time>2021-03-06T13:57:05.000Z</time>
      </trkpt>
      <trkpt lat="46.49726" lon="5.53206">
        <ele>503.39999389648</ele>
        <time>2021-03-06T13:57:13.000Z</time>
      </trkpt>
      <trkpt lat="46.49719" lon="5.53203">
        <ele>503.39999389648</ele>
        <time>2021-03-06T13:57:14.000Z</time>
      </trkpt>
      <trkpt lat="46.49665" lon="5.53181">
        <ele>504.39999389648</ele>
        <time>2021-03-06T13:57:22.000Z</time>
      </trkpt>
      <trkpt lat="46.49652" lon="5.53177">
        <ele>505</ele>
        <time>2021-03-06T13:57:24.000Z</time>
      </trkpt>
      <trkpt lat="46.49633" lon="5.53173">
        <ele>505.60000610352</ele>
        <time>2021-03-06T13:57:27.000Z</time>
      </trkpt>
      <trkpt lat="46.49602" lon="5.53165">
        <ele>506.20001220703</ele>
        <time>2021-03-06T13:57:32.000Z</time>
      </trkpt>
      <trkpt lat="46.49558" lon="5.53154">
        <ele>506.60000610352</ele>
        <time>2021-03-06T13:57:38.000Z</time>
      </trkpt>
      <trkpt lat="46.49504" lon="5.53142">
        <ele>506</ele>
        <time>2021-03-06T13:57:45.000Z</time>
      </trkpt>
      <trkpt lat="46.4945" lon="5.53134">
        <ele>505.39999389648</ele>
        <time>2021-03-06T13:57:52.000Z</time>
      </trkpt>
      <trkpt lat="46.49442" lon="5.53132">
        <ele>505.39999389648</ele>
        <time>2021-03-06T13:57:53.000Z</time>
      </trkpt>
      <trkpt lat="46.494" lon="5.53111">
        <ele>505.60000610352</ele>
        <time>2021-03-06T13:57:59.000Z</time>
      </trkpt>
      <trkpt lat="46.49348" lon="5.53084">
        <ele>505.79998779297</ele>
        <time>2021-03-06T13:58:06.000Z</time>
      </trkpt>
      <trkpt lat="46.4932" lon="5.53064">
        <ele>506</ele>
        <time>2021-03-06T13:58:10.000Z</time>
      </trkpt>
      <trkpt lat="46.49266" lon="5.53023">
        <ele>506</ele>
        <time>2021-03-06T13:58:18.000Z</time>
      </trkpt>
      <trkpt lat="46.49216" lon="5.52984">
        <ele>507</ele>
        <time>2021-03-06T13:58:26.000Z</time>
      </trkpt>
      <trkpt lat="46.49209" lon="5.52979">
        <ele>507</ele>
        <time>2021-03-06T13:58:27.000Z</time>
      </trkpt>
      <trkpt lat="46.49158" lon="5.5294">
        <ele>507.39999389648</ele>
        <time>2021-03-06T13:58:35.000Z</time>
      </trkpt>
      <trkpt lat="46.49144" lon="5.52928">
        <ele>507.39999389648</ele>
        <time>2021-03-06T13:58:37.000Z</time>
      </trkpt>
      <trkpt lat="46.49137" lon="5.52922">
        <ele>507.39999389648</ele>
        <time>2021-03-06T13:58:38.000Z</time>
      </trkpt>
      <trkpt lat="46.49088" lon="5.52877">
        <ele>506.20001220703</ele>
        <time>2021-03-06T13:58:45.000Z</time>
      </trkpt>
      <trkpt lat="46.49081" lon="5.5287">
        <ele>506</ele>
        <time>2021-03-06T13:58:46.000Z</time>
      </trkpt>
      <trkpt lat="46.49074" lon="5.52863">
        <ele>505.79998779297</ele>
        <time>2021-03-06T13:58:47.000Z</time>
      </trkpt>
      <trkpt lat="46.49025" lon="5.52818">
        <ele>505.60000610352</ele>
        <time>2021-03-06T13:58:54.000Z</time>
      </trkpt>
      <trkpt lat="46.49011" lon="5.52804">
        <ele>505.39999389648</ele>
        <time>2021-03-06T13:58:56.000Z</time>
      </trkpt>
      <trkpt lat="46.4896" lon="5.52759">
        <ele>505</ele>
        <time>2021-03-06T13:59:03.000Z</time>
      </trkpt>
      <trkpt lat="46.48937" lon="5.52738">
        <ele>505</ele>
        <time>2021-03-06T13:59:06.000Z</time>
      </trkpt>
      <trkpt lat="46.48929" lon="5.52732">
        <ele>505</ele>
        <time>2021-03-06T13:59:07.000Z</time>
      </trkpt>
      <trkpt lat="46.48889" lon="5.52699">
        <ele>503.79998779297</ele>
        <time>2021-03-06T13:59:12.000Z</time>
      </trkpt>
      <trkpt lat="46.48874" lon="5.52686">
        <ele>503</ele>
        <time>2021-03-06T13:59:14.000Z</time>
      </trkpt>
      <trkpt lat="46.48865" lon="5.52676">
        <ele>502.79998779297</ele>
        <time>2021-03-06T13:59:15.000Z</time>
      </trkpt>
      <trkpt lat="46.48851" lon="5.52659">
        <ele>501.79998779297</ele>
        <time>2021-03-06T13:59:17.000Z</time>
      </trkpt>
      <trkpt lat="46.48837" lon="5.52643">
        <ele>501.39999389648</ele>
        <time>2021-03-06T13:59:19.000Z</time>
      </trkpt>
      <trkpt lat="46.4881" lon="5.52617">
        <ele>501.39999389648</ele>
        <time>2021-03-06T13:59:23.000Z</time>
      </trkpt>
      <trkpt lat="46.4878" lon="5.52593">
        <ele>503</ele>
        <time>2021-03-06T13:59:28.000Z</time>
      </trkpt>
      <trkpt lat="46.48767" lon="5.52584">
        <ele>503.60000610352</ele>
        <time>2021-03-06T13:59:30.000Z</time>
      </trkpt>
      <trkpt lat="46.48757" lon="5.52575">
        <ele>504.20001220703</ele>
        <time>2021-03-06T13:59:32.000Z</time>
      </trkpt>
      <trkpt lat="46.48739" lon="5.52561">
        <ele>505.20001220703</ele>
        <time>2021-03-06T13:59:35.000Z</time>
      </trkpt>
      <trkpt lat="46.48733" lon="5.52557">
        <ele>505.39999389648</ele>
        <time>2021-03-06T13:59:36.000Z</time>
      </trkpt>
      <trkpt lat="46.48709" lon="5.52541">
        <ele>506.39999389648</ele>
        <time>2021-03-06T13:59:40.000Z</time>
      </trkpt>
      <trkpt lat="46.48703" lon="5.52538">
        <ele>506.60000610352</ele>
        <time>2021-03-06T13:59:41.000Z</time>
      </trkpt>
      <trkpt lat="46.48696" lon="5.52535">
        <ele>506.60000610352</ele>
        <time>2021-03-06T13:59:42.000Z</time>
      </trkpt>
      <trkpt lat="46.48656" lon="5.52525">
        <ele>506.39999389648</ele>
        <time>2021-03-06T13:59:47.000Z</time>
      </trkpt>
      <trkpt lat="46.48623" lon="5.5252">
        <ele>505.60000610352</ele>
        <time>2021-03-06T13:59:51.000Z</time>
      </trkpt>
      <trkpt lat="46.48591" lon="5.52511">
        <ele>505</ele>
        <time>2021-03-06T13:59:55.000Z</time>
      </trkpt>
      <trkpt lat="46.48544" lon="5.52487">
        <ele>505</ele>
        <time>2021-03-06T14:00:01.000Z</time>
      </trkpt>
      <trkpt lat="46.48513" lon="5.52476">
        <ele>504.39999389648</ele>
        <time>2021-03-06T14:00:05.000Z</time>
      </trkpt>
      <trkpt lat="46.48483" lon="5.52467">
        <ele>504.39999389648</ele>
        <time>2021-03-06T14:00:09.000Z</time>
      </trkpt>
      <trkpt lat="46.48437" lon="5.52449">
        <ele>505.20001220703</ele>
        <time>2021-03-06T14:00:16.000Z</time>
      </trkpt>
      <trkpt lat="46.48425" lon="5.52445">
        <ele>506</ele>
        <time>2021-03-06T14:00:18.000Z</time>
      </trkpt>
      <trkpt lat="46.48403" lon="5.52437">
        <ele>507</ele>
        <time>2021-03-06T14:00:22.000Z</time>
      </trkpt>
      <trkpt lat="46.48392" lon="5.52431">
        <ele>508</ele>
        <time>2021-03-06T14:00:26.000Z</time>
      </trkpt>
      <trkpt lat="46.48391" lon="5.52431">
        <ele>508.20001220703</ele>
        <time>2021-03-06T14:00:27.000Z</time>
      </trkpt>
      <trkpt lat="46.48391" lon="5.52431">
        <ele>508.39999389648</ele>
        <time>2021-03-06T14:00:28.000Z</time>
      </trkpt>
      <trkpt lat="46.48386" lon="5.52431">
        <ele>509</ele>
        <time>2021-03-06T14:01:43.000Z</time>
      </trkpt>
      <trkpt lat="46.48368" lon="5.52426">
        <ele>508.79998779297</ele>
        <time>2021-03-06T14:01:48.000Z</time>
      </trkpt>
      <trkpt lat="46.4834" lon="5.5242">
        <ele>508.60000610352</ele>
        <time>2021-03-06T14:01:53.000Z</time>
      </trkpt>
      <trkpt lat="46.48316" lon="5.52412">
        <ele>508.60000610352</ele>
        <time>2021-03-06T14:01:57.000Z</time>
      </trkpt>
      <trkpt lat="46.48296" lon="5.52406">
        <ele>508.39999389648</ele>
        <time>2021-03-06T14:02:00.000Z</time>
      </trkpt>
      <trkpt lat="46.48252" lon="5.52393">
        <ele>508.39999389648</ele>
        <time>2021-03-06T14:02:06.000Z</time>
      </trkpt>
      <trkpt lat="46.48213" lon="5.52382">
        <ele>508.39999389648</ele>
        <time>2021-03-06T14:02:12.000Z</time>
      </trkpt>
      <trkpt lat="46.48206" lon="5.52379">
        <ele>508.60000610352</ele>
        <time>2021-03-06T14:02:13.000Z</time>
      </trkpt>
      <trkpt lat="46.48185" lon="5.52366">
        <ele>509.20001220703</ele>
        <time>2021-03-06T14:02:17.000Z</time>
      </trkpt>
      <trkpt lat="46.4816" lon="5.52346">
        <ele>509.60000610352</ele>
        <time>2021-03-06T14:02:22.000Z</time>
      </trkpt>
      <trkpt lat="46.48154" lon="5.52342">
        <ele>509.60000610352</ele>
        <time>2021-03-06T14:02:23.000Z</time>
      </trkpt>
      <trkpt lat="46.48142" lon="5.52337">
        <ele>509.79998779297</ele>
        <time>2021-03-06T14:02:25.000Z</time>
      </trkpt>
      <trkpt lat="46.48117" lon="5.52333">
        <ele>509.79998779297</ele>
        <time>2021-03-06T14:02:29.000Z</time>
      </trkpt>
      <trkpt lat="46.48086" lon="5.52327">
        <ele>509.60000610352</ele>
        <time>2021-03-06T14:02:33.000Z</time>
      </trkpt>
      <trkpt lat="46.48072" lon="5.52319">
        <ele>509.20001220703</ele>
        <time>2021-03-06T14:02:35.000Z</time>
      </trkpt>
      <trkpt lat="46.48056" lon="5.52308">
        <ele>508.20001220703</ele>
        <time>2021-03-06T14:02:37.000Z</time>
      </trkpt>
      <trkpt lat="46.48039" lon="5.52294">
        <ele>507.60000610352</ele>
        <time>2021-03-06T14:02:39.000Z</time>
      </trkpt>
      <trkpt lat="46.4803" lon="5.52288">
        <ele>507</ele>
        <time>2021-03-06T14:02:40.000Z</time>
      </trkpt>
      <trkpt lat="46.48005" lon="5.5227">
        <ele>505.79998779297</ele>
        <time>2021-03-06T14:02:43.000Z</time>
      </trkpt>
      <trkpt lat="46.47997" lon="5.52264">
        <ele>505</ele>
        <time>2021-03-06T14:02:44.000Z</time>
      </trkpt>
      <trkpt lat="46.47989" lon="5.52258">
        <ele>504.79998779297</ele>
        <time>2021-03-06T14:02:45.000Z</time>
      </trkpt>
      <trkpt lat="46.47958" lon="5.52242">
        <ele>503.79998779297</ele>
        <time>2021-03-06T14:02:49.000Z</time>
      </trkpt>
      <trkpt lat="46.4795" lon="5.52237">
        <ele>503.79998779297</ele>
        <time>2021-03-06T14:02:50.000Z</time>
      </trkpt>
      <trkpt lat="46.47944" lon="5.5223">
        <ele>503.60000610352</ele>
        <time>2021-03-06T14:02:51.000Z</time>
      </trkpt>
      <trkpt lat="46.47939" lon="5.52221">
        <ele>503.60000610352</ele>
        <time>2021-03-06T14:02:52.000Z</time>
      </trkpt>
      <trkpt lat="46.47932" lon="5.52186">
        <ele>503.60000610352</ele>
        <time>2021-03-06T14:02:55.000Z</time>
      </trkpt>
      <trkpt lat="46.47922" lon="5.52156">
        <ele>503.60000610352</ele>
        <time>2021-03-06T14:02:58.000Z</time>
      </trkpt>
      <trkpt lat="46.47916" lon="5.52147">
        <ele>503.60000610352</ele>
        <time>2021-03-06T14:02:59.000Z</time>
      </trkpt>
      <trkpt lat="46.47892" lon="5.52125">
        <ele>504</ele>
        <time>2021-03-06T14:03:03.000Z</time>
      </trkpt>
      <trkpt lat="46.47866" lon="5.52107">
        <ele>505</ele>
        <time>2021-03-06T14:03:07.000Z</time>
      </trkpt>
      <trkpt lat="46.4786" lon="5.52103">
        <ele>505</ele>
        <time>2021-03-06T14:03:08.000Z</time>
      </trkpt>
      <trkpt lat="46.47855" lon="5.52101">
        <ele>505.20001220703</ele>
        <time>2021-03-06T14:03:09.000Z</time>
      </trkpt>
      <trkpt lat="46.47837" lon="5.52098">
        <ele>506</ele>
        <time>2021-03-06T14:03:12.000Z</time>
      </trkpt>
      <trkpt lat="46.47809" lon="5.52095">
        <ele>507</ele>
        <time>2021-03-06T14:03:17.000Z</time>
      </trkpt>
      <trkpt lat="46.478" lon="5.52093">
        <ele>507.60000610352</ele>
        <time>2021-03-06T14:03:19.000Z</time>
      </trkpt>
      <trkpt lat="46.4779" lon="5.5209">
        <ele>508.20001220703</ele>
        <time>2021-03-06T14:03:21.000Z</time>
      </trkpt>
      <trkpt lat="46.47767" lon="5.52083">
        <ele>509.20001220703</ele>
        <time>2021-03-06T14:03:26.000Z</time>
      </trkpt>
      <trkpt lat="46.47758" lon="5.5208">
        <ele>509.39999389648</ele>
        <time>2021-03-06T14:03:28.000Z</time>
      </trkpt>
      <trkpt lat="46.47749" lon="5.52079">
        <ele>509.60000610352</ele>
        <time>2021-03-06T14:03:30.000Z</time>
      </trkpt>
      <trkpt lat="46.4773" lon="5.52076">
        <ele>510.20001220703</ele>
        <time>2021-03-06T14:03:34.000Z</time>
      </trkpt>
      <trkpt lat="46.47721" lon="5.52075">
        <ele>510.79998779297</ele>
        <time>2021-03-06T14:03:36.000Z</time>
      </trkpt>
      <trkpt lat="46.47703" lon="5.52071">
        <ele>511.60000610352</ele>
        <time>2021-03-06T14:03:40.000Z</time>
      </trkpt>
      <trkpt lat="46.47699" lon="5.52069">
        <ele>511.79998779297</ele>
        <time>2021-03-06T14:03:41.000Z</time>
      </trkpt>
      <trkpt lat="46.4769" lon="5.52063">
        <ele>512.40002441406</ele>
        <time>2021-03-06T14:03:43.000Z</time>
      </trkpt>
      <trkpt lat="46.47686" lon="5.5206">
        <ele>512.59997558594</ele>
        <time>2021-03-06T14:03:44.000Z</time>
      </trkpt>
      <trkpt lat="46.47679" lon="5.52055">
        <ele>513</ele>
        <time>2021-03-06T14:03:46.000Z</time>
      </trkpt>
      <trkpt lat="46.47665" lon="5.52042">
        <ele>513.59997558594</ele>
        <time>2021-03-06T14:03:50.000Z</time>
      </trkpt>
      <trkpt lat="46.4766" lon="5.52039">
        <ele>513.59997558594</ele>
        <time>2021-03-06T14:03:51.000Z</time>
      </trkpt>
      <trkpt lat="46.47636" lon="5.52024">
        <ele>514.79998779297</ele>
        <time>2021-03-06T14:03:57.000Z</time>
      </trkpt>
      <trkpt lat="46.47632" lon="5.52022">
        <ele>515</ele>
        <time>2021-03-06T14:03:58.000Z</time>
      </trkpt>
      <trkpt lat="46.47611" lon="5.52015">
        <ele>515.79998779297</ele>
        <time>2021-03-06T14:04:03.000Z</time>
      </trkpt>
      <trkpt lat="46.47607" lon="5.52014">
        <ele>516.20001220703</ele>
        <time>2021-03-06T14:04:04.000Z</time>
      </trkpt>
      <trkpt lat="46.47603" lon="5.52014">
        <ele>516.40002441406</ele>
        <time>2021-03-06T14:04:05.000Z</time>
      </trkpt>
      <trkpt lat="46.4759" lon="5.52011">
        <ele>516.79998779297</ele>
        <time>2021-03-06T14:04:08.000Z</time>
      </trkpt>
      <trkpt lat="46.47576" lon="5.52009">
        <ele>517.20001220703</ele>
        <time>2021-03-06T14:04:11.000Z</time>
      </trkpt>
      <trkpt lat="46.47571" lon="5.52008">
        <ele>517.20001220703</ele>
        <time>2021-03-06T14:04:12.000Z</time>
      </trkpt>
      <trkpt lat="46.47562" lon="5.52009">
        <ele>517.59997558594</ele>
        <time>2021-03-06T14:04:14.000Z</time>
      </trkpt>
      <trkpt lat="46.47553" lon="5.52009">
        <ele>518</ele>
        <time>2021-03-06T14:04:16.000Z</time>
      </trkpt>
      <trkpt lat="46.47548" lon="5.52009">
        <ele>518.20001220703</ele>
        <time>2021-03-06T14:04:17.000Z</time>
      </trkpt>
      <trkpt lat="46.47543" lon="5.5201">
        <ele>518.40002441406</ele>
        <time>2021-03-06T14:04:18.000Z</time>
      </trkpt>
      <trkpt lat="46.47522" lon="5.52012">
        <ele>519</ele>
        <time>2021-03-06T14:04:22.000Z</time>
      </trkpt>
      <trkpt lat="46.47511" lon="5.52012">
        <ele>519.20001220703</ele>
        <time>2021-03-06T14:04:24.000Z</time>
      </trkpt>
      <trkpt lat="46.47507" lon="5.52013">
        <ele>519.20001220703</ele>
        <time>2021-03-06T14:04:25.000Z</time>
      </trkpt>
      <trkpt lat="46.47494" lon="5.52015">
        <ele>520</ele>
        <time>2021-03-06T14:04:28.000Z</time>
      </trkpt>
      <trkpt lat="46.47479" lon="5.52022">
        <ele>520.40002441406</ele>
        <time>2021-03-06T14:04:31.000Z</time>
      </trkpt>
      <trkpt lat="46.47456" lon="5.52035">
        <ele>521.40002441406</ele>
        <time>2021-03-06T14:04:36.000Z</time>
      </trkpt>
      <trkpt lat="46.47444" lon="5.52044">
        <ele>522</ele>
        <time>2021-03-06T14:04:39.000Z</time>
      </trkpt>
      <trkpt lat="46.47436" lon="5.5205">
        <ele>522.40002441406</ele>
        <time>2021-03-06T14:04:41.000Z</time>
      </trkpt>
      <trkpt lat="46.47419" lon="5.52068">
        <ele>523.40002441406</ele>
        <time>2021-03-06T14:04:46.000Z</time>
      </trkpt>
      <trkpt lat="46.47412" lon="5.52074">
        <ele>524</ele>
        <time>2021-03-06T14:04:48.000Z</time>
      </trkpt>
      <trkpt lat="46.47393" lon="5.52089">
        <ele>524.59997558594</ele>
        <time>2021-03-06T14:04:53.000Z</time>
      </trkpt>
      <trkpt lat="46.47381" lon="5.52095">
        <ele>525.20001220703</ele>
        <time>2021-03-06T14:04:56.000Z</time>
      </trkpt>
      <trkpt lat="46.47369" lon="5.52098">
        <ele>525.59997558594</ele>
        <time>2021-03-06T14:04:59.000Z</time>
      </trkpt>
      <trkpt lat="46.47365" lon="5.52098">
        <ele>525.79998779297</ele>
        <time>2021-03-06T14:05:00.000Z</time>
      </trkpt>
      <trkpt lat="46.47361" lon="5.52098">
        <ele>526</ele>
        <time>2021-03-06T14:05:01.000Z</time>
      </trkpt>
      <trkpt lat="46.47353" lon="5.52097">
        <ele>526.40002441406</ele>
        <time>2021-03-06T14:05:03.000Z</time>
      </trkpt>
      <trkpt lat="46.47344" lon="5.52095">
        <ele>526.79998779297</ele>
        <time>2021-03-06T14:05:05.000Z</time>
      </trkpt>
      <trkpt lat="46.47333" lon="5.52092">
        <ele>527.20001220703</ele>
        <time>2021-03-06T14:05:08.000Z</time>
      </trkpt>
      <trkpt lat="46.47317" lon="5.52086">
        <ele>527.59997558594</ele>
        <time>2021-03-06T14:05:11.000Z</time>
      </trkpt>
      <trkpt lat="46.47295" lon="5.52076">
        <ele>528.20001220703</ele>
        <time>2021-03-06T14:05:16.000Z</time>
      </trkpt>
      <trkpt lat="46.47278" lon="5.52065">
        <ele>528.59997558594</ele>
        <time>2021-03-06T14:05:20.000Z</time>
      </trkpt>
      <trkpt lat="46.47273" lon="5.52062">
        <ele>528.79998779297</ele>
        <time>2021-03-06T14:05:21.000Z</time>
      </trkpt>
      <trkpt lat="46.47266" lon="5.52054">
        <ele>529.20001220703</ele>
        <time>2021-03-06T14:05:23.000Z</time>
      </trkpt>
      <trkpt lat="46.47261" lon="5.52051">
        <ele>529.40002441406</ele>
        <time>2021-03-06T14:05:24.000Z</time>
      </trkpt>
      <trkpt lat="46.47252" lon="5.52042">
        <ele>530</ele>
        <time>2021-03-06T14:05:26.000Z</time>
      </trkpt>
      <trkpt lat="46.47249" lon="5.52038">
        <ele>530.20001220703</ele>
        <time>2021-03-06T14:05:27.000Z</time>
      </trkpt>
      <trkpt lat="46.47242" lon="5.52029">
        <ele>530.40002441406</ele>
        <time>2021-03-06T14:05:29.000Z</time>
      </trkpt>
      <trkpt lat="46.47234" lon="5.52022">
        <ele>530.59997558594</ele>
        <time>2021-03-06T14:05:31.000Z</time>
      </trkpt>
      <trkpt lat="46.47221" lon="5.52012">
        <ele>531.20001220703</ele>
        <time>2021-03-06T14:05:34.000Z</time>
      </trkpt>
      <trkpt lat="46.47212" lon="5.5201">
        <ele>531.40002441406</ele>
        <time>2021-03-06T14:05:36.000Z</time>
      </trkpt>
      <trkpt lat="46.47189" lon="5.52008">
        <ele>532.40002441406</ele>
        <time>2021-03-06T14:05:41.000Z</time>
      </trkpt>
      <trkpt lat="46.47184" lon="5.52008">
        <ele>532.59997558594</ele>
        <time>2021-03-06T14:05:42.000Z</time>
      </trkpt>
      <trkpt lat="46.47161" lon="5.52003">
        <ele>533.40002441406</ele>
        <time>2021-03-06T14:05:47.000Z</time>
      </trkpt>
      <trkpt lat="46.47146" lon="5.51998">
        <ele>533.79998779297</ele>
        <time>2021-03-06T14:05:50.000Z</time>
      </trkpt>
      <trkpt lat="46.47138" lon="5.51993">
        <ele>534.20001220703</ele>
        <time>2021-03-06T14:05:52.000Z</time>
      </trkpt>
      <trkpt lat="46.47129" lon="5.51989">
        <ele>534.40002441406</ele>
        <time>2021-03-06T14:05:54.000Z</time>
      </trkpt>
      <trkpt lat="46.47116" lon="5.51983">
        <ele>535</ele>
        <time>2021-03-06T14:05:57.000Z</time>
      </trkpt>
      <trkpt lat="46.47103" lon="5.51975">
        <ele>535.59997558594</ele>
        <time>2021-03-06T14:06:00.000Z</time>
      </trkpt>
      <trkpt lat="46.47082" lon="5.51963">
        <ele>536.20001220703</ele>
        <time>2021-03-06T14:06:05.000Z</time>
      </trkpt>
      <trkpt lat="46.47069" lon="5.51955">
        <ele>536.59997558594</ele>
        <time>2021-03-06T14:06:08.000Z</time>
      </trkpt>
      <trkpt lat="46.47064" lon="5.51953">
        <ele>536.59997558594</ele>
        <time>2021-03-06T14:06:09.000Z</time>
      </trkpt>
      <trkpt lat="46.47049" lon="5.51949">
        <ele>537</ele>
        <time>2021-03-06T14:06:12.000Z</time>
      </trkpt>
      <trkpt lat="46.47034" lon="5.51947">
        <ele>537.40002441406</ele>
        <time>2021-03-06T14:06:15.000Z</time>
      </trkpt>
      <trkpt lat="46.47029" lon="5.51947">
        <ele>537.59997558594</ele>
        <time>2021-03-06T14:06:16.000Z</time>
      </trkpt>
      <trkpt lat="46.47025" lon="5.51946">
        <ele>537.79998779297</ele>
        <time>2021-03-06T14:06:17.000Z</time>
      </trkpt>
      <trkpt lat="46.47012" lon="5.51946">
        <ele>538.20001220703</ele>
        <time>2021-03-06T14:06:19.000Z</time>
      </trkpt>
      <trkpt lat="46.47003" lon="5.51941">
        <ele>538.79998779297</ele>
        <time>2021-03-06T14:06:21.000Z</time>
      </trkpt>
      <trkpt lat="46.46999" lon="5.51938">
        <ele>539</ele>
        <time>2021-03-06T14:06:22.000Z</time>
      </trkpt>
      <trkpt lat="46.46983" lon="5.51924">
        <ele>539.79998779297</ele>
        <time>2021-03-06T14:06:26.000Z</time>
      </trkpt>
      <trkpt lat="46.46979" lon="5.5192">
        <ele>540</ele>
        <time>2021-03-06T14:06:27.000Z</time>
      </trkpt>
      <trkpt lat="46.46965" lon="5.51903">
        <ele>540.79998779297</ele>
        <time>2021-03-06T14:06:31.000Z</time>
      </trkpt>
      <trkpt lat="46.46958" lon="5.51893">
        <ele>541</ele>
        <time>2021-03-06T14:06:33.000Z</time>
      </trkpt>
      <trkpt lat="46.46954" lon="5.51889">
        <ele>541.20001220703</ele>
        <time>2021-03-06T14:06:34.000Z</time>
      </trkpt>
      <trkpt lat="46.46946" lon="5.51882">
        <ele>541.79998779297</ele>
        <time>2021-03-06T14:06:36.000Z</time>
      </trkpt>
      <trkpt lat="46.46933" lon="5.5188">
        <ele>542.20001220703</ele>
        <time>2021-03-06T14:06:39.000Z</time>
      </trkpt>
      <trkpt lat="46.46929" lon="5.51881">
        <ele>542.40002441406</ele>
        <time>2021-03-06T14:06:40.000Z</time>
      </trkpt>
      <trkpt lat="46.46924" lon="5.51883">
        <ele>542.40002441406</ele>
        <time>2021-03-06T14:06:41.000Z</time>
      </trkpt>
      <trkpt lat="46.46896" lon="5.51895">
        <ele>543</ele>
        <time>2021-03-06T14:06:46.000Z</time>
      </trkpt>
      <trkpt lat="46.4689" lon="5.51897">
        <ele>543.20001220703</ele>
        <time>2021-03-06T14:06:47.000Z</time>
      </trkpt>
      <trkpt lat="46.4688" lon="5.51901">
        <ele>543.40002441406</ele>
        <time>2021-03-06T14:06:49.000Z</time>
      </trkpt>
      <trkpt lat="46.46861" lon="5.51907">
        <ele>543.79998779297</ele>
        <time>2021-03-06T14:06:53.000Z</time>
      </trkpt>
      <trkpt lat="46.46856" lon="5.5191">
        <ele>544</ele>
        <time>2021-03-06T14:06:54.000Z</time>
      </trkpt>
      <trkpt lat="46.46828" lon="5.51927">
        <ele>545.20001220703</ele>
        <time>2021-03-06T14:07:00.000Z</time>
      </trkpt>
      <trkpt lat="46.46818" lon="5.51927">
        <ele>545.40002441406</ele>
        <time>2021-03-06T14:07:02.000Z</time>
      </trkpt>
      <trkpt lat="46.468" lon="5.51925">
        <ele>545.79998779297</ele>
        <time>2021-03-06T14:07:06.000Z</time>
      </trkpt>
      <trkpt lat="46.46784" lon="5.51926">
        <ele>546.40002441406</ele>
        <time>2021-03-06T14:07:10.000Z</time>
      </trkpt>
      <trkpt lat="46.46775" lon="5.51927">
        <ele>546.79998779297</ele>
        <time>2021-03-06T14:07:12.000Z</time>
      </trkpt>
      <trkpt lat="46.46765" lon="5.51929">
        <ele>547.40002441406</ele>
        <time>2021-03-06T14:07:14.000Z</time>
      </trkpt>
      <trkpt lat="46.4676" lon="5.51928">
        <ele>547.40002441406</ele>
        <time>2021-03-06T14:07:15.000Z</time>
      </trkpt>
      <trkpt lat="46.46751" lon="5.51925">
        <ele>547.59997558594</ele>
        <time>2021-03-06T14:07:17.000Z</time>
      </trkpt>
      <trkpt lat="46.46746" lon="5.51923">
        <ele>547.79998779297</ele>
        <time>2021-03-06T14:07:18.000Z</time>
      </trkpt>
      <trkpt lat="46.46738" lon="5.51915">
        <ele>548</ele>
        <time>2021-03-06T14:07:20.000Z</time>
      </trkpt>
      <trkpt lat="46.46727" lon="5.51899">
        <ele>548.59997558594</ele>
        <time>2021-03-06T14:07:23.000Z</time>
      </trkpt>
      <trkpt lat="46.46721" lon="5.51888">
        <ele>548.79998779297</ele>
        <time>2021-03-06T14:07:25.000Z</time>
      </trkpt>
      <trkpt lat="46.46713" lon="5.51883">
        <ele>549.20001220703</ele>
        <time>2021-03-06T14:07:27.000Z</time>
      </trkpt>
      <trkpt lat="46.46709" lon="5.51881">
        <ele>549.59997558594</ele>
        <time>2021-03-06T14:07:28.000Z</time>
      </trkpt>
      <trkpt lat="46.46704" lon="5.51881">
        <ele>549.79998779297</ele>
        <time>2021-03-06T14:07:29.000Z</time>
      </trkpt>
      <trkpt lat="46.46694" lon="5.51886">
        <ele>550.20001220703</ele>
        <time>2021-03-06T14:07:31.000Z</time>
      </trkpt>
      <trkpt lat="46.46686" lon="5.51894">
        <ele>550.59997558594</ele>
        <time>2021-03-06T14:07:33.000Z</time>
      </trkpt>
      <trkpt lat="46.46683" lon="5.51898">
        <ele>550.79998779297</ele>
        <time>2021-03-06T14:07:34.000Z</time>
      </trkpt>
      <trkpt lat="46.46679" lon="5.51903">
        <ele>551.20001220703</ele>
        <time>2021-03-06T14:07:35.000Z</time>
      </trkpt>
      <trkpt lat="46.46671" lon="5.51914">
        <ele>551.79998779297</ele>
        <time>2021-03-06T14:07:37.000Z</time>
      </trkpt>
      <trkpt lat="46.46667" lon="5.51918">
        <ele>551.79998779297</ele>
        <time>2021-03-06T14:07:38.000Z</time>
      </trkpt>
      <trkpt lat="46.46659" lon="5.51929">
        <ele>552.20001220703</ele>
        <time>2021-03-06T14:07:40.000Z</time>
      </trkpt>
      <trkpt lat="46.46656" lon="5.51934">
        <ele>552.20001220703</ele>
        <time>2021-03-06T14:07:41.000Z</time>
      </trkpt>
      <trkpt lat="46.46647" lon="5.51945">
        <ele>552.79998779297</ele>
        <time>2021-03-06T14:07:43.000Z</time>
      </trkpt>
      <trkpt lat="46.46644" lon="5.5195">
        <ele>553</ele>
        <time>2021-03-06T14:07:44.000Z</time>
      </trkpt>
      <trkpt lat="46.46634" lon="5.51956">
        <ele>553.20001220703</ele>
        <time>2021-03-06T14:07:46.000Z</time>
      </trkpt>
      <trkpt lat="46.46627" lon="5.5196">
        <ele>553.79998779297</ele>
        <time>2021-03-06T14:07:48.000Z</time>
      </trkpt>
      <trkpt lat="46.46623" lon="5.51962">
        <ele>554</ele>
        <time>2021-03-06T14:07:49.000Z</time>
      </trkpt>
      <trkpt lat="46.46615" lon="5.51965">
        <ele>554.40002441406</ele>
        <time>2021-03-06T14:07:51.000Z</time>
      </trkpt>
      <trkpt lat="46.46607" lon="5.51964">
        <ele>554.59997558594</ele>
        <time>2021-03-06T14:07:53.000Z</time>
      </trkpt>
      <trkpt lat="46.46595" lon="5.51957">
        <ele>555.20001220703</ele>
        <time>2021-03-06T14:07:56.000Z</time>
      </trkpt>
      <trkpt lat="46.46583" lon="5.51952">
        <ele>555.79998779297</ele>
        <time>2021-03-06T14:07:59.000Z</time>
      </trkpt>
      <trkpt lat="46.46571" lon="5.51951">
        <ele>556.20001220703</ele>
        <time>2021-03-06T14:08:02.000Z</time>
      </trkpt>
      <trkpt lat="46.46563" lon="5.51951">
        <ele>556.40002441406</ele>
        <time>2021-03-06T14:08:04.000Z</time>
      </trkpt>
      <trkpt lat="46.46541" lon="5.51963">
        <ele>557.20001220703</ele>
        <time>2021-03-06T14:08:09.000Z</time>
      </trkpt>
      <trkpt lat="46.46537" lon="5.51965">
        <ele>557.40002441406</ele>
        <time>2021-03-06T14:08:10.000Z</time>
      </trkpt>
      <trkpt lat="46.46507" lon="5.5197">
        <ele>558.20001220703</ele>
        <time>2021-03-06T14:08:16.000Z</time>
      </trkpt>
      <trkpt lat="46.465" lon="5.51972">
        <ele>558.59997558594</ele>
        <time>2021-03-06T14:08:18.000Z</time>
      </trkpt>
      <trkpt lat="46.46484" lon="5.51978">
        <ele>559.40002441406</ele>
        <time>2021-03-06T14:08:22.000Z</time>
      </trkpt>
      <trkpt lat="46.46464" lon="5.51985">
        <ele>560</ele>
        <time>2021-03-06T14:08:27.000Z</time>
      </trkpt>
      <trkpt lat="46.46455" lon="5.51989">
        <ele>560.40002441406</ele>
        <time>2021-03-06T14:08:29.000Z</time>
      </trkpt>
      <trkpt lat="46.46439" lon="5.51988">
        <ele>561</ele>
        <time>2021-03-06T14:08:33.000Z</time>
      </trkpt>
      <trkpt lat="46.46427" lon="5.51983">
        <ele>561.59997558594</ele>
        <time>2021-03-06T14:08:36.000Z</time>
      </trkpt>
      <trkpt lat="46.46414" lon="5.5198">
        <ele>562</ele>
        <time>2021-03-06T14:08:39.000Z</time>
      </trkpt>
      <trkpt lat="46.46405" lon="5.51982">
        <ele>562.40002441406</ele>
        <time>2021-03-06T14:08:41.000Z</time>
      </trkpt>
      <trkpt lat="46.46402" lon="5.51983">
        <ele>562.59997558594</ele>
        <time>2021-03-06T14:08:42.000Z</time>
      </trkpt>
      <trkpt lat="46.46396" lon="5.51986">
        <ele>562.79998779297</ele>
        <time>2021-03-06T14:08:43.000Z</time>
      </trkpt>
      <trkpt lat="46.46387" lon="5.51993">
        <ele>563.40002441406</ele>
        <time>2021-03-06T14:08:45.000Z</time>
      </trkpt>
      <trkpt lat="46.46384" lon="5.51998">
        <ele>563.59997558594</ele>
        <time>2021-03-06T14:08:46.000Z</time>
      </trkpt>
      <trkpt lat="46.46379" lon="5.52008">
        <ele>564</ele>
        <time>2021-03-06T14:08:48.000Z</time>
      </trkpt>
      <trkpt lat="46.46367" lon="5.52028">
        <ele>564.79998779297</ele>
        <time>2021-03-06T14:08:52.000Z</time>
      </trkpt>
      <trkpt lat="46.46365" lon="5.52032">
        <ele>565</ele>
        <time>2021-03-06T14:08:53.000Z</time>
      </trkpt>
      <trkpt lat="46.4635" lon="5.52061">
        <ele>565.79998779297</ele>
        <time>2021-03-06T14:08:59.000Z</time>
      </trkpt>
      <trkpt lat="46.46347" lon="5.52067">
        <ele>566</ele>
        <time>2021-03-06T14:09:00.000Z</time>
      </trkpt>
      <trkpt lat="46.46336" lon="5.52092">
        <ele>567</ele>
        <time>2021-03-06T14:09:05.000Z</time>
      </trkpt>
      <trkpt lat="46.46333" lon="5.52096">
        <ele>567.20001220703</ele>
        <time>2021-03-06T14:09:06.000Z</time>
      </trkpt>
      <trkpt lat="46.46322" lon="5.52106">
        <ele>567.79998779297</ele>
        <time>2021-03-06T14:09:09.000Z</time>
      </trkpt>
      <trkpt lat="46.46314" lon="5.52108">
        <ele>567.79998779297</ele>
        <time>2021-03-06T14:09:11.000Z</time>
      </trkpt>
      <trkpt lat="46.46307" lon="5.52109">
        <ele>568.20001220703</ele>
        <time>2021-03-06T14:09:13.000Z</time>
      </trkpt>
      <trkpt lat="46.46289" lon="5.52106">
        <ele>569.40002441406</ele>
        <time>2021-03-06T14:09:18.000Z</time>
      </trkpt>
      <trkpt lat="46.46284" lon="5.52105">
        <ele>569.40002441406</ele>
        <time>2021-03-06T14:09:19.000Z</time>
      </trkpt>
      <trkpt lat="46.46265" lon="5.52098">
        <ele>570.40002441406</ele>
        <time>2021-03-06T14:09:24.000Z</time>
      </trkpt>
      <trkpt lat="46.46252" lon="5.52098">
        <ele>571.20001220703</ele>
        <time>2021-03-06T14:09:27.000Z</time>
      </trkpt>
      <trkpt lat="46.46241" lon="5.521">
        <ele>571.59997558594</ele>
        <time>2021-03-06T14:09:30.000Z</time>
      </trkpt>
      <trkpt lat="46.46225" lon="5.52102">
        <ele>572.40002441406</ele>
        <time>2021-03-06T14:09:34.000Z</time>
      </trkpt>
      <trkpt lat="46.46216" lon="5.52101">
        <ele>573</ele>
        <time>2021-03-06T14:09:36.000Z</time>
      </trkpt>
      <trkpt lat="46.46191" lon="5.52094">
        <ele>573.79998779297</ele>
        <time>2021-03-06T14:09:42.000Z</time>
      </trkpt>
      <trkpt lat="46.46187" lon="5.52091">
        <ele>574</ele>
        <time>2021-03-06T14:09:43.000Z</time>
      </trkpt>
      <trkpt lat="46.46175" lon="5.52083">
        <ele>574.59997558594</ele>
        <time>2021-03-06T14:09:46.000Z</time>
      </trkpt>
      <trkpt lat="46.46167" lon="5.52076">
        <ele>575</ele>
        <time>2021-03-06T14:09:48.000Z</time>
      </trkpt>
      <trkpt lat="46.46164" lon="5.52074">
        <ele>575.20001220703</ele>
        <time>2021-03-06T14:09:49.000Z</time>
      </trkpt>
      <trkpt lat="46.46156" lon="5.52068">
        <ele>575.40002441406</ele>
        <time>2021-03-06T14:09:51.000Z</time>
      </trkpt>
      <trkpt lat="46.46152" lon="5.52065">
        <ele>575.59997558594</ele>
        <time>2021-03-06T14:09:52.000Z</time>
      </trkpt>
      <trkpt lat="46.46142" lon="5.52057">
        <ele>576.20001220703</ele>
        <time>2021-03-06T14:09:55.000Z</time>
      </trkpt>
      <trkpt lat="46.46137" lon="5.52055">
        <ele>576.40002441406</ele>
        <time>2021-03-06T14:09:56.000Z</time>
      </trkpt>
      <trkpt lat="46.46129" lon="5.52053">
        <ele>576.59997558594</ele>
        <time>2021-03-06T14:09:58.000Z</time>
      </trkpt>
      <trkpt lat="46.46107" lon="5.52049">
        <ele>577.40002441406</ele>
        <time>2021-03-06T14:10:03.000Z</time>
      </trkpt>
      <trkpt lat="46.461" lon="5.52046">
        <ele>578</ele>
        <time>2021-03-06T14:10:05.000Z</time>
      </trkpt>
      <trkpt lat="46.46091" lon="5.52044">
        <ele>578.40002441406</ele>
        <time>2021-03-06T14:10:07.000Z</time>
      </trkpt>
      <trkpt lat="46.46087" lon="5.52042">
        <ele>578.59997558594</ele>
        <time>2021-03-06T14:10:08.000Z</time>
      </trkpt>
      <trkpt lat="46.46066" lon="5.52025">
        <ele>579.59997558594</ele>
        <time>2021-03-06T14:10:14.000Z</time>
      </trkpt>
      <trkpt lat="46.46046" lon="5.52015">
        <ele>580.59997558594</ele>
        <time>2021-03-06T14:10:19.000Z</time>
      </trkpt>
      <trkpt lat="46.46041" lon="5.52014">
        <ele>580.79998779297</ele>
        <time>2021-03-06T14:10:20.000Z</time>
      </trkpt>
      <trkpt lat="46.46022" lon="5.52008">
        <ele>581.79998779297</ele>
        <time>2021-03-06T14:10:25.000Z</time>
      </trkpt>
      <trkpt lat="46.46018" lon="5.52007">
        <ele>582</ele>
        <time>2021-03-06T14:10:26.000Z</time>
      </trkpt>
      <trkpt lat="46.45995" lon="5.51997">
        <ele>583</ele>
        <time>2021-03-06T14:10:31.000Z</time>
      </trkpt>
      <trkpt lat="46.45992" lon="5.51994">
        <ele>583.20001220703</ele>
        <time>2021-03-06T14:10:32.000Z</time>
      </trkpt>
      <trkpt lat="46.45979" lon="5.51986">
        <ele>584</ele>
        <time>2021-03-06T14:10:35.000Z</time>
      </trkpt>
      <trkpt lat="46.45973" lon="5.51986">
        <ele>584.20001220703</ele>
        <time>2021-03-06T14:10:36.000Z</time>
      </trkpt>
      <trkpt lat="46.45961" lon="5.51978">
        <ele>585.20001220703</ele>
        <time>2021-03-06T14:10:39.000Z</time>
      </trkpt>
      <trkpt lat="46.45947" lon="5.51965">
        <ele>585.79998779297</ele>
        <time>2021-03-06T14:10:43.000Z</time>
      </trkpt>
      <trkpt lat="46.45936" lon="5.51954">
        <ele>586.20001220703</ele>
        <time>2021-03-06T14:10:46.000Z</time>
      </trkpt>
      <trkpt lat="46.45925" lon="5.51946">
        <ele>586.79998779297</ele>
        <time>2021-03-06T14:10:49.000Z</time>
      </trkpt>
      <trkpt lat="46.45919" lon="5.51941">
        <ele>587.40002441406</ele>
        <time>2021-03-06T14:10:51.000Z</time>
      </trkpt>
      <trkpt lat="46.45903" lon="5.51929">
        <ele>588.20001220703</ele>
        <time>2021-03-06T14:10:56.000Z</time>
      </trkpt>
      <trkpt lat="46.45895" lon="5.51925">
        <ele>588.59997558594</ele>
        <time>2021-03-06T14:10:58.000Z</time>
      </trkpt>
      <trkpt lat="46.45877" lon="5.51913">
        <ele>589.79998779297</ele>
        <time>2021-03-06T14:11:03.000Z</time>
      </trkpt>
      <trkpt lat="46.4587" lon="5.51908">
        <ele>590</ele>
        <time>2021-03-06T14:11:05.000Z</time>
      </trkpt>
      <trkpt lat="46.45852" lon="5.51891">
        <ele>590.79998779297</ele>
        <time>2021-03-06T14:11:10.000Z</time>
      </trkpt>
      <trkpt lat="46.4584" lon="5.51884">
        <ele>591.79998779297</ele>
        <time>2021-03-06T14:11:13.000Z</time>
      </trkpt>
      <trkpt lat="46.45828" lon="5.51879">
        <ele>592</ele>
        <time>2021-03-06T14:11:16.000Z</time>
      </trkpt>
      <trkpt lat="46.45816" lon="5.51874">
        <ele>592.40002441406</ele>
        <time>2021-03-06T14:11:19.000Z</time>
      </trkpt>
      <trkpt lat="46.45809" lon="5.5187">
        <ele>592.79998779297</ele>
        <time>2021-03-06T14:11:21.000Z</time>
      </trkpt>
      <trkpt lat="46.45802" lon="5.51866">
        <ele>593.20001220703</ele>
        <time>2021-03-06T14:11:23.000Z</time>
      </trkpt>
      <trkpt lat="46.45778" lon="5.51855">
        <ele>594.20001220703</ele>
        <time>2021-03-06T14:11:29.000Z</time>
      </trkpt>
      <trkpt lat="46.45763" lon="5.51847">
        <ele>595.40002441406</ele>
        <time>2021-03-06T14:11:33.000Z</time>
      </trkpt>
      <trkpt lat="46.45747" lon="5.51839">
        <ele>596.20001220703</ele>
        <time>2021-03-06T14:11:37.000Z</time>
      </trkpt>
      <trkpt lat="46.4574" lon="5.51834">
        <ele>596.40002441406</ele>
        <time>2021-03-06T14:11:39.000Z</time>
      </trkpt>
      <trkpt lat="46.45718" lon="5.51819">
        <ele>597.59997558594</ele>
        <time>2021-03-06T14:11:45.000Z</time>
      </trkpt>
      <trkpt lat="46.45711" lon="5.51813">
        <ele>597.79998779297</ele>
        <time>2021-03-06T14:11:47.000Z</time>
      </trkpt>
      <trkpt lat="46.45696" lon="5.51801">
        <ele>598.59997558594</ele>
        <time>2021-03-06T14:11:51.000Z</time>
      </trkpt>
      <trkpt lat="46.45675" lon="5.51786">
        <ele>599.59997558594</ele>
        <time>2021-03-06T14:11:57.000Z</time>
      </trkpt>
      <trkpt lat="46.45671" lon="5.51784">
        <ele>599.79998779297</ele>
        <time>2021-03-06T14:11:58.000Z</time>
      </trkpt>
      <trkpt lat="46.45657" lon="5.51774">
        <ele>600.79998779297</ele>
        <time>2021-03-06T14:12:02.000Z</time>
      </trkpt>
      <trkpt lat="46.45647" lon="5.51765">
        <ele>601.20001220703</ele>
        <time>2021-03-06T14:12:05.000Z</time>
      </trkpt>
      <trkpt lat="46.45638" lon="5.51755">
        <ele>602</ele>
        <time>2021-03-06T14:12:08.000Z</time>
      </trkpt>
      <trkpt lat="46.45624" lon="5.51743">
        <ele>603</ele>
        <time>2021-03-06T14:12:12.000Z</time>
      </trkpt>
      <trkpt lat="46.4561" lon="5.51733">
        <ele>604.40002441406</ele>
        <time>2021-03-06T14:12:16.000Z</time>
      </trkpt>
      <trkpt lat="46.45592" lon="5.51722">
        <ele>605.59997558594</ele>
        <time>2021-03-06T14:12:21.000Z</time>
      </trkpt>
      <trkpt lat="46.45566" lon="5.51704">
        <ele>606.40002441406</ele>
        <time>2021-03-06T14:12:28.000Z</time>
      </trkpt>
      <trkpt lat="46.45547" lon="5.51692">
        <ele>607.40002441406</ele>
        <time>2021-03-06T14:12:33.000Z</time>
      </trkpt>
      <trkpt lat="46.45544" lon="5.51689">
        <ele>607.79998779297</ele>
        <time>2021-03-06T14:12:34.000Z</time>
      </trkpt>
      <trkpt lat="46.45525" lon="5.51674">
        <ele>609.40002441406</ele>
        <time>2021-03-06T14:12:40.000Z</time>
      </trkpt>
      <trkpt lat="46.45514" lon="5.51666">
        <ele>610</ele>
        <time>2021-03-06T14:12:43.000Z</time>
      </trkpt>
      <trkpt lat="46.45506" lon="5.5166">
        <ele>610.40002441406</ele>
        <time>2021-03-06T14:12:45.000Z</time>
      </trkpt>
      <trkpt lat="46.45493" lon="5.51647">
        <ele>611.40002441406</ele>
        <time>2021-03-06T14:12:50.000Z</time>
      </trkpt>
      <trkpt lat="46.45489" lon="5.51641">
        <ele>611.59997558594</ele>
        <time>2021-03-06T14:12:52.000Z</time>
      </trkpt>
      <trkpt lat="46.4548" lon="5.51632">
        <ele>612.40002441406</ele>
        <time>2021-03-06T14:12:56.000Z</time>
      </trkpt>
      <trkpt lat="46.45476" lon="5.51628">
        <ele>612.79998779297</ele>
        <time>2021-03-06T14:12:58.000Z</time>
      </trkpt>
      <trkpt lat="46.45476" lon="5.51628">
        <ele>613</ele>
        <time>2021-03-06T14:13:00.000Z</time>
      </trkpt>
      <trkpt lat="46.45476" lon="5.51628">
        <ele>613.20001220703</ele>
        <time>2021-03-06T14:13:01.000Z</time>
      </trkpt>
      <trkpt lat="46.45475" lon="5.51626">
        <ele>613.20001220703</ele>
        <time>2021-03-06T14:13:40.000Z</time>
      </trkpt>
      <trkpt lat="46.45473" lon="5.51619">
        <ele>613.20001220703</ele>
        <time>2021-03-06T14:13:43.000Z</time>
      </trkpt>
      <trkpt lat="46.45467" lon="5.51606">
        <ele>613.20001220703</ele>
        <time>2021-03-06T14:13:45.000Z</time>
      </trkpt>
      <trkpt lat="46.45464" lon="5.516">
        <ele>613.20001220703</ele>
        <time>2021-03-06T14:13:46.000Z</time>
      </trkpt>
      <trkpt lat="46.45461" lon="5.51593">
        <ele>613.20001220703</ele>
        <time>2021-03-06T14:13:47.000Z</time>
      </trkpt>
      <trkpt lat="46.45454" lon="5.51577">
        <ele>613.20001220703</ele>
        <time>2021-03-06T14:13:50.000Z</time>
      </trkpt>
      <trkpt lat="46.45446" lon="5.51561">
        <ele>613.20001220703</ele>
        <time>2021-03-06T14:13:51.000Z</time>
      </trkpt>
      <trkpt lat="46.45436" lon="5.51548">
        <ele>613</ele>
        <time>2021-03-06T14:13:53.000Z</time>
      </trkpt>
      <trkpt lat="46.45429" lon="5.51542">
        <ele>612.59997558594</ele>
        <time>2021-03-06T14:13:54.000Z</time>
      </trkpt>
      <trkpt lat="46.45396" lon="5.51516">
        <ele>612</ele>
        <time>2021-03-06T14:13:59.000Z</time>
      </trkpt>
      <trkpt lat="46.4539" lon="5.51512">
        <ele>611.79998779297</ele>
        <time>2021-03-06T14:14:00.000Z</time>
      </trkpt>
      <trkpt lat="46.4537" lon="5.51496">
        <ele>611.20001220703</ele>
        <time>2021-03-06T14:14:03.000Z</time>
      </trkpt>
      <trkpt lat="46.45363" lon="5.51488">
        <ele>611</ele>
        <time>2021-03-06T14:14:05.000Z</time>
      </trkpt>
      <trkpt lat="46.45352" lon="5.51474">
        <ele>611</ele>
        <time>2021-03-06T14:14:06.000Z</time>
      </trkpt>
      <trkpt lat="46.45326" lon="5.51437">
        <ele>611.20001220703</ele>
        <time>2021-03-06T14:14:12.000Z</time>
      </trkpt>
      <trkpt lat="46.45312" lon="5.51423">
        <ele>612</ele>
        <time>2021-03-06T14:14:15.000Z</time>
      </trkpt>
      <trkpt lat="46.45308" lon="5.51417">
        <ele>613.20001220703</ele>
        <time>2021-03-06T14:14:17.000Z</time>
      </trkpt>
      <trkpt lat="46.45302" lon="5.51404">
        <ele>613.79998779297</ele>
        <time>2021-03-06T14:14:18.000Z</time>
      </trkpt>
      <trkpt lat="46.45299" lon="5.51397">
        <ele>614.20001220703</ele>
        <time>2021-03-06T14:14:20.000Z</time>
      </trkpt>
      <trkpt lat="46.45297" lon="5.5138">
        <ele>614.40002441406</ele>
        <time>2021-03-06T14:14:21.000Z</time>
      </trkpt>
      <trkpt lat="46.45296" lon="5.51366">
        <ele>614.79998779297</ele>
        <time>2021-03-06T14:14:23.000Z</time>
      </trkpt>
      <trkpt lat="46.45298" lon="5.51348">
        <ele>615.20001220703</ele>
        <time>2021-03-06T14:14:25.000Z</time>
      </trkpt>
      <trkpt lat="46.45298" lon="5.51348">
        <ele>615.40002441406</ele>
        <time>2021-03-06T14:14:26.000Z</time>
      </trkpt>
      <trkpt lat="46.453" lon="5.51322">
        <ele>615.59997558594</ele>
        <time>2021-03-06T14:14:28.000Z</time>
      </trkpt>
      <trkpt lat="46.45295" lon="5.51307">
        <ele>615.20001220703</ele>
        <time>2021-03-06T14:14:30.000Z</time>
      </trkpt>
      <trkpt lat="46.45283" lon="5.51299">
        <ele>615</ele>
        <time>2021-03-06T14:14:32.000Z</time>
      </trkpt>
      <trkpt lat="46.45283" lon="5.51299">
        <ele>615.20001220703</ele>
        <time>2021-03-06T14:14:33.000Z</time>
      </trkpt>
      <trkpt lat="46.4527" lon="5.51291">
        <ele>615.20001220703</ele>
        <time>2021-03-06T14:14:34.000Z</time>
      </trkpt>
      <trkpt lat="46.45264" lon="5.51278">
        <ele>615</ele>
        <time>2021-03-06T14:14:36.000Z</time>
      </trkpt>
      <trkpt lat="46.45272" lon="5.51251">
        <ele>614.20001220703</ele>
        <time>2021-03-06T14:14:39.000Z</time>
      </trkpt>
      <trkpt lat="46.45288" lon="5.51223">
        <ele>612.79998779297</ele>
        <time>2021-03-06T14:14:43.000Z</time>
      </trkpt>
      <trkpt lat="46.45299" lon="5.51202">
        <ele>612.20001220703</ele>
        <time>2021-03-06T14:14:44.000Z</time>
      </trkpt>
      <trkpt lat="46.45305" lon="5.51179">
        <ele>611.20001220703</ele>
        <time>2021-03-06T14:14:46.000Z</time>
      </trkpt>
      <trkpt lat="46.45305" lon="5.51179">
        <ele>610.79998779297</ele>
        <time>2021-03-06T14:14:47.000Z</time>
      </trkpt>
      <trkpt lat="46.45306" lon="5.5115">
        <ele>609.59997558594</ele>
        <time>2021-03-06T14:14:48.000Z</time>
      </trkpt>
      <trkpt lat="46.45306" lon="5.5112">
        <ele>608</ele>
        <time>2021-03-06T14:14:50.000Z</time>
      </trkpt>
      <trkpt lat="46.45305" lon="5.51089">
        <ele>606.79998779297</ele>
        <time>2021-03-06T14:14:52.000Z</time>
      </trkpt>
      <trkpt lat="46.45306" lon="5.51073">
        <ele>605.40002441406</ele>
        <time>2021-03-06T14:14:53.000Z</time>
      </trkpt>
      <trkpt lat="46.45313" lon="5.51038">
        <ele>604</ele>
        <time>2021-03-06T14:14:55.000Z</time>
      </trkpt>
      <trkpt lat="46.45328" lon="5.51014">
        <ele>602.59997558594</ele>
        <time>2021-03-06T14:14:57.000Z</time>
      </trkpt>
      <trkpt lat="46.45345" lon="5.51">
        <ele>600.79998779297</ele>
        <time>2021-03-06T14:14:59.000Z</time>
      </trkpt>
      <trkpt lat="46.45351" lon="5.50992">
        <ele>599.59997558594</ele>
        <time>2021-03-06T14:15:00.000Z</time>
      </trkpt>
      <trkpt lat="46.45357" lon="5.50982">
        <ele>599</ele>
        <time>2021-03-06T14:15:01.000Z</time>
      </trkpt>
      <trkpt lat="46.45354" lon="5.50973">
        <ele>597.59997558594</ele>
        <time>2021-03-06T14:15:02.000Z</time>
      </trkpt>
      <trkpt lat="46.45351" lon="5.50963">
        <ele>597</ele>
        <time>2021-03-06T14:15:03.000Z</time>
      </trkpt>
      <trkpt lat="46.45345" lon="5.50954">
        <ele>596.40002441406</ele>
        <time>2021-03-06T14:15:04.000Z</time>
      </trkpt>
      <trkpt lat="46.45337" lon="5.50949">
        <ele>596</ele>
        <time>2021-03-06T14:15:05.000Z</time>
      </trkpt>
      <trkpt lat="46.45318" lon="5.50943">
        <ele>595</ele>
        <time>2021-03-06T14:15:07.000Z</time>
      </trkpt>
      <trkpt lat="46.45298" lon="5.50939">
        <ele>594.40002441406</ele>
        <time>2021-03-06T14:15:09.000Z</time>
      </trkpt>
      <trkpt lat="46.45277" lon="5.50944">
        <ele>593.79998779297</ele>
        <time>2021-03-06T14:15:11.000Z</time>
      </trkpt>
      <trkpt lat="46.45277" lon="5.50944">
        <ele>593.20001220703</ele>
        <time>2021-03-06T14:15:12.000Z</time>
      </trkpt>
      <trkpt lat="46.45254" lon="5.50951">
        <ele>592.59997558594</ele>
        <time>2021-03-06T14:15:13.000Z</time>
      </trkpt>
      <trkpt lat="46.4523" lon="5.5095">
        <ele>591.20001220703</ele>
        <time>2021-03-06T14:15:15.000Z</time>
      </trkpt>
      <trkpt lat="46.4523" lon="5.5095">
        <ele>590</ele>
        <time>2021-03-06T14:15:16.000Z</time>
      </trkpt>
      <trkpt lat="46.45192" lon="5.50942">
        <ele>588.40002441406</ele>
        <time>2021-03-06T14:15:18.000Z</time>
      </trkpt>
      <trkpt lat="46.45164" lon="5.50932">
        <ele>586.79998779297</ele>
        <time>2021-03-06T14:15:20.000Z</time>
      </trkpt>
      <trkpt lat="46.45151" lon="5.50925">
        <ele>586</ele>
        <time>2021-03-06T14:15:21.000Z</time>
      </trkpt>
      <trkpt lat="46.45139" lon="5.50916">
        <ele>584.79998779297</ele>
        <time>2021-03-06T14:15:22.000Z</time>
      </trkpt>
      <trkpt lat="46.45128" lon="5.50905">
        <ele>582.79998779297</ele>
        <time>2021-03-06T14:15:23.000Z</time>
      </trkpt>
      <trkpt lat="46.45117" lon="5.50892">
        <ele>582.20001220703</ele>
        <time>2021-03-06T14:15:24.000Z</time>
      </trkpt>
      <trkpt lat="46.45107" lon="5.50878">
        <ele>581</ele>
        <time>2021-03-06T14:15:25.000Z</time>
      </trkpt>
      <trkpt lat="46.45089" lon="5.50849">
        <ele>579.59997558594</ele>
        <time>2021-03-06T14:15:27.000Z</time>
      </trkpt>
      <trkpt lat="46.4508" lon="5.50833">
        <ele>578.59997558594</ele>
        <time>2021-03-06T14:15:28.000Z</time>
      </trkpt>
      <trkpt lat="46.45071" lon="5.50818">
        <ele>577</ele>
        <time>2021-03-06T14:15:29.000Z</time>
      </trkpt>
      <trkpt lat="46.45054" lon="5.50783">
        <ele>574.59997558594</ele>
        <time>2021-03-06T14:15:31.000Z</time>
      </trkpt>
      <trkpt lat="46.45048" lon="5.50765">
        <ele>573.40002441406</ele>
        <time>2021-03-06T14:15:32.000Z</time>
      </trkpt>
      <trkpt lat="46.45038" lon="5.5073">
        <ele>570.59997558594</ele>
        <time>2021-03-06T14:15:34.000Z</time>
      </trkpt>
      <trkpt lat="46.45032" lon="5.50712">
        <ele>569.59997558594</ele>
        <time>2021-03-06T14:15:35.000Z</time>
      </trkpt>
      <trkpt lat="46.45021" lon="5.50692">
        <ele>568</ele>
        <time>2021-03-06T14:15:36.000Z</time>
      </trkpt>
      <trkpt lat="46.45011" lon="5.50678">
        <ele>567.59997558594</ele>
        <time>2021-03-06T14:15:37.000Z</time>
      </trkpt>
      <trkpt lat="46.45002" lon="5.50669">
        <ele>566.20001220703</ele>
        <time>2021-03-06T14:15:38.000Z</time>
      </trkpt>
      <trkpt lat="46.4499" lon="5.50658">
        <ele>565.59997558594</ele>
        <time>2021-03-06T14:15:39.000Z</time>
      </trkpt>
      <trkpt lat="46.4499" lon="5.50658">
        <ele>563.79998779297</ele>
        <time>2021-03-06T14:15:40.000Z</time>
      </trkpt>
      <trkpt lat="46.44967" lon="5.50637">
        <ele>561.79998779297</ele>
        <time>2021-03-06T14:15:41.000Z</time>
      </trkpt>
      <trkpt lat="46.44953" lon="5.50628">
        <ele>561.20001220703</ele>
        <time>2021-03-06T14:15:42.000Z</time>
      </trkpt>
      <trkpt lat="46.44942" lon="5.50624">
        <ele>560.20001220703</ele>
        <time>2021-03-06T14:15:43.000Z</time>
      </trkpt>
      <trkpt lat="46.4493" lon="5.50623">
        <ele>559.59997558594</ele>
        <time>2021-03-06T14:15:44.000Z</time>
      </trkpt>
      <trkpt lat="46.4493" lon="5.50623">
        <ele>558.20001220703</ele>
        <time>2021-03-06T14:15:45.000Z</time>
      </trkpt>
      <trkpt lat="46.44907" lon="5.50632">
        <ele>557.59997558594</ele>
        <time>2021-03-06T14:15:46.000Z</time>
      </trkpt>
      <trkpt lat="46.44895" lon="5.50634">
        <ele>556.40002441406</ele>
        <time>2021-03-06T14:15:47.000Z</time>
      </trkpt>
      <trkpt lat="46.44884" lon="5.50633">
        <ele>555</ele>
        <time>2021-03-06T14:15:48.000Z</time>
      </trkpt>
      <trkpt lat="46.44871" lon="5.50629">
        <ele>553</ele>
        <time>2021-03-06T14:15:50.000Z</time>
      </trkpt>
      <trkpt lat="46.44847" lon="5.50613">
        <ele>552.20001220703</ele>
        <time>2021-03-06T14:15:51.000Z</time>
      </trkpt>
      <trkpt lat="46.44834" lon="5.50604">
        <ele>550.40002441406</ele>
        <time>2021-03-06T14:15:52.000Z</time>
      </trkpt>
      <trkpt lat="46.44808" lon="5.50588">
        <ele>548.20001220703</ele>
        <time>2021-03-06T14:15:54.000Z</time>
      </trkpt>
      <trkpt lat="46.44781" lon="5.50574">
        <ele>545.40002441406</ele>
        <time>2021-03-06T14:15:56.000Z</time>
      </trkpt>
      <trkpt lat="46.44767" lon="5.50569">
        <ele>543.40002441406</ele>
        <time>2021-03-06T14:15:57.000Z</time>
      </trkpt>
      <trkpt lat="46.44741" lon="5.5056">
        <ele>542</ele>
        <time>2021-03-06T14:15:59.000Z</time>
      </trkpt>
      <trkpt lat="46.4473" lon="5.50557">
        <ele>538.79998779297</ele>
        <time>2021-03-06T14:16:01.000Z</time>
      </trkpt>
      <trkpt lat="46.44711" lon="5.50548">
        <ele>536.59997558594</ele>
        <time>2021-03-06T14:16:03.000Z</time>
      </trkpt>
      <trkpt lat="46.44695" lon="5.50542">
        <ele>535.59997558594</ele>
        <time>2021-03-06T14:16:04.000Z</time>
      </trkpt>
      <trkpt lat="46.44689" lon="5.50542">
        <ele>535.20001220703</ele>
        <time>2021-03-06T14:16:05.000Z</time>
      </trkpt>
      <trkpt lat="46.44685" lon="5.50548">
        <ele>534</ele>
        <time>2021-03-06T14:16:06.000Z</time>
      </trkpt>
      <trkpt lat="46.44685" lon="5.50565">
        <ele>532.59997558594</ele>
        <time>2021-03-06T14:16:08.000Z</time>
      </trkpt>
      <trkpt lat="46.44697" lon="5.50584">
        <ele>531.79998779297</ele>
        <time>2021-03-06T14:16:10.000Z</time>
      </trkpt>
      <trkpt lat="46.44705" lon="5.50592">
        <ele>531.20001220703</ele>
        <time>2021-03-06T14:16:11.000Z</time>
      </trkpt>
      <trkpt lat="46.44713" lon="5.50601">
        <ele>530</ele>
        <time>2021-03-06T14:16:12.000Z</time>
      </trkpt>
      <trkpt lat="46.44729" lon="5.50618">
        <ele>528.79998779297</ele>
        <time>2021-03-06T14:16:14.000Z</time>
      </trkpt>
      <trkpt lat="46.44738" lon="5.50627">
        <ele>527.40002441406</ele>
        <time>2021-03-06T14:16:15.000Z</time>
      </trkpt>
      <trkpt lat="46.44755" lon="5.50644">
        <ele>526.20001220703</ele>
        <time>2021-03-06T14:16:17.000Z</time>
      </trkpt>
      <trkpt lat="46.44772" lon="5.50662">
        <ele>524.40002441406</ele>
        <time>2021-03-06T14:16:19.000Z</time>
      </trkpt>
      <trkpt lat="46.44781" lon="5.50669">
        <ele>524</ele>
        <time>2021-03-06T14:16:20.000Z</time>
      </trkpt>
      <trkpt lat="46.44788" lon="5.50675">
        <ele>523.20001220703</ele>
        <time>2021-03-06T14:16:21.000Z</time>
      </trkpt>
      <trkpt lat="46.448" lon="5.50685">
        <ele>522.20001220703</ele>
        <time>2021-03-06T14:16:23.000Z</time>
      </trkpt>
      <trkpt lat="46.44803" lon="5.50698">
        <ele>521.20001220703</ele>
        <time>2021-03-06T14:16:25.000Z</time>
      </trkpt>
      <trkpt lat="46.44796" lon="5.50705">
        <ele>520.59997558594</ele>
        <time>2021-03-06T14:16:27.000Z</time>
      </trkpt>
      <trkpt lat="46.44791" lon="5.50704">
        <ele>520.40002441406</ele>
        <time>2021-03-06T14:16:28.000Z</time>
      </trkpt>
      <trkpt lat="46.44784" lon="5.507">
        <ele>520.40002441406</ele>
        <time>2021-03-06T14:16:29.000Z</time>
      </trkpt>
      <trkpt lat="46.44767" lon="5.50689">
        <ele>519.59997558594</ele>
        <time>2021-03-06T14:16:31.000Z</time>
      </trkpt>
      <trkpt lat="46.44747" lon="5.50679">
        <ele>518.20001220703</ele>
        <time>2021-03-06T14:16:33.000Z</time>
      </trkpt>
      <trkpt lat="46.44726" lon="5.50669">
        <ele>516</ele>
        <time>2021-03-06T14:16:35.000Z</time>
      </trkpt>
      <trkpt lat="46.44703" lon="5.50658">
        <ele>513.79998779297</ele>
        <time>2021-03-06T14:16:37.000Z</time>
      </trkpt>
      <trkpt lat="46.44691" lon="5.50652">
        <ele>512.59997558594</ele>
        <time>2021-03-06T14:16:38.000Z</time>
      </trkpt>
      <trkpt lat="46.44668" lon="5.50639">
        <ele>510.60000610352</ele>
        <time>2021-03-06T14:16:40.000Z</time>
      </trkpt>
      <trkpt lat="46.44656" lon="5.50632">
        <ele>510.20001220703</ele>
        <time>2021-03-06T14:16:41.000Z</time>
      </trkpt>
      <trkpt lat="46.44645" lon="5.50624">
        <ele>508.79998779297</ele>
        <time>2021-03-06T14:16:42.000Z</time>
      </trkpt>
      <trkpt lat="46.44619" lon="5.5061">
        <ele>506.79998779297</ele>
        <time>2021-03-06T14:16:44.000Z</time>
      </trkpt>
      <trkpt lat="46.44619" lon="5.5061">
        <ele>505.60000610352</ele>
        <time>2021-03-06T14:16:45.000Z</time>
      </trkpt>
      <trkpt lat="46.44579" lon="5.50588">
        <ele>503</ele>
        <time>2021-03-06T14:16:47.000Z</time>
      </trkpt>
      <trkpt lat="46.44551" lon="5.50573">
        <ele>499.79998779297</ele>
        <time>2021-03-06T14:16:49.000Z</time>
      </trkpt>
      <trkpt lat="46.44538" lon="5.50564">
        <ele>498.79998779297</ele>
        <time>2021-03-06T14:16:50.000Z</time>
      </trkpt>
      <trkpt lat="46.44526" lon="5.50554">
        <ele>496.60000610352</ele>
        <time>2021-03-06T14:16:51.000Z</time>
      </trkpt>
      <trkpt lat="46.44502" lon="5.50529">
        <ele>493.60000610352</ele>
        <time>2021-03-06T14:16:53.000Z</time>
      </trkpt>
      <trkpt lat="46.44496" lon="5.50517">
        <ele>491.79998779297</ele>
        <time>2021-03-06T14:16:54.000Z</time>
      </trkpt>
      <trkpt lat="46.44492" lon="5.50501">
        <ele>491</ele>
        <time>2021-03-06T14:16:55.000Z</time>
      </trkpt>
      <trkpt lat="46.44489" lon="5.50484">
        <ele>489.79998779297</ele>
        <time>2021-03-06T14:16:56.000Z</time>
      </trkpt>
      <trkpt lat="46.44488" lon="5.50465">
        <ele>488.39999389648</ele>
        <time>2021-03-06T14:16:57.000Z</time>
      </trkpt>
      <trkpt lat="46.44485" lon="5.50446">
        <ele>486.79998779297</ele>
        <time>2021-03-06T14:16:58.000Z</time>
      </trkpt>
      <trkpt lat="46.44474" lon="5.50412">
        <ele>484.79998779297</ele>
        <time>2021-03-06T14:17:00.000Z</time>
      </trkpt>
      <trkpt lat="46.44466" lon="5.50397">
        <ele>483.79998779297</ele>
        <time>2021-03-06T14:17:01.000Z</time>
      </trkpt>
      <trkpt lat="46.44456" lon="5.50379">
        <ele>482.39999389648</ele>
        <time>2021-03-06T14:17:02.000Z</time>
      </trkpt>
      <trkpt lat="46.44448" lon="5.50369">
        <ele>480.39999389648</ele>
        <time>2021-03-06T14:17:03.000Z</time>
      </trkpt>
      <trkpt lat="46.44438" lon="5.50356">
        <ele>479.60000610352</ele>
        <time>2021-03-06T14:17:04.000Z</time>
      </trkpt>
      <trkpt lat="46.4443" lon="5.50345">
        <ele>478</ele>
        <time>2021-03-06T14:17:05.000Z</time>
      </trkpt>
      <trkpt lat="46.44422" lon="5.50333">
        <ele>476.79998779297</ele>
        <time>2021-03-06T14:17:06.000Z</time>
      </trkpt>
      <trkpt lat="46.44417" lon="5.5032">
        <ele>475</ele>
        <time>2021-03-06T14:17:07.000Z</time>
      </trkpt>
      <trkpt lat="46.44414" lon="5.50307">
        <ele>474.20001220703</ele>
        <time>2021-03-06T14:17:08.000Z</time>
      </trkpt>
      <trkpt lat="46.44414" lon="5.50297">
        <ele>471.39999389648</ele>
        <time>2021-03-06T14:17:09.000Z</time>
      </trkpt>
      <trkpt lat="46.44417" lon="5.50279">
        <ele>469.79998779297</ele>
        <time>2021-03-06T14:17:10.000Z</time>
      </trkpt>
      <trkpt lat="46.44421" lon="5.50263">
        <ele>468.60000610352</ele>
        <time>2021-03-06T14:17:11.000Z</time>
      </trkpt>
      <trkpt lat="46.44426" lon="5.50246">
        <ele>466.79998779297</ele>
        <time>2021-03-06T14:17:12.000Z</time>
      </trkpt>
      <trkpt lat="46.44429" lon="5.50208">
        <ele>464.60000610352</ele>
        <time>2021-03-06T14:17:14.000Z</time>
      </trkpt>
      <trkpt lat="46.44431" lon="5.50169">
        <ele>462.39999389648</ele>
        <time>2021-03-06T14:17:16.000Z</time>
      </trkpt>
      <trkpt lat="46.44436" lon="5.5015">
        <ele>460.79998779297</ele>
        <time>2021-03-06T14:17:17.000Z</time>
      </trkpt>
      <trkpt lat="46.44443" lon="5.50133">
        <ele>458.79998779297</ele>
        <time>2021-03-06T14:17:18.000Z</time>
      </trkpt>
      <trkpt lat="46.44453" lon="5.5012">
        <ele>457.39999389648</ele>
        <time>2021-03-06T14:17:19.000Z</time>
      </trkpt>
      <trkpt lat="46.44474" lon="5.50095">
        <ele>455</ele>
        <time>2021-03-06T14:17:21.000Z</time>
      </trkpt>
      <trkpt lat="46.44485" lon="5.50084">
        <ele>453.60000610352</ele>
        <time>2021-03-06T14:17:22.000Z</time>
      </trkpt>
      <trkpt lat="46.44494" lon="5.50073">
        <ele>452</ele>
        <time>2021-03-06T14:17:23.000Z</time>
      </trkpt>
      <trkpt lat="46.44502" lon="5.5006">
        <ele>450.79998779297</ele>
        <time>2021-03-06T14:17:24.000Z</time>
      </trkpt>
      <trkpt lat="46.44507" lon="5.50047">
        <ele>449</ele>
        <time>2021-03-06T14:17:25.000Z</time>
      </trkpt>
      <trkpt lat="46.44507" lon="5.50033">
        <ele>447.79998779297</ele>
        <time>2021-03-06T14:17:26.000Z</time>
      </trkpt>
      <trkpt lat="46.445" lon="5.50005">
        <ele>446</ele>
        <time>2021-03-06T14:17:28.000Z</time>
      </trkpt>
      <trkpt lat="46.44483" lon="5.49977">
        <ele>444.20001220703</ele>
        <time>2021-03-06T14:17:30.000Z</time>
      </trkpt>
      <trkpt lat="46.44476" lon="5.49962">
        <ele>443.79998779297</ele>
        <time>2021-03-06T14:17:31.000Z</time>
      </trkpt>
      <trkpt lat="46.44471" lon="5.49945">
        <ele>442.60000610352</ele>
        <time>2021-03-06T14:17:32.000Z</time>
      </trkpt>
      <trkpt lat="46.4447" lon="5.49927">
        <ele>442</ele>
        <time>2021-03-06T14:17:33.000Z</time>
      </trkpt>
      <trkpt lat="46.4447" lon="5.49927">
        <ele>440.60000610352</ele>
        <time>2021-03-06T14:17:34.000Z</time>
      </trkpt>
      <trkpt lat="46.44475" lon="5.49893">
        <ele>439.60000610352</ele>
        <time>2021-03-06T14:17:35.000Z</time>
      </trkpt>
      <trkpt lat="46.44472" lon="5.49869">
        <ele>438</ele>
        <time>2021-03-06T14:17:37.000Z</time>
      </trkpt>
      <trkpt lat="46.44465" lon="5.49863">
        <ele>436.79998779297</ele>
        <time>2021-03-06T14:17:38.000Z</time>
      </trkpt>
      <trkpt lat="46.44451" lon="5.49858">
        <ele>435.20001220703</ele>
        <time>2021-03-06T14:17:39.000Z</time>
      </trkpt>
      <trkpt lat="46.44425" lon="5.49856">
        <ele>433.39999389648</ele>
        <time>2021-03-06T14:17:41.000Z</time>
      </trkpt>
      <trkpt lat="46.44413" lon="5.49856">
        <ele>432.60000610352</ele>
        <time>2021-03-06T14:17:42.000Z</time>
      </trkpt>
      <trkpt lat="46.44401" lon="5.49857">
        <ele>432</ele>
        <time>2021-03-06T14:17:43.000Z</time>
      </trkpt>
      <trkpt lat="46.44389" lon="5.49858">
        <ele>430.20001220703</ele>
        <time>2021-03-06T14:17:44.000Z</time>
      </trkpt>
      <trkpt lat="46.44379" lon="5.49859">
        <ele>429.39999389648</ele>
        <time>2021-03-06T14:17:45.000Z</time>
      </trkpt>
      <trkpt lat="46.44369" lon="5.49855">
        <ele>427.39999389648</ele>
        <time>2021-03-06T14:17:46.000Z</time>
      </trkpt>
      <trkpt lat="46.4436" lon="5.49847">
        <ele>426.39999389648</ele>
        <time>2021-03-06T14:17:47.000Z</time>
      </trkpt>
      <trkpt lat="46.44353" lon="5.49837">
        <ele>424.79998779297</ele>
        <time>2021-03-06T14:17:48.000Z</time>
      </trkpt>
      <trkpt lat="46.44341" lon="5.49815">
        <ele>423.39999389648</ele>
        <time>2021-03-06T14:17:50.000Z</time>
      </trkpt>
      <trkpt lat="46.44334" lon="5.49804">
        <ele>422.79998779297</ele>
        <time>2021-03-06T14:17:51.000Z</time>
      </trkpt>
      <trkpt lat="46.44319" lon="5.49788">
        <ele>422.39999389648</ele>
        <time>2021-03-06T14:17:53.000Z</time>
      </trkpt>
      <trkpt lat="46.44311" lon="5.49781">
        <ele>422.39999389648</ele>
        <time>2021-03-06T14:17:54.000Z</time>
      </trkpt>
      <trkpt lat="46.44278" lon="5.49761">
        <ele>422</ele>
        <time>2021-03-06T14:17:58.000Z</time>
      </trkpt>
      <trkpt lat="46.44264" lon="5.49745">
        <ele>422</ele>
        <time>2021-03-06T14:18:00.000Z</time>
      </trkpt>
      <trkpt lat="46.44258" lon="5.49736">
        <ele>422</ele>
        <time>2021-03-06T14:18:01.000Z</time>
      </trkpt>
      <trkpt lat="46.44218" lon="5.49683">
        <ele>422</ele>
        <time>2021-03-06T14:18:07.000Z</time>
      </trkpt>
      <trkpt lat="46.44187" lon="5.49652">
        <ele>421.20001220703</ele>
        <time>2021-03-06T14:18:11.000Z</time>
      </trkpt>
      <trkpt lat="46.44166" lon="5.49625">
        <ele>420.39999389648</ele>
        <time>2021-03-06T14:18:14.000Z</time>
      </trkpt>
      <trkpt lat="46.44153" lon="5.49606">
        <ele>420.20001220703</ele>
        <time>2021-03-06T14:18:16.000Z</time>
      </trkpt>
      <trkpt lat="46.4412" lon="5.49563">
        <ele>419.20001220703</ele>
        <time>2021-03-06T14:18:21.000Z</time>
      </trkpt>
      <trkpt lat="46.44107" lon="5.49546">
        <ele>418.60000610352</ele>
        <time>2021-03-06T14:18:23.000Z</time>
      </trkpt>
      <trkpt lat="46.44069" lon="5.49497">
        <ele>418.20001220703</ele>
        <time>2021-03-06T14:18:29.000Z</time>
      </trkpt>
      <trkpt lat="46.44027" lon="5.49452">
        <ele>417.60000610352</ele>
        <time>2021-03-06T14:18:35.000Z</time>
      </trkpt>
      <trkpt lat="46.4402" lon="5.49443">
        <ele>417.39999389648</ele>
        <time>2021-03-06T14:18:36.000Z</time>
      </trkpt>
      <trkpt lat="46.43992" lon="5.49394">
        <ele>416.20001220703</ele>
        <time>2021-03-06T14:18:41.000Z</time>
      </trkpt>
      <trkpt lat="46.43961" lon="5.49319">
        <ele>415.20001220703</ele>
        <time>2021-03-06T14:18:48.000Z</time>
      </trkpt>
      <trkpt lat="46.43943" lon="5.49262">
        <ele>414.60000610352</ele>
        <time>2021-03-06T14:18:53.000Z</time>
      </trkpt>
      <trkpt lat="46.43927" lon="5.49232">
        <ele>414.39999389648</ele>
        <time>2021-03-06T14:18:56.000Z</time>
      </trkpt>
      <trkpt lat="46.43921" lon="5.49223">
        <ele>414.20001220703</ele>
        <time>2021-03-06T14:18:57.000Z</time>
      </trkpt>
      <trkpt lat="46.43876" lon="5.49163">
        <ele>413</ele>
        <time>2021-03-06T14:19:04.000Z</time>
      </trkpt>
      <trkpt lat="46.4384" lon="5.49123">
        <ele>412.39999389648</ele>
        <time>2021-03-06T14:19:09.000Z</time>
      </trkpt>
      <trkpt lat="46.43833" lon="5.49116">
        <ele>412</ele>
        <time>2021-03-06T14:19:10.000Z</time>
      </trkpt>
      <trkpt lat="46.43811" lon="5.49093">
        <ele>411.60000610352</ele>
        <time>2021-03-06T14:19:13.000Z</time>
      </trkpt>
      <trkpt lat="46.43799" lon="5.49076">
        <ele>411.20001220703</ele>
        <time>2021-03-06T14:19:15.000Z</time>
      </trkpt>
      <trkpt lat="46.43793" lon="5.49067">
        <ele>411</ele>
        <time>2021-03-06T14:19:16.000Z</time>
      </trkpt>
      <trkpt lat="46.43771" lon="5.49027">
        <ele>410.39999389648</ele>
        <time>2021-03-06T14:19:20.000Z</time>
      </trkpt>
      <trkpt lat="46.4376" lon="5.48997">
        <ele>410</ele>
        <time>2021-03-06T14:19:23.000Z</time>
      </trkpt>
      <trkpt lat="46.43754" lon="5.48971">
        <ele>410</ele>
        <time>2021-03-06T14:19:25.000Z</time>
      </trkpt>
      <trkpt lat="46.4374" lon="5.4889">
        <ele>409.79998779297</ele>
        <time>2021-03-06T14:19:32.000Z</time>
      </trkpt>
      <trkpt lat="46.4372" lon="5.48827">
        <ele>409</ele>
        <time>2021-03-06T14:19:38.000Z</time>
      </trkpt>
      <trkpt lat="46.43712" lon="5.48804">
        <ele>408.60000610352</ele>
        <time>2021-03-06T14:19:40.000Z</time>
      </trkpt>
      <trkpt lat="46.43705" lon="5.48783">
        <ele>408.60000610352</ele>
        <time>2021-03-06T14:19:42.000Z</time>
      </trkpt>
      <trkpt lat="46.43703" lon="5.4876">
        <ele>408.60000610352</ele>
        <time>2021-03-06T14:19:44.000Z</time>
      </trkpt>
      <trkpt lat="46.43708" lon="5.48739">
        <ele>408.60000610352</ele>
        <time>2021-03-06T14:19:46.000Z</time>
      </trkpt>
      <trkpt lat="46.43712" lon="5.4873">
        <ele>408.60000610352</ele>
        <time>2021-03-06T14:19:47.000Z</time>
      </trkpt>
      <trkpt lat="46.43725" lon="5.48703">
        <ele>408.39999389648</ele>
        <time>2021-03-06T14:19:50.000Z</time>
      </trkpt>
      <trkpt lat="46.43726" lon="5.48692">
        <ele>408.39999389648</ele>
        <time>2021-03-06T14:19:51.000Z</time>
      </trkpt>
      <trkpt lat="46.43726" lon="5.48682">
        <ele>408.60000610352</ele>
        <time>2021-03-06T14:19:52.000Z</time>
      </trkpt>
      <trkpt lat="46.43719" lon="5.48666">
        <ele>408.60000610352</ele>
        <time>2021-03-06T14:19:54.000Z</time>
      </trkpt>
      <trkpt lat="46.43695" lon="5.48631">
        <ele>410</ele>
        <time>2021-03-06T14:20:00.000Z</time>
      </trkpt>
      <trkpt lat="46.43688" lon="5.4862">
        <ele>410.60000610352</ele>
        <time>2021-03-06T14:20:02.000Z</time>
      </trkpt>
      <trkpt lat="46.4368" lon="5.4861">
        <ele>411.20001220703</ele>
        <time>2021-03-06T14:20:04.000Z</time>
      </trkpt>
      <trkpt lat="46.43676" lon="5.48606">
        <ele>411.60000610352</ele>
        <time>2021-03-06T14:20:05.000Z</time>
      </trkpt>
      <trkpt lat="46.43669" lon="5.48596">
        <ele>412.20001220703</ele>
        <time>2021-03-06T14:20:07.000Z</time>
      </trkpt>
      <trkpt lat="46.43655" lon="5.48579">
        <ele>413.79998779297</ele>
        <time>2021-03-06T14:20:11.000Z</time>
      </trkpt>
      <trkpt lat="46.43643" lon="5.48559">
        <ele>414.79998779297</ele>
        <time>2021-03-06T14:20:15.000Z</time>
      </trkpt>
      <trkpt lat="46.4364" lon="5.48553">
        <ele>415.39999389648</ele>
        <time>2021-03-06T14:20:16.000Z</time>
      </trkpt>
      <trkpt lat="46.43636" lon="5.48541">
        <ele>415.79998779297</ele>
        <time>2021-03-06T14:20:18.000Z</time>
      </trkpt>
      <trkpt lat="46.43623" lon="5.4849">
        <ele>417</ele>
        <time>2021-03-06T14:20:25.000Z</time>
      </trkpt>
      <trkpt lat="46.43619" lon="5.48482">
        <ele>417</ele>
        <time>2021-03-06T14:20:26.000Z</time>
      </trkpt>
      <trkpt lat="46.43608" lon="5.48466">
        <ele>417.20001220703</ele>
        <time>2021-03-06T14:20:28.000Z</time>
      </trkpt>
      <trkpt lat="46.43579" lon="5.4844">
        <ele>416.60000610352</ele>
        <time>2021-03-06T14:20:32.000Z</time>
      </trkpt>
      <trkpt lat="46.43562" lon="5.48428">
        <ele>415.60000610352</ele>
        <time>2021-03-06T14:20:34.000Z</time>
      </trkpt>
      <trkpt lat="46.43546" lon="5.48419">
        <ele>414.39999389648</ele>
        <time>2021-03-06T14:20:36.000Z</time>
      </trkpt>
      <trkpt lat="46.43528" lon="5.4841">
        <ele>413.20001220703</ele>
        <time>2021-03-06T14:20:38.000Z</time>
      </trkpt>
      <trkpt lat="46.43503" lon="5.48397">
        <ele>412</ele>
        <time>2021-03-06T14:20:41.000Z</time>
      </trkpt>
      <trkpt lat="46.43496" lon="5.48391">
        <ele>412</ele>
        <time>2021-03-06T14:20:42.000Z</time>
      </trkpt>
      <trkpt lat="46.43489" lon="5.48384">
        <ele>411.79998779297</ele>
        <time>2021-03-06T14:20:43.000Z</time>
      </trkpt>
      <trkpt lat="46.43482" lon="5.48377">
        <ele>411.60000610352</ele>
        <time>2021-03-06T14:20:44.000Z</time>
      </trkpt>
      <trkpt lat="46.43466" lon="5.4835">
        <ele>411.60000610352</ele>
        <time>2021-03-06T14:20:47.000Z</time>
      </trkpt>
      <trkpt lat="46.43442" lon="5.48308">
        <ele>411.79998779297</ele>
        <time>2021-03-06T14:20:52.000Z</time>
      </trkpt>
      <trkpt lat="46.43424" lon="5.48274">
        <ele>412.79998779297</ele>
        <time>2021-03-06T14:20:57.000Z</time>
      </trkpt>
      <trkpt lat="46.43418" lon="5.48264">
        <ele>413.60000610352</ele>
        <time>2021-03-06T14:20:59.000Z</time>
      </trkpt>
      <trkpt lat="46.4341" lon="5.48249">
        <ele>415</ele>
        <time>2021-03-06T14:21:02.000Z</time>
      </trkpt>
      <trkpt lat="46.43408" lon="5.48245">
        <ele>415.20001220703</ele>
        <time>2021-03-06T14:21:03.000Z</time>
      </trkpt>
      <trkpt lat="46.43405" lon="5.48241">
        <ele>416</ele>
        <time>2021-03-06T14:21:04.000Z</time>
      </trkpt>
      <trkpt lat="46.43397" lon="5.48229">
        <ele>417.20001220703</ele>
        <time>2021-03-06T14:21:07.000Z</time>
      </trkpt>
      <trkpt lat="46.43392" lon="5.4822">
        <ele>418</ele>
        <time>2021-03-06T14:21:09.000Z</time>
      </trkpt>
      <trkpt lat="46.43389" lon="5.48216">
        <ele>418.20001220703</ele>
        <time>2021-03-06T14:21:10.000Z</time>
      </trkpt>
      <trkpt lat="46.43381" lon="5.48204">
        <ele>419.60000610352</ele>
        <time>2021-03-06T14:21:13.000Z</time>
      </trkpt>
      <trkpt lat="46.4337" lon="5.48187">
        <ele>421</ele>
        <time>2021-03-06T14:21:17.000Z</time>
      </trkpt>
      <trkpt lat="46.43361" lon="5.48177">
        <ele>422</ele>
        <time>2021-03-06T14:21:20.000Z</time>
      </trkpt>
      <trkpt lat="46.43349" lon="5.48159">
        <ele>423.20001220703</ele>
        <time>2021-03-06T14:21:25.000Z</time>
      </trkpt>
      <trkpt lat="46.43338" lon="5.48146">
        <ele>424.39999389648</ele>
        <time>2021-03-06T14:21:29.000Z</time>
      </trkpt>
      <trkpt lat="46.43329" lon="5.48139">
        <ele>425</ele>
        <time>2021-03-06T14:21:32.000Z</time>
      </trkpt>
      <trkpt lat="46.43323" lon="5.48136">
        <ele>425.60000610352</ele>
        <time>2021-03-06T14:21:34.000Z</time>
      </trkpt>
      <trkpt lat="46.43306" lon="5.48134">
        <ele>426.60000610352</ele>
        <time>2021-03-06T14:21:39.000Z</time>
      </trkpt>
      <trkpt lat="46.43303" lon="5.48135">
        <ele>426.79998779297</ele>
        <time>2021-03-06T14:21:40.000Z</time>
      </trkpt>
      <trkpt lat="46.43286" lon="5.48137">
        <ele>428</ele>
        <time>2021-03-06T14:21:45.000Z</time>
      </trkpt>
      <trkpt lat="46.43278" lon="5.48136">
        <ele>428.20001220703</ele>
        <time>2021-03-06T14:21:47.000Z</time>
      </trkpt>
      <trkpt lat="46.4326" lon="5.48123">
        <ele>428.20001220703</ele>
        <time>2021-03-06T14:21:51.000Z</time>
      </trkpt>
      <trkpt lat="46.43225" lon="5.48102">
        <ele>428.79998779297</ele>
        <time>2021-03-06T14:21:59.000Z</time>
      </trkpt>
      <trkpt lat="46.43218" lon="5.48098">
        <ele>429</ele>
        <time>2021-03-06T14:22:01.000Z</time>
      </trkpt>
      <trkpt lat="46.43214" lon="5.48096">
        <ele>429</ele>
        <time>2021-03-06T14:22:02.000Z</time>
      </trkpt>
      <trkpt lat="46.432" lon="5.48087">
        <ele>430</ele>
        <time>2021-03-06T14:22:06.000Z</time>
      </trkpt>
      <trkpt lat="46.43182" lon="5.48074">
        <ele>431.20001220703</ele>
        <time>2021-03-06T14:22:11.000Z</time>
      </trkpt>
      <trkpt lat="46.43172" lon="5.48066">
        <ele>432.20001220703</ele>
        <time>2021-03-06T14:22:14.000Z</time>
      </trkpt>
      <trkpt lat="46.43155" lon="5.4805">
        <ele>433.60000610352</ele>
        <time>2021-03-06T14:22:19.000Z</time>
      </trkpt>
      <trkpt lat="46.43143" lon="5.48033">
        <ele>434.60000610352</ele>
        <time>2021-03-06T14:22:23.000Z</time>
      </trkpt>
      <trkpt lat="46.43137" lon="5.48023">
        <ele>435</ele>
        <time>2021-03-06T14:22:25.000Z</time>
      </trkpt>
      <trkpt lat="46.43124" lon="5.47997">
        <ele>435.39999389648</ele>
        <time>2021-03-06T14:22:30.000Z</time>
      </trkpt>
      <trkpt lat="46.43118" lon="5.47986">
        <ele>435.60000610352</ele>
        <time>2021-03-06T14:22:32.000Z</time>
      </trkpt>
      <trkpt lat="46.43108" lon="5.47964">
        <ele>436</ele>
        <time>2021-03-06T14:22:36.000Z</time>
      </trkpt>
      <trkpt lat="46.43099" lon="5.47946">
        <ele>436.20001220703</ele>
        <time>2021-03-06T14:22:39.000Z</time>
      </trkpt>
      <trkpt lat="46.43079" lon="5.47916">
        <ele>436.39999389648</ele>
        <time>2021-03-06T14:22:44.000Z</time>
      </trkpt>
      <trkpt lat="46.43053" lon="5.47881">
        <ele>436.39999389648</ele>
        <time>2021-03-06T14:22:50.000Z</time>
      </trkpt>
      <trkpt lat="46.43049" lon="5.47865">
        <ele>436.39999389648</ele>
        <time>2021-03-06T14:22:52.000Z</time>
      </trkpt>
      <trkpt lat="46.43049" lon="5.47855">
        <ele>436.20001220703</ele>
        <time>2021-03-06T14:22:53.000Z</time>
      </trkpt>
      <trkpt lat="46.4305" lon="5.47846">
        <ele>436.20001220703</ele>
        <time>2021-03-06T14:22:54.000Z</time>
      </trkpt>
      <trkpt lat="46.43058" lon="5.47817">
        <ele>436.20001220703</ele>
        <time>2021-03-06T14:22:57.000Z</time>
      </trkpt>
      <trkpt lat="46.43067" lon="5.47766">
        <ele>436.20001220703</ele>
        <time>2021-03-06T14:23:02.000Z</time>
      </trkpt>
      <trkpt lat="46.4307" lon="5.47721">
        <ele>436</ele>
        <time>2021-03-06T14:23:07.000Z</time>
      </trkpt>
      <trkpt lat="46.43067" lon="5.47705">
        <ele>435.79998779297</ele>
        <time>2021-03-06T14:23:09.000Z</time>
      </trkpt>
      <trkpt lat="46.43063" lon="5.47697">
        <ele>435.79998779297</ele>
        <time>2021-03-06T14:23:10.000Z</time>
      </trkpt>
      <trkpt lat="46.43058" lon="5.47689">
        <ele>435.60000610352</ele>
        <time>2021-03-06T14:23:11.000Z</time>
      </trkpt>
      <trkpt lat="46.43046" lon="5.47675">
        <ele>434.79998779297</ele>
        <time>2021-03-06T14:23:13.000Z</time>
      </trkpt>
      <trkpt lat="46.4304" lon="5.47667">
        <ele>434.39999389648</ele>
        <time>2021-03-06T14:23:14.000Z</time>
      </trkpt>
      <trkpt lat="46.43029" lon="5.47648">
        <ele>434.20001220703</ele>
        <time>2021-03-06T14:23:16.000Z</time>
      </trkpt>
      <trkpt lat="46.43024" lon="5.47637">
        <ele>434</ele>
        <time>2021-03-06T14:23:17.000Z</time>
      </trkpt>
      <trkpt lat="46.4302" lon="5.47626">
        <ele>433.60000610352</ele>
        <time>2021-03-06T14:23:18.000Z</time>
      </trkpt>
      <trkpt lat="46.4301" lon="5.47604">
        <ele>433.20001220703</ele>
        <time>2021-03-06T14:23:20.000Z</time>
      </trkpt>
      <trkpt lat="46.43004" lon="5.47594">
        <ele>432.60000610352</ele>
        <time>2021-03-06T14:23:21.000Z</time>
      </trkpt>
      <trkpt lat="46.42996" lon="5.47586">
        <ele>432</ele>
        <time>2021-03-06T14:23:22.000Z</time>
      </trkpt>
      <trkpt lat="46.42988" lon="5.47579">
        <ele>431.39999389648</ele>
        <time>2021-03-06T14:23:23.000Z</time>
      </trkpt>
      <trkpt lat="46.42979" lon="5.47573">
        <ele>431.20001220703</ele>
        <time>2021-03-06T14:23:24.000Z</time>
      </trkpt>
      <trkpt lat="46.4296" lon="5.47564">
        <ele>430</ele>
        <time>2021-03-06T14:23:26.000Z</time>
      </trkpt>
      <trkpt lat="46.42951" lon="5.47559">
        <ele>429</ele>
        <time>2021-03-06T14:23:27.000Z</time>
      </trkpt>
      <trkpt lat="46.42932" lon="5.47548">
        <ele>427.79998779297</ele>
        <time>2021-03-06T14:23:29.000Z</time>
      </trkpt>
      <trkpt lat="46.42922" lon="5.47545">
        <ele>426.39999389648</ele>
        <time>2021-03-06T14:23:30.000Z</time>
      </trkpt>
      <trkpt lat="46.42901" lon="5.47539">
        <ele>425</ele>
        <time>2021-03-06T14:23:32.000Z</time>
      </trkpt>
      <trkpt lat="46.42892" lon="5.47537">
        <ele>424.60000610352</ele>
        <time>2021-03-06T14:23:33.000Z</time>
      </trkpt>
      <trkpt lat="46.42884" lon="5.47535">
        <ele>424</ele>
        <time>2021-03-06T14:23:34.000Z</time>
      </trkpt>
      <trkpt lat="46.42879" lon="5.4753">
        <ele>423.39999389648</ele>
        <time>2021-03-06T14:23:35.000Z</time>
      </trkpt>
      <trkpt lat="46.42876" lon="5.47522">
        <ele>423.20001220703</ele>
        <time>2021-03-06T14:23:36.000Z</time>
      </trkpt>
      <trkpt lat="46.42878" lon="5.47515">
        <ele>422.79998779297</ele>
        <time>2021-03-06T14:23:37.000Z</time>
      </trkpt>
      <trkpt lat="46.42884" lon="5.4751">
        <ele>422.39999389648</ele>
        <time>2021-03-06T14:23:38.000Z</time>
      </trkpt>
      <trkpt lat="46.42891" lon="5.47508">
        <ele>422</ele>
        <time>2021-03-06T14:23:39.000Z</time>
      </trkpt>
      <trkpt lat="46.42907" lon="5.47507">
        <ele>420.79998779297</ele>
        <time>2021-03-06T14:23:41.000Z</time>
      </trkpt>
      <trkpt lat="46.42924" lon="5.47508">
        <ele>420.20001220703</ele>
        <time>2021-03-06T14:23:43.000Z</time>
      </trkpt>
      <trkpt lat="46.42942" lon="5.47504">
        <ele>420</ele>
        <time>2021-03-06T14:23:45.000Z</time>
      </trkpt>
      <trkpt lat="46.42952" lon="5.47502">
        <ele>419.39999389648</ele>
        <time>2021-03-06T14:23:46.000Z</time>
      </trkpt>
      <trkpt lat="46.42971" lon="5.47496">
        <ele>418</ele>
        <time>2021-03-06T14:23:48.000Z</time>
      </trkpt>
      <trkpt lat="46.42991" lon="5.4749">
        <ele>416.60000610352</ele>
        <time>2021-03-06T14:23:50.000Z</time>
      </trkpt>
      <trkpt lat="46.43001" lon="5.47487">
        <ele>416</ele>
        <time>2021-03-06T14:23:51.000Z</time>
      </trkpt>
      <trkpt lat="46.43011" lon="5.47484">
        <ele>415.60000610352</ele>
        <time>2021-03-06T14:23:52.000Z</time>
      </trkpt>
      <trkpt lat="46.43021" lon="5.47481">
        <ele>414.60000610352</ele>
        <time>2021-03-06T14:23:53.000Z</time>
      </trkpt>
      <trkpt lat="46.43032" lon="5.47477">
        <ele>414.39999389648</ele>
        <time>2021-03-06T14:23:54.000Z</time>
      </trkpt>
      <trkpt lat="46.43041" lon="5.47472">
        <ele>413.79998779297</ele>
        <time>2021-03-06T14:23:55.000Z</time>
      </trkpt>
      <trkpt lat="46.43051" lon="5.47465">
        <ele>413.60000610352</ele>
        <time>2021-03-06T14:23:56.000Z</time>
      </trkpt>
      <trkpt lat="46.4306" lon="5.47456">
        <ele>413.20001220703</ele>
        <time>2021-03-06T14:23:57.000Z</time>
      </trkpt>
      <trkpt lat="46.43069" lon="5.47447">
        <ele>412.79998779297</ele>
        <time>2021-03-06T14:23:58.000Z</time>
      </trkpt>
      <trkpt lat="46.43086" lon="5.47428">
        <ele>411.79998779297</ele>
        <time>2021-03-06T14:24:00.000Z</time>
      </trkpt>
      <trkpt lat="46.43103" lon="5.47409">
        <ele>410.39999389648</ele>
        <time>2021-03-06T14:24:02.000Z</time>
      </trkpt>
      <trkpt lat="46.43122" lon="5.47394">
        <ele>408.60000610352</ele>
        <time>2021-03-06T14:24:04.000Z</time>
      </trkpt>
      <trkpt lat="46.43142" lon="5.4738">
        <ele>407.39999389648</ele>
        <time>2021-03-06T14:24:06.000Z</time>
      </trkpt>
      <trkpt lat="46.43161" lon="5.47367">
        <ele>405.60000610352</ele>
        <time>2021-03-06T14:24:08.000Z</time>
      </trkpt>
      <trkpt lat="46.4318" lon="5.47352">
        <ele>404.39999389648</ele>
        <time>2021-03-06T14:24:10.000Z</time>
      </trkpt>
      <trkpt lat="46.43189" lon="5.47344">
        <ele>403.39999389648</ele>
        <time>2021-03-06T14:24:11.000Z</time>
      </trkpt>
      <trkpt lat="46.43198" lon="5.47336">
        <ele>402.79998779297</ele>
        <time>2021-03-06T14:24:12.000Z</time>
      </trkpt>
      <trkpt lat="46.43207" lon="5.47327">
        <ele>402.20001220703</ele>
        <time>2021-03-06T14:24:13.000Z</time>
      </trkpt>
      <trkpt lat="46.43222" lon="5.47304">
        <ele>401.60000610352</ele>
        <time>2021-03-06T14:24:15.000Z</time>
      </trkpt>
      <trkpt lat="46.4323" lon="5.47276">
        <ele>400.79998779297</ele>
        <time>2021-03-06T14:24:17.000Z</time>
      </trkpt>
      <trkpt lat="46.4323" lon="5.47261">
        <ele>399.79998779297</ele>
        <time>2021-03-06T14:24:18.000Z</time>
      </trkpt>
      <trkpt lat="46.43229" lon="5.47245">
        <ele>399.60000610352</ele>
        <time>2021-03-06T14:24:19.000Z</time>
      </trkpt>
      <trkpt lat="46.43227" lon="5.4723">
        <ele>399</ele>
        <time>2021-03-06T14:24:20.000Z</time>
      </trkpt>
      <trkpt lat="46.43223" lon="5.47214">
        <ele>398.60000610352</ele>
        <time>2021-03-06T14:24:21.000Z</time>
      </trkpt>
      <trkpt lat="46.43215" lon="5.47185">
        <ele>397.39999389648</ele>
        <time>2021-03-06T14:24:23.000Z</time>
      </trkpt>
      <trkpt lat="46.4321" lon="5.47171">
        <ele>396.39999389648</ele>
        <time>2021-03-06T14:24:24.000Z</time>
      </trkpt>
      <trkpt lat="46.4319" lon="5.47133">
        <ele>395</ele>
        <time>2021-03-06T14:24:27.000Z</time>
      </trkpt>
      <trkpt lat="46.43182" lon="5.47123">
        <ele>394.60000610352</ele>
        <time>2021-03-06T14:24:28.000Z</time>
      </trkpt>
      <trkpt lat="46.43164" lon="5.47104">
        <ele>393.79998779297</ele>
        <time>2021-03-06T14:24:30.000Z</time>
      </trkpt>
      <trkpt lat="46.43138" lon="5.47079">
        <ele>393</ele>
        <time>2021-03-06T14:24:33.000Z</time>
      </trkpt>
      <trkpt lat="46.4313" lon="5.47071">
        <ele>392.39999389648</ele>
        <time>2021-03-06T14:24:34.000Z</time>
      </trkpt>
      <trkpt lat="46.43121" lon="5.47063">
        <ele>392.20001220703</ele>
        <time>2021-03-06T14:24:35.000Z</time>
      </trkpt>
      <trkpt lat="46.43109" lon="5.47041">
        <ele>391.79998779297</ele>
        <time>2021-03-06T14:24:37.000Z</time>
      </trkpt>
      <trkpt lat="46.43107" lon="5.47027">
        <ele>391.39999389648</ele>
        <time>2021-03-06T14:24:38.000Z</time>
      </trkpt>
      <trkpt lat="46.43107" lon="5.47013">
        <ele>391.20001220703</ele>
        <time>2021-03-06T14:24:39.000Z</time>
      </trkpt>
      <trkpt lat="46.43117" lon="5.46962">
        <ele>390.39999389648</ele>
        <time>2021-03-06T14:24:43.000Z</time>
      </trkpt>
      <trkpt lat="46.43121" lon="5.4695">
        <ele>390.20001220703</ele>
        <time>2021-03-06T14:24:44.000Z</time>
      </trkpt>
      <trkpt lat="46.43139" lon="5.46893">
        <ele>389.20001220703</ele>
        <time>2021-03-06T14:24:49.000Z</time>
      </trkpt>
      <trkpt lat="46.43146" lon="5.4687">
        <ele>388.60000610352</ele>
        <time>2021-03-06T14:24:51.000Z</time>
      </trkpt>
      <trkpt lat="46.4316" lon="5.46815">
        <ele>388.39999389648</ele>
        <time>2021-03-06T14:24:56.000Z</time>
      </trkpt>
      <trkpt lat="46.43168" lon="5.46775">
        <ele>388.60000610352</ele>
        <time>2021-03-06T14:25:00.000Z</time>
      </trkpt>
      <trkpt lat="46.43176" lon="5.4671">
        <ele>390</ele>
        <time>2021-03-06T14:25:07.000Z</time>
      </trkpt>
      <trkpt lat="46.43178" lon="5.46701">
        <ele>390.39999389648</ele>
        <time>2021-03-06T14:25:08.000Z</time>
      </trkpt>
      <trkpt lat="46.43185" lon="5.46655">
        <ele>391.60000610352</ele>
        <time>2021-03-06T14:25:13.000Z</time>
      </trkpt>
      <trkpt lat="46.43187" lon="5.46646">
        <ele>391.60000610352</ele>
        <time>2021-03-06T14:25:14.000Z</time>
      </trkpt>
      <trkpt lat="46.43189" lon="5.46637">
        <ele>391.79998779297</ele>
        <time>2021-03-06T14:25:15.000Z</time>
      </trkpt>
      <trkpt lat="46.43192" lon="5.46628">
        <ele>392</ele>
        <time>2021-03-06T14:25:16.000Z</time>
      </trkpt>
      <trkpt lat="46.43206" lon="5.46597">
        <ele>392</ele>
        <time>2021-03-06T14:25:20.000Z</time>
      </trkpt>
      <trkpt lat="46.43229" lon="5.46561">
        <ele>391.79998779297</ele>
        <time>2021-03-06T14:25:26.000Z</time>
      </trkpt>
      <trkpt lat="46.4325" lon="5.46535">
        <ele>392.60000610352</ele>
        <time>2021-03-06T14:25:31.000Z</time>
      </trkpt>
      <trkpt lat="46.43263" lon="5.46518">
        <ele>393.39999389648</ele>
        <time>2021-03-06T14:25:34.000Z</time>
      </trkpt>
      <trkpt lat="46.43275" lon="5.46498">
        <ele>393.60000610352</ele>
        <time>2021-03-06T14:25:37.000Z</time>
      </trkpt>
      <trkpt lat="46.43285" lon="5.46474">
        <ele>393.79998779297</ele>
        <time>2021-03-06T14:25:40.000Z</time>
      </trkpt>
      <trkpt lat="46.43298" lon="5.46419">
        <ele>393.60000610352</ele>
        <time>2021-03-06T14:25:46.000Z</time>
      </trkpt>
      <trkpt lat="46.43315" lon="5.46347">
        <ele>393.39999389648</ele>
        <time>2021-03-06T14:25:54.000Z</time>
      </trkpt>
      <trkpt lat="46.43341" lon="5.46282">
        <ele>393.20001220703</ele>
        <time>2021-03-06T14:26:02.000Z</time>
      </trkpt>
      <trkpt lat="46.43368" lon="5.4623">
        <ele>392.79998779297</ele>
        <time>2021-03-06T14:26:09.000Z</time>
      </trkpt>
      <trkpt lat="46.43386" lon="5.46209">
        <ele>392.39999389648</ele>
        <time>2021-03-06T14:26:12.000Z</time>
      </trkpt>
      <trkpt lat="46.43392" lon="5.46203">
        <ele>392.39999389648</ele>
        <time>2021-03-06T14:26:13.000Z</time>
      </trkpt>
      <trkpt lat="46.43407" lon="5.46192">
        <ele>391.60000610352</ele>
        <time>2021-03-06T14:26:15.000Z</time>
      </trkpt>
      <trkpt lat="46.43435" lon="5.46169">
        <ele>389.60000610352</ele>
        <time>2021-03-06T14:26:19.000Z</time>
      </trkpt>
      <trkpt lat="46.43441" lon="5.46163">
        <ele>389.20001220703</ele>
        <time>2021-03-06T14:26:20.000Z</time>
      </trkpt>
      <trkpt lat="46.43461" lon="5.46146">
        <ele>388.39999389648</ele>
        <time>2021-03-06T14:26:23.000Z</time>
      </trkpt>
      <trkpt lat="46.43498" lon="5.46113">
        <ele>387.79998779297</ele>
        <time>2021-03-06T14:26:29.000Z</time>
      </trkpt>
      <trkpt lat="46.43538" lon="5.46087">
        <ele>387.60000610352</ele>
        <time>2021-03-06T14:26:35.000Z</time>
      </trkpt>
      <trkpt lat="46.43544" lon="5.46085">
        <ele>387.60000610352</ele>
        <time>2021-03-06T14:26:36.000Z</time>
      </trkpt>
      <trkpt lat="46.43572" lon="5.46078">
        <ele>387.60000610352</ele>
        <time>2021-03-06T14:26:40.000Z</time>
      </trkpt>
      <trkpt lat="46.43627" lon="5.46066">
        <ele>387.60000610352</ele>
        <time>2021-03-06T14:26:48.000Z</time>
      </trkpt>
      <trkpt lat="46.43648" lon="5.46061">
        <ele>387.39999389648</ele>
        <time>2021-03-06T14:26:51.000Z</time>
      </trkpt>
      <trkpt lat="46.43669" lon="5.46052">
        <ele>387.20001220703</ele>
        <time>2021-03-06T14:26:54.000Z</time>
      </trkpt>
      <trkpt lat="46.43682" lon="5.46041">
        <ele>387</ele>
        <time>2021-03-06T14:26:56.000Z</time>
      </trkpt>
      <trkpt lat="46.43708" lon="5.46001">
        <ele>386.39999389648</ele>
        <time>2021-03-06T14:27:01.000Z</time>
      </trkpt>
      <trkpt lat="46.43713" lon="5.45993">
        <ele>386.20001220703</ele>
        <time>2021-03-06T14:27:02.000Z</time>
      </trkpt>
      <trkpt lat="46.43736" lon="5.45965">
        <ele>386</ele>
        <time>2021-03-06T14:27:06.000Z</time>
      </trkpt>
      <trkpt lat="46.43768" lon="5.45929">
        <ele>385.79998779297</ele>
        <time>2021-03-06T14:27:12.000Z</time>
      </trkpt>
      <trkpt lat="46.43783" lon="5.45913">
        <ele>386</ele>
        <time>2021-03-06T14:27:15.000Z</time>
      </trkpt>
      <trkpt lat="46.43794" lon="5.45905">
        <ele>386.39999389648</ele>
        <time>2021-03-06T14:27:17.000Z</time>
      </trkpt>
      <trkpt lat="46.438" lon="5.45903">
        <ele>386.79998779297</ele>
        <time>2021-03-06T14:27:18.000Z</time>
      </trkpt>
      <trkpt lat="46.43822" lon="5.45892">
        <ele>387.20001220703</ele>
        <time>2021-03-06T14:27:22.000Z</time>
      </trkpt>
      <trkpt lat="46.43872" lon="5.45866">
        <ele>387.60000610352</ele>
        <time>2021-03-06T14:27:30.000Z</time>
      </trkpt>
      <trkpt lat="46.43885" lon="5.45857">
        <ele>387.60000610352</ele>
        <time>2021-03-06T14:27:32.000Z</time>
      </trkpt>
      <trkpt lat="46.43896" lon="5.45842">
        <ele>387.39999389648</ele>
        <time>2021-03-06T14:27:34.000Z</time>
      </trkpt>
      <trkpt lat="46.43901" lon="5.45823">
        <ele>386.60000610352</ele>
        <time>2021-03-06T14:27:36.000Z</time>
      </trkpt>
      <trkpt lat="46.43901" lon="5.45812">
        <ele>386.20001220703</ele>
        <time>2021-03-06T14:27:37.000Z</time>
      </trkpt>
      <trkpt lat="46.43899" lon="5.45802">
        <ele>386</ele>
        <time>2021-03-06T14:27:38.000Z</time>
      </trkpt>
      <trkpt lat="46.43891" lon="5.45773">
        <ele>385.79998779297</ele>
        <time>2021-03-06T14:27:41.000Z</time>
      </trkpt>
      <trkpt lat="46.43881" lon="5.45736">
        <ele>385.79998779297</ele>
        <time>2021-03-06T14:27:45.000Z</time>
      </trkpt>
      <trkpt lat="46.43878" lon="5.45719">
        <ele>386</ele>
        <time>2021-03-06T14:27:47.000Z</time>
      </trkpt>
      <trkpt lat="46.4388" lon="5.45705">
        <ele>386.20001220703</ele>
        <time>2021-03-06T14:27:49.000Z</time>
      </trkpt>
      <trkpt lat="46.43884" lon="5.45699">
        <ele>386.39999389648</ele>
        <time>2021-03-06T14:27:50.000Z</time>
      </trkpt>
      <trkpt lat="46.43888" lon="5.45695">
        <ele>386.39999389648</ele>
        <time>2021-03-06T14:27:51.000Z</time>
      </trkpt>
      <trkpt lat="46.43899" lon="5.45692">
        <ele>386.39999389648</ele>
        <time>2021-03-06T14:27:53.000Z</time>
      </trkpt>
      <trkpt lat="46.43937" lon="5.45687">
        <ele>385.79998779297</ele>
        <time>2021-03-06T14:27:59.000Z</time>
      </trkpt>
      <trkpt lat="46.43991" lon="5.45678">
        <ele>385.39999389648</ele>
        <time>2021-03-06T14:28:07.000Z</time>
      </trkpt>
      <trkpt lat="46.43998" lon="5.45677">
        <ele>385.39999389648</ele>
        <time>2021-03-06T14:28:08.000Z</time>
      </trkpt>
      <trkpt lat="46.44056" lon="5.45666">
        <ele>385.79998779297</ele>
        <time>2021-03-06T14:28:17.000Z</time>
      </trkpt>
      <trkpt lat="46.44062" lon="5.45665">
        <ele>385.79998779297</ele>
        <time>2021-03-06T14:28:18.000Z</time>
      </trkpt>
      <trkpt lat="46.44117" lon="5.45655">
        <ele>386.79998779297</ele>
        <time>2021-03-06T14:28:27.000Z</time>
      </trkpt>
      <trkpt lat="46.44174" lon="5.45644">
        <ele>387</ele>
        <time>2021-03-06T14:28:36.000Z</time>
      </trkpt>
      <trkpt lat="46.44199" lon="5.45639">
        <ele>387.39999389648</ele>
        <time>2021-03-06T14:28:40.000Z</time>
      </trkpt>
      <trkpt lat="46.44205" lon="5.45638">
        <ele>387.39999389648</ele>
        <time>2021-03-06T14:28:41.000Z</time>
      </trkpt>
      <trkpt lat="46.44257" lon="5.4563">
        <ele>388.20001220703</ele>
        <time>2021-03-06T14:28:50.000Z</time>
      </trkpt>
      <trkpt lat="46.44274" lon="5.4563">
        <ele>388.39999389648</ele>
        <time>2021-03-06T14:28:53.000Z</time>
      </trkpt>
      <trkpt lat="46.44302" lon="5.45631">
        <ele>389</ele>
        <time>2021-03-06T14:28:58.000Z</time>
      </trkpt>
      <trkpt lat="46.44319" lon="5.45633">
        <ele>389.39999389648</ele>
        <time>2021-03-06T14:29:01.000Z</time>
      </trkpt>
      <trkpt lat="46.44347" lon="5.45636">
        <ele>390</ele>
        <time>2021-03-06T14:29:06.000Z</time>
      </trkpt>
      <trkpt lat="46.44373" lon="5.4564">
        <ele>390.60000610352</ele>
        <time>2021-03-06T14:29:11.000Z</time>
      </trkpt>
      <trkpt lat="46.44399" lon="5.45642">
        <ele>391.20001220703</ele>
        <time>2021-03-06T14:29:16.000Z</time>
      </trkpt>
      <trkpt lat="46.44414" lon="5.45644">
        <ele>391.79998779297</ele>
        <time>2021-03-06T14:29:19.000Z</time>
      </trkpt>
      <trkpt lat="46.44451" lon="5.45648">
        <ele>392.79998779297</ele>
        <time>2021-03-06T14:29:26.000Z</time>
      </trkpt>
      <trkpt lat="46.44487" lon="5.45651">
        <ele>393.79998779297</ele>
        <time>2021-03-06T14:29:33.000Z</time>
      </trkpt>
      <trkpt lat="46.44498" lon="5.45654">
        <ele>394.20001220703</ele>
        <time>2021-03-06T14:29:35.000Z</time>
      </trkpt>
      <trkpt lat="46.44547" lon="5.45667">
        <ele>394.39999389648</ele>
        <time>2021-03-06T14:29:43.000Z</time>
      </trkpt>
      <trkpt lat="46.44598" lon="5.45684">
        <ele>393.39999389648</ele>
        <time>2021-03-06T14:29:51.000Z</time>
      </trkpt>
      <trkpt lat="46.44656" lon="5.45703">
        <ele>393.20001220703</ele>
        <time>2021-03-06T14:30:00.000Z</time>
      </trkpt>
      <trkpt lat="46.44712" lon="5.45724">
        <ele>393.20001220703</ele>
        <time>2021-03-06T14:30:09.000Z</time>
      </trkpt>
      <trkpt lat="46.44722" lon="5.45729">
        <ele>393.60000610352</ele>
        <time>2021-03-06T14:30:11.000Z</time>
      </trkpt>
      <trkpt lat="46.44774" lon="5.45756">
        <ele>394.60000610352</ele>
        <time>2021-03-06T14:30:20.000Z</time>
      </trkpt>
      <trkpt lat="46.44779" lon="5.45759">
        <ele>394.60000610352</ele>
        <time>2021-03-06T14:30:21.000Z</time>
      </trkpt>
      <trkpt lat="46.44808" lon="5.45774">
        <ele>395</ele>
        <time>2021-03-06T14:30:26.000Z</time>
      </trkpt>
      <trkpt lat="46.44837" lon="5.45792">
        <ele>395.39999389648</ele>
        <time>2021-03-06T14:30:31.000Z</time>
      </trkpt>
      <trkpt lat="46.4489" lon="5.45822">
        <ele>395.39999389648</ele>
        <time>2021-03-06T14:30:40.000Z</time>
      </trkpt>
      <trkpt lat="46.44903" lon="5.4583">
        <ele>395</ele>
        <time>2021-03-06T14:30:42.000Z</time>
      </trkpt>
      <trkpt lat="46.44954" lon="5.4586">
        <ele>395</ele>
        <time>2021-03-06T14:30:50.000Z</time>
      </trkpt>
      <trkpt lat="46.44975" lon="5.45873">
        <ele>394.60000610352</ele>
        <time>2021-03-06T14:30:53.000Z</time>
      </trkpt>
      <trkpt lat="46.44996" lon="5.45886">
        <ele>393.79998779297</ele>
        <time>2021-03-06T14:30:56.000Z</time>
      </trkpt>
      <trkpt lat="46.45032" lon="5.45908">
        <ele>392.79998779297</ele>
        <time>2021-03-06T14:31:01.000Z</time>
      </trkpt>
      <trkpt lat="46.4504" lon="5.45913">
        <ele>392.60000610352</ele>
        <time>2021-03-06T14:31:02.000Z</time>
      </trkpt>
      <trkpt lat="46.45078" lon="5.45934">
        <ele>391.60000610352</ele>
        <time>2021-03-06T14:31:07.000Z</time>
      </trkpt>
      <trkpt lat="46.45099" lon="5.45944">
        <ele>391.60000610352</ele>
        <time>2021-03-06T14:31:10.000Z</time>
      </trkpt>
      <trkpt lat="46.45139" lon="5.4597">
        <ele>391.60000610352</ele>
        <time>2021-03-06T14:31:16.000Z</time>
      </trkpt>
      <trkpt lat="46.45167" lon="5.45992">
        <ele>392</ele>
        <time>2021-03-06T14:31:21.000Z</time>
      </trkpt>
      <trkpt lat="46.45189" lon="5.46006">
        <ele>392.79998779297</ele>
        <time>2021-03-06T14:31:25.000Z</time>
      </trkpt>
      <trkpt lat="46.45194" lon="5.46009">
        <ele>393</ele>
        <time>2021-03-06T14:31:26.000Z</time>
      </trkpt>
      <trkpt lat="46.45199" lon="5.46013">
        <ele>393.20001220703</ele>
        <time>2021-03-06T14:31:27.000Z</time>
      </trkpt>
      <trkpt lat="46.45224" lon="5.46034">
        <ele>393.79998779297</ele>
        <time>2021-03-06T14:31:32.000Z</time>
      </trkpt>
      <trkpt lat="46.45228" lon="5.46037">
        <ele>394</ele>
        <time>2021-03-06T14:31:33.000Z</time>
      </trkpt>
      <trkpt lat="46.45233" lon="5.4604">
        <ele>394.20001220703</ele>
        <time>2021-03-06T14:31:34.000Z</time>
      </trkpt>
      <trkpt lat="46.45242" lon="5.46045">
        <ele>395</ele>
        <time>2021-03-06T14:31:36.000Z</time>
      </trkpt>
      <trkpt lat="46.45247" lon="5.46046">
        <ele>395.20001220703</ele>
        <time>2021-03-06T14:31:37.000Z</time>
      </trkpt>
      <trkpt lat="46.45251" lon="5.46047">
        <ele>395.20001220703</ele>
        <time>2021-03-06T14:31:38.000Z</time>
      </trkpt>
      <trkpt lat="46.45265" lon="5.46051">
        <ele>396.39999389648</ele>
        <time>2021-03-06T14:31:41.000Z</time>
      </trkpt>
      <trkpt lat="46.45287" lon="5.46055">
        <ele>397.20001220703</ele>
        <time>2021-03-06T14:31:45.000Z</time>
      </trkpt>
      <trkpt lat="46.45305" lon="5.46058">
        <ele>397.39999389648</ele>
        <time>2021-03-06T14:31:48.000Z</time>
      </trkpt>
      <trkpt lat="46.45335" lon="5.46064">
        <ele>397.60000610352</ele>
        <time>2021-03-06T14:31:53.000Z</time>
      </trkpt>
      <trkpt lat="46.45392" lon="5.46074">
        <ele>396.79998779297</ele>
        <time>2021-03-06T14:32:02.000Z</time>
      </trkpt>
      <trkpt lat="46.45399" lon="5.46075">
        <ele>396.60000610352</ele>
        <time>2021-03-06T14:32:03.000Z</time>
      </trkpt>
      <trkpt lat="46.45418" lon="5.46078">
        <ele>396.39999389648</ele>
        <time>2021-03-06T14:32:06.000Z</time>
      </trkpt>
      <trkpt lat="46.4546" lon="5.46085">
        <ele>396.20001220703</ele>
        <time>2021-03-06T14:32:12.000Z</time>
      </trkpt>
      <trkpt lat="46.45498" lon="5.46092">
        <ele>395.39999389648</ele>
        <time>2021-03-06T14:32:17.000Z</time>
      </trkpt>
      <trkpt lat="46.45521" lon="5.46096">
        <ele>394.39999389648</ele>
        <time>2021-03-06T14:32:20.000Z</time>
      </trkpt>
      <trkpt lat="46.45529" lon="5.46098">
        <ele>394.39999389648</ele>
        <time>2021-03-06T14:32:21.000Z</time>
      </trkpt>
      <trkpt lat="46.4557" lon="5.46105">
        <ele>393.20001220703</ele>
        <time>2021-03-06T14:32:26.000Z</time>
      </trkpt>
      <trkpt lat="46.45602" lon="5.46111">
        <ele>392.39999389648</ele>
        <time>2021-03-06T14:32:30.000Z</time>
      </trkpt>
      <trkpt lat="46.4561" lon="5.46112">
        <ele>392.20001220703</ele>
        <time>2021-03-06T14:32:31.000Z</time>
      </trkpt>
      <trkpt lat="46.45659" lon="5.46121">
        <ele>391</ele>
        <time>2021-03-06T14:32:37.000Z</time>
      </trkpt>
      <trkpt lat="46.45698" lon="5.46128">
        <ele>390.60000610352</ele>
        <time>2021-03-06T14:32:42.000Z</time>
      </trkpt>
      <trkpt lat="46.45736" lon="5.46135">
        <ele>390</ele>
        <time>2021-03-06T14:32:47.000Z</time>
      </trkpt>
      <trkpt lat="46.45788" lon="5.46144">
        <ele>389.79998779297</ele>
        <time>2021-03-06T14:32:54.000Z</time>
      </trkpt>
      <trkpt lat="46.45845" lon="5.46154">
        <ele>389.20001220703</ele>
        <time>2021-03-06T14:33:02.000Z</time>
      </trkpt>
      <trkpt lat="46.45852" lon="5.46156">
        <ele>389.20001220703</ele>
        <time>2021-03-06T14:33:03.000Z</time>
      </trkpt>
      <trkpt lat="46.45907" lon="5.46165">
        <ele>389.20001220703</ele>
        <time>2021-03-06T14:33:11.000Z</time>
      </trkpt>
      <trkpt lat="46.45921" lon="5.46167">
        <ele>389.20001220703</ele>
        <time>2021-03-06T14:33:13.000Z</time>
      </trkpt>
      <trkpt lat="46.45981" lon="5.46179">
        <ele>389.20001220703</ele>
        <time>2021-03-06T14:33:22.000Z</time>
      </trkpt>
      <trkpt lat="46.46007" lon="5.46184">
        <ele>389.79998779297</ele>
        <time>2021-03-06T14:33:26.000Z</time>
      </trkpt>
      <trkpt lat="46.46065" lon="5.46193">
        <ele>389.60000610352</ele>
        <time>2021-03-06T14:33:35.000Z</time>
      </trkpt>
      <trkpt lat="46.46084" lon="5.46196">
        <ele>390</ele>
        <time>2021-03-06T14:33:38.000Z</time>
      </trkpt>
      <trkpt lat="46.46141" lon="5.46207">
        <ele>390.20001220703</ele>
        <time>2021-03-06T14:33:47.000Z</time>
      </trkpt>
      <trkpt lat="46.46147" lon="5.46208">
        <ele>390.20001220703</ele>
        <time>2021-03-06T14:33:48.000Z</time>
      </trkpt>
      <trkpt lat="46.46204" lon="5.46218">
        <ele>389.79998779297</ele>
        <time>2021-03-06T14:33:57.000Z</time>
      </trkpt>
      <trkpt lat="46.4621" lon="5.46219">
        <ele>389.79998779297</ele>
        <time>2021-03-06T14:33:58.000Z</time>
      </trkpt>
      <trkpt lat="46.46267" lon="5.46229">
        <ele>390</ele>
        <time>2021-03-06T14:34:07.000Z</time>
      </trkpt>
      <trkpt lat="46.46273" lon="5.4623">
        <ele>390</ele>
        <time>2021-03-06T14:34:08.000Z</time>
      </trkpt>
      <trkpt lat="46.4633" lon="5.4624">
        <ele>389.79998779297</ele>
        <time>2021-03-06T14:34:17.000Z</time>
      </trkpt>
      <trkpt lat="46.46336" lon="5.46242">
        <ele>389.79998779297</ele>
        <time>2021-03-06T14:34:18.000Z</time>
      </trkpt>
      <trkpt lat="46.46392" lon="5.46252">
        <ele>389.79998779297</ele>
        <time>2021-03-06T14:34:27.000Z</time>
      </trkpt>
      <trkpt lat="46.46404" lon="5.46254">
        <ele>389.79998779297</ele>
        <time>2021-03-06T14:34:29.000Z</time>
      </trkpt>
      <trkpt lat="46.46459" lon="5.46264">
        <ele>390</ele>
        <time>2021-03-06T14:34:38.000Z</time>
      </trkpt>
      <trkpt lat="46.46472" lon="5.46266">
        <ele>390</ele>
        <time>2021-03-06T14:34:40.000Z</time>
      </trkpt>
      <trkpt lat="46.46526" lon="5.46276">
        <ele>390</ele>
        <time>2021-03-06T14:34:49.000Z</time>
      </trkpt>
      <trkpt lat="46.46538" lon="5.46278">
        <ele>390</ele>
        <time>2021-03-06T14:34:51.000Z</time>
      </trkpt>
      <trkpt lat="46.46595" lon="5.46288">
        <ele>390.20001220703</ele>
        <time>2021-03-06T14:35:00.000Z</time>
      </trkpt>
      <trkpt lat="46.46601" lon="5.46289">
        <ele>390.20001220703</ele>
        <time>2021-03-06T14:35:01.000Z</time>
      </trkpt>
      <trkpt lat="46.46657" lon="5.46299">
        <ele>390.39999389648</ele>
        <time>2021-03-06T14:35:10.000Z</time>
      </trkpt>
      <trkpt lat="46.46675" lon="5.46303">
        <ele>390.60000610352</ele>
        <time>2021-03-06T14:35:13.000Z</time>
      </trkpt>
      <trkpt lat="46.46731" lon="5.46313">
        <ele>390.79998779297</ele>
        <time>2021-03-06T14:35:22.000Z</time>
      </trkpt>
      <trkpt lat="46.46737" lon="5.46314">
        <ele>390.79998779297</ele>
        <time>2021-03-06T14:35:23.000Z</time>
      </trkpt>
      <trkpt lat="46.46792" lon="5.46324">
        <ele>391</ele>
        <time>2021-03-06T14:35:32.000Z</time>
      </trkpt>
      <trkpt lat="46.46848" lon="5.46333">
        <ele>391</ele>
        <time>2021-03-06T14:35:41.000Z</time>
      </trkpt>
      <trkpt lat="46.46867" lon="5.46337">
        <ele>391.20001220703</ele>
        <time>2021-03-06T14:35:44.000Z</time>
      </trkpt>
      <trkpt lat="46.46892" lon="5.46341">
        <ele>391.39999389648</ele>
        <time>2021-03-06T14:35:48.000Z</time>
      </trkpt>
      <trkpt lat="46.46923" lon="5.46347">
        <ele>391.60000610352</ele>
        <time>2021-03-06T14:35:53.000Z</time>
      </trkpt>
      <trkpt lat="46.46978" lon="5.46357">
        <ele>392.20001220703</ele>
        <time>2021-03-06T14:36:02.000Z</time>
      </trkpt>
      <trkpt lat="46.46991" lon="5.46359">
        <ele>392.20001220703</ele>
        <time>2021-03-06T14:36:04.000Z</time>
      </trkpt>
      <trkpt lat="46.47045" lon="5.46369">
        <ele>392</ele>
        <time>2021-03-06T14:36:13.000Z</time>
      </trkpt>
      <trkpt lat="46.47051" lon="5.4637">
        <ele>392</ele>
        <time>2021-03-06T14:36:14.000Z</time>
      </trkpt>
      <trkpt lat="46.47106" lon="5.4638">
        <ele>392.39999389648</ele>
        <time>2021-03-06T14:36:23.000Z</time>
      </trkpt>
      <trkpt lat="46.47162" lon="5.4639">
        <ele>392.20001220703</ele>
        <time>2021-03-06T14:36:32.000Z</time>
      </trkpt>
      <trkpt lat="46.47211" lon="5.46399">
        <ele>392.60000610352</ele>
        <time>2021-03-06T14:36:40.000Z</time>
      </trkpt>
      <trkpt lat="46.47223" lon="5.46401">
        <ele>392.79998779297</ele>
        <time>2021-03-06T14:36:42.000Z</time>
      </trkpt>
      <trkpt lat="46.47264" lon="5.46409">
        <ele>393.20001220703</ele>
        <time>2021-03-06T14:36:49.000Z</time>
      </trkpt>
      <trkpt lat="46.47282" lon="5.46411">
        <ele>393.60000610352</ele>
        <time>2021-03-06T14:36:52.000Z</time>
      </trkpt>
      <trkpt lat="46.47288" lon="5.46412">
        <ele>393.79998779297</ele>
        <time>2021-03-06T14:36:53.000Z</time>
      </trkpt>
      <trkpt lat="46.47312" lon="5.46417">
        <ele>393.79998779297</ele>
        <time>2021-03-06T14:36:57.000Z</time>
      </trkpt>
      <trkpt lat="46.47369" lon="5.46429">
        <ele>394.39999389648</ele>
        <time>2021-03-06T14:37:07.000Z</time>
      </trkpt>
      <trkpt lat="46.47374" lon="5.4643">
        <ele>394.60000610352</ele>
        <time>2021-03-06T14:37:08.000Z</time>
      </trkpt>
      <trkpt lat="46.47385" lon="5.46431">
        <ele>394.79998779297</ele>
        <time>2021-03-06T14:37:10.000Z</time>
      </trkpt>
      <trkpt lat="46.47436" lon="5.4644">
        <ele>395.79998779297</ele>
        <time>2021-03-06T14:37:19.000Z</time>
      </trkpt>
      <trkpt lat="46.47441" lon="5.4644">
        <ele>395.79998779297</ele>
        <time>2021-03-06T14:37:20.000Z</time>
      </trkpt>
      <trkpt lat="46.47488" lon="5.46448">
        <ele>397</ele>
        <time>2021-03-06T14:37:29.000Z</time>
      </trkpt>
      <trkpt lat="46.47493" lon="5.46449">
        <ele>397</ele>
        <time>2021-03-06T14:37:30.000Z</time>
      </trkpt>
      <trkpt lat="46.47547" lon="5.46459">
        <ele>398.20001220703</ele>
        <time>2021-03-06T14:37:40.000Z</time>
      </trkpt>
      <trkpt lat="46.47557" lon="5.4646">
        <ele>398.39999389648</ele>
        <time>2021-03-06T14:37:42.000Z</time>
      </trkpt>
      <trkpt lat="46.47615" lon="5.46471">
        <ele>399.20001220703</ele>
        <time>2021-03-06T14:37:53.000Z</time>
      </trkpt>
      <trkpt lat="46.4762" lon="5.46472">
        <ele>399.20001220703</ele>
        <time>2021-03-06T14:37:54.000Z</time>
      </trkpt>
      <trkpt lat="46.47669" lon="5.4648">
        <ele>399.79998779297</ele>
        <time>2021-03-06T14:38:03.000Z</time>
      </trkpt>
      <trkpt lat="46.47703" lon="5.46486">
        <ele>400.39999389648</ele>
        <time>2021-03-06T14:38:09.000Z</time>
      </trkpt>
      <trkpt lat="46.47715" lon="5.46488">
        <ele>400.39999389648</ele>
        <time>2021-03-06T14:38:11.000Z</time>
      </trkpt>
      <trkpt lat="46.47762" lon="5.46497">
        <ele>400.39999389648</ele>
        <time>2021-03-06T14:38:19.000Z</time>
      </trkpt>
      <trkpt lat="46.47816" lon="5.46507">
        <ele>400.39999389648</ele>
        <time>2021-03-06T14:38:28.000Z</time>
      </trkpt>
      <trkpt lat="46.47822" lon="5.46508">
        <ele>400.39999389648</ele>
        <time>2021-03-06T14:38:29.000Z</time>
      </trkpt>
      <trkpt lat="46.47878" lon="5.46518">
        <ele>400.39999389648</ele>
        <time>2021-03-06T14:38:38.000Z</time>
      </trkpt>
      <trkpt lat="46.47935" lon="5.46529">
        <ele>400.39999389648</ele>
        <time>2021-03-06T14:38:47.000Z</time>
      </trkpt>
      <trkpt lat="46.47941" lon="5.4653">
        <ele>400.39999389648</ele>
        <time>2021-03-06T14:38:48.000Z</time>
      </trkpt>
      <trkpt lat="46.47997" lon="5.4654">
        <ele>400.39999389648</ele>
        <time>2021-03-06T14:38:57.000Z</time>
      </trkpt>
      <trkpt lat="46.48015" lon="5.46543">
        <ele>400.39999389648</ele>
        <time>2021-03-06T14:39:00.000Z</time>
      </trkpt>
      <trkpt lat="46.48071" lon="5.46553">
        <ele>400.79998779297</ele>
        <time>2021-03-06T14:39:09.000Z</time>
      </trkpt>
      <trkpt lat="46.48078" lon="5.46554">
        <ele>400.79998779297</ele>
        <time>2021-03-06T14:39:10.000Z</time>
      </trkpt>
      <trkpt lat="46.48134" lon="5.46564">
        <ele>400.79998779297</ele>
        <time>2021-03-06T14:39:19.000Z</time>
      </trkpt>
      <trkpt lat="46.48152" lon="5.46567">
        <ele>400.60000610352</ele>
        <time>2021-03-06T14:39:22.000Z</time>
      </trkpt>
      <trkpt lat="46.48208" lon="5.46577">
        <ele>400</ele>
        <time>2021-03-06T14:39:31.000Z</time>
      </trkpt>
      <trkpt lat="46.48227" lon="5.46581">
        <ele>400</ele>
        <time>2021-03-06T14:39:34.000Z</time>
      </trkpt>
      <trkpt lat="46.48286" lon="5.46591">
        <ele>399.79998779297</ele>
        <time>2021-03-06T14:39:43.000Z</time>
      </trkpt>
      <trkpt lat="46.48292" lon="5.46593">
        <ele>399.79998779297</ele>
        <time>2021-03-06T14:39:44.000Z</time>
      </trkpt>
      <trkpt lat="46.48305" lon="5.46594">
        <ele>399.79998779297</ele>
        <time>2021-03-06T14:39:46.000Z</time>
      </trkpt>
      <trkpt lat="46.48324" lon="5.46598">
        <ele>399.79998779297</ele>
        <time>2021-03-06T14:39:49.000Z</time>
      </trkpt>
      <trkpt lat="46.48337" lon="5.46601">
        <ele>399.79998779297</ele>
        <time>2021-03-06T14:39:51.000Z</time>
      </trkpt>
      <trkpt lat="46.48349" lon="5.46597">
        <ele>399.79998779297</ele>
        <time>2021-03-06T14:39:53.000Z</time>
      </trkpt>
      <trkpt lat="46.48357" lon="5.46585">
        <ele>400</ele>
        <time>2021-03-06T14:39:55.000Z</time>
      </trkpt>
      <trkpt lat="46.4836" lon="5.46577">
        <ele>400</ele>
        <time>2021-03-06T14:39:56.000Z</time>
      </trkpt>
      <trkpt lat="46.48382" lon="5.46518">
        <ele>400</ele>
        <time>2021-03-06T14:40:03.000Z</time>
      </trkpt>
      <trkpt lat="46.48389" lon="5.46492">
        <ele>400</ele>
        <time>2021-03-06T14:40:06.000Z</time>
      </trkpt>
      <trkpt lat="46.48391" lon="5.46472">
        <ele>400</ele>
        <time>2021-03-06T14:40:08.000Z</time>
      </trkpt>
      <trkpt lat="46.48395" lon="5.46413">
        <ele>400.20001220703</ele>
        <time>2021-03-06T14:40:14.000Z</time>
      </trkpt>
      <trkpt lat="46.48409" lon="5.46369">
        <ele>399.79998779297</ele>
        <time>2021-03-06T14:40:19.000Z</time>
      </trkpt>
      <trkpt lat="46.48435" lon="5.46309">
        <ele>400</ele>
        <time>2021-03-06T14:40:27.000Z</time>
      </trkpt>
      <trkpt lat="46.48446" lon="5.46283">
        <ele>400.60000610352</ele>
        <time>2021-03-06T14:40:31.000Z</time>
      </trkpt>
      <trkpt lat="46.48448" lon="5.4627">
        <ele>401</ele>
        <time>2021-03-06T14:40:33.000Z</time>
      </trkpt>
      <trkpt lat="46.48444" lon="5.46257">
        <ele>401.39999389648</ele>
        <time>2021-03-06T14:40:35.000Z</time>
      </trkpt>
      <trkpt lat="46.48439" lon="5.46245">
        <ele>401.79998779297</ele>
        <time>2021-03-06T14:40:37.000Z</time>
      </trkpt>
      <trkpt lat="46.48436" lon="5.46238">
        <ele>402</ele>
        <time>2021-03-06T14:40:38.000Z</time>
      </trkpt>
      <trkpt lat="46.48432" lon="5.46217">
        <ele>402.79998779297</ele>
        <time>2021-03-06T14:40:41.000Z</time>
      </trkpt>
      <trkpt lat="46.48431" lon="5.46211">
        <ele>403</ele>
        <time>2021-03-06T14:40:42.000Z</time>
      </trkpt>
      <trkpt lat="46.48422" lon="5.46175">
        <ele>403.79998779297</ele>
        <time>2021-03-06T14:40:47.000Z</time>
      </trkpt>
      <trkpt lat="46.48417" lon="5.46163">
        <ele>404.39999389648</ele>
        <time>2021-03-06T14:40:49.000Z</time>
      </trkpt>
      <trkpt lat="46.48414" lon="5.46157">
        <ele>405</ele>
        <time>2021-03-06T14:40:50.000Z</time>
      </trkpt>
      <trkpt lat="46.484" lon="5.46131">
        <ele>406</ele>
        <time>2021-03-06T14:40:54.000Z</time>
      </trkpt>
      <trkpt lat="46.48388" lon="5.46106">
        <ele>406.60000610352</ele>
        <time>2021-03-06T14:40:58.000Z</time>
      </trkpt>
      <trkpt lat="46.48378" lon="5.46087">
        <ele>407</ele>
        <time>2021-03-06T14:41:01.000Z</time>
      </trkpt>
      <trkpt lat="46.4836" lon="5.46052">
        <ele>407.20001220703</ele>
        <time>2021-03-06T14:41:06.000Z</time>
      </trkpt>
      <trkpt lat="46.48324" lon="5.45988">
        <ele>407</ele>
        <time>2021-03-06T14:41:15.000Z</time>
      </trkpt>
      <trkpt lat="46.48286" lon="5.45928">
        <ele>407.20001220703</ele>
        <time>2021-03-06T14:41:23.000Z</time>
      </trkpt>
      <trkpt lat="46.48258" lon="5.45888">
        <ele>406</ele>
        <time>2021-03-06T14:41:28.000Z</time>
      </trkpt>
      <trkpt lat="46.48239" lon="5.45863">
        <ele>404.79998779297</ele>
        <time>2021-03-06T14:41:31.000Z</time>
      </trkpt>
      <trkpt lat="46.482" lon="5.45811">
        <ele>403.20001220703</ele>
        <time>2021-03-06T14:41:37.000Z</time>
      </trkpt>
      <trkpt lat="46.48186" lon="5.45794">
        <ele>402.60000610352</ele>
        <time>2021-03-06T14:41:39.000Z</time>
      </trkpt>
      <trkpt lat="46.48166" lon="5.45768">
        <ele>402</ele>
        <time>2021-03-06T14:41:42.000Z</time>
      </trkpt>
      <trkpt lat="46.48144" lon="5.45741">
        <ele>400.79998779297</ele>
        <time>2021-03-06T14:41:45.000Z</time>
      </trkpt>
      <trkpt lat="46.48122" lon="5.45714">
        <ele>400</ele>
        <time>2021-03-06T14:41:48.000Z</time>
      </trkpt>
      <trkpt lat="46.48115" lon="5.45706">
        <ele>399.60000610352</ele>
        <time>2021-03-06T14:41:49.000Z</time>
      </trkpt>
      <trkpt lat="46.4807" lon="5.45662">
        <ele>398.60000610352</ele>
        <time>2021-03-06T14:41:55.000Z</time>
      </trkpt>
      <trkpt lat="46.48062" lon="5.45656">
        <ele>398.39999389648</ele>
        <time>2021-03-06T14:41:56.000Z</time>
      </trkpt>
      <trkpt lat="46.48025" lon="5.45636">
        <ele>397.79998779297</ele>
        <time>2021-03-06T14:42:01.000Z</time>
      </trkpt>
      <trkpt lat="46.47981" lon="5.45619">
        <ele>398.60000610352</ele>
        <time>2021-03-06T14:42:07.000Z</time>
      </trkpt>
      <trkpt lat="46.47955" lon="5.45608">
        <ele>399.60000610352</ele>
        <time>2021-03-06T14:42:11.000Z</time>
      </trkpt>
      <trkpt lat="46.47937" lon="5.45602">
        <ele>400.39999389648</ele>
        <time>2021-03-06T14:42:14.000Z</time>
      </trkpt>
      <trkpt lat="46.47925" lon="5.45597">
        <ele>400.79998779297</ele>
        <time>2021-03-06T14:42:16.000Z</time>
      </trkpt>
      <trkpt lat="46.47894" lon="5.45585">
        <ele>401.79998779297</ele>
        <time>2021-03-06T14:42:21.000Z</time>
      </trkpt>
      <trkpt lat="46.47888" lon="5.45582">
        <ele>402</ele>
        <time>2021-03-06T14:42:22.000Z</time>
      </trkpt>
      <trkpt lat="46.47865" lon="5.45573">
        <ele>403.20001220703</ele>
        <time>2021-03-06T14:42:26.000Z</time>
      </trkpt>
      <trkpt lat="46.47839" lon="5.45564">
        <ele>404.20001220703</ele>
        <time>2021-03-06T14:42:31.000Z</time>
      </trkpt>
      <trkpt lat="46.47833" lon="5.45563">
        <ele>404.39999389648</ele>
        <time>2021-03-06T14:42:32.000Z</time>
      </trkpt>
      <trkpt lat="46.47817" lon="5.45558">
        <ele>405.60000610352</ele>
        <time>2021-03-06T14:42:35.000Z</time>
      </trkpt>
      <trkpt lat="46.478" lon="5.45555">
        <ele>405.79998779297</ele>
        <time>2021-03-06T14:42:38.000Z</time>
      </trkpt>
      <trkpt lat="46.4776" lon="5.45542">
        <ele>406.39999389648</ele>
        <time>2021-03-06T14:42:45.000Z</time>
      </trkpt>
      <trkpt lat="46.47726" lon="5.45513">
        <ele>406.39999389648</ele>
        <time>2021-03-06T14:42:51.000Z</time>
      </trkpt>
      <trkpt lat="46.47678" lon="5.45474">
        <ele>405.79998779297</ele>
        <time>2021-03-06T14:42:59.000Z</time>
      </trkpt>
      <trkpt lat="46.47672" lon="5.45469">
        <ele>405.79998779297</ele>
        <time>2021-03-06T14:43:00.000Z</time>
      </trkpt>
      <trkpt lat="46.47641" lon="5.45453">
        <ele>405.60000610352</ele>
        <time>2021-03-06T14:43:05.000Z</time>
      </trkpt>
      <trkpt lat="46.47602" lon="5.4543">
        <ele>405.79998779297</ele>
        <time>2021-03-06T14:43:11.000Z</time>
      </trkpt>
      <trkpt lat="46.47548" lon="5.45388">
        <ele>405</ele>
        <time>2021-03-06T14:43:19.000Z</time>
      </trkpt>
      <trkpt lat="46.47541" lon="5.45382">
        <ele>405</ele>
        <time>2021-03-06T14:43:20.000Z</time>
      </trkpt>
      <trkpt lat="46.47525" lon="5.45372">
        <ele>404.79998779297</ele>
        <time>2021-03-06T14:43:22.000Z</time>
      </trkpt>
      <trkpt lat="46.47499" lon="5.45361">
        <ele>404.20001220703</ele>
        <time>2021-03-06T14:43:25.000Z</time>
      </trkpt>
      <trkpt lat="46.47482" lon="5.45356">
        <ele>403.60000610352</ele>
        <time>2021-03-06T14:43:27.000Z</time>
      </trkpt>
      <trkpt lat="46.47456" lon="5.45349">
        <ele>402.60000610352</ele>
        <time>2021-03-06T14:43:30.000Z</time>
      </trkpt>
      <trkpt lat="46.47434" lon="5.45342">
        <ele>402.20001220703</ele>
        <time>2021-03-06T14:43:33.000Z</time>
      </trkpt>
      <trkpt lat="46.47412" lon="5.45336">
        <ele>400.79998779297</ele>
        <time>2021-03-06T14:43:36.000Z</time>
      </trkpt>
      <trkpt lat="46.4739" lon="5.45329">
        <ele>400.20001220703</ele>
        <time>2021-03-06T14:43:39.000Z</time>
      </trkpt>
      <trkpt lat="46.47352" lon="5.45316">
        <ele>401.79998779297</ele>
        <time>2021-03-06T14:43:44.000Z</time>
      </trkpt>
      <trkpt lat="46.47328" lon="5.45306">
        <ele>401.39999389648</ele>
        <time>2021-03-06T14:43:47.000Z</time>
      </trkpt>
      <trkpt lat="46.4728" lon="5.45284">
        <ele>400.79998779297</ele>
        <time>2021-03-06T14:43:53.000Z</time>
      </trkpt>
      <trkpt lat="46.47239" lon="5.45265">
        <ele>400.60000610352</ele>
        <time>2021-03-06T14:43:58.000Z</time>
      </trkpt>
      <trkpt lat="46.47185" lon="5.4524">
        <ele>400.20001220703</ele>
        <time>2021-03-06T14:44:05.000Z</time>
      </trkpt>
      <trkpt lat="46.47161" lon="5.45229">
        <ele>400</ele>
        <time>2021-03-06T14:44:08.000Z</time>
      </trkpt>
      <trkpt lat="46.47131" lon="5.45213">
        <ele>399.79998779297</ele>
        <time>2021-03-06T14:44:12.000Z</time>
      </trkpt>
      <trkpt lat="46.47107" lon="5.45199">
        <ele>399.79998779297</ele>
        <time>2021-03-06T14:44:15.000Z</time>
      </trkpt>
      <trkpt lat="46.471" lon="5.45195">
        <ele>399.79998779297</ele>
        <time>2021-03-06T14:44:16.000Z</time>
      </trkpt>
      <trkpt lat="46.47049" lon="5.45158">
        <ele>399.79998779297</ele>
        <time>2021-03-06T14:44:23.000Z</time>
      </trkpt>
      <trkpt lat="46.47042" lon="5.45152">
        <ele>399.79998779297</ele>
        <time>2021-03-06T14:44:24.000Z</time>
      </trkpt>
      <trkpt lat="46.46992" lon="5.45111">
        <ele>399.39999389648</ele>
        <time>2021-03-06T14:44:31.000Z</time>
      </trkpt>
      <trkpt lat="46.46978" lon="5.45099">
        <ele>399.39999389648</ele>
        <time>2021-03-06T14:44:33.000Z</time>
      </trkpt>
      <trkpt lat="46.4694" lon="5.45069">
        <ele>398.60000610352</ele>
        <time>2021-03-06T14:44:38.000Z</time>
      </trkpt>
      <trkpt lat="46.4691" lon="5.45044">
        <ele>397.39999389648</ele>
        <time>2021-03-06T14:44:42.000Z</time>
      </trkpt>
      <trkpt lat="46.46871" lon="5.45012">
        <ele>396.39999389648</ele>
        <time>2021-03-06T14:44:47.000Z</time>
      </trkpt>
      <trkpt lat="46.46849" lon="5.44993">
        <ele>396.20001220703</ele>
        <time>2021-03-06T14:44:50.000Z</time>
      </trkpt>
      <trkpt lat="46.468" lon="5.4495">
        <ele>396</ele>
        <time>2021-03-06T14:44:57.000Z</time>
      </trkpt>
      <trkpt lat="46.46776" lon="5.44933">
        <ele>396</ele>
        <time>2021-03-06T14:45:00.000Z</time>
      </trkpt>
      <trkpt lat="46.46769" lon="5.44929">
        <ele>396</ele>
        <time>2021-03-06T14:45:01.000Z</time>
      </trkpt>
      <trkpt lat="46.46715" lon="5.44898">
        <ele>395.79998779297</ele>
        <time>2021-03-06T14:45:08.000Z</time>
      </trkpt>
      <trkpt lat="46.46662" lon="5.44871">
        <ele>395.60000610352</ele>
        <time>2021-03-06T14:45:15.000Z</time>
      </trkpt>
      <trkpt lat="46.46633" lon="5.44856">
        <ele>395.79998779297</ele>
        <time>2021-03-06T14:45:19.000Z</time>
      </trkpt>
      <trkpt lat="46.46576" lon="5.44827">
        <ele>396.60000610352</ele>
        <time>2021-03-06T14:45:27.000Z</time>
      </trkpt>
      <trkpt lat="46.4657" lon="5.44824">
        <ele>396.79998779297</ele>
        <time>2021-03-06T14:45:28.000Z</time>
      </trkpt>
      <trkpt lat="46.46551" lon="5.44814">
        <ele>397.60000610352</ele>
        <time>2021-03-06T14:45:31.000Z</time>
      </trkpt>
      <trkpt lat="46.4652" lon="5.44799">
        <ele>398.20001220703</ele>
        <time>2021-03-06T14:45:36.000Z</time>
      </trkpt>
      <trkpt lat="46.46506" lon="5.44793">
        <ele>398.79998779297</ele>
        <time>2021-03-06T14:45:38.000Z</time>
      </trkpt>
      <trkpt lat="46.46468" lon="5.44773">
        <ele>400.20001220703</ele>
        <time>2021-03-06T14:45:45.000Z</time>
      </trkpt>
      <trkpt lat="46.46456" lon="5.44767">
        <ele>400.60000610352</ele>
        <time>2021-03-06T14:45:47.000Z</time>
      </trkpt>
      <trkpt lat="46.46445" lon="5.4476">
        <ele>401</ele>
        <time>2021-03-06T14:45:49.000Z</time>
      </trkpt>
      <trkpt lat="46.46434" lon="5.44755">
        <ele>401.39999389648</ele>
        <time>2021-03-06T14:45:51.000Z</time>
      </trkpt>
      <trkpt lat="46.46386" lon="5.44731">
        <ele>402.39999389648</ele>
        <time>2021-03-06T14:46:00.000Z</time>
      </trkpt>
      <trkpt lat="46.46376" lon="5.44726">
        <ele>402.39999389648</ele>
        <time>2021-03-06T14:46:02.000Z</time>
      </trkpt>
      <trkpt lat="46.46345" lon="5.44709">
        <ele>403.79998779297</ele>
        <time>2021-03-06T14:46:08.000Z</time>
      </trkpt>
      <trkpt lat="46.46329" lon="5.44702">
        <ele>404.79998779297</ele>
        <time>2021-03-06T14:46:11.000Z</time>
      </trkpt>
      <trkpt lat="46.46314" lon="5.44694">
        <ele>405.60000610352</ele>
        <time>2021-03-06T14:46:14.000Z</time>
      </trkpt>
      <trkpt lat="46.4631" lon="5.44692">
        <ele>405.79998779297</ele>
        <time>2021-03-06T14:46:15.000Z</time>
      </trkpt>
      <trkpt lat="46.46306" lon="5.44689">
        <ele>406</ele>
        <time>2021-03-06T14:46:16.000Z</time>
      </trkpt>
      <trkpt lat="46.46301" lon="5.44687">
        <ele>406.20001220703</ele>
        <time>2021-03-06T14:46:17.000Z</time>
      </trkpt>
      <trkpt lat="46.46284" lon="5.44679">
        <ele>406.79998779297</ele>
        <time>2021-03-06T14:46:21.000Z</time>
      </trkpt>
      <trkpt lat="46.4628" lon="5.44677">
        <ele>407</ele>
        <time>2021-03-06T14:46:22.000Z</time>
      </trkpt>
      <trkpt lat="46.46254" lon="5.44663">
        <ele>408.39999389648</ele>
        <time>2021-03-06T14:46:29.000Z</time>
      </trkpt>
      <trkpt lat="46.4625" lon="5.44661">
        <ele>408.60000610352</ele>
        <time>2021-03-06T14:46:30.000Z</time>
      </trkpt>
      <trkpt lat="46.4624" lon="5.44654">
        <ele>409.20001220703</ele>
        <time>2021-03-06T14:46:33.000Z</time>
      </trkpt>
      <trkpt lat="46.46236" lon="5.44651">
        <ele>409.39999389648</ele>
        <time>2021-03-06T14:46:34.000Z</time>
      </trkpt>
      <trkpt lat="46.46229" lon="5.44645">
        <ele>410</ele>
        <time>2021-03-06T14:46:36.000Z</time>
      </trkpt>
      <trkpt lat="46.46225" lon="5.44642">
        <ele>410.39999389648</ele>
        <time>2021-03-06T14:46:37.000Z</time>
      </trkpt>
      <trkpt lat="46.46212" lon="5.44622">
        <ele>411.60000610352</ele>
        <time>2021-03-06T14:46:42.000Z</time>
      </trkpt>
      <trkpt lat="46.46209" lon="5.44617">
        <ele>411.60000610352</ele>
        <time>2021-03-06T14:46:43.000Z</time>
      </trkpt>
      <trkpt lat="46.46204" lon="5.44603">
        <ele>412.60000610352</ele>
        <time>2021-03-06T14:46:46.000Z</time>
      </trkpt>
      <trkpt lat="46.46199" lon="5.4458">
        <ele>413.39999389648</ele>
        <time>2021-03-06T14:46:50.000Z</time>
      </trkpt>
      <trkpt lat="46.46199" lon="5.44575">
        <ele>413.79998779297</ele>
        <time>2021-03-06T14:46:51.000Z</time>
      </trkpt>
      <trkpt lat="46.46197" lon="5.44558">
        <ele>414.79998779297</ele>
        <time>2021-03-06T14:46:54.000Z</time>
      </trkpt>
      <trkpt lat="46.46196" lon="5.44536">
        <ele>415.39999389648</ele>
        <time>2021-03-06T14:46:58.000Z</time>
      </trkpt>
      <trkpt lat="46.46196" lon="5.44525">
        <ele>415.60000610352</ele>
        <time>2021-03-06T14:47:00.000Z</time>
      </trkpt>
      <trkpt lat="46.46196" lon="5.4452">
        <ele>415.79998779297</ele>
        <time>2021-03-06T14:47:01.000Z</time>
      </trkpt>
      <trkpt lat="46.46195" lon="5.44497">
        <ele>417.20001220703</ele>
        <time>2021-03-06T14:47:05.000Z</time>
      </trkpt>
      <trkpt lat="46.46195" lon="5.44469">
        <ele>418.60000610352</ele>
        <time>2021-03-06T14:47:10.000Z</time>
      </trkpt>
      <trkpt lat="46.46195" lon="5.44446">
        <ele>419.60000610352</ele>
        <time>2021-03-06T14:47:14.000Z</time>
      </trkpt>
      <trkpt lat="46.46194" lon="5.44423">
        <ele>420.60000610352</ele>
        <time>2021-03-06T14:47:18.000Z</time>
      </trkpt>
      <trkpt lat="46.46194" lon="5.44406">
        <ele>421.20001220703</ele>
        <time>2021-03-06T14:47:21.000Z</time>
      </trkpt>
      <trkpt lat="46.46194" lon="5.44389">
        <ele>421.79998779297</ele>
        <time>2021-03-06T14:47:24.000Z</time>
      </trkpt>
      <trkpt lat="46.46195" lon="5.44368">
        <ele>422</ele>
        <time>2021-03-06T14:47:28.000Z</time>
      </trkpt>
      <trkpt lat="46.46198" lon="5.4434">
        <ele>422.79998779297</ele>
        <time>2021-03-06T14:47:33.000Z</time>
      </trkpt>
      <trkpt lat="46.46198" lon="5.44323">
        <ele>423.20001220703</ele>
        <time>2021-03-06T14:47:36.000Z</time>
      </trkpt>
      <trkpt lat="46.46198" lon="5.44317">
        <ele>423.79998779297</ele>
        <time>2021-03-06T14:47:37.000Z</time>
      </trkpt>
      <trkpt lat="46.46198" lon="5.44295">
        <ele>425.20001220703</ele>
        <time>2021-03-06T14:47:41.000Z</time>
      </trkpt>
      <trkpt lat="46.46198" lon="5.44285">
        <ele>425.79998779297</ele>
        <time>2021-03-06T14:47:43.000Z</time>
      </trkpt>
      <trkpt lat="46.46197" lon="5.4428">
        <ele>426</ele>
        <time>2021-03-06T14:47:44.000Z</time>
      </trkpt>
      <trkpt lat="46.46196" lon="5.44274">
        <ele>426.20001220703</ele>
        <time>2021-03-06T14:47:45.000Z</time>
      </trkpt>
      <trkpt lat="46.46194" lon="5.44264">
        <ele>426.39999389648</ele>
        <time>2021-03-06T14:47:47.000Z</time>
      </trkpt>
      <trkpt lat="46.46189" lon="5.4424">
        <ele>427.20001220703</ele>
        <time>2021-03-06T14:47:52.000Z</time>
      </trkpt>
      <trkpt lat="46.46187" lon="5.44235">
        <ele>427.39999389648</ele>
        <time>2021-03-06T14:47:53.000Z</time>
      </trkpt>
      <trkpt lat="46.46182" lon="5.44219">
        <ele>428.39999389648</ele>
        <time>2021-03-06T14:47:56.000Z</time>
      </trkpt>
      <trkpt lat="46.46175" lon="5.44199">
        <ele>429.39999389648</ele>
        <time>2021-03-06T14:48:00.000Z</time>
      </trkpt>
      <trkpt lat="46.46173" lon="5.44194">
        <ele>429.60000610352</ele>
        <time>2021-03-06T14:48:01.000Z</time>
      </trkpt>
      <trkpt lat="46.46162" lon="5.44165">
        <ele>430.60000610352</ele>
        <time>2021-03-06T14:48:07.000Z</time>
      </trkpt>
      <trkpt lat="46.46156" lon="5.44149">
        <ele>431.20001220703</ele>
        <time>2021-03-06T14:48:10.000Z</time>
      </trkpt>
      <trkpt lat="46.46151" lon="5.44133">
        <ele>431.79998779297</ele>
        <time>2021-03-06T14:48:13.000Z</time>
      </trkpt>
      <trkpt lat="46.46146" lon="5.44117">
        <ele>432.79998779297</ele>
        <time>2021-03-06T14:48:16.000Z</time>
      </trkpt>
      <trkpt lat="46.46143" lon="5.441">
        <ele>433.60000610352</ele>
        <time>2021-03-06T14:48:19.000Z</time>
      </trkpt>
      <trkpt lat="46.46143" lon="5.44094">
        <ele>433.79998779297</ele>
        <time>2021-03-06T14:48:20.000Z</time>
      </trkpt>
      <trkpt lat="46.46137" lon="5.44068">
        <ele>435.20001220703</ele>
        <time>2021-03-06T14:48:25.000Z</time>
      </trkpt>
      <trkpt lat="46.46135" lon="5.44058">
        <ele>435.60000610352</ele>
        <time>2021-03-06T14:48:27.000Z</time>
      </trkpt>
      <trkpt lat="46.46129" lon="5.44028">
        <ele>436.60000610352</ele>
        <time>2021-03-06T14:48:32.000Z</time>
      </trkpt>
      <trkpt lat="46.46128" lon="5.44011">
        <ele>437.20001220703</ele>
        <time>2021-03-06T14:48:35.000Z</time>
      </trkpt>
      <trkpt lat="46.46129" lon="5.44">
        <ele>437.60000610352</ele>
        <time>2021-03-06T14:48:37.000Z</time>
      </trkpt>
      <trkpt lat="46.46135" lon="5.43967">
        <ele>438.20001220703</ele>
        <time>2021-03-06T14:48:43.000Z</time>
      </trkpt>
      <trkpt lat="46.46138" lon="5.43957">
        <ele>438.60000610352</ele>
        <time>2021-03-06T14:48:45.000Z</time>
      </trkpt>
      <trkpt lat="46.46143" lon="5.43935">
        <ele>439.60000610352</ele>
        <time>2021-03-06T14:48:49.000Z</time>
      </trkpt>
      <trkpt lat="46.46149" lon="5.43914">
        <ele>440.60000610352</ele>
        <time>2021-03-06T14:48:53.000Z</time>
      </trkpt>
      <trkpt lat="46.46156" lon="5.43893">
        <ele>441.60000610352</ele>
        <time>2021-03-06T14:48:57.000Z</time>
      </trkpt>
      <trkpt lat="46.46157" lon="5.43888">
        <ele>441.79998779297</ele>
        <time>2021-03-06T14:48:58.000Z</time>
      </trkpt>
      <trkpt lat="46.46167" lon="5.43856">
        <ele>443</ele>
        <time>2021-03-06T14:49:04.000Z</time>
      </trkpt>
      <trkpt lat="46.4617" lon="5.4384">
        <ele>443.60000610352</ele>
        <time>2021-03-06T14:49:07.000Z</time>
      </trkpt>
      <trkpt lat="46.46176" lon="5.43825">
        <ele>444.20001220703</ele>
        <time>2021-03-06T14:49:10.000Z</time>
      </trkpt>
      <trkpt lat="46.46181" lon="5.43815">
        <ele>444.79998779297</ele>
        <time>2021-03-06T14:49:12.000Z</time>
      </trkpt>
      <trkpt lat="46.46188" lon="5.43801">
        <ele>445.20001220703</ele>
        <time>2021-03-06T14:49:15.000Z</time>
      </trkpt>
      <trkpt lat="46.46194" lon="5.43784">
        <ele>446.20001220703</ele>
        <time>2021-03-06T14:49:18.000Z</time>
      </trkpt>
      <trkpt lat="46.46198" lon="5.43752">
        <ele>447.39999389648</ele>
        <time>2021-03-06T14:49:23.000Z</time>
      </trkpt>
      <trkpt lat="46.46195" lon="5.43723">
        <ele>448.39999389648</ele>
        <time>2021-03-06T14:49:27.000Z</time>
      </trkpt>
      <trkpt lat="46.46193" lon="5.43703">
        <ele>449</ele>
        <time>2021-03-06T14:49:30.000Z</time>
      </trkpt>
      <trkpt lat="46.46189" lon="5.43689">
        <ele>449.39999389648</ele>
        <time>2021-03-06T14:49:32.000Z</time>
      </trkpt>
      <trkpt lat="46.46183" lon="5.43657">
        <ele>450.39999389648</ele>
        <time>2021-03-06T14:49:37.000Z</time>
      </trkpt>
      <trkpt lat="46.46181" lon="5.4365">
        <ele>450.39999389648</ele>
        <time>2021-03-06T14:49:38.000Z</time>
      </trkpt>
      <trkpt lat="46.46178" lon="5.43644">
        <ele>450.79998779297</ele>
        <time>2021-03-06T14:49:39.000Z</time>
      </trkpt>
      <trkpt lat="46.4617" lon="5.43627">
        <ele>451.79998779297</ele>
        <time>2021-03-06T14:49:42.000Z</time>
      </trkpt>
      <trkpt lat="46.46166" lon="5.43622">
        <ele>452.20001220703</ele>
        <time>2021-03-06T14:49:43.000Z</time>
      </trkpt>
      <trkpt lat="46.46159" lon="5.43611">
        <ele>452.39999389648</ele>
        <time>2021-03-06T14:49:45.000Z</time>
      </trkpt>
      <trkpt lat="46.46133" lon="5.43588">
        <ele>452.39999389648</ele>
        <time>2021-03-06T14:49:50.000Z</time>
      </trkpt>
      <trkpt lat="46.46109" lon="5.43574">
        <ele>452.20001220703</ele>
        <time>2021-03-06T14:49:54.000Z</time>
      </trkpt>
      <trkpt lat="46.46102" lon="5.43572">
        <ele>451.79998779297</ele>
        <time>2021-03-06T14:49:55.000Z</time>
      </trkpt>
      <trkpt lat="46.46064" lon="5.43567">
        <ele>450.79998779297</ele>
        <time>2021-03-06T14:50:00.000Z</time>
      </trkpt>
      <trkpt lat="46.46029" lon="5.43562">
        <ele>449.39999389648</ele>
        <time>2021-03-06T14:50:04.000Z</time>
      </trkpt>
      <trkpt lat="46.46011" lon="5.43556">
        <ele>448.20001220703</ele>
        <time>2021-03-06T14:50:06.000Z</time>
      </trkpt>
      <trkpt lat="46.45985" lon="5.43541">
        <ele>447</ele>
        <time>2021-03-06T14:50:09.000Z</time>
      </trkpt>
      <trkpt lat="46.45968" lon="5.43529">
        <ele>446</ele>
        <time>2021-03-06T14:50:11.000Z</time>
      </trkpt>
      <trkpt lat="46.45959" lon="5.43523">
        <ele>445.79998779297</ele>
        <time>2021-03-06T14:50:12.000Z</time>
      </trkpt>
      <trkpt lat="46.45935" lon="5.43504">
        <ele>444.60000610352</ele>
        <time>2021-03-06T14:50:15.000Z</time>
      </trkpt>
      <trkpt lat="46.45907" lon="5.43481">
        <ele>443.39999389648</ele>
        <time>2021-03-06T14:50:18.000Z</time>
      </trkpt>
      <trkpt lat="46.45898" lon="5.43474">
        <ele>443</ele>
        <time>2021-03-06T14:50:19.000Z</time>
      </trkpt>
      <trkpt lat="46.4589" lon="5.43468">
        <ele>442</ele>
        <time>2021-03-06T14:50:20.000Z</time>
      </trkpt>
      <trkpt lat="46.45863" lon="5.43447">
        <ele>440.79998779297</ele>
        <time>2021-03-06T14:50:23.000Z</time>
      </trkpt>
      <trkpt lat="46.45836" lon="5.43428">
        <ele>439.79998779297</ele>
        <time>2021-03-06T14:50:26.000Z</time>
      </trkpt>
      <trkpt lat="46.45827" lon="5.43421">
        <ele>439.39999389648</ele>
        <time>2021-03-06T14:50:27.000Z</time>
      </trkpt>
      <trkpt lat="46.45809" lon="5.43406">
        <ele>438.79998779297</ele>
        <time>2021-03-06T14:50:29.000Z</time>
      </trkpt>
      <trkpt lat="46.45781" lon="5.43383">
        <ele>437.60000610352</ele>
        <time>2021-03-06T14:50:32.000Z</time>
      </trkpt>
      <trkpt lat="46.45762" lon="5.43366">
        <ele>437</ele>
        <time>2021-03-06T14:50:34.000Z</time>
      </trkpt>
      <trkpt lat="46.45744" lon="5.43346">
        <ele>436</ele>
        <time>2021-03-06T14:50:36.000Z</time>
      </trkpt>
      <trkpt lat="46.45729" lon="5.43325">
        <ele>434.79998779297</ele>
        <time>2021-03-06T14:50:38.000Z</time>
      </trkpt>
      <trkpt lat="46.45709" lon="5.43289">
        <ele>433.39999389648</ele>
        <time>2021-03-06T14:50:41.000Z</time>
      </trkpt>
      <trkpt lat="46.45697" lon="5.43264">
        <ele>432</ele>
        <time>2021-03-06T14:50:43.000Z</time>
      </trkpt>
      <trkpt lat="46.45663" lon="5.4319">
        <ele>431.20001220703</ele>
        <time>2021-03-06T14:50:49.000Z</time>
      </trkpt>
      <trkpt lat="46.45647" lon="5.43154">
        <ele>431</ele>
        <time>2021-03-06T14:50:52.000Z</time>
      </trkpt>
      <trkpt lat="46.45625" lon="5.43106">
        <ele>430</ele>
        <time>2021-03-06T14:50:56.000Z</time>
      </trkpt>
      <trkpt lat="46.45615" lon="5.43083">
        <ele>429.79998779297</ele>
        <time>2021-03-06T14:50:58.000Z</time>
      </trkpt>
      <trkpt lat="46.45584" lon="5.43019">
        <ele>430</ele>
        <time>2021-03-06T14:51:04.000Z</time>
      </trkpt>
      <trkpt lat="46.45553" lon="5.42972">
        <ele>430.79998779297</ele>
        <time>2021-03-06T14:51:10.000Z</time>
      </trkpt>
      <trkpt lat="46.45547" lon="5.42965">
        <ele>431</ele>
        <time>2021-03-06T14:51:11.000Z</time>
      </trkpt>
      <trkpt lat="46.45521" lon="5.42933">
        <ele>432.20001220703</ele>
        <time>2021-03-06T14:51:16.000Z</time>
      </trkpt>
      <trkpt lat="46.45512" lon="5.4292">
        <ele>432.60000610352</ele>
        <time>2021-03-06T14:51:18.000Z</time>
      </trkpt>
      <trkpt lat="46.45482" lon="5.42882">
        <ele>433.39999389648</ele>
        <time>2021-03-06T14:51:24.000Z</time>
      </trkpt>
      <trkpt lat="46.45467" lon="5.42864">
        <ele>434.39999389648</ele>
        <time>2021-03-06T14:51:27.000Z</time>
      </trkpt>
      <trkpt lat="46.45448" lon="5.42844">
        <ele>435</ele>
        <time>2021-03-06T14:51:31.000Z</time>
      </trkpt>
      <trkpt lat="46.45439" lon="5.42834">
        <ele>435.60000610352</ele>
        <time>2021-03-06T14:51:33.000Z</time>
      </trkpt>
      <trkpt lat="46.4541" lon="5.42806">
        <ele>436.39999389648</ele>
        <time>2021-03-06T14:51:39.000Z</time>
      </trkpt>
      <trkpt lat="46.45405" lon="5.42802">
        <ele>436.60000610352</ele>
        <time>2021-03-06T14:51:40.000Z</time>
      </trkpt>
      <trkpt lat="46.45384" lon="5.42776">
        <ele>437.79998779297</ele>
        <time>2021-03-06T14:51:45.000Z</time>
      </trkpt>
      <trkpt lat="46.4538" lon="5.42771">
        <ele>437.79998779297</ele>
        <time>2021-03-06T14:51:46.000Z</time>
      </trkpt>
      <trkpt lat="46.45366" lon="5.42749">
        <ele>439</ele>
        <time>2021-03-06T14:51:50.000Z</time>
      </trkpt>
      <trkpt lat="46.45353" lon="5.42728">
        <ele>439.60000610352</ele>
        <time>2021-03-06T14:51:54.000Z</time>
      </trkpt>
      <trkpt lat="46.45344" lon="5.42712">
        <ele>440.20001220703</ele>
        <time>2021-03-06T14:51:57.000Z</time>
      </trkpt>
      <trkpt lat="46.45329" lon="5.42686">
        <ele>441.20001220703</ele>
        <time>2021-03-06T14:52:02.000Z</time>
      </trkpt>
      <trkpt lat="46.45323" lon="5.42675">
        <ele>441.39999389648</ele>
        <time>2021-03-06T14:52:04.000Z</time>
      </trkpt>
      <trkpt lat="46.45311" lon="5.42652">
        <ele>442.39999389648</ele>
        <time>2021-03-06T14:52:08.000Z</time>
      </trkpt>
      <trkpt lat="46.45298" lon="5.4263">
        <ele>443.39999389648</ele>
        <time>2021-03-06T14:52:12.000Z</time>
      </trkpt>
      <trkpt lat="46.45284" lon="5.42603">
        <ele>444.20001220703</ele>
        <time>2021-03-06T14:52:17.000Z</time>
      </trkpt>
      <trkpt lat="46.45275" lon="5.42587">
        <ele>444.60000610352</ele>
        <time>2021-03-06T14:52:20.000Z</time>
      </trkpt>
      <trkpt lat="46.45259" lon="5.42559">
        <ele>445.79998779297</ele>
        <time>2021-03-06T14:52:25.000Z</time>
      </trkpt>
      <trkpt lat="46.45231" lon="5.42509">
        <ele>447</ele>
        <time>2021-03-06T14:52:34.000Z</time>
      </trkpt>
      <trkpt lat="46.45228" lon="5.42504">
        <ele>447</ele>
        <time>2021-03-06T14:52:35.000Z</time>
      </trkpt>
      <trkpt lat="46.45222" lon="5.42493">
        <ele>447.39999389648</ele>
        <time>2021-03-06T14:52:37.000Z</time>
      </trkpt>
      <trkpt lat="46.45211" lon="5.4247">
        <ele>448.20001220703</ele>
        <time>2021-03-06T14:52:41.000Z</time>
      </trkpt>
      <trkpt lat="46.45205" lon="5.42458">
        <ele>448.79998779297</ele>
        <time>2021-03-06T14:52:43.000Z</time>
      </trkpt>
      <trkpt lat="46.45193" lon="5.42437">
        <ele>449.20001220703</ele>
        <time>2021-03-06T14:52:47.000Z</time>
      </trkpt>
      <trkpt lat="46.45168" lon="5.42395">
        <ele>450.20001220703</ele>
        <time>2021-03-06T14:52:55.000Z</time>
      </trkpt>
      <trkpt lat="46.45165" lon="5.4239">
        <ele>450.39999389648</ele>
        <time>2021-03-06T14:52:56.000Z</time>
      </trkpt>
      <trkpt lat="46.45142" lon="5.42362">
        <ele>451.20001220703</ele>
        <time>2021-03-06T14:53:02.000Z</time>
      </trkpt>
      <trkpt lat="46.45138" lon="5.42357">
        <ele>451.39999389648</ele>
        <time>2021-03-06T14:53:03.000Z</time>
      </trkpt>
      <trkpt lat="46.45131" lon="5.42346">
        <ele>451.60000610352</ele>
        <time>2021-03-06T14:53:05.000Z</time>
      </trkpt>
      <trkpt lat="46.4512" lon="5.42325">
        <ele>452.39999389648</ele>
        <time>2021-03-06T14:53:09.000Z</time>
      </trkpt>
      <trkpt lat="46.45108" lon="5.42312">
        <ele>453.39999389648</ele>
        <time>2021-03-06T14:53:12.000Z</time>
      </trkpt>
      <trkpt lat="46.45104" lon="5.42308">
        <ele>453.79998779297</ele>
        <time>2021-03-06T14:53:13.000Z</time>
      </trkpt>
      <trkpt lat="46.45097" lon="5.42297">
        <ele>454.39999389648</ele>
        <time>2021-03-06T14:53:15.000Z</time>
      </trkpt>
      <trkpt lat="46.45093" lon="5.42285">
        <ele>454.60000610352</ele>
        <time>2021-03-06T14:53:17.000Z</time>
      </trkpt>
      <trkpt lat="46.45091" lon="5.42271">
        <ele>455</ele>
        <time>2021-03-06T14:53:19.000Z</time>
      </trkpt>
      <trkpt lat="46.45088" lon="5.42242">
        <ele>455.79998779297</ele>
        <time>2021-03-06T14:53:23.000Z</time>
      </trkpt>
      <trkpt lat="46.45087" lon="5.42235">
        <ele>456.20001220703</ele>
        <time>2021-03-06T14:53:24.000Z</time>
      </trkpt>
      <trkpt lat="46.45086" lon="5.42221">
        <ele>456.60000610352</ele>
        <time>2021-03-06T14:53:26.000Z</time>
      </trkpt>
      <trkpt lat="46.45085" lon="5.42214">
        <ele>456.79998779297</ele>
        <time>2021-03-06T14:53:27.000Z</time>
      </trkpt>
      <trkpt lat="46.45084" lon="5.42207">
        <ele>457</ele>
        <time>2021-03-06T14:53:28.000Z</time>
      </trkpt>
      <trkpt lat="46.45078" lon="5.42179">
        <ele>458</ele>
        <time>2021-03-06T14:53:32.000Z</time>
      </trkpt>
      <trkpt lat="46.45063" lon="5.42138">
        <ele>459</ele>
        <time>2021-03-06T14:53:38.000Z</time>
      </trkpt>
      <trkpt lat="46.45042" lon="5.42086">
        <ele>459.79998779297</ele>
        <time>2021-03-06T14:53:46.000Z</time>
      </trkpt>
      <trkpt lat="46.45029" lon="5.42063">
        <ele>460.20001220703</ele>
        <time>2021-03-06T14:53:50.000Z</time>
      </trkpt>
      <trkpt lat="46.4502" lon="5.42047">
        <ele>460.79998779297</ele>
        <time>2021-03-06T14:53:53.000Z</time>
      </trkpt>
      <trkpt lat="46.44991" lon="5.41999">
        <ele>461</ele>
        <time>2021-03-06T14:54:02.000Z</time>
      </trkpt>
      <trkpt lat="46.44987" lon="5.41994">
        <ele>461.20001220703</ele>
        <time>2021-03-06T14:54:03.000Z</time>
      </trkpt>
      <trkpt lat="46.4498" lon="5.41984">
        <ele>461.20001220703</ele>
        <time>2021-03-06T14:54:05.000Z</time>
      </trkpt>
      <trkpt lat="46.44968" lon="5.41961">
        <ele>462.20001220703</ele>
        <time>2021-03-06T14:54:09.000Z</time>
      </trkpt>
      <trkpt lat="46.44966" lon="5.41954">
        <ele>462.60000610352</ele>
        <time>2021-03-06T14:54:10.000Z</time>
      </trkpt>
      <trkpt lat="46.44961" lon="5.41933">
        <ele>463.20001220703</ele>
        <time>2021-03-06T14:54:13.000Z</time>
      </trkpt>
      <trkpt lat="46.4496" lon="5.41926">
        <ele>463.39999389648</ele>
        <time>2021-03-06T14:54:14.000Z</time>
      </trkpt>
      <trkpt lat="46.4496" lon="5.41918">
        <ele>463.60000610352</ele>
        <time>2021-03-06T14:54:15.000Z</time>
      </trkpt>
      <trkpt lat="46.44961" lon="5.41911">
        <ele>463.79998779297</ele>
        <time>2021-03-06T14:54:16.000Z</time>
      </trkpt>
      <trkpt lat="46.44967" lon="5.41882">
        <ele>464</ele>
        <time>2021-03-06T14:54:20.000Z</time>
      </trkpt>
      <trkpt lat="46.44974" lon="5.41861">
        <ele>464.39999389648</ele>
        <time>2021-03-06T14:54:23.000Z</time>
      </trkpt>
      <trkpt lat="46.44985" lon="5.41838">
        <ele>464.79998779297</ele>
        <time>2021-03-06T14:54:27.000Z</time>
      </trkpt>
      <trkpt lat="46.44996" lon="5.41822">
        <ele>465.79998779297</ele>
        <time>2021-03-06T14:54:30.000Z</time>
      </trkpt>
      <trkpt lat="46.45" lon="5.41818">
        <ele>465.79998779297</ele>
        <time>2021-03-06T14:54:31.000Z</time>
      </trkpt>
      <trkpt lat="46.45005" lon="5.41814">
        <ele>466</ele>
        <time>2021-03-06T14:54:32.000Z</time>
      </trkpt>
      <trkpt lat="46.45008" lon="5.41811">
        <ele>466.20001220703</ele>
        <time>2021-03-06T14:54:33.000Z</time>
      </trkpt>
      <trkpt lat="46.45025" lon="5.41805">
        <ele>466.39999389648</ele>
        <time>2021-03-06T14:54:36.000Z</time>
      </trkpt>
      <trkpt lat="46.45031" lon="5.41804">
        <ele>466.60000610352</ele>
        <time>2021-03-06T14:54:37.000Z</time>
      </trkpt>
      <trkpt lat="46.4504" lon="5.41805">
        <ele>466.60000610352</ele>
        <time>2021-03-06T14:54:39.000Z</time>
      </trkpt>
      <trkpt lat="46.45047" lon="5.41807">
        <ele>466.79998779297</ele>
        <time>2021-03-06T14:54:40.000Z</time>
      </trkpt>
      <trkpt lat="46.45057" lon="5.41811">
        <ele>467</ele>
        <time>2021-03-06T14:54:42.000Z</time>
      </trkpt>
      <trkpt lat="46.45067" lon="5.41814">
        <ele>467.20001220703</ele>
        <time>2021-03-06T14:54:44.000Z</time>
      </trkpt>
      <trkpt lat="46.45088" lon="5.41815">
        <ele>467.20001220703</ele>
        <time>2021-03-06T14:54:47.000Z</time>
      </trkpt>
      <trkpt lat="46.45127" lon="5.41807">
        <ele>466.60000610352</ele>
        <time>2021-03-06T14:54:53.000Z</time>
      </trkpt>
      <trkpt lat="46.45168" lon="5.41785">
        <ele>466.20001220703</ele>
        <time>2021-03-06T14:54:59.000Z</time>
      </trkpt>
      <trkpt lat="46.45193" lon="5.41753">
        <ele>466</ele>
        <time>2021-03-06T14:55:04.000Z</time>
      </trkpt>
      <trkpt lat="46.45214" lon="5.41706">
        <ele>466.60000610352</ele>
        <time>2021-03-06T14:55:10.000Z</time>
      </trkpt>
      <trkpt lat="46.45232" lon="5.41643">
        <ele>467.20001220703</ele>
        <time>2021-03-06T14:55:18.000Z</time>
      </trkpt>
      <trkpt lat="46.45237" lon="5.41622">
        <ele>468.20001220703</ele>
        <time>2021-03-06T14:55:21.000Z</time>
      </trkpt>
      <trkpt lat="46.4524" lon="5.416">
        <ele>469</ele>
        <time>2021-03-06T14:55:24.000Z</time>
      </trkpt>
      <trkpt lat="46.45245" lon="5.41583">
        <ele>469.20001220703</ele>
        <time>2021-03-06T14:55:26.000Z</time>
      </trkpt>
      <trkpt lat="46.45249" lon="5.41567">
        <ele>470.20001220703</ele>
        <time>2021-03-06T14:55:28.000Z</time>
      </trkpt>
      <trkpt lat="46.45252" lon="5.41562">
        <ele>470.39999389648</ele>
        <time>2021-03-06T14:55:29.000Z</time>
      </trkpt>
      <trkpt lat="46.45261" lon="5.41547">
        <ele>470.60000610352</ele>
        <time>2021-03-06T14:55:31.000Z</time>
      </trkpt>
      <trkpt lat="46.45271" lon="5.41537">
        <ele>470.60000610352</ele>
        <time>2021-03-06T14:55:33.000Z</time>
      </trkpt>
      <trkpt lat="46.45281" lon="5.41532">
        <ele>470.60000610352</ele>
        <time>2021-03-06T14:55:35.000Z</time>
      </trkpt>
      <trkpt lat="46.45292" lon="5.4153">
        <ele>470.79998779297</ele>
        <time>2021-03-06T14:55:37.000Z</time>
      </trkpt>
      <trkpt lat="46.4532" lon="5.41532">
        <ele>471.39999389648</ele>
        <time>2021-03-06T14:55:42.000Z</time>
      </trkpt>
      <trkpt lat="46.45325" lon="5.41533">
        <ele>471.60000610352</ele>
        <time>2021-03-06T14:55:43.000Z</time>
      </trkpt>
      <trkpt lat="46.45352" lon="5.41538">
        <ele>472.60000610352</ele>
        <time>2021-03-06T14:55:48.000Z</time>
      </trkpt>
      <trkpt lat="46.45373" lon="5.41538">
        <ele>473.20001220703</ele>
        <time>2021-03-06T14:55:52.000Z</time>
      </trkpt>
      <trkpt lat="46.45394" lon="5.41534">
        <ele>473.60000610352</ele>
        <time>2021-03-06T14:55:56.000Z</time>
      </trkpt>
      <trkpt lat="46.45411" lon="5.41528">
        <ele>474.20001220703</ele>
        <time>2021-03-06T14:55:59.000Z</time>
      </trkpt>
      <trkpt lat="46.45425" lon="5.41522">
        <ele>474.79998779297</ele>
        <time>2021-03-06T14:56:02.000Z</time>
      </trkpt>
      <trkpt lat="46.4545" lon="5.41513">
        <ele>475.79998779297</ele>
        <time>2021-03-06T14:56:07.000Z</time>
      </trkpt>
      <trkpt lat="46.45454" lon="5.41512">
        <ele>475.79998779297</ele>
        <time>2021-03-06T14:56:08.000Z</time>
      </trkpt>
      <trkpt lat="46.45484" lon="5.415">
        <ele>476.79998779297</ele>
        <time>2021-03-06T14:56:14.000Z</time>
      </trkpt>
      <trkpt lat="46.45487" lon="5.41498">
        <ele>477.20001220703</ele>
        <time>2021-03-06T14:56:15.000Z</time>
      </trkpt>
      <trkpt lat="46.45503" lon="5.41491">
        <ele>478</ele>
        <time>2021-03-06T14:56:18.000Z</time>
      </trkpt>
      <trkpt lat="46.45532" lon="5.41475">
        <ele>478.39999389648</ele>
        <time>2021-03-06T14:56:24.000Z</time>
      </trkpt>
      <trkpt lat="46.45572" lon="5.41448">
        <ele>479</ele>
        <time>2021-03-06T14:56:32.000Z</time>
      </trkpt>
      <trkpt lat="46.45578" lon="5.41444">
        <ele>479</ele>
        <time>2021-03-06T14:56:33.000Z</time>
      </trkpt>
      <trkpt lat="46.45603" lon="5.41412">
        <ele>479.60000610352</ele>
        <time>2021-03-06T14:56:39.000Z</time>
      </trkpt>
      <trkpt lat="46.4562" lon="5.41382">
        <ele>479.60000610352</ele>
        <time>2021-03-06T14:56:44.000Z</time>
      </trkpt>
      <trkpt lat="46.45629" lon="5.41364">
        <ele>480</ele>
        <time>2021-03-06T14:56:47.000Z</time>
      </trkpt>
      <trkpt lat="46.45632" lon="5.41358">
        <ele>480</ele>
        <time>2021-03-06T14:56:48.000Z</time>
      </trkpt>
      <trkpt lat="46.4566" lon="5.41309">
        <ele>480.60000610352</ele>
        <time>2021-03-06T14:56:56.000Z</time>
      </trkpt>
      <trkpt lat="46.45686" lon="5.41274">
        <ele>480.79998779297</ele>
        <time>2021-03-06T14:57:02.000Z</time>
      </trkpt>
      <trkpt lat="46.45719" lon="5.41236">
        <ele>480.20001220703</ele>
        <time>2021-03-06T14:57:09.000Z</time>
      </trkpt>
      <trkpt lat="46.45757" lon="5.41185">
        <ele>480</ele>
        <time>2021-03-06T14:57:18.000Z</time>
      </trkpt>
      <trkpt lat="46.45773" lon="5.41141">
        <ele>480.39999389648</ele>
        <time>2021-03-06T14:57:24.000Z</time>
      </trkpt>
      <trkpt lat="46.45789" lon="5.4108">
        <ele>481</ele>
        <time>2021-03-06T14:57:32.000Z</time>
      </trkpt>
      <trkpt lat="46.45808" lon="5.41008">
        <ele>481.60000610352</ele>
        <time>2021-03-06T14:57:42.000Z</time>
      </trkpt>
      <trkpt lat="46.45819" lon="5.40974">
        <ele>482.20001220703</ele>
        <time>2021-03-06T14:57:47.000Z</time>
      </trkpt>
      <trkpt lat="46.45826" lon="5.40943">
        <ele>482.79998779297</ele>
        <time>2021-03-06T14:57:51.000Z</time>
      </trkpt>
      <trkpt lat="46.45832" lon="5.40915">
        <ele>483.39999389648</ele>
        <time>2021-03-06T14:57:55.000Z</time>
      </trkpt>
      <trkpt lat="46.45842" lon="5.4086">
        <ele>483.79998779297</ele>
        <time>2021-03-06T14:58:02.000Z</time>
      </trkpt>
      <trkpt lat="46.4585" lon="5.40802">
        <ele>483.60000610352</ele>
        <time>2021-03-06T14:58:09.000Z</time>
      </trkpt>
      <trkpt lat="46.45858" lon="5.40733">
        <ele>484.39999389648</ele>
        <time>2021-03-06T14:58:17.000Z</time>
      </trkpt>
      <trkpt lat="46.45863" lon="5.40712">
        <ele>484.60000610352</ele>
        <time>2021-03-06T14:58:20.000Z</time>
      </trkpt>
      <trkpt lat="46.4587" lon="5.40692">
        <ele>485</ele>
        <time>2021-03-06T14:58:23.000Z</time>
      </trkpt>
      <trkpt lat="46.45879" lon="5.4067">
        <ele>485.79998779297</ele>
        <time>2021-03-06T14:58:27.000Z</time>
      </trkpt>
      <trkpt lat="46.45883" lon="5.4066">
        <ele>486.20001220703</ele>
        <time>2021-03-06T14:58:29.000Z</time>
      </trkpt>
      <trkpt lat="46.45885" lon="5.40655">
        <ele>486.39999389648</ele>
        <time>2021-03-06T14:58:30.000Z</time>
      </trkpt>
      <trkpt lat="46.45887" lon="5.40651">
        <ele>486.79998779297</ele>
        <time>2021-03-06T14:58:31.000Z</time>
      </trkpt>
      <trkpt lat="46.45891" lon="5.4064">
        <ele>487</ele>
        <time>2021-03-06T14:58:33.000Z</time>
      </trkpt>
      <trkpt lat="46.45894" lon="5.40631">
        <ele>487.60000610352</ele>
        <time>2021-03-06T14:58:35.000Z</time>
      </trkpt>
      <trkpt lat="46.45896" lon="5.40627">
        <ele>488.20001220703</ele>
        <time>2021-03-06T14:58:36.000Z</time>
      </trkpt>
      <trkpt lat="46.45905" lon="5.40609">
        <ele>489.39999389648</ele>
        <time>2021-03-06T14:58:40.000Z</time>
      </trkpt>
      <trkpt lat="46.45909" lon="5.40602">
        <ele>490</ele>
        <time>2021-03-06T14:58:42.000Z</time>
      </trkpt>
      <trkpt lat="46.4591" lon="5.40596">
        <ele>490.39999389648</ele>
        <time>2021-03-06T14:58:43.000Z</time>
      </trkpt>
      <trkpt lat="46.45915" lon="5.40578">
        <ele>491.60000610352</ele>
        <time>2021-03-06T14:58:47.000Z</time>
      </trkpt>
      <trkpt lat="46.45917" lon="5.40573">
        <ele>491.60000610352</ele>
        <time>2021-03-06T14:58:48.000Z</time>
      </trkpt>
      <trkpt lat="46.4592" lon="5.40565">
        <ele>492.60000610352</ele>
        <time>2021-03-06T14:58:50.000Z</time>
      </trkpt>
      <trkpt lat="46.4593" lon="5.40542">
        <ele>493.60000610352</ele>
        <time>2021-03-06T14:58:56.000Z</time>
      </trkpt>
      <trkpt lat="46.45932" lon="5.40539">
        <ele>493.79998779297</ele>
        <time>2021-03-06T14:58:57.000Z</time>
      </trkpt>
      <trkpt lat="46.45939" lon="5.40529">
        <ele>495</ele>
        <time>2021-03-06T14:59:00.000Z</time>
      </trkpt>
      <trkpt lat="46.45946" lon="5.40518">
        <ele>496</ele>
        <time>2021-03-06T14:59:04.000Z</time>
      </trkpt>
      <trkpt lat="46.45948" lon="5.40515">
        <ele>496</ele>
        <time>2021-03-06T14:59:05.000Z</time>
      </trkpt>
      <trkpt lat="46.45959" lon="5.40498">
        <ele>497.20001220703</ele>
        <time>2021-03-06T14:59:10.000Z</time>
      </trkpt>
      <trkpt lat="46.45965" lon="5.40489">
        <ele>498.20001220703</ele>
        <time>2021-03-06T14:59:13.000Z</time>
      </trkpt>
      <trkpt lat="46.45979" lon="5.4047">
        <ele>499.39999389648</ele>
        <time>2021-03-06T14:59:19.000Z</time>
      </trkpt>
      <trkpt lat="46.45989" lon="5.40452">
        <ele>500.39999389648</ele>
        <time>2021-03-06T14:59:24.000Z</time>
      </trkpt>
      <trkpt lat="46.45998" lon="5.40434">
        <ele>501.60000610352</ele>
        <time>2021-03-06T14:59:29.000Z</time>
      </trkpt>
      <trkpt lat="46.46008" lon="5.40412">
        <ele>502.79998779297</ele>
        <time>2021-03-06T14:59:35.000Z</time>
      </trkpt>
      <trkpt lat="46.46009" lon="5.40408">
        <ele>503.20001220703</ele>
        <time>2021-03-06T14:59:36.000Z</time>
      </trkpt>
      <trkpt lat="46.46015" lon="5.40393">
        <ele>504.20001220703</ele>
        <time>2021-03-06T14:59:40.000Z</time>
      </trkpt>
      <trkpt lat="46.4602" lon="5.40377">
        <ele>505.39999389648</ele>
        <time>2021-03-06T14:59:44.000Z</time>
      </trkpt>
      <trkpt lat="46.46028" lon="5.40357">
        <ele>506.79998779297</ele>
        <time>2021-03-06T14:59:49.000Z</time>
      </trkpt>
      <trkpt lat="46.46036" lon="5.40346">
        <ele>507.60000610352</ele>
        <time>2021-03-06T14:59:52.000Z</time>
      </trkpt>
      <trkpt lat="46.46042" lon="5.4034">
        <ele>507.79998779297</ele>
        <time>2021-03-06T14:59:54.000Z</time>
      </trkpt>
      <trkpt lat="46.46054" lon="5.4033">
        <ele>508.60000610352</ele>
        <time>2021-03-06T14:59:58.000Z</time>
      </trkpt>
      <trkpt lat="46.46057" lon="5.40328">
        <ele>509</ele>
        <time>2021-03-06T14:59:59.000Z</time>
      </trkpt>
      <trkpt lat="46.46069" lon="5.40321">
        <ele>510</ele>
        <time>2021-03-06T15:00:03.000Z</time>
      </trkpt>
      <trkpt lat="46.46082" lon="5.40316">
        <ele>510.79998779297</ele>
        <time>2021-03-06T15:00:07.000Z</time>
      </trkpt>
      <trkpt lat="46.46085" lon="5.40315">
        <ele>511</ele>
        <time>2021-03-06T15:00:08.000Z</time>
      </trkpt>
      <trkpt lat="46.46092" lon="5.40312">
        <ele>511.60000610352</ele>
        <time>2021-03-06T15:00:10.000Z</time>
      </trkpt>
      <trkpt lat="46.46103" lon="5.40307">
        <ele>512.40002441406</ele>
        <time>2021-03-06T15:00:14.000Z</time>
      </trkpt>
      <trkpt lat="46.46117" lon="5.403">
        <ele>513.59997558594</ele>
        <time>2021-03-06T15:00:19.000Z</time>
      </trkpt>
      <trkpt lat="46.46124" lon="5.40296">
        <ele>514</ele>
        <time>2021-03-06T15:00:21.000Z</time>
      </trkpt>
      <trkpt lat="46.46131" lon="5.40288">
        <ele>514.79998779297</ele>
        <time>2021-03-06T15:00:24.000Z</time>
      </trkpt>
      <trkpt lat="46.46141" lon="5.40272">
        <ele>515.79998779297</ele>
        <time>2021-03-06T15:00:28.000Z</time>
      </trkpt>
      <trkpt lat="46.46144" lon="5.40268">
        <ele>516</ele>
        <time>2021-03-06T15:00:29.000Z</time>
      </trkpt>
      <trkpt lat="46.46158" lon="5.40241">
        <ele>516.40002441406</ele>
        <time>2021-03-06T15:00:35.000Z</time>
      </trkpt>
      <trkpt lat="46.46174" lon="5.4021">
        <ele>517</ele>
        <time>2021-03-06T15:00:42.000Z</time>
      </trkpt>
      <trkpt lat="46.46176" lon="5.40206">
        <ele>517.20001220703</ele>
        <time>2021-03-06T15:00:43.000Z</time>
      </trkpt>
      <trkpt lat="46.46183" lon="5.40194">
        <ele>518.40002441406</ele>
        <time>2021-03-06T15:00:46.000Z</time>
      </trkpt>
      <trkpt lat="46.46196" lon="5.40166">
        <ele>519</ele>
        <time>2021-03-06T15:00:52.000Z</time>
      </trkpt>
      <trkpt lat="46.46203" lon="5.40154">
        <ele>519.40002441406</ele>
        <time>2021-03-06T15:00:55.000Z</time>
      </trkpt>
      <trkpt lat="46.46222" lon="5.40126">
        <ele>519.79998779297</ele>
        <time>2021-03-06T15:01:01.000Z</time>
      </trkpt>
      <trkpt lat="46.46245" lon="5.40103">
        <ele>519.79998779297</ele>
        <time>2021-03-06T15:01:07.000Z</time>
      </trkpt>
      <trkpt lat="46.46253" lon="5.40097">
        <ele>519.79998779297</ele>
        <time>2021-03-06T15:01:09.000Z</time>
      </trkpt>
      <trkpt lat="46.46261" lon="5.40092">
        <ele>520</ele>
        <time>2021-03-06T15:01:11.000Z</time>
      </trkpt>
      <trkpt lat="46.46274" lon="5.40089">
        <ele>520.40002441406</ele>
        <time>2021-03-06T15:01:14.000Z</time>
      </trkpt>
      <trkpt lat="46.46278" lon="5.40089">
        <ele>520.59997558594</ele>
        <time>2021-03-06T15:01:15.000Z</time>
      </trkpt>
      <trkpt lat="46.46297" lon="5.40092">
        <ele>521.59997558594</ele>
        <time>2021-03-06T15:01:20.000Z</time>
      </trkpt>
      <trkpt lat="46.463" lon="5.40092">
        <ele>522</ele>
        <time>2021-03-06T15:01:21.000Z</time>
      </trkpt>
      <trkpt lat="46.46317" lon="5.40095">
        <ele>522.59997558594</ele>
        <time>2021-03-06T15:01:26.000Z</time>
      </trkpt>
      <trkpt lat="46.46333" lon="5.40095">
        <ele>523.79998779297</ele>
        <time>2021-03-06T15:01:30.000Z</time>
      </trkpt>
      <trkpt lat="46.46337" lon="5.40095">
        <ele>524.20001220703</ele>
        <time>2021-03-06T15:01:31.000Z</time>
      </trkpt>
      <trkpt lat="46.46349" lon="5.40093">
        <ele>525.20001220703</ele>
        <time>2021-03-06T15:01:34.000Z</time>
      </trkpt>
      <trkpt lat="46.46366" lon="5.4009">
        <ele>526</ele>
        <time>2021-03-06T15:01:38.000Z</time>
      </trkpt>
      <trkpt lat="46.4637" lon="5.40089">
        <ele>526.40002441406</ele>
        <time>2021-03-06T15:01:39.000Z</time>
      </trkpt>
      <trkpt lat="46.464" lon="5.40082">
        <ele>527.59997558594</ele>
        <time>2021-03-06T15:01:46.000Z</time>
      </trkpt>
      <trkpt lat="46.46413" lon="5.4008">
        <ele>527.79998779297</ele>
        <time>2021-03-06T15:01:49.000Z</time>
      </trkpt>
      <trkpt lat="46.46422" lon="5.40079">
        <ele>528</ele>
        <time>2021-03-06T15:01:51.000Z</time>
      </trkpt>
      <trkpt lat="46.46431" lon="5.40078">
        <ele>528.59997558594</ele>
        <time>2021-03-06T15:01:53.000Z</time>
      </trkpt>
      <trkpt lat="46.46439" lon="5.40077">
        <ele>529.20001220703</ele>
        <time>2021-03-06T15:01:55.000Z</time>
      </trkpt>
      <trkpt lat="46.46448" lon="5.40076">
        <ele>529.40002441406</ele>
        <time>2021-03-06T15:01:57.000Z</time>
      </trkpt>
      <trkpt lat="46.46461" lon="5.40075">
        <ele>529.59997558594</ele>
        <time>2021-03-06T15:02:00.000Z</time>
      </trkpt>
      <trkpt lat="46.46478" lon="5.40074">
        <ele>530.40002441406</ele>
        <time>2021-03-06T15:02:04.000Z</time>
      </trkpt>
      <trkpt lat="46.46496" lon="5.40074">
        <ele>530.59997558594</ele>
        <time>2021-03-06T15:02:08.000Z</time>
      </trkpt>
      <trkpt lat="46.46521" lon="5.40077">
        <ele>531.20001220703</ele>
        <time>2021-03-06T15:02:13.000Z</time>
      </trkpt>
      <trkpt lat="46.46546" lon="5.40088">
        <ele>531.59997558594</ele>
        <time>2021-03-06T15:02:19.000Z</time>
      </trkpt>
      <trkpt lat="46.46551" lon="5.4009">
        <ele>531.79998779297</ele>
        <time>2021-03-06T15:02:20.000Z</time>
      </trkpt>
      <trkpt lat="46.46575" lon="5.40103">
        <ele>533</ele>
        <time>2021-03-06T15:02:26.000Z</time>
      </trkpt>
      <trkpt lat="46.4658" lon="5.40105">
        <ele>533.20001220703</ele>
        <time>2021-03-06T15:02:27.000Z</time>
      </trkpt>
      <trkpt lat="46.46608" lon="5.40118">
        <ele>534</ele>
        <time>2021-03-06T15:02:34.000Z</time>
      </trkpt>
      <trkpt lat="46.46612" lon="5.4012">
        <ele>534.20001220703</ele>
        <time>2021-03-06T15:02:35.000Z</time>
      </trkpt>
      <trkpt lat="46.46635" lon="5.40132">
        <ele>535.20001220703</ele>
        <time>2021-03-06T15:02:41.000Z</time>
      </trkpt>
      <trkpt lat="46.4665" lon="5.40141">
        <ele>536.20001220703</ele>
        <time>2021-03-06T15:02:45.000Z</time>
      </trkpt>
      <trkpt lat="46.46654" lon="5.40143">
        <ele>536.40002441406</ele>
        <time>2021-03-06T15:02:46.000Z</time>
      </trkpt>
      <trkpt lat="46.4667" lon="5.40151">
        <ele>537.59997558594</ele>
        <time>2021-03-06T15:02:50.000Z</time>
      </trkpt>
      <trkpt lat="46.46684" lon="5.40158">
        <ele>538.59997558594</ele>
        <time>2021-03-06T15:02:54.000Z</time>
      </trkpt>
      <trkpt lat="46.467" lon="5.40166">
        <ele>539.40002441406</ele>
        <time>2021-03-06T15:02:58.000Z</time>
      </trkpt>
      <trkpt lat="46.46703" lon="5.40168">
        <ele>539.79998779297</ele>
        <time>2021-03-06T15:02:59.000Z</time>
      </trkpt>
      <trkpt lat="46.46716" lon="5.40174">
        <ele>541</ele>
        <time>2021-03-06T15:03:02.000Z</time>
      </trkpt>
      <trkpt lat="46.4673" lon="5.40181">
        <ele>541.59997558594</ele>
        <time>2021-03-06T15:03:06.000Z</time>
      </trkpt>
      <trkpt lat="46.46736" lon="5.40184">
        <ele>542.20001220703</ele>
        <time>2021-03-06T15:03:08.000Z</time>
      </trkpt>
      <trkpt lat="46.46745" lon="5.40189">
        <ele>543</ele>
        <time>2021-03-06T15:03:11.000Z</time>
      </trkpt>
      <trkpt lat="46.46751" lon="5.40192">
        <ele>543.40002441406</ele>
        <time>2021-03-06T15:03:13.000Z</time>
      </trkpt>
      <trkpt lat="46.46766" lon="5.40199">
        <ele>544.59997558594</ele>
        <time>2021-03-06T15:03:18.000Z</time>
      </trkpt>
      <trkpt lat="46.4678" lon="5.40206">
        <ele>545.40002441406</ele>
        <time>2021-03-06T15:03:22.000Z</time>
      </trkpt>
      <trkpt lat="46.46784" lon="5.40208">
        <ele>545.59997558594</ele>
        <time>2021-03-06T15:03:23.000Z</time>
      </trkpt>
      <trkpt lat="46.46806" lon="5.4022">
        <ele>546.59997558594</ele>
        <time>2021-03-06T15:03:30.000Z</time>
      </trkpt>
      <trkpt lat="46.46821" lon="5.40228">
        <ele>547.79998779297</ele>
        <time>2021-03-06T15:03:35.000Z</time>
      </trkpt>
      <trkpt lat="46.46834" lon="5.40235">
        <ele>548.59997558594</ele>
        <time>2021-03-06T15:03:39.000Z</time>
      </trkpt>
      <trkpt lat="46.46838" lon="5.40237">
        <ele>549</ele>
        <time>2021-03-06T15:03:40.000Z</time>
      </trkpt>
      <trkpt lat="46.46855" lon="5.40245">
        <ele>550</ele>
        <time>2021-03-06T15:03:45.000Z</time>
      </trkpt>
      <trkpt lat="46.4687" lon="5.40252">
        <ele>551</ele>
        <time>2021-03-06T15:03:50.000Z</time>
      </trkpt>
      <trkpt lat="46.46899" lon="5.40266">
        <ele>552.40002441406</ele>
        <time>2021-03-06T15:03:59.000Z</time>
      </trkpt>
      <trkpt lat="46.46906" lon="5.4027">
        <ele>552.59997558594</ele>
        <time>2021-03-06T15:04:01.000Z</time>
      </trkpt>
      <trkpt lat="46.46927" lon="5.40279">
        <ele>553.59997558594</ele>
        <time>2021-03-06T15:04:06.000Z</time>
      </trkpt>
      <trkpt lat="46.46961" lon="5.40298">
        <ele>554.59997558594</ele>
        <time>2021-03-06T15:04:15.000Z</time>
      </trkpt>
      <trkpt lat="46.46986" lon="5.4031">
        <ele>555.59997558594</ele>
        <time>2021-03-06T15:04:21.000Z</time>
      </trkpt>
      <trkpt lat="46.46994" lon="5.40313">
        <ele>555.79998779297</ele>
        <time>2021-03-06T15:04:23.000Z</time>
      </trkpt>
      <trkpt lat="46.47005" lon="5.40317">
        <ele>556.59997558594</ele>
        <time>2021-03-06T15:04:26.000Z</time>
      </trkpt>
      <trkpt lat="46.47026" lon="5.40322">
        <ele>557.59997558594</ele>
        <time>2021-03-06T15:04:31.000Z</time>
      </trkpt>
      <trkpt lat="46.47034" lon="5.40324">
        <ele>557.79998779297</ele>
        <time>2021-03-06T15:04:33.000Z</time>
      </trkpt>
      <trkpt lat="46.47042" lon="5.40325">
        <ele>557.79998779297</ele>
        <time>2021-03-06T15:04:35.000Z</time>
      </trkpt>
      <trkpt lat="46.47051" lon="5.40325">
        <ele>558</ele>
        <time>2021-03-06T15:04:37.000Z</time>
      </trkpt>
      <trkpt lat="46.47066" lon="5.40326">
        <ele>558.20001220703</ele>
        <time>2021-03-06T15:04:40.000Z</time>
      </trkpt>
      <trkpt lat="46.47079" lon="5.40328">
        <ele>558.20001220703</ele>
        <time>2021-03-06T15:04:42.000Z</time>
      </trkpt>
      <trkpt lat="46.47092" lon="5.40331">
        <ele>558</ele>
        <time>2021-03-06T15:04:44.000Z</time>
      </trkpt>
      <trkpt lat="46.47125" lon="5.40335">
        <ele>556.40002441406</ele>
        <time>2021-03-06T15:04:48.000Z</time>
      </trkpt>
      <trkpt lat="46.47147" lon="5.4034">
        <ele>555</ele>
        <time>2021-03-06T15:04:51.000Z</time>
      </trkpt>
      <trkpt lat="46.47168" lon="5.40344">
        <ele>553.79998779297</ele>
        <time>2021-03-06T15:04:53.000Z</time>
      </trkpt>
      <trkpt lat="46.47179" lon="5.40347">
        <ele>553.20001220703</ele>
        <time>2021-03-06T15:04:54.000Z</time>
      </trkpt>
      <trkpt lat="46.47188" lon="5.4035">
        <ele>552.59997558594</ele>
        <time>2021-03-06T15:04:55.000Z</time>
      </trkpt>
      <trkpt lat="46.472" lon="5.40355">
        <ele>552.40002441406</ele>
        <time>2021-03-06T15:04:56.000Z</time>
      </trkpt>
      <trkpt lat="46.47208" lon="5.40361">
        <ele>551.79998779297</ele>
        <time>2021-03-06T15:04:57.000Z</time>
      </trkpt>
      <trkpt lat="46.47216" lon="5.40368">
        <ele>551</ele>
        <time>2021-03-06T15:04:58.000Z</time>
      </trkpt>
      <trkpt lat="46.47224" lon="5.40377">
        <ele>550.59997558594</ele>
        <time>2021-03-06T15:04:59.000Z</time>
      </trkpt>
      <trkpt lat="46.4724" lon="5.40398">
        <ele>549.20001220703</ele>
        <time>2021-03-06T15:05:01.000Z</time>
      </trkpt>
      <trkpt lat="46.4725" lon="5.40407">
        <ele>548.40002441406</ele>
        <time>2021-03-06T15:05:02.000Z</time>
      </trkpt>
      <trkpt lat="46.47259" lon="5.40414">
        <ele>547.79998779297</ele>
        <time>2021-03-06T15:05:03.000Z</time>
      </trkpt>
      <trkpt lat="46.47268" lon="5.40421">
        <ele>547.40002441406</ele>
        <time>2021-03-06T15:05:04.000Z</time>
      </trkpt>
      <trkpt lat="46.47278" lon="5.40425">
        <ele>546.79998779297</ele>
        <time>2021-03-06T15:05:05.000Z</time>
      </trkpt>
      <trkpt lat="46.47289" lon="5.4043">
        <ele>546.59997558594</ele>
        <time>2021-03-06T15:05:06.000Z</time>
      </trkpt>
      <trkpt lat="46.47298" lon="5.40434">
        <ele>546.59997558594</ele>
        <time>2021-03-06T15:05:07.000Z</time>
      </trkpt>
      <trkpt lat="46.47323" lon="5.4044">
        <ele>545.79998779297</ele>
        <time>2021-03-06T15:05:09.000Z</time>
      </trkpt>
      <trkpt lat="46.47332" lon="5.40441">
        <ele>544.40002441406</ele>
        <time>2021-03-06T15:05:10.000Z</time>
      </trkpt>
      <trkpt lat="46.47349" lon="5.40443">
        <ele>543</ele>
        <time>2021-03-06T15:05:12.000Z</time>
      </trkpt>
      <trkpt lat="46.47379" lon="5.40448">
        <ele>541.79998779297</ele>
        <time>2021-03-06T15:05:15.000Z</time>
      </trkpt>
      <trkpt lat="46.47387" lon="5.40449">
        <ele>541.40002441406</ele>
        <time>2021-03-06T15:05:16.000Z</time>
      </trkpt>
      <trkpt lat="46.47406" lon="5.40452">
        <ele>540.59997558594</ele>
        <time>2021-03-06T15:05:18.000Z</time>
      </trkpt>
      <trkpt lat="46.47425" lon="5.4045">
        <ele>539</ele>
        <time>2021-03-06T15:05:20.000Z</time>
      </trkpt>
      <trkpt lat="46.47458" lon="5.40448">
        <ele>538</ele>
        <time>2021-03-06T15:05:23.000Z</time>
      </trkpt>
      <trkpt lat="46.47478" lon="5.40449">
        <ele>536.40002441406</ele>
        <time>2021-03-06T15:05:25.000Z</time>
      </trkpt>
      <trkpt lat="46.47488" lon="5.40451">
        <ele>535.59997558594</ele>
        <time>2021-03-06T15:05:26.000Z</time>
      </trkpt>
      <trkpt lat="46.47497" lon="5.40454">
        <ele>535</ele>
        <time>2021-03-06T15:05:27.000Z</time>
      </trkpt>
      <trkpt lat="46.47523" lon="5.40469">
        <ele>534</ele>
        <time>2021-03-06T15:05:30.000Z</time>
      </trkpt>
      <trkpt lat="46.4754" lon="5.40486">
        <ele>533</ele>
        <time>2021-03-06T15:05:32.000Z</time>
      </trkpt>
      <trkpt lat="46.47548" lon="5.40489">
        <ele>532.59997558594</ele>
        <time>2021-03-06T15:05:33.000Z</time>
      </trkpt>
      <trkpt lat="46.47556" lon="5.40485">
        <ele>532.20001220703</ele>
        <time>2021-03-06T15:05:34.000Z</time>
      </trkpt>
      <trkpt lat="46.47563" lon="5.40479">
        <ele>531.59997558594</ele>
        <time>2021-03-06T15:05:35.000Z</time>
      </trkpt>
      <trkpt lat="46.47568" lon="5.4047">
        <ele>531.20001220703</ele>
        <time>2021-03-06T15:05:36.000Z</time>
      </trkpt>
      <trkpt lat="46.47571" lon="5.40457">
        <ele>530.79998779297</ele>
        <time>2021-03-06T15:05:37.000Z</time>
      </trkpt>
      <trkpt lat="46.47573" lon="5.40443">
        <ele>530.40002441406</ele>
        <time>2021-03-06T15:05:38.000Z</time>
      </trkpt>
      <trkpt lat="46.47572" lon="5.40416">
        <ele>529.20001220703</ele>
        <time>2021-03-06T15:05:40.000Z</time>
      </trkpt>
      <trkpt lat="46.47564" lon="5.40389">
        <ele>527.79998779297</ele>
        <time>2021-03-06T15:05:42.000Z</time>
      </trkpt>
      <trkpt lat="46.47559" lon="5.40375">
        <ele>527.20001220703</ele>
        <time>2021-03-06T15:05:43.000Z</time>
      </trkpt>
      <trkpt lat="46.47557" lon="5.40359">
        <ele>526</ele>
        <time>2021-03-06T15:05:44.000Z</time>
      </trkpt>
      <trkpt lat="46.47557" lon="5.40344">
        <ele>525.59997558594</ele>
        <time>2021-03-06T15:05:45.000Z</time>
      </trkpt>
      <trkpt lat="46.47559" lon="5.40329">
        <ele>524.79998779297</ele>
        <time>2021-03-06T15:05:46.000Z</time>
      </trkpt>
      <trkpt lat="46.47564" lon="5.40316">
        <ele>524.40002441406</ele>
        <time>2021-03-06T15:05:47.000Z</time>
      </trkpt>
      <trkpt lat="46.47577" lon="5.40294">
        <ele>523.59997558594</ele>
        <time>2021-03-06T15:05:49.000Z</time>
      </trkpt>
      <trkpt lat="46.47585" lon="5.40284">
        <ele>522.40002441406</ele>
        <time>2021-03-06T15:05:50.000Z</time>
      </trkpt>
      <trkpt lat="46.47593" lon="5.40275">
        <ele>521.59997558594</ele>
        <time>2021-03-06T15:05:51.000Z</time>
      </trkpt>
      <trkpt lat="46.47599" lon="5.4027">
        <ele>521.20001220703</ele>
        <time>2021-03-06T15:05:52.000Z</time>
      </trkpt>
      <trkpt lat="46.4762" lon="5.4026">
        <ele>520</ele>
        <time>2021-03-06T15:05:54.000Z</time>
      </trkpt>
      <trkpt lat="46.47631" lon="5.40258">
        <ele>519</ele>
        <time>2021-03-06T15:05:55.000Z</time>
      </trkpt>
      <trkpt lat="46.47652" lon="5.40252">
        <ele>517.79998779297</ele>
        <time>2021-03-06T15:05:57.000Z</time>
      </trkpt>
      <trkpt lat="46.47664" lon="5.40249">
        <ele>517.20001220703</ele>
        <time>2021-03-06T15:05:58.000Z</time>
      </trkpt>
      <trkpt lat="46.47674" lon="5.40249">
        <ele>516.59997558594</ele>
        <time>2021-03-06T15:05:59.000Z</time>
      </trkpt>
      <trkpt lat="46.47684" lon="5.40249">
        <ele>516</ele>
        <time>2021-03-06T15:06:00.000Z</time>
      </trkpt>
      <trkpt lat="46.47695" lon="5.4025">
        <ele>515.59997558594</ele>
        <time>2021-03-06T15:06:01.000Z</time>
      </trkpt>
      <trkpt lat="46.47707" lon="5.40248">
        <ele>515</ele>
        <time>2021-03-06T15:06:02.000Z</time>
      </trkpt>
      <trkpt lat="46.47716" lon="5.40246">
        <ele>515</ele>
        <time>2021-03-06T15:06:03.000Z</time>
      </trkpt>
      <trkpt lat="46.47724" lon="5.40237">
        <ele>514.20001220703</ele>
        <time>2021-03-06T15:06:04.000Z</time>
      </trkpt>
      <trkpt lat="46.47729" lon="5.40225">
        <ele>514</ele>
        <time>2021-03-06T15:06:05.000Z</time>
      </trkpt>
      <trkpt lat="46.47734" lon="5.40197">
        <ele>513</ele>
        <time>2021-03-06T15:06:07.000Z</time>
      </trkpt>
      <trkpt lat="46.47739" lon="5.40181">
        <ele>512.59997558594</ele>
        <time>2021-03-06T15:06:08.000Z</time>
      </trkpt>
      <trkpt lat="46.47744" lon="5.40168">
        <ele>512.20001220703</ele>
        <time>2021-03-06T15:06:09.000Z</time>
      </trkpt>
      <trkpt lat="46.47756" lon="5.40157">
        <ele>512</ele>
        <time>2021-03-06T15:06:10.000Z</time>
      </trkpt>
      <trkpt lat="46.47775" lon="5.40139">
        <ele>511.20001220703</ele>
        <time>2021-03-06T15:06:12.000Z</time>
      </trkpt>
      <trkpt lat="46.4778" lon="5.40127">
        <ele>510.79998779297</ele>
        <time>2021-03-06T15:06:13.000Z</time>
      </trkpt>
      <trkpt lat="46.47785" lon="5.40114">
        <ele>510.39999389648</ele>
        <time>2021-03-06T15:06:14.000Z</time>
      </trkpt>
      <trkpt lat="46.47792" lon="5.40086">
        <ele>509</ele>
        <time>2021-03-06T15:06:16.000Z</time>
      </trkpt>
      <trkpt lat="46.47792" lon="5.40058">
        <ele>508.39999389648</ele>
        <time>2021-03-06T15:06:18.000Z</time>
      </trkpt>
      <trkpt lat="46.47792" lon="5.40046">
        <ele>507.79998779297</ele>
        <time>2021-03-06T15:06:19.000Z</time>
      </trkpt>
      <trkpt lat="46.47793" lon="5.40029">
        <ele>506.79998779297</ele>
        <time>2021-03-06T15:06:20.000Z</time>
      </trkpt>
      <trkpt lat="46.47796" lon="5.40016">
        <ele>506.20001220703</ele>
        <time>2021-03-06T15:06:21.000Z</time>
      </trkpt>
      <trkpt lat="46.47802" lon="5.40006">
        <ele>506</ele>
        <time>2021-03-06T15:06:22.000Z</time>
      </trkpt>
      <trkpt lat="46.47807" lon="5.4">
        <ele>505.60000610352</ele>
        <time>2021-03-06T15:06:23.000Z</time>
      </trkpt>
      <trkpt lat="46.47816" lon="5.39994">
        <ele>505.39999389648</ele>
        <time>2021-03-06T15:06:24.000Z</time>
      </trkpt>
      <trkpt lat="46.47829" lon="5.39989">
        <ele>504.60000610352</ele>
        <time>2021-03-06T15:06:25.000Z</time>
      </trkpt>
      <trkpt lat="46.47839" lon="5.39984">
        <ele>504.39999389648</ele>
        <time>2021-03-06T15:06:26.000Z</time>
      </trkpt>
      <trkpt lat="46.4785" lon="5.39978">
        <ele>503.20001220703</ele>
        <time>2021-03-06T15:06:27.000Z</time>
      </trkpt>
      <trkpt lat="46.47869" lon="5.39968">
        <ele>501</ele>
        <time>2021-03-06T15:06:29.000Z</time>
      </trkpt>
      <trkpt lat="46.47882" lon="5.39961">
        <ele>499.79998779297</ele>
        <time>2021-03-06T15:06:30.000Z</time>
      </trkpt>
      <trkpt lat="46.47893" lon="5.39955">
        <ele>499.39999389648</ele>
        <time>2021-03-06T15:06:31.000Z</time>
      </trkpt>
      <trkpt lat="46.47904" lon="5.39949">
        <ele>498</ele>
        <time>2021-03-06T15:06:32.000Z</time>
      </trkpt>
      <trkpt lat="46.47923" lon="5.39938">
        <ele>495.60000610352</ele>
        <time>2021-03-06T15:06:34.000Z</time>
      </trkpt>
      <trkpt lat="46.47947" lon="5.39925">
        <ele>494.20001220703</ele>
        <time>2021-03-06T15:06:36.000Z</time>
      </trkpt>
      <trkpt lat="46.47976" lon="5.39909">
        <ele>492.79998779297</ele>
        <time>2021-03-06T15:06:39.000Z</time>
      </trkpt>
      <trkpt lat="46.47986" lon="5.39904">
        <ele>492.39999389648</ele>
        <time>2021-03-06T15:06:40.000Z</time>
      </trkpt>
      <trkpt lat="46.47996" lon="5.39899">
        <ele>491.79998779297</ele>
        <time>2021-03-06T15:06:41.000Z</time>
      </trkpt>
      <trkpt lat="46.48025" lon="5.39887">
        <ele>490.60000610352</ele>
        <time>2021-03-06T15:06:44.000Z</time>
      </trkpt>
      <trkpt lat="46.48035" lon="5.39885">
        <ele>490.20001220703</ele>
        <time>2021-03-06T15:06:45.000Z</time>
      </trkpt>
      <trkpt lat="46.48053" lon="5.39889">
        <ele>490</ele>
        <time>2021-03-06T15:06:47.000Z</time>
      </trkpt>
      <trkpt lat="46.48063" lon="5.39896">
        <ele>490</ele>
        <time>2021-03-06T15:06:48.000Z</time>
      </trkpt>
      <trkpt lat="46.48086" lon="5.39911">
        <ele>490.20001220703</ele>
        <time>2021-03-06T15:06:51.000Z</time>
      </trkpt>
      <trkpt lat="46.48104" lon="5.39915">
        <ele>490.39999389648</ele>
        <time>2021-03-06T15:06:53.000Z</time>
      </trkpt>
      <trkpt lat="46.48126" lon="5.39913">
        <ele>491</ele>
        <time>2021-03-06T15:06:56.000Z</time>
      </trkpt>
      <trkpt lat="46.48143" lon="5.39909">
        <ele>491.20001220703</ele>
        <time>2021-03-06T15:06:58.000Z</time>
      </trkpt>
      <trkpt lat="46.48179" lon="5.39891">
        <ele>491.39999389648</ele>
        <time>2021-03-06T15:07:03.000Z</time>
      </trkpt>
      <trkpt lat="46.48205" lon="5.39873">
        <ele>491.39999389648</ele>
        <time>2021-03-06T15:07:07.000Z</time>
      </trkpt>
      <trkpt lat="46.48211" lon="5.39866">
        <ele>491.39999389648</ele>
        <time>2021-03-06T15:07:08.000Z</time>
      </trkpt>
      <trkpt lat="46.48215" lon="5.39857">
        <ele>491.39999389648</ele>
        <time>2021-03-06T15:07:09.000Z</time>
      </trkpt>
      <trkpt lat="46.48217" lon="5.39838">
        <ele>491.39999389648</ele>
        <time>2021-03-06T15:07:11.000Z</time>
      </trkpt>
      <trkpt lat="46.48209" lon="5.39793">
        <ele>491.20001220703</ele>
        <time>2021-03-06T15:07:15.000Z</time>
      </trkpt>
      <trkpt lat="46.48195" lon="5.39716">
        <ele>490.20001220703</ele>
        <time>2021-03-06T15:07:22.000Z</time>
      </trkpt>
      <trkpt lat="46.48194" lon="5.39689">
        <ele>489.79998779297</ele>
        <time>2021-03-06T15:07:24.000Z</time>
      </trkpt>
      <trkpt lat="46.48194" lon="5.39677">
        <ele>489.60000610352</ele>
        <time>2021-03-06T15:07:25.000Z</time>
      </trkpt>
      <trkpt lat="46.48196" lon="5.39653">
        <ele>489.20001220703</ele>
        <time>2021-03-06T15:07:27.000Z</time>
      </trkpt>
      <trkpt lat="46.48199" lon="5.39638">
        <ele>489.20001220703</ele>
        <time>2021-03-06T15:07:28.000Z</time>
      </trkpt>
      <trkpt lat="46.48203" lon="5.39626">
        <ele>488.39999389648</ele>
        <time>2021-03-06T15:07:29.000Z</time>
      </trkpt>
      <trkpt lat="46.48217" lon="5.39592">
        <ele>486.60000610352</ele>
        <time>2021-03-06T15:07:32.000Z</time>
      </trkpt>
      <trkpt lat="46.48222" lon="5.39576">
        <ele>485.79998779297</ele>
        <time>2021-03-06T15:07:33.000Z</time>
      </trkpt>
      <trkpt lat="46.48226" lon="5.39561">
        <ele>484.79998779297</ele>
        <time>2021-03-06T15:07:34.000Z</time>
      </trkpt>
      <trkpt lat="46.48229" lon="5.39547">
        <ele>484.39999389648</ele>
        <time>2021-03-06T15:07:35.000Z</time>
      </trkpt>
      <trkpt lat="46.48231" lon="5.39529">
        <ele>483.60000610352</ele>
        <time>2021-03-06T15:07:36.000Z</time>
      </trkpt>
      <trkpt lat="46.48237" lon="5.39503">
        <ele>482.20001220703</ele>
        <time>2021-03-06T15:07:38.000Z</time>
      </trkpt>
      <trkpt lat="46.48243" lon="5.39491">
        <ele>482</ele>
        <time>2021-03-06T15:07:39.000Z</time>
      </trkpt>
      <trkpt lat="46.4825" lon="5.39478">
        <ele>480.79998779297</ele>
        <time>2021-03-06T15:07:40.000Z</time>
      </trkpt>
      <trkpt lat="46.48255" lon="5.39472">
        <ele>479.20001220703</ele>
        <time>2021-03-06T15:07:41.000Z</time>
      </trkpt>
      <trkpt lat="46.48263" lon="5.39466">
        <ele>478</ele>
        <time>2021-03-06T15:07:42.000Z</time>
      </trkpt>
      <trkpt lat="46.48272" lon="5.39464">
        <ele>475.60000610352</ele>
        <time>2021-03-06T15:07:43.000Z</time>
      </trkpt>
      <trkpt lat="46.48283" lon="5.39464">
        <ele>474.79998779297</ele>
        <time>2021-03-06T15:07:44.000Z</time>
      </trkpt>
      <trkpt lat="46.48292" lon="5.39465">
        <ele>474</ele>
        <time>2021-03-06T15:07:45.000Z</time>
      </trkpt>
      <trkpt lat="46.48299" lon="5.39462">
        <ele>473.60000610352</ele>
        <time>2021-03-06T15:07:46.000Z</time>
      </trkpt>
      <trkpt lat="46.48305" lon="5.39455">
        <ele>472.60000610352</ele>
        <time>2021-03-06T15:07:47.000Z</time>
      </trkpt>
      <trkpt lat="46.48309" lon="5.39447">
        <ele>471.79998779297</ele>
        <time>2021-03-06T15:07:48.000Z</time>
      </trkpt>
      <trkpt lat="46.48315" lon="5.39434">
        <ele>471.39999389648</ele>
        <time>2021-03-06T15:07:49.000Z</time>
      </trkpt>
      <trkpt lat="46.48318" lon="5.39419">
        <ele>470.60000610352</ele>
        <time>2021-03-06T15:07:50.000Z</time>
      </trkpt>
      <trkpt lat="46.48322" lon="5.39405">
        <ele>470.20001220703</ele>
        <time>2021-03-06T15:07:51.000Z</time>
      </trkpt>
      <trkpt lat="46.48326" lon="5.3939">
        <ele>470</ele>
        <time>2021-03-06T15:07:52.000Z</time>
      </trkpt>
      <trkpt lat="46.48338" lon="5.39364">
        <ele>468.39999389648</ele>
        <time>2021-03-06T15:07:54.000Z</time>
      </trkpt>
      <trkpt lat="46.48355" lon="5.39341">
        <ele>465.79998779297</ele>
        <time>2021-03-06T15:07:56.000Z</time>
      </trkpt>
      <trkpt lat="46.48364" lon="5.39332">
        <ele>464.39999389648</ele>
        <time>2021-03-06T15:07:57.000Z</time>
      </trkpt>
      <trkpt lat="46.48371" lon="5.39328">
        <ele>464.20001220703</ele>
        <time>2021-03-06T15:07:58.000Z</time>
      </trkpt>
      <trkpt lat="46.48382" lon="5.39326">
        <ele>463.20001220703</ele>
        <time>2021-03-06T15:07:59.000Z</time>
      </trkpt>
      <trkpt lat="46.48394" lon="5.39326">
        <ele>462.60000610352</ele>
        <time>2021-03-06T15:08:00.000Z</time>
      </trkpt>
      <trkpt lat="46.48406" lon="5.39328">
        <ele>461</ele>
        <time>2021-03-06T15:08:01.000Z</time>
      </trkpt>
      <trkpt lat="46.48429" lon="5.3933">
        <ele>458.60000610352</ele>
        <time>2021-03-06T15:08:03.000Z</time>
      </trkpt>
      <trkpt lat="46.48441" lon="5.39328">
        <ele>456.79998779297</ele>
        <time>2021-03-06T15:08:04.000Z</time>
      </trkpt>
      <trkpt lat="46.48471" lon="5.39322">
        <ele>454.79998779297</ele>
        <time>2021-03-06T15:08:06.000Z</time>
      </trkpt>
      <trkpt lat="46.48497" lon="5.39316">
        <ele>452.79998779297</ele>
        <time>2021-03-06T15:08:08.000Z</time>
      </trkpt>
      <trkpt lat="46.48523" lon="5.39309">
        <ele>450.39999389648</ele>
        <time>2021-03-06T15:08:10.000Z</time>
      </trkpt>
      <trkpt lat="46.48539" lon="5.39304">
        <ele>449.39999389648</ele>
        <time>2021-03-06T15:08:11.000Z</time>
      </trkpt>
      <trkpt lat="46.48553" lon="5.393">
        <ele>447.60000610352</ele>
        <time>2021-03-06T15:08:12.000Z</time>
      </trkpt>
      <trkpt lat="46.4858" lon="5.39296">
        <ele>446.20001220703</ele>
        <time>2021-03-06T15:08:14.000Z</time>
      </trkpt>
      <trkpt lat="46.48596" lon="5.39292">
        <ele>445.39999389648</ele>
        <time>2021-03-06T15:08:15.000Z</time>
      </trkpt>
      <trkpt lat="46.48609" lon="5.39288">
        <ele>445</ele>
        <time>2021-03-06T15:08:16.000Z</time>
      </trkpt>
      <trkpt lat="46.48633" lon="5.39284">
        <ele>443.79998779297</ele>
        <time>2021-03-06T15:08:18.000Z</time>
      </trkpt>
      <trkpt lat="46.48646" lon="5.39282">
        <ele>442.60000610352</ele>
        <time>2021-03-06T15:08:19.000Z</time>
      </trkpt>
      <trkpt lat="46.48659" lon="5.39282">
        <ele>441</ele>
        <time>2021-03-06T15:08:20.000Z</time>
      </trkpt>
      <trkpt lat="46.48674" lon="5.39284">
        <ele>440.39999389648</ele>
        <time>2021-03-06T15:08:21.000Z</time>
      </trkpt>
      <trkpt lat="46.48686" lon="5.39286">
        <ele>439.20001220703</ele>
        <time>2021-03-06T15:08:22.000Z</time>
      </trkpt>
      <trkpt lat="46.48698" lon="5.3929">
        <ele>437.20001220703</ele>
        <time>2021-03-06T15:08:23.000Z</time>
      </trkpt>
      <trkpt lat="46.48709" lon="5.39296">
        <ele>435.20001220703</ele>
        <time>2021-03-06T15:08:24.000Z</time>
      </trkpt>
      <trkpt lat="46.48727" lon="5.39308">
        <ele>433.39999389648</ele>
        <time>2021-03-06T15:08:26.000Z</time>
      </trkpt>
      <trkpt lat="46.48736" lon="5.39312">
        <ele>433</ele>
        <time>2021-03-06T15:08:27.000Z</time>
      </trkpt>
      <trkpt lat="46.48743" lon="5.39311">
        <ele>432.39999389648</ele>
        <time>2021-03-06T15:08:28.000Z</time>
      </trkpt>
      <trkpt lat="46.48748" lon="5.39305">
        <ele>432</ele>
        <time>2021-03-06T15:08:29.000Z</time>
      </trkpt>
      <trkpt lat="46.48751" lon="5.39295">
        <ele>431.60000610352</ele>
        <time>2021-03-06T15:08:30.000Z</time>
      </trkpt>
      <trkpt lat="46.48751" lon="5.39282">
        <ele>431</ele>
        <time>2021-03-06T15:08:31.000Z</time>
      </trkpt>
      <trkpt lat="46.48745" lon="5.39273">
        <ele>430.60000610352</ele>
        <time>2021-03-06T15:08:32.000Z</time>
      </trkpt>
      <trkpt lat="46.48743" lon="5.39263">
        <ele>430</ele>
        <time>2021-03-06T15:08:33.000Z</time>
      </trkpt>
      <trkpt lat="46.4874" lon="5.39256">
        <ele>429.60000610352</ele>
        <time>2021-03-06T15:08:34.000Z</time>
      </trkpt>
      <trkpt lat="46.4872" lon="5.39244">
        <ele>428.79998779297</ele>
        <time>2021-03-06T15:08:35.000Z</time>
      </trkpt>
      <trkpt lat="46.48706" lon="5.39231">
        <ele>427.60000610352</ele>
        <time>2021-03-06T15:08:36.000Z</time>
      </trkpt>
      <trkpt lat="46.48684" lon="5.39204">
        <ele>424.20001220703</ele>
        <time>2021-03-06T15:08:38.000Z</time>
      </trkpt>
      <trkpt lat="46.48665" lon="5.39176">
        <ele>422</ele>
        <time>2021-03-06T15:08:40.000Z</time>
      </trkpt>
      <trkpt lat="46.48647" lon="5.39151">
        <ele>420.39999389648</ele>
        <time>2021-03-06T15:08:42.000Z</time>
      </trkpt>
      <trkpt lat="46.48634" lon="5.39137">
        <ele>419.60000610352</ele>
        <time>2021-03-06T15:08:43.000Z</time>
      </trkpt>
      <trkpt lat="46.48622" lon="5.39127">
        <ele>418.60000610352</ele>
        <time>2021-03-06T15:08:44.000Z</time>
      </trkpt>
      <trkpt lat="46.48595" lon="5.39108">
        <ele>417</ele>
        <time>2021-03-06T15:08:46.000Z</time>
      </trkpt>
      <trkpt lat="46.48581" lon="5.39098">
        <ele>415.39999389648</ele>
        <time>2021-03-06T15:08:47.000Z</time>
      </trkpt>
      <trkpt lat="46.48571" lon="5.39092">
        <ele>414</ele>
        <time>2021-03-06T15:08:48.000Z</time>
      </trkpt>
      <trkpt lat="46.48558" lon="5.39083">
        <ele>412.39999389648</ele>
        <time>2021-03-06T15:08:49.000Z</time>
      </trkpt>
      <trkpt lat="46.48531" lon="5.39067">
        <ele>410.60000610352</ele>
        <time>2021-03-06T15:08:51.000Z</time>
      </trkpt>
      <trkpt lat="46.48519" lon="5.39057">
        <ele>409.39999389648</ele>
        <time>2021-03-06T15:08:52.000Z</time>
      </trkpt>
      <trkpt lat="46.4851" lon="5.39042">
        <ele>409</ele>
        <time>2021-03-06T15:08:53.000Z</time>
      </trkpt>
      <trkpt lat="46.48503" lon="5.39023">
        <ele>406.39999389648</ele>
        <time>2021-03-06T15:08:54.000Z</time>
      </trkpt>
      <trkpt lat="46.48499" lon="5.39001">
        <ele>405.60000610352</ele>
        <time>2021-03-06T15:08:55.000Z</time>
      </trkpt>
      <trkpt lat="46.48494" lon="5.38983">
        <ele>404</ele>
        <time>2021-03-06T15:08:56.000Z</time>
      </trkpt>
      <trkpt lat="46.48488" lon="5.38967">
        <ele>403</ele>
        <time>2021-03-06T15:08:57.000Z</time>
      </trkpt>
      <trkpt lat="46.48481" lon="5.38951">
        <ele>401.39999389648</ele>
        <time>2021-03-06T15:08:58.000Z</time>
      </trkpt>
      <trkpt lat="46.48465" lon="5.38921">
        <ele>399.20001220703</ele>
        <time>2021-03-06T15:09:00.000Z</time>
      </trkpt>
      <trkpt lat="46.4846" lon="5.38907">
        <ele>398.39999389648</ele>
        <time>2021-03-06T15:09:01.000Z</time>
      </trkpt>
      <trkpt lat="46.48458" lon="5.38891">
        <ele>397.79998779297</ele>
        <time>2021-03-06T15:09:02.000Z</time>
      </trkpt>
      <trkpt lat="46.48461" lon="5.38876">
        <ele>397</ele>
        <time>2021-03-06T15:09:03.000Z</time>
      </trkpt>
      <trkpt lat="46.48466" lon="5.38864">
        <ele>396.60000610352</ele>
        <time>2021-03-06T15:09:04.000Z</time>
      </trkpt>
      <trkpt lat="46.48477" lon="5.38855">
        <ele>395.39999389648</ele>
        <time>2021-03-06T15:09:05.000Z</time>
      </trkpt>
      <trkpt lat="46.48486" lon="5.38847">
        <ele>395</ele>
        <time>2021-03-06T15:09:06.000Z</time>
      </trkpt>
      <trkpt lat="46.48496" lon="5.3884">
        <ele>394.39999389648</ele>
        <time>2021-03-06T15:09:07.000Z</time>
      </trkpt>
      <trkpt lat="46.48515" lon="5.38827">
        <ele>393.60000610352</ele>
        <time>2021-03-06T15:09:09.000Z</time>
      </trkpt>
      <trkpt lat="46.48525" lon="5.3882">
        <ele>392.39999389648</ele>
        <time>2021-03-06T15:09:10.000Z</time>
      </trkpt>
      <trkpt lat="46.48545" lon="5.38807">
        <ele>390.39999389648</ele>
        <time>2021-03-06T15:09:12.000Z</time>
      </trkpt>
      <trkpt lat="46.48566" lon="5.38793">
        <ele>388.79998779297</ele>
        <time>2021-03-06T15:09:14.000Z</time>
      </trkpt>
      <trkpt lat="46.48575" lon="5.38786">
        <ele>388.60000610352</ele>
        <time>2021-03-06T15:09:15.000Z</time>
      </trkpt>
      <trkpt lat="46.48584" lon="5.38781">
        <ele>387.79998779297</ele>
        <time>2021-03-06T15:09:16.000Z</time>
      </trkpt>
      <trkpt lat="46.48592" lon="5.38778">
        <ele>386.20001220703</ele>
        <time>2021-03-06T15:09:17.000Z</time>
      </trkpt>
      <trkpt lat="46.48601" lon="5.38777">
        <ele>385.60000610352</ele>
        <time>2021-03-06T15:09:18.000Z</time>
      </trkpt>
      <trkpt lat="46.48608" lon="5.38779">
        <ele>384.79998779297</ele>
        <time>2021-03-06T15:09:19.000Z</time>
      </trkpt>
      <trkpt lat="46.48622" lon="5.38777">
        <ele>383.79998779297</ele>
        <time>2021-03-06T15:09:21.000Z</time>
      </trkpt>
      <trkpt lat="46.48628" lon="5.38771">
        <ele>383.39999389648</ele>
        <time>2021-03-06T15:09:22.000Z</time>
      </trkpt>
      <trkpt lat="46.48634" lon="5.38761">
        <ele>382.79998779297</ele>
        <time>2021-03-06T15:09:23.000Z</time>
      </trkpt>
      <trkpt lat="46.48639" lon="5.38749">
        <ele>381.79998779297</ele>
        <time>2021-03-06T15:09:24.000Z</time>
      </trkpt>
      <trkpt lat="46.48643" lon="5.38735">
        <ele>381.39999389648</ele>
        <time>2021-03-06T15:09:25.000Z</time>
      </trkpt>
      <trkpt lat="46.48647" lon="5.3872">
        <ele>380.60000610352</ele>
        <time>2021-03-06T15:09:26.000Z</time>
      </trkpt>
      <trkpt lat="46.4865" lon="5.38705">
        <ele>380.39999389648</ele>
        <time>2021-03-06T15:09:27.000Z</time>
      </trkpt>
      <trkpt lat="46.48651" lon="5.38689">
        <ele>378.79998779297</ele>
        <time>2021-03-06T15:09:28.000Z</time>
      </trkpt>
      <trkpt lat="46.48651" lon="5.38673">
        <ele>377.79998779297</ele>
        <time>2021-03-06T15:09:29.000Z</time>
      </trkpt>
      <trkpt lat="46.4865" lon="5.38657">
        <ele>376.20001220703</ele>
        <time>2021-03-06T15:09:30.000Z</time>
      </trkpt>
      <trkpt lat="46.48643" lon="5.38626">
        <ele>374.79998779297</ele>
        <time>2021-03-06T15:09:32.000Z</time>
      </trkpt>
      <trkpt lat="46.48639" lon="5.3861">
        <ele>373.60000610352</ele>
        <time>2021-03-06T15:09:33.000Z</time>
      </trkpt>
      <trkpt lat="46.48635" lon="5.38595">
        <ele>373.20001220703</ele>
        <time>2021-03-06T15:09:34.000Z</time>
      </trkpt>
      <trkpt lat="46.48635" lon="5.38595">
        <ele>372.39999389648</ele>
        <time>2021-03-06T15:09:35.000Z</time>
      </trkpt>
      <trkpt lat="46.48622" lon="5.38547">
        <ele>371</ele>
        <time>2021-03-06T15:09:37.000Z</time>
      </trkpt>
      <trkpt lat="46.48613" lon="5.38516">
        <ele>369.79998779297</ele>
        <time>2021-03-06T15:09:39.000Z</time>
      </trkpt>
      <trkpt lat="46.48601" lon="5.38486">
        <ele>368.39999389648</ele>
        <time>2021-03-06T15:09:41.000Z</time>
      </trkpt>
    </trkseg>
  </trk>
</gpx>